<?xml version="1.0" encoding="UTF-8" standalone="no" ?>
<gpx xmlns="http://www.topografix.com/GPX/1/1" xmlns:xsi="http://www.w3.org/2001/XMLSchema-instance" xsi:schemaLocation="http://www.topografix.com/GPX/1/1 http://www.topografix.com/GPX/1/1/gpx.xsd" version="1.1" creator="VisuGPX - https://www.visugpx.com">
  <metadata>
    <name>trace transvésubienne</name>
    <desc><![CDATA[La trace de la transvésubienne 2012]]></desc>
  </metadata>
  <trk>
    <name><![CDATA[trace david]]></name>
    <trkseg>
      <trkpt lat="44.07059" lon="7.22349">
        <ele>1523</ele>
        <time>2012-05-27T04:47:26Z</time>
      </trkpt>
      <trkpt lat="44.07065" lon="7.22359">
        <ele>1521.5</ele>
        <time>2012-05-27T04:59:13Z</time>
      </trkpt>
      <trkpt lat="44.07058" lon="7.22403">
        <ele>1518.1</ele>
        <time>2012-05-27T04:59:20Z</time>
      </trkpt>
      <trkpt lat="44.07056" lon="7.22412">
        <ele>1517.4</ele>
        <time>2012-05-27T04:59:21Z</time>
      </trkpt>
      <trkpt lat="44.0705" lon="7.22431">
        <ele>1516.1</ele>
        <time>2012-05-27T04:59:23Z</time>
      </trkpt>
      <trkpt lat="44.0704" lon="7.22466">
        <ele>1513.2</ele>
        <time>2012-05-27T04:59:28Z</time>
      </trkpt>
      <trkpt lat="44.07033" lon="7.22485">
        <ele>1513.3</ele>
        <time>2012-05-27T04:59:32Z</time>
      </trkpt>
      <trkpt lat="44.07037" lon="7.22518">
        <ele>1507.7</ele>
        <time>2012-05-27T04:59:36Z</time>
      </trkpt>
      <trkpt lat="44.07036" lon="7.22538">
        <ele>1504.2</ele>
        <time>2012-05-27T04:59:38Z</time>
      </trkpt>
      <trkpt lat="44.07028" lon="7.22559">
        <ele>1501.8</ele>
        <time>2012-05-27T04:59:40Z</time>
      </trkpt>
      <trkpt lat="44.07006" lon="7.22607">
        <ele>1497.6</ele>
        <time>2012-05-27T04:59:44Z</time>
      </trkpt>
      <trkpt lat="44.06996" lon="7.22635">
        <ele>1494.4</ele>
        <time>2012-05-27T04:59:46Z</time>
      </trkpt>
      <trkpt lat="44.06985" lon="7.22668">
        <ele>1490.8</ele>
        <time>2012-05-27T04:59:48Z</time>
      </trkpt>
      <trkpt lat="44.06963" lon="7.22731">
        <ele>1481.9</ele>
        <time>2012-05-27T04:59:52Z</time>
      </trkpt>
      <trkpt lat="44.06951" lon="7.2276">
        <ele>1477</ele>
        <time>2012-05-27T04:59:54Z</time>
      </trkpt>
      <trkpt lat="44.06939" lon="7.22787">
        <ele>1472</ele>
        <time>2012-05-27T04:59:56Z</time>
      </trkpt>
      <trkpt lat="44.06932" lon="7.22799">
        <ele>1469.3</ele>
        <time>2012-05-27T04:59:57Z</time>
      </trkpt>
      <trkpt lat="44.06919" lon="7.2282">
        <ele>1463.6</ele>
        <time>2012-05-27T04:59:59Z</time>
      </trkpt>
      <trkpt lat="44.06912" lon="7.22829">
        <ele>1461</ele>
        <time>2012-05-27T05:00:00Z</time>
      </trkpt>
      <trkpt lat="44.06905" lon="7.22836">
        <ele>1458.6</ele>
        <time>2012-05-27T05:00:01Z</time>
      </trkpt>
      <trkpt lat="44.06896" lon="7.22842">
        <ele>1456.6</ele>
        <time>2012-05-27T05:00:02Z</time>
      </trkpt>
      <trkpt lat="44.06887" lon="7.22847">
        <ele>1455.1</ele>
        <time>2012-05-27T05:00:03Z</time>
      </trkpt>
      <trkpt lat="44.06878" lon="7.2285">
        <ele>1453.9</ele>
        <time>2012-05-27T05:00:04Z</time>
      </trkpt>
      <trkpt lat="44.06861" lon="7.22855">
        <ele>1452.6</ele>
        <time>2012-05-27T05:00:06Z</time>
      </trkpt>
      <trkpt lat="44.0684" lon="7.22858">
        <ele>1452.4</ele>
        <time>2012-05-27T05:00:09Z</time>
      </trkpt>
      <trkpt lat="44.06832" lon="7.22859">
        <ele>1452.6</ele>
        <time>2012-05-27T05:00:11Z</time>
      </trkpt>
      <trkpt lat="44.06818" lon="7.2286">
        <ele>1453.2</ele>
        <time>2012-05-27T05:00:14Z</time>
      </trkpt>
      <trkpt lat="44.0681" lon="7.2286">
        <ele>1454</ele>
        <time>2012-05-27T05:00:16Z</time>
      </trkpt>
      <trkpt lat="44.06794" lon="7.22859">
        <ele>1455.8</ele>
        <time>2012-05-27T05:00:20Z</time>
      </trkpt>
      <trkpt lat="44.06762" lon="7.22849">
        <ele>1460.2</ele>
        <time>2012-05-27T05:00:28Z</time>
      </trkpt>
      <trkpt lat="44.0675" lon="7.22847">
        <ele>1461.5</ele>
        <time>2012-05-27T05:00:32Z</time>
      </trkpt>
      <trkpt lat="44.06743" lon="7.22845">
        <ele>1462.1</ele>
        <time>2012-05-27T05:00:34Z</time>
      </trkpt>
      <trkpt lat="44.06729" lon="7.22838">
        <ele>1463.7</ele>
        <time>2012-05-27T05:00:38Z</time>
      </trkpt>
      <trkpt lat="44.06718" lon="7.2283">
        <ele>1465.2</ele>
        <time>2012-05-27T05:00:42Z</time>
      </trkpt>
      <trkpt lat="44.06703" lon="7.22824">
        <ele>1466.3</ele>
        <time>2012-05-27T05:00:47Z</time>
      </trkpt>
      <trkpt lat="44.06694" lon="7.22822">
        <ele>1467.1</ele>
        <time>2012-05-27T05:00:50Z</time>
      </trkpt>
      <trkpt lat="44.06686" lon="7.22817">
        <ele>1467.9</ele>
        <time>2012-05-27T05:00:53Z</time>
      </trkpt>
      <trkpt lat="44.06678" lon="7.22814">
        <ele>1468.6</ele>
        <time>2012-05-27T05:00:56Z</time>
      </trkpt>
      <trkpt lat="44.06661" lon="7.22808">
        <ele>1469.3</ele>
        <time>2012-05-27T05:01:02Z</time>
      </trkpt>
      <trkpt lat="44.06648" lon="7.22802">
        <ele>1469.3</ele>
        <time>2012-05-27T05:01:08Z</time>
      </trkpt>
      <trkpt lat="44.06616" lon="7.22786">
        <ele>1469.9</ele>
        <time>2012-05-27T05:01:23Z</time>
      </trkpt>
      <trkpt lat="44.06608" lon="7.22783">
        <ele>1471.9</ele>
        <time>2012-05-27T05:01:28Z</time>
      </trkpt>
      <trkpt lat="44.06593" lon="7.22775">
        <ele>1474.9</ele>
        <time>2012-05-27T05:01:37Z</time>
      </trkpt>
      <trkpt lat="44.06579" lon="7.22765">
        <ele>1477.3</ele>
        <time>2012-05-27T05:01:46Z</time>
      </trkpt>
      <trkpt lat="44.06564" lon="7.22753">
        <ele>1478.7</ele>
        <time>2012-05-27T05:01:56Z</time>
      </trkpt>
      <trkpt lat="44.06554" lon="7.22736">
        <ele>1478.6</ele>
        <time>2012-05-27T05:02:06Z</time>
      </trkpt>
      <trkpt lat="44.06544" lon="7.22717">
        <ele>1477.2</ele>
        <time>2012-05-27T05:02:14Z</time>
      </trkpt>
      <trkpt lat="44.06524" lon="7.22682">
        <ele>1481.9</ele>
        <time>2012-05-27T05:02:26Z</time>
      </trkpt>
      <trkpt lat="44.0651" lon="7.22653">
        <ele>1487.1</ele>
        <time>2012-05-27T05:02:35Z</time>
      </trkpt>
      <trkpt lat="44.065" lon="7.22634">
        <ele>1489.8</ele>
        <time>2012-05-27T05:02:41Z</time>
      </trkpt>
      <trkpt lat="44.06493" lon="7.22615">
        <ele>1492.8</ele>
        <time>2012-05-27T05:02:48Z</time>
      </trkpt>
      <trkpt lat="44.06484" lon="7.22596">
        <ele>1496.7</ele>
        <time>2012-05-27T05:02:58Z</time>
      </trkpt>
      <trkpt lat="44.0647" lon="7.22572">
        <ele>1500</ele>
        <time>2012-05-27T05:03:12Z</time>
      </trkpt>
      <trkpt lat="44.06463" lon="7.22554">
        <ele>1503.2</ele>
        <time>2012-05-27T05:03:22Z</time>
      </trkpt>
      <trkpt lat="44.0645" lon="7.2253">
        <ele>1506.7</ele>
        <time>2012-05-27T05:03:36Z</time>
      </trkpt>
      <trkpt lat="44.06444" lon="7.22521">
        <ele>1508.3</ele>
        <time>2012-05-27T05:03:41Z</time>
      </trkpt>
      <trkpt lat="44.06434" lon="7.22504">
        <ele>1511.7</ele>
        <time>2012-05-27T05:03:50Z</time>
      </trkpt>
      <trkpt lat="44.0643" lon="7.22495">
        <ele>1513.3</ele>
        <time>2012-05-27T05:03:54Z</time>
      </trkpt>
      <trkpt lat="44.06421" lon="7.22478">
        <ele>1516.8</ele>
        <time>2012-05-27T05:04:02Z</time>
      </trkpt>
      <trkpt lat="44.06415" lon="7.22458">
        <ele>1520.9</ele>
        <time>2012-05-27T05:04:11Z</time>
      </trkpt>
      <trkpt lat="44.06411" lon="7.22447">
        <ele>1523.3</ele>
        <time>2012-05-27T05:04:16Z</time>
      </trkpt>
      <trkpt lat="44.06404" lon="7.22426">
        <ele>1527.8</ele>
        <time>2012-05-27T05:04:26Z</time>
      </trkpt>
      <trkpt lat="44.064" lon="7.22404">
        <ele>1531.9</ele>
        <time>2012-05-27T05:04:36Z</time>
      </trkpt>
      <trkpt lat="44.06399" lon="7.22393">
        <ele>1533.7</ele>
        <time>2012-05-27T05:04:41Z</time>
      </trkpt>
      <trkpt lat="44.06394" lon="7.22371">
        <ele>1537.5</ele>
        <time>2012-05-27T05:04:52Z</time>
      </trkpt>
      <trkpt lat="44.0639" lon="7.22348">
        <ele>1540</ele>
        <time>2012-05-27T05:05:04Z</time>
      </trkpt>
      <trkpt lat="44.06382" lon="7.22313">
        <ele>1543.3</ele>
        <time>2012-05-27T05:05:22Z</time>
      </trkpt>
      <trkpt lat="44.06378" lon="7.223">
        <ele>1544.2</ele>
        <time>2012-05-27T05:05:29Z</time>
      </trkpt>
      <trkpt lat="44.06371" lon="7.22254">
        <ele>1547.5</ele>
        <time>2012-05-27T05:05:52Z</time>
      </trkpt>
      <trkpt lat="44.0637" lon="7.22241">
        <ele>1548.3</ele>
        <time>2012-05-27T05:05:58Z</time>
      </trkpt>
      <trkpt lat="44.06367" lon="7.22219">
        <ele>1549.6</ele>
        <time>2012-05-27T05:06:09Z</time>
      </trkpt>
      <trkpt lat="44.06363" lon="7.22209">
        <ele>1551.4</ele>
        <time>2012-05-27T05:06:15Z</time>
      </trkpt>
      <trkpt lat="44.06358" lon="7.22187">
        <ele>1555.2</ele>
        <time>2012-05-27T05:06:27Z</time>
      </trkpt>
      <trkpt lat="44.06355" lon="7.22177">
        <ele>1557</ele>
        <time>2012-05-27T05:06:33Z</time>
      </trkpt>
      <trkpt lat="44.0635" lon="7.22154">
        <ele>1560.6</ele>
        <time>2012-05-27T05:06:46Z</time>
      </trkpt>
      <trkpt lat="44.06348" lon="7.22142">
        <ele>1562.2</ele>
        <time>2012-05-27T05:06:53Z</time>
      </trkpt>
      <trkpt lat="44.06345" lon="7.2213">
        <ele>1564.1</ele>
        <time>2012-05-27T05:07:00Z</time>
      </trkpt>
      <trkpt lat="44.06344" lon="7.22108">
        <ele>1568.7</ele>
        <time>2012-05-27T05:07:13Z</time>
      </trkpt>
      <trkpt lat="44.06341" lon="7.22085">
        <ele>1574.8</ele>
        <time>2012-05-27T05:07:29Z</time>
      </trkpt>
      <trkpt lat="44.06338" lon="7.22073">
        <ele>1578.5</ele>
        <time>2012-05-27T05:07:42Z</time>
      </trkpt>
      <trkpt lat="44.06324" lon="7.22068">
        <ele>1582.8</ele>
        <time>2012-05-27T05:08:04Z</time>
      </trkpt>
      <trkpt lat="44.06318" lon="7.22076">
        <ele>1582.6</ele>
        <time>2012-05-27T05:08:10Z</time>
      </trkpt>
      <trkpt lat="44.06297" lon="7.22111">
        <ele>1580.5</ele>
        <time>2012-05-27T05:08:30Z</time>
      </trkpt>
      <trkpt lat="44.06291" lon="7.22118">
        <ele>1580.4</ele>
        <time>2012-05-27T05:08:35Z</time>
      </trkpt>
      <trkpt lat="44.06279" lon="7.22136">
        <ele>1584.1</ele>
        <time>2012-05-27T05:08:47Z</time>
      </trkpt>
      <trkpt lat="44.06268" lon="7.22154">
        <ele>1588.2</ele>
        <time>2012-05-27T05:08:59Z</time>
      </trkpt>
      <trkpt lat="44.0626" lon="7.22171">
        <ele>1591</ele>
        <time>2012-05-27T05:09:09Z</time>
      </trkpt>
      <trkpt lat="44.06243" lon="7.22197">
        <ele>1596.1</ele>
        <time>2012-05-27T05:09:26Z</time>
      </trkpt>
      <trkpt lat="44.06233" lon="7.22213">
        <ele>1598.9</ele>
        <time>2012-05-27T05:09:36Z</time>
      </trkpt>
      <trkpt lat="44.06228" lon="7.22221">
        <ele>1600.1</ele>
        <time>2012-05-27T05:09:41Z</time>
      </trkpt>
      <trkpt lat="44.06216" lon="7.22235">
        <ele>1602.3</ele>
        <time>2012-05-27T05:09:51Z</time>
      </trkpt>
      <trkpt lat="44.06203" lon="7.2225">
        <ele>1604.4</ele>
        <time>2012-05-27T05:10:01Z</time>
      </trkpt>
      <trkpt lat="44.06195" lon="7.22257">
        <ele>1605.2</ele>
        <time>2012-05-27T05:10:06Z</time>
      </trkpt>
      <trkpt lat="44.0618" lon="7.22266">
        <ele>1607.7</ele>
        <time>2012-05-27T05:10:15Z</time>
      </trkpt>
      <trkpt lat="44.06166" lon="7.22272">
        <ele>1610.9</ele>
        <time>2012-05-27T05:10:23Z</time>
      </trkpt>
      <trkpt lat="44.06151" lon="7.22277">
        <ele>1614.1</ele>
        <time>2012-05-27T05:10:31Z</time>
      </trkpt>
      <trkpt lat="44.06144" lon="7.22279">
        <ele>1616</ele>
        <time>2012-05-27T05:10:35Z</time>
      </trkpt>
      <trkpt lat="44.06129" lon="7.22284">
        <ele>1619.5</ele>
        <time>2012-05-27T05:10:43Z</time>
      </trkpt>
      <trkpt lat="44.06116" lon="7.22292">
        <ele>1622.7</ele>
        <time>2012-05-27T05:10:51Z</time>
      </trkpt>
      <trkpt lat="44.06108" lon="7.22299">
        <ele>1624.2</ele>
        <time>2012-05-27T05:10:56Z</time>
      </trkpt>
      <trkpt lat="44.06098" lon="7.22312">
        <ele>1625.3</ele>
        <time>2012-05-27T05:11:03Z</time>
      </trkpt>
      <trkpt lat="44.0609" lon="7.2233">
        <ele>1624.9</ele>
        <time>2012-05-27T05:11:11Z</time>
      </trkpt>
      <trkpt lat="44.06085" lon="7.2235">
        <ele>1623</ele>
        <time>2012-05-27T05:11:18Z</time>
      </trkpt>
      <trkpt lat="44.06083" lon="7.22359">
        <ele>1621.9</ele>
        <time>2012-05-27T05:11:21Z</time>
      </trkpt>
      <trkpt lat="44.06075" lon="7.22398">
        <ele>1621</ele>
        <time>2012-05-27T05:11:34Z</time>
      </trkpt>
      <trkpt lat="44.06066" lon="7.22444">
        <ele>1624.5</ele>
        <time>2012-05-27T05:11:50Z</time>
      </trkpt>
      <trkpt lat="44.06062" lon="7.22454">
        <ele>1626</ele>
        <time>2012-05-27T05:11:54Z</time>
      </trkpt>
      <trkpt lat="44.06059" lon="7.22468">
        <ele>1627.3</ele>
        <time>2012-05-27T05:11:59Z</time>
      </trkpt>
      <trkpt lat="44.06055" lon="7.22488">
        <ele>1628.8</ele>
        <time>2012-05-27T05:12:06Z</time>
      </trkpt>
      <trkpt lat="44.06054" lon="7.225">
        <ele>1629.2</ele>
        <time>2012-05-27T05:12:10Z</time>
      </trkpt>
      <trkpt lat="44.06051" lon="7.22523">
        <ele>1630.1</ele>
        <time>2012-05-27T05:12:18Z</time>
      </trkpt>
      <trkpt lat="44.0605" lon="7.22547">
        <ele>1630.6</ele>
        <time>2012-05-27T05:12:26Z</time>
      </trkpt>
      <trkpt lat="44.06049" lon="7.2257">
        <ele>1631.9</ele>
        <time>2012-05-27T05:12:34Z</time>
      </trkpt>
      <trkpt lat="44.06049" lon="7.22593">
        <ele>1632.8</ele>
        <time>2012-05-27T05:12:42Z</time>
      </trkpt>
      <trkpt lat="44.06048" lon="7.22603">
        <ele>1633.4</ele>
        <time>2012-05-27T05:12:46Z</time>
      </trkpt>
      <trkpt lat="44.06048" lon="7.22623">
        <ele>1634.2</ele>
        <time>2012-05-27T05:12:54Z</time>
      </trkpt>
      <trkpt lat="44.06048" lon="7.22636">
        <ele>1635.2</ele>
        <time>2012-05-27T05:12:59Z</time>
      </trkpt>
      <trkpt lat="44.06048" lon="7.22658">
        <ele>1637.1</ele>
        <time>2012-05-27T05:13:08Z</time>
      </trkpt>
      <trkpt lat="44.06048" lon="7.22669">
        <ele>1638.1</ele>
        <time>2012-05-27T05:13:13Z</time>
      </trkpt>
      <trkpt lat="44.06049" lon="7.22705">
        <ele>1641.1</ele>
        <time>2012-05-27T05:13:28Z</time>
      </trkpt>
      <trkpt lat="44.06048" lon="7.2273">
        <ele>1642.2</ele>
        <time>2012-05-27T05:13:38Z</time>
      </trkpt>
      <trkpt lat="44.06048" lon="7.22754">
        <ele>1642.6</ele>
        <time>2012-05-27T05:13:48Z</time>
      </trkpt>
      <trkpt lat="44.06049" lon="7.22766">
        <ele>1642.9</ele>
        <time>2012-05-27T05:13:53Z</time>
      </trkpt>
      <trkpt lat="44.0605" lon="7.2281">
        <ele>1642</ele>
        <time>2012-05-27T05:14:11Z</time>
      </trkpt>
      <trkpt lat="44.06041" lon="7.22828">
        <ele>1641.4</ele>
        <time>2012-05-27T05:14:23Z</time>
      </trkpt>
      <trkpt lat="44.06033" lon="7.22824">
        <ele>1640.9</ele>
        <time>2012-05-27T05:14:29Z</time>
      </trkpt>
      <trkpt lat="44.06019" lon="7.22812">
        <ele>1641.6</ele>
        <time>2012-05-27T05:14:40Z</time>
      </trkpt>
      <trkpt lat="44.06007" lon="7.22796">
        <ele>1644.6</ele>
        <time>2012-05-27T05:14:54Z</time>
      </trkpt>
      <trkpt lat="44.06" lon="7.22787">
        <ele>1646.1</ele>
        <time>2012-05-27T05:15:05Z</time>
      </trkpt>
      <trkpt lat="44.05979" lon="7.22768">
        <ele>1649</ele>
        <time>2012-05-27T05:15:32Z</time>
      </trkpt>
      <trkpt lat="44.05966" lon="7.22752">
        <ele>1652.1</ele>
        <time>2012-05-27T05:15:54Z</time>
      </trkpt>
      <trkpt lat="44.0596" lon="7.22744">
        <ele>1653.9</ele>
        <time>2012-05-27T05:16:03Z</time>
      </trkpt>
      <trkpt lat="44.05955" lon="7.22734">
        <ele>1655.2</ele>
        <time>2012-05-27T05:16:12Z</time>
      </trkpt>
      <trkpt lat="44.0594" lon="7.2271">
        <ele>1656.3</ele>
        <time>2012-05-27T05:16:25Z</time>
      </trkpt>
      <trkpt lat="44.05931" lon="7.22692">
        <ele>1656.6</ele>
        <time>2012-05-27T05:16:33Z</time>
      </trkpt>
      <trkpt lat="44.05911" lon="7.22656">
        <ele>1658.8</ele>
        <time>2012-05-27T05:16:49Z</time>
      </trkpt>
      <trkpt lat="44.05891" lon="7.22619">
        <ele>1665.1</ele>
        <time>2012-05-27T05:17:05Z</time>
      </trkpt>
      <trkpt lat="44.05886" lon="7.2261">
        <ele>1667</ele>
        <time>2012-05-27T05:17:09Z</time>
      </trkpt>
      <trkpt lat="44.0587" lon="7.22571">
        <ele>1674.3</ele>
        <time>2012-05-27T05:17:24Z</time>
      </trkpt>
      <trkpt lat="44.05866" lon="7.22563">
        <ele>1675.2</ele>
        <time>2012-05-27T05:17:27Z</time>
      </trkpt>
      <trkpt lat="44.05859" lon="7.22545">
        <ele>1677.4</ele>
        <time>2012-05-27T05:17:33Z</time>
      </trkpt>
      <trkpt lat="44.05855" lon="7.22535">
        <ele>1678.7</ele>
        <time>2012-05-27T05:17:37Z</time>
      </trkpt>
      <trkpt lat="44.05842" lon="7.22491">
        <ele>1685.3</ele>
        <time>2012-05-27T05:17:59Z</time>
      </trkpt>
      <trkpt lat="44.05836" lon="7.22469">
        <ele>1689.3</ele>
        <time>2012-05-27T05:18:11Z</time>
      </trkpt>
      <trkpt lat="44.05836" lon="7.22456">
        <ele>1691.8</ele>
        <time>2012-05-27T05:18:18Z</time>
      </trkpt>
      <trkpt lat="44.05836" lon="7.22423">
        <ele>1699.2</ele>
        <time>2012-05-27T05:18:36Z</time>
      </trkpt>
      <trkpt lat="44.0584" lon="7.22388">
        <ele>1706.6</ele>
        <time>2012-05-27T05:18:57Z</time>
      </trkpt>
      <trkpt lat="44.05847" lon="7.22344">
        <ele>1713.6</ele>
        <time>2012-05-27T05:19:22Z</time>
      </trkpt>
      <trkpt lat="44.05847" lon="7.22342">
        <ele>1713.7</ele>
        <time>2012-05-27T05:19:23Z</time>
      </trkpt>
      <trkpt lat="44.05851" lon="7.22309">
        <ele>1717.9</ele>
        <time>2012-05-27T05:19:40Z</time>
      </trkpt>
      <trkpt lat="44.05851" lon="7.22299">
        <ele>1719.1</ele>
        <time>2012-05-27T05:19:45Z</time>
      </trkpt>
      <trkpt lat="44.05857" lon="7.22253">
        <ele>1724.3</ele>
        <time>2012-05-27T05:20:05Z</time>
      </trkpt>
      <trkpt lat="44.05858" lon="7.22231">
        <ele>1727.2</ele>
        <time>2012-05-27T05:20:15Z</time>
      </trkpt>
      <trkpt lat="44.05861" lon="7.22208">
        <ele>1729.8</ele>
        <time>2012-05-27T05:20:26Z</time>
      </trkpt>
      <trkpt lat="44.05864" lon="7.22187">
        <ele>1732.7</ele>
        <time>2012-05-27T05:20:36Z</time>
      </trkpt>
      <trkpt lat="44.05868" lon="7.22166">
        <ele>1735.7</ele>
        <time>2012-05-27T05:20:46Z</time>
      </trkpt>
      <trkpt lat="44.05875" lon="7.22144">
        <ele>1739.3</ele>
        <time>2012-05-27T05:20:58Z</time>
      </trkpt>
      <trkpt lat="44.05877" lon="7.22132">
        <ele>1740.8</ele>
        <time>2012-05-27T05:21:04Z</time>
      </trkpt>
      <trkpt lat="44.05884" lon="7.2211">
        <ele>1743.3</ele>
        <time>2012-05-27T05:21:16Z</time>
      </trkpt>
      <trkpt lat="44.05888" lon="7.221">
        <ele>1744.2</ele>
        <time>2012-05-27T05:21:22Z</time>
      </trkpt>
      <trkpt lat="44.05893" lon="7.22089">
        <ele>1745</ele>
        <time>2012-05-27T05:21:29Z</time>
      </trkpt>
      <trkpt lat="44.05891" lon="7.22073">
        <ele>1748.1</ele>
        <time>2012-05-27T05:21:42Z</time>
      </trkpt>
      <trkpt lat="44.05878" lon="7.22087">
        <ele>1749</ele>
        <time>2012-05-27T05:21:53Z</time>
      </trkpt>
      <trkpt lat="44.05865" lon="7.22097">
        <ele>1748</ele>
        <time>2012-05-27T05:22:01Z</time>
      </trkpt>
      <trkpt lat="44.05853" lon="7.22108">
        <ele>1745.9</ele>
        <time>2012-05-27T05:22:09Z</time>
      </trkpt>
      <trkpt lat="44.05839" lon="7.22119">
        <ele>1744.3</ele>
        <time>2012-05-27T05:22:18Z</time>
      </trkpt>
      <trkpt lat="44.05817" lon="7.22137">
        <ele>1742.8</ele>
        <time>2012-05-27T05:22:32Z</time>
      </trkpt>
      <trkpt lat="44.05798" lon="7.22156">
        <ele>1742.4</ele>
        <time>2012-05-27T05:22:45Z</time>
      </trkpt>
      <trkpt lat="44.05783" lon="7.22167">
        <ele>1740.3</ele>
        <time>2012-05-27T05:22:55Z</time>
      </trkpt>
      <trkpt lat="44.05767" lon="7.22164">
        <ele>1735</ele>
        <time>2012-05-27T05:23:08Z</time>
      </trkpt>
      <trkpt lat="44.05768" lon="7.2214">
        <ele>1735.2</ele>
        <time>2012-05-27T05:23:21Z</time>
      </trkpt>
      <trkpt lat="44.05772" lon="7.22117">
        <ele>1737.1</ele>
        <time>2012-05-27T05:23:34Z</time>
      </trkpt>
      <trkpt lat="44.05774" lon="7.22094">
        <ele>1737.2</ele>
        <time>2012-05-27T05:23:49Z</time>
      </trkpt>
      <trkpt lat="44.05777" lon="7.22071">
        <ele>1737.7</ele>
        <time>2012-05-27T05:24:04Z</time>
      </trkpt>
      <trkpt lat="44.05782" lon="7.22049">
        <ele>1740.1</ele>
        <time>2012-05-27T05:24:17Z</time>
      </trkpt>
      <trkpt lat="44.0579" lon="7.22029">
        <ele>1744.4</ele>
        <time>2012-05-27T05:24:29Z</time>
      </trkpt>
      <trkpt lat="44.0579" lon="7.2201">
        <ele>1744.6</ele>
        <time>2012-05-27T05:24:37Z</time>
      </trkpt>
      <trkpt lat="44.05789" lon="7.21993">
        <ele>1743.9</ele>
        <time>2012-05-27T05:24:41Z</time>
      </trkpt>
      <trkpt lat="44.05788" lon="7.21974">
        <ele>1743.3</ele>
        <time>2012-05-27T05:24:45Z</time>
      </trkpt>
      <trkpt lat="44.05788" lon="7.21963">
        <ele>1742.9</ele>
        <time>2012-05-27T05:24:47Z</time>
      </trkpt>
      <trkpt lat="44.05784" lon="7.21921">
        <ele>1744.4</ele>
        <time>2012-05-27T05:24:52Z</time>
      </trkpt>
      <trkpt lat="44.05782" lon="7.2191">
        <ele>1745.1</ele>
        <time>2012-05-27T05:24:53Z</time>
      </trkpt>
      <trkpt lat="44.05777" lon="7.21889">
        <ele>1745.9</ele>
        <time>2012-05-27T05:24:55Z</time>
      </trkpt>
      <trkpt lat="44.05774" lon="7.21879">
        <ele>1746.1</ele>
        <time>2012-05-27T05:24:56Z</time>
      </trkpt>
      <trkpt lat="44.05766" lon="7.21857">
        <ele>1745.4</ele>
        <time>2012-05-27T05:24:58Z</time>
      </trkpt>
      <trkpt lat="44.05756" lon="7.21837">
        <ele>1744.1</ele>
        <time>2012-05-27T05:25:00Z</time>
      </trkpt>
      <trkpt lat="44.05744" lon="7.21819">
        <ele>1742.7</ele>
        <time>2012-05-27T05:25:02Z</time>
      </trkpt>
      <trkpt lat="44.05734" lon="7.218">
        <ele>1742.3</ele>
        <time>2012-05-27T05:25:04Z</time>
      </trkpt>
      <trkpt lat="44.05726" lon="7.2178">
        <ele>1742.1</ele>
        <time>2012-05-27T05:25:06Z</time>
      </trkpt>
      <trkpt lat="44.05716" lon="7.21764">
        <ele>1740.5</ele>
        <time>2012-05-27T05:25:08Z</time>
      </trkpt>
      <trkpt lat="44.05702" lon="7.21751">
        <ele>1738.5</ele>
        <time>2012-05-27T05:25:10Z</time>
      </trkpt>
      <trkpt lat="44.05687" lon="7.21739">
        <ele>1736</ele>
        <time>2012-05-27T05:25:12Z</time>
      </trkpt>
      <trkpt lat="44.05679" lon="7.21732">
        <ele>1734.9</ele>
        <time>2012-05-27T05:25:13Z</time>
      </trkpt>
      <trkpt lat="44.05671" lon="7.21723">
        <ele>1734</ele>
        <time>2012-05-27T05:25:14Z</time>
      </trkpt>
      <trkpt lat="44.05666" lon="7.21713">
        <ele>1733.5</ele>
        <time>2012-05-27T05:25:15Z</time>
      </trkpt>
      <trkpt lat="44.05659" lon="7.21693">
        <ele>1733.2</ele>
        <time>2012-05-27T05:25:17Z</time>
      </trkpt>
      <trkpt lat="44.05653" lon="7.21671">
        <ele>1733.7</ele>
        <time>2012-05-27T05:25:19Z</time>
      </trkpt>
      <trkpt lat="44.05646" lon="7.21651">
        <ele>1735</ele>
        <time>2012-05-27T05:25:21Z</time>
      </trkpt>
      <trkpt lat="44.05643" lon="7.2164">
        <ele>1736.5</ele>
        <time>2012-05-27T05:25:23Z</time>
      </trkpt>
      <trkpt lat="44.05641" lon="7.21617">
        <ele>1738.8</ele>
        <time>2012-05-27T05:25:29Z</time>
      </trkpt>
      <trkpt lat="44.05645" lon="7.21598">
        <ele>1737.3</ele>
        <time>2012-05-27T05:25:33Z</time>
      </trkpt>
      <trkpt lat="44.05646" lon="7.21586">
        <ele>1735.9</ele>
        <time>2012-05-27T05:25:36Z</time>
      </trkpt>
      <trkpt lat="44.05642" lon="7.21573">
        <ele>1735.3</ele>
        <time>2012-05-27T05:25:42Z</time>
      </trkpt>
      <trkpt lat="44.05634" lon="7.21558">
        <ele>1736.8</ele>
        <time>2012-05-27T05:25:48Z</time>
      </trkpt>
      <trkpt lat="44.05621" lon="7.21523">
        <ele>1736.2</ele>
        <time>2012-05-27T05:25:59Z</time>
      </trkpt>
      <trkpt lat="44.05612" lon="7.21505">
        <ele>1733.2</ele>
        <time>2012-05-27T05:26:07Z</time>
      </trkpt>
      <trkpt lat="44.05603" lon="7.21485">
        <ele>1730.5</ele>
        <time>2012-05-27T05:26:16Z</time>
      </trkpt>
      <trkpt lat="44.05591" lon="7.21469">
        <ele>1729.9</ele>
        <time>2012-05-27T05:26:27Z</time>
      </trkpt>
      <trkpt lat="44.05576" lon="7.21464">
        <ele>1732.4</ele>
        <time>2012-05-27T05:26:35Z</time>
      </trkpt>
      <trkpt lat="44.05564" lon="7.21459">
        <ele>1734.8</ele>
        <time>2012-05-27T05:26:39Z</time>
      </trkpt>
      <trkpt lat="44.05553" lon="7.21455">
        <ele>1737</ele>
        <time>2012-05-27T05:26:43Z</time>
      </trkpt>
      <trkpt lat="44.05541" lon="7.21447">
        <ele>1739.8</ele>
        <time>2012-05-27T05:26:49Z</time>
      </trkpt>
      <trkpt lat="44.05528" lon="7.21435">
        <ele>1738.9</ele>
        <time>2012-05-27T05:26:56Z</time>
      </trkpt>
      <trkpt lat="44.05517" lon="7.21419">
        <ele>1737.4</ele>
        <time>2012-05-27T05:27:02Z</time>
      </trkpt>
      <trkpt lat="44.05509" lon="7.214">
        <ele>1735.1</ele>
        <time>2012-05-27T05:27:09Z</time>
      </trkpt>
      <trkpt lat="44.05505" lon="7.21389">
        <ele>1733.9</ele>
        <time>2012-05-27T05:27:13Z</time>
      </trkpt>
      <trkpt lat="44.05496" lon="7.21369">
        <ele>1731.3</ele>
        <time>2012-05-27T05:27:25Z</time>
      </trkpt>
      <trkpt lat="44.05491" lon="7.21351">
        <ele>1726.9</ele>
        <time>2012-05-27T05:27:31Z</time>
      </trkpt>
      <trkpt lat="44.05486" lon="7.21344">
        <ele>1725.1</ele>
        <time>2012-05-27T05:27:34Z</time>
      </trkpt>
      <trkpt lat="44.05472" lon="7.2133">
        <ele>1721.7</ele>
        <time>2012-05-27T05:27:44Z</time>
      </trkpt>
      <trkpt lat="44.05457" lon="7.2132">
        <ele>1719.6</ele>
        <time>2012-05-27T05:27:59Z</time>
      </trkpt>
      <trkpt lat="44.05442" lon="7.21313">
        <ele>1717.4</ele>
        <time>2012-05-27T05:28:10Z</time>
      </trkpt>
      <trkpt lat="44.05428" lon="7.21302">
        <ele>1714.9</ele>
        <time>2012-05-27T05:28:20Z</time>
      </trkpt>
      <trkpt lat="44.05413" lon="7.21298">
        <ele>1714.3</ele>
        <time>2012-05-27T05:28:27Z</time>
      </trkpt>
      <trkpt lat="44.05397" lon="7.21295">
        <ele>1714.4</ele>
        <time>2012-05-27T05:28:34Z</time>
      </trkpt>
      <trkpt lat="44.05382" lon="7.21284">
        <ele>1712.5</ele>
        <time>2012-05-27T05:28:46Z</time>
      </trkpt>
      <trkpt lat="44.05367" lon="7.21277">
        <ele>1710.1</ele>
        <time>2012-05-27T05:28:56Z</time>
      </trkpt>
      <trkpt lat="44.0536" lon="7.21274">
        <ele>1709.4</ele>
        <time>2012-05-27T05:28:59Z</time>
      </trkpt>
      <trkpt lat="44.05344" lon="7.21272">
        <ele>1708.2</ele>
        <time>2012-05-27T05:29:05Z</time>
      </trkpt>
      <trkpt lat="44.05329" lon="7.2127">
        <ele>1707.3</ele>
        <time>2012-05-27T05:29:11Z</time>
      </trkpt>
      <trkpt lat="44.05317" lon="7.21275">
        <ele>1707.7</ele>
        <time>2012-05-27T05:29:15Z</time>
      </trkpt>
      <trkpt lat="44.05301" lon="7.21275">
        <ele>1707.5</ele>
        <time>2012-05-27T05:29:18Z</time>
      </trkpt>
      <trkpt lat="44.05291" lon="7.21271">
        <ele>1706.9</ele>
        <time>2012-05-27T05:29:20Z</time>
      </trkpt>
      <trkpt lat="44.05284" lon="7.21267">
        <ele>1706.2</ele>
        <time>2012-05-27T05:29:22Z</time>
      </trkpt>
      <trkpt lat="44.05273" lon="7.21255">
        <ele>1705.3</ele>
        <time>2012-05-27T05:29:26Z</time>
      </trkpt>
      <trkpt lat="44.05264" lon="7.21239">
        <ele>1705.1</ele>
        <time>2012-05-27T05:29:30Z</time>
      </trkpt>
      <trkpt lat="44.05254" lon="7.21225">
        <ele>1706.1</ele>
        <time>2012-05-27T05:29:34Z</time>
      </trkpt>
      <trkpt lat="44.05247" lon="7.2122">
        <ele>1707.1</ele>
        <time>2012-05-27T05:29:36Z</time>
      </trkpt>
      <trkpt lat="44.05236" lon="7.21208">
        <ele>1710</ele>
        <time>2012-05-27T05:29:40Z</time>
      </trkpt>
      <trkpt lat="44.0523" lon="7.212">
        <ele>1711.7</ele>
        <time>2012-05-27T05:29:42Z</time>
      </trkpt>
      <trkpt lat="44.05219" lon="7.21186">
        <ele>1715.6</ele>
        <time>2012-05-27T05:29:46Z</time>
      </trkpt>
      <trkpt lat="44.05214" lon="7.21173">
        <ele>1718.6</ele>
        <time>2012-05-27T05:29:50Z</time>
      </trkpt>
      <trkpt lat="44.05212" lon="7.21152">
        <ele>1722.4</ele>
        <time>2012-05-27T05:29:56Z</time>
      </trkpt>
      <trkpt lat="44.05209" lon="7.21143">
        <ele>1724.3</ele>
        <time>2012-05-27T05:29:59Z</time>
      </trkpt>
      <trkpt lat="44.05194" lon="7.21101">
        <ele>1733.1</ele>
        <time>2012-05-27T05:30:20Z</time>
      </trkpt>
      <trkpt lat="44.05183" lon="7.21083">
        <ele>1739.2</ele>
        <time>2012-05-27T05:30:31Z</time>
      </trkpt>
      <trkpt lat="44.05182" lon="7.21062">
        <ele>1743.9</ele>
        <time>2012-05-27T05:30:39Z</time>
      </trkpt>
      <trkpt lat="44.0519" lon="7.21041">
        <ele>1745.1</ele>
        <time>2012-05-27T05:30:46Z</time>
      </trkpt>
      <trkpt lat="44.05197" lon="7.21032">
        <ele>1743.3</ele>
        <time>2012-05-27T05:30:51Z</time>
      </trkpt>
      <trkpt lat="44.05212" lon="7.21024">
        <ele>1736.8</ele>
        <time>2012-05-27T05:31:00Z</time>
      </trkpt>
      <trkpt lat="44.05216" lon="7.21015">
        <ele>1734</ele>
        <time>2012-05-27T05:31:05Z</time>
      </trkpt>
      <trkpt lat="44.05217" lon="7.20994">
        <ele>1734.6</ele>
        <time>2012-05-27T05:31:12Z</time>
      </trkpt>
      <trkpt lat="44.05211" lon="7.20977">
        <ele>1738.5</ele>
        <time>2012-05-27T05:31:17Z</time>
      </trkpt>
      <trkpt lat="44.05203" lon="7.20957">
        <ele>1745.5</ele>
        <time>2012-05-27T05:31:23Z</time>
      </trkpt>
      <trkpt lat="44.05202" lon="7.20945">
        <ele>1750.1</ele>
        <time>2012-05-27T05:31:27Z</time>
      </trkpt>
      <trkpt lat="44.05209" lon="7.20925">
        <ele>1749.6</ele>
        <time>2012-05-27T05:31:35Z</time>
      </trkpt>
      <trkpt lat="44.05217" lon="7.20909">
        <ele>1748.7</ele>
        <time>2012-05-27T05:31:40Z</time>
      </trkpt>
      <trkpt lat="44.05232" lon="7.20905">
        <ele>1742.5</ele>
        <time>2012-05-27T05:31:47Z</time>
      </trkpt>
      <trkpt lat="44.0524" lon="7.209">
        <ele>1737.2</ele>
        <time>2012-05-27T05:31:54Z</time>
      </trkpt>
      <trkpt lat="44.05252" lon="7.2089">
        <ele>1733.3</ele>
        <time>2012-05-27T05:32:02Z</time>
      </trkpt>
      <trkpt lat="44.05269" lon="7.20886">
        <ele>1723.9</ele>
        <time>2012-05-27T05:32:13Z</time>
      </trkpt>
      <trkpt lat="44.05278" lon="7.20875">
        <ele>1720.5</ele>
        <time>2012-05-27T05:32:19Z</time>
      </trkpt>
      <trkpt lat="44.0528" lon="7.20866">
        <ele>1720.1</ele>
        <time>2012-05-27T05:32:21Z</time>
      </trkpt>
      <trkpt lat="44.05283" lon="7.20846">
        <ele>1720</ele>
        <time>2012-05-27T05:32:25Z</time>
      </trkpt>
      <trkpt lat="44.05283" lon="7.20834">
        <ele>1720.7</ele>
        <time>2012-05-27T05:32:27Z</time>
      </trkpt>
      <trkpt lat="44.05283" lon="7.20806">
        <ele>1723.3</ele>
        <time>2012-05-27T05:32:31Z</time>
      </trkpt>
      <trkpt lat="44.05284" lon="7.20789">
        <ele>1724.6</ele>
        <time>2012-05-27T05:32:33Z</time>
      </trkpt>
      <trkpt lat="44.05284" lon="7.20772">
        <ele>1724.9</ele>
        <time>2012-05-27T05:32:35Z</time>
      </trkpt>
      <trkpt lat="44.05285" lon="7.20753">
        <ele>1724.3</ele>
        <time>2012-05-27T05:32:37Z</time>
      </trkpt>
      <trkpt lat="44.05289" lon="7.20733">
        <ele>1722.8</ele>
        <time>2012-05-27T05:32:39Z</time>
      </trkpt>
      <trkpt lat="44.05296" lon="7.20716">
        <ele>1719.8</ele>
        <time>2012-05-27T05:32:41Z</time>
      </trkpt>
      <trkpt lat="44.05305" lon="7.207">
        <ele>1714.3</ele>
        <time>2012-05-27T05:32:43Z</time>
      </trkpt>
      <trkpt lat="44.05315" lon="7.20686">
        <ele>1706.6</ele>
        <time>2012-05-27T05:32:45Z</time>
      </trkpt>
      <trkpt lat="44.05321" lon="7.2067">
        <ele>1699.6</ele>
        <time>2012-05-27T05:32:47Z</time>
      </trkpt>
      <trkpt lat="44.05321" lon="7.20656">
        <ele>1695.1</ele>
        <time>2012-05-27T05:32:49Z</time>
      </trkpt>
      <trkpt lat="44.05317" lon="7.20641">
        <ele>1692.8</ele>
        <time>2012-05-27T05:32:51Z</time>
      </trkpt>
      <trkpt lat="44.05311" lon="7.20626">
        <ele>1691.5</ele>
        <time>2012-05-27T05:32:53Z</time>
      </trkpt>
      <trkpt lat="44.05304" lon="7.20612">
        <ele>1690.5</ele>
        <time>2012-05-27T05:32:55Z</time>
      </trkpt>
      <trkpt lat="44.05295" lon="7.20601">
        <ele>1689.5</ele>
        <time>2012-05-27T05:32:57Z</time>
      </trkpt>
      <trkpt lat="44.05285" lon="7.20589">
        <ele>1689.4</ele>
        <time>2012-05-27T05:32:59Z</time>
      </trkpt>
      <trkpt lat="44.0528" lon="7.20583">
        <ele>1689.5</ele>
        <time>2012-05-27T05:33:00Z</time>
      </trkpt>
      <trkpt lat="44.05269" lon="7.20572">
        <ele>1689.8</ele>
        <time>2012-05-27T05:33:02Z</time>
      </trkpt>
      <trkpt lat="44.05249" lon="7.20546">
        <ele>1689.1</ele>
        <time>2012-05-27T05:33:06Z</time>
      </trkpt>
      <trkpt lat="44.0524" lon="7.20532">
        <ele>1688.2</ele>
        <time>2012-05-27T05:33:08Z</time>
      </trkpt>
      <trkpt lat="44.05231" lon="7.20518">
        <ele>1687</ele>
        <time>2012-05-27T05:33:10Z</time>
      </trkpt>
      <trkpt lat="44.05222" lon="7.20505">
        <ele>1686.1</ele>
        <time>2012-05-27T05:33:12Z</time>
      </trkpt>
      <trkpt lat="44.05217" lon="7.20497">
        <ele>1685.6</ele>
        <time>2012-05-27T05:33:13Z</time>
      </trkpt>
      <trkpt lat="44.05208" lon="7.20484">
        <ele>1685.1</ele>
        <time>2012-05-27T05:33:15Z</time>
      </trkpt>
      <trkpt lat="44.05198" lon="7.20473">
        <ele>1685.5</ele>
        <time>2012-05-27T05:33:17Z</time>
      </trkpt>
      <trkpt lat="44.05193" lon="7.20468">
        <ele>1685.9</ele>
        <time>2012-05-27T05:33:18Z</time>
      </trkpt>
      <trkpt lat="44.05183" lon="7.20458">
        <ele>1687.1</ele>
        <time>2012-05-27T05:33:20Z</time>
      </trkpt>
      <trkpt lat="44.05173" lon="7.20453">
        <ele>1689.8</ele>
        <time>2012-05-27T05:33:22Z</time>
      </trkpt>
      <trkpt lat="44.05163" lon="7.20446">
        <ele>1692.8</ele>
        <time>2012-05-27T05:33:24Z</time>
      </trkpt>
      <trkpt lat="44.0516" lon="7.20435">
        <ele>1694</ele>
        <time>2012-05-27T05:33:26Z</time>
      </trkpt>
      <trkpt lat="44.05161" lon="7.20413">
        <ele>1691.2</ele>
        <time>2012-05-27T05:33:30Z</time>
      </trkpt>
      <trkpt lat="44.05157" lon="7.20402">
        <ele>1690.4</ele>
        <time>2012-05-27T05:33:32Z</time>
      </trkpt>
      <trkpt lat="44.0515" lon="7.20391">
        <ele>1691.2</ele>
        <time>2012-05-27T05:33:34Z</time>
      </trkpt>
      <trkpt lat="44.05144" lon="7.20378">
        <ele>1692.7</ele>
        <time>2012-05-27T05:33:36Z</time>
      </trkpt>
      <trkpt lat="44.05136" lon="7.20346">
        <ele>1693.5</ele>
        <time>2012-05-27T05:33:40Z</time>
      </trkpt>
      <trkpt lat="44.05131" lon="7.2033">
        <ele>1693.9</ele>
        <time>2012-05-27T05:33:42Z</time>
      </trkpt>
      <trkpt lat="44.05126" lon="7.20314">
        <ele>1694.7</ele>
        <time>2012-05-27T05:33:44Z</time>
      </trkpt>
      <trkpt lat="44.05114" lon="7.2028">
        <ele>1697.3</ele>
        <time>2012-05-27T05:33:48Z</time>
      </trkpt>
      <trkpt lat="44.0511" lon="7.20272">
        <ele>1698</ele>
        <time>2012-05-27T05:33:49Z</time>
      </trkpt>
      <trkpt lat="44.05105" lon="7.20255">
        <ele>1699</ele>
        <time>2012-05-27T05:33:51Z</time>
      </trkpt>
      <trkpt lat="44.05098" lon="7.20238">
        <ele>1700.1</ele>
        <time>2012-05-27T05:33:53Z</time>
      </trkpt>
      <trkpt lat="44.05089" lon="7.20211">
        <ele>1701</ele>
        <time>2012-05-27T05:33:56Z</time>
      </trkpt>
      <trkpt lat="44.05085" lon="7.20191">
        <ele>1700.8</ele>
        <time>2012-05-27T05:33:58Z</time>
      </trkpt>
      <trkpt lat="44.05081" lon="7.20171">
        <ele>1699.7</ele>
        <time>2012-05-27T05:34:00Z</time>
      </trkpt>
      <trkpt lat="44.05077" lon="7.20149">
        <ele>1698.4</ele>
        <time>2012-05-27T05:34:02Z</time>
      </trkpt>
      <trkpt lat="44.05075" lon="7.20139">
        <ele>1697.8</ele>
        <time>2012-05-27T05:34:03Z</time>
      </trkpt>
      <trkpt lat="44.05064" lon="7.20099">
        <ele>1699.1</ele>
        <time>2012-05-27T05:34:07Z</time>
      </trkpt>
      <trkpt lat="44.05062" lon="7.20089">
        <ele>1699.9</ele>
        <time>2012-05-27T05:34:08Z</time>
      </trkpt>
      <trkpt lat="44.05062" lon="7.20068">
        <ele>1700.8</ele>
        <time>2012-05-27T05:34:10Z</time>
      </trkpt>
      <trkpt lat="44.0506" lon="7.20047">
        <ele>1701.4</ele>
        <time>2012-05-27T05:34:12Z</time>
      </trkpt>
      <trkpt lat="44.0506" lon="7.20026">
        <ele>1702</ele>
        <time>2012-05-27T05:34:14Z</time>
      </trkpt>
      <trkpt lat="44.05062" lon="7.19982">
        <ele>1703.4</ele>
        <time>2012-05-27T05:34:18Z</time>
      </trkpt>
      <trkpt lat="44.05063" lon="7.1996">
        <ele>1704</ele>
        <time>2012-05-27T05:34:20Z</time>
      </trkpt>
      <trkpt lat="44.05065" lon="7.19915">
        <ele>1704.8</ele>
        <time>2012-05-27T05:34:24Z</time>
      </trkpt>
      <trkpt lat="44.05065" lon="7.19904">
        <ele>1705.1</ele>
        <time>2012-05-27T05:34:25Z</time>
      </trkpt>
      <trkpt lat="44.05066" lon="7.19882">
        <ele>1705.6</ele>
        <time>2012-05-27T05:34:27Z</time>
      </trkpt>
      <trkpt lat="44.05068" lon="7.19861">
        <ele>1705.6</ele>
        <time>2012-05-27T05:34:29Z</time>
      </trkpt>
      <trkpt lat="44.05069" lon="7.1985">
        <ele>1705.5</ele>
        <time>2012-05-27T05:34:30Z</time>
      </trkpt>
      <trkpt lat="44.05076" lon="7.19809">
        <ele>1704.1</ele>
        <time>2012-05-27T05:34:34Z</time>
      </trkpt>
      <trkpt lat="44.05079" lon="7.19788">
        <ele>1703.4</ele>
        <time>2012-05-27T05:34:36Z</time>
      </trkpt>
      <trkpt lat="44.05079" lon="7.19777">
        <ele>1703.3</ele>
        <time>2012-05-27T05:34:37Z</time>
      </trkpt>
      <trkpt lat="44.05078" lon="7.19757">
        <ele>1704.3</ele>
        <time>2012-05-27T05:34:39Z</time>
      </trkpt>
      <trkpt lat="44.05074" lon="7.19738">
        <ele>1707.4</ele>
        <time>2012-05-27T05:34:41Z</time>
      </trkpt>
      <trkpt lat="44.05074" lon="7.19729">
        <ele>1708.6</ele>
        <time>2012-05-27T05:34:42Z</time>
      </trkpt>
      <trkpt lat="44.0508" lon="7.19714">
        <ele>1708</ele>
        <time>2012-05-27T05:34:44Z</time>
      </trkpt>
      <trkpt lat="44.05087" lon="7.197">
        <ele>1704.3</ele>
        <time>2012-05-27T05:34:46Z</time>
      </trkpt>
      <trkpt lat="44.05096" lon="7.19675">
        <ele>1698.6</ele>
        <time>2012-05-27T05:34:49Z</time>
      </trkpt>
      <trkpt lat="44.05101" lon="7.19656">
        <ele>1695.2</ele>
        <time>2012-05-27T05:34:51Z</time>
      </trkpt>
      <trkpt lat="44.05103" lon="7.19646">
        <ele>1694</ele>
        <time>2012-05-27T05:34:52Z</time>
      </trkpt>
      <trkpt lat="44.05103" lon="7.19628">
        <ele>1693</ele>
        <time>2012-05-27T05:34:54Z</time>
      </trkpt>
      <trkpt lat="44.05101" lon="7.19612">
        <ele>1692.9</ele>
        <time>2012-05-27T05:34:56Z</time>
      </trkpt>
      <trkpt lat="44.05099" lon="7.19596">
        <ele>1692.8</ele>
        <time>2012-05-27T05:34:58Z</time>
      </trkpt>
      <trkpt lat="44.05097" lon="7.19579">
        <ele>1692.4</ele>
        <time>2012-05-27T05:35:00Z</time>
      </trkpt>
      <trkpt lat="44.05094" lon="7.19562">
        <ele>1692</ele>
        <time>2012-05-27T05:35:02Z</time>
      </trkpt>
      <trkpt lat="44.05093" lon="7.19528">
        <ele>1687.6</ele>
        <time>2012-05-27T05:35:06Z</time>
      </trkpt>
      <trkpt lat="44.05092" lon="7.19511">
        <ele>1684.3</ele>
        <time>2012-05-27T05:35:08Z</time>
      </trkpt>
      <trkpt lat="44.05087" lon="7.19497">
        <ele>1682.5</ele>
        <time>2012-05-27T05:35:10Z</time>
      </trkpt>
      <trkpt lat="44.05076" lon="7.19478">
        <ele>1684.5</ele>
        <time>2012-05-27T05:35:16Z</time>
      </trkpt>
      <trkpt lat="44.05069" lon="7.19458">
        <ele>1685</ele>
        <time>2012-05-27T05:35:31Z</time>
      </trkpt>
      <trkpt lat="44.05064" lon="7.19448">
        <ele>1687.4</ele>
        <time>2012-05-27T05:35:40Z</time>
      </trkpt>
      <trkpt lat="44.05058" lon="7.19439">
        <ele>1691.2</ele>
        <time>2012-05-27T05:35:48Z</time>
      </trkpt>
      <trkpt lat="44.05054" lon="7.19428">
        <ele>1693.3</ele>
        <time>2012-05-27T05:36:00Z</time>
      </trkpt>
      <trkpt lat="44.05048" lon="7.19409">
        <ele>1696.1</ele>
        <time>2012-05-27T05:36:09Z</time>
      </trkpt>
      <trkpt lat="44.0504" lon="7.19389">
        <ele>1701</ele>
        <time>2012-05-27T05:36:20Z</time>
      </trkpt>
      <trkpt lat="44.0503" lon="7.1937">
        <ele>1707.6</ele>
        <time>2012-05-27T05:36:32Z</time>
      </trkpt>
      <trkpt lat="44.05025" lon="7.19349">
        <ele>1709.9</ele>
        <time>2012-05-27T05:36:42Z</time>
      </trkpt>
      <trkpt lat="44.05023" lon="7.19338">
        <ele>1710.3</ele>
        <time>2012-05-27T05:36:47Z</time>
      </trkpt>
      <trkpt lat="44.05019" lon="7.19316">
        <ele>1711.5</ele>
        <time>2012-05-27T05:36:58Z</time>
      </trkpt>
      <trkpt lat="44.05019" lon="7.19303">
        <ele>1710.9</ele>
        <time>2012-05-27T05:37:04Z</time>
      </trkpt>
      <trkpt lat="44.05016" lon="7.19283">
        <ele>1710.9</ele>
        <time>2012-05-27T05:37:15Z</time>
      </trkpt>
      <trkpt lat="44.05006" lon="7.19263">
        <ele>1715.9</ele>
        <time>2012-05-27T05:37:28Z</time>
      </trkpt>
      <trkpt lat="44.04999" lon="7.19241">
        <ele>1718.9</ele>
        <time>2012-05-27T05:37:42Z</time>
      </trkpt>
      <trkpt lat="44.04996" lon="7.1923">
        <ele>1720.4</ele>
        <time>2012-05-27T05:37:50Z</time>
      </trkpt>
      <trkpt lat="44.04989" lon="7.19221">
        <ele>1723.7</ele>
        <time>2012-05-27T05:37:57Z</time>
      </trkpt>
      <trkpt lat="44.04979" lon="7.1919">
        <ele>1730.1</ele>
        <time>2012-05-27T05:38:36Z</time>
      </trkpt>
      <trkpt lat="44.04975" lon="7.19168">
        <ele>1731</ele>
        <time>2012-05-27T05:38:51Z</time>
      </trkpt>
      <trkpt lat="44.04975" lon="7.19145">
        <ele>1728.9</ele>
        <time>2012-05-27T05:39:03Z</time>
      </trkpt>
      <trkpt lat="44.04965" lon="7.19124">
        <ele>1732.9</ele>
        <time>2012-05-27T05:39:15Z</time>
      </trkpt>
      <trkpt lat="44.04953" lon="7.19107">
        <ele>1737.5</ele>
        <time>2012-05-27T05:39:28Z</time>
      </trkpt>
      <trkpt lat="44.04945" lon="7.19086">
        <ele>1737.4</ele>
        <time>2012-05-27T05:39:52Z</time>
      </trkpt>
      <trkpt lat="44.04933" lon="7.19053">
        <ele>1736</ele>
        <time>2012-05-27T05:40:18Z</time>
      </trkpt>
      <trkpt lat="44.0493" lon="7.19022">
        <ele>1733.8</ele>
        <time>2012-05-27T05:40:34Z</time>
      </trkpt>
      <trkpt lat="44.0493" lon="7.18998">
        <ele>1732.2</ele>
        <time>2012-05-27T05:40:47Z</time>
      </trkpt>
      <trkpt lat="44.04929" lon="7.18974">
        <ele>1730.5</ele>
        <time>2012-05-27T05:41:01Z</time>
      </trkpt>
      <trkpt lat="44.04929" lon="7.18952">
        <ele>1729</ele>
        <time>2012-05-27T05:41:15Z</time>
      </trkpt>
      <trkpt lat="44.04928" lon="7.1894">
        <ele>1728.3</ele>
        <time>2012-05-27T05:41:23Z</time>
      </trkpt>
      <trkpt lat="44.0493" lon="7.18918">
        <ele>1727.2</ele>
        <time>2012-05-27T05:41:35Z</time>
      </trkpt>
      <trkpt lat="44.04933" lon="7.18896">
        <ele>1726.4</ele>
        <time>2012-05-27T05:41:45Z</time>
      </trkpt>
      <trkpt lat="44.04934" lon="7.18875">
        <ele>1725.5</ele>
        <time>2012-05-27T05:41:55Z</time>
      </trkpt>
      <trkpt lat="44.04921" lon="7.18871">
        <ele>1723.9</ele>
        <time>2012-05-27T05:42:07Z</time>
      </trkpt>
      <trkpt lat="44.04911" lon="7.18887">
        <ele>1723.1</ele>
        <time>2012-05-27T05:42:17Z</time>
      </trkpt>
      <trkpt lat="44.04906" lon="7.18899">
        <ele>1723.2</ele>
        <time>2012-05-27T05:42:24Z</time>
      </trkpt>
      <trkpt lat="44.04899" lon="7.18918">
        <ele>1723.9</ele>
        <time>2012-05-27T05:42:37Z</time>
      </trkpt>
      <trkpt lat="44.04886" lon="7.18932">
        <ele>1724</ele>
        <time>2012-05-27T05:42:51Z</time>
      </trkpt>
      <trkpt lat="44.04877" lon="7.18951">
        <ele>1725.1</ele>
        <time>2012-05-27T05:43:03Z</time>
      </trkpt>
      <trkpt lat="44.04875" lon="7.18973">
        <ele>1728</ele>
        <time>2012-05-27T05:43:15Z</time>
      </trkpt>
      <trkpt lat="44.04873" lon="7.18985">
        <ele>1730.1</ele>
        <time>2012-05-27T05:43:22Z</time>
      </trkpt>
      <trkpt lat="44.04865" lon="7.19017">
        <ele>1734.2</ele>
        <time>2012-05-27T05:43:40Z</time>
      </trkpt>
      <trkpt lat="44.04864" lon="7.19028">
        <ele>1736.2</ele>
        <time>2012-05-27T05:43:55Z</time>
      </trkpt>
      <trkpt lat="44.04862" lon="7.19065">
        <ele>1742.5</ele>
        <time>2012-05-27T05:44:31Z</time>
      </trkpt>
      <trkpt lat="44.04852" lon="7.19097">
        <ele>1746.7</ele>
        <time>2012-05-27T05:45:05Z</time>
      </trkpt>
      <trkpt lat="44.04848" lon="7.19107">
        <ele>1747.9</ele>
        <time>2012-05-27T05:45:17Z</time>
      </trkpt>
      <trkpt lat="44.04846" lon="7.1912">
        <ele>1749.9</ele>
        <time>2012-05-27T05:45:29Z</time>
      </trkpt>
      <trkpt lat="44.04848" lon="7.19132">
        <ele>1752.5</ele>
        <time>2012-05-27T05:45:50Z</time>
      </trkpt>
      <trkpt lat="44.04839" lon="7.19153">
        <ele>1754.8</ele>
        <time>2012-05-27T05:46:13Z</time>
      </trkpt>
      <trkpt lat="44.0484" lon="7.19177">
        <ele>1759.1</ele>
        <time>2012-05-27T05:46:29Z</time>
      </trkpt>
      <trkpt lat="44.0484" lon="7.19201">
        <ele>1763.7</ele>
        <time>2012-05-27T05:46:46Z</time>
      </trkpt>
      <trkpt lat="44.04843" lon="7.19214">
        <ele>1766.4</ele>
        <time>2012-05-27T05:47:03Z</time>
      </trkpt>
      <trkpt lat="44.04847" lon="7.19248">
        <ele>1771.8</ele>
        <time>2012-05-27T05:47:32Z</time>
      </trkpt>
      <trkpt lat="44.04846" lon="7.19272">
        <ele>1774.4</ele>
        <time>2012-05-27T05:47:52Z</time>
      </trkpt>
      <trkpt lat="44.04845" lon="7.19296">
        <ele>1777.3</ele>
        <time>2012-05-27T05:48:07Z</time>
      </trkpt>
      <trkpt lat="44.04843" lon="7.19316">
        <ele>1778.3</ele>
        <time>2012-05-27T05:48:16Z</time>
      </trkpt>
      <trkpt lat="44.04839" lon="7.19336">
        <ele>1779</ele>
        <time>2012-05-27T05:48:23Z</time>
      </trkpt>
      <trkpt lat="44.04839" lon="7.19359">
        <ele>1780.7</ele>
        <time>2012-05-27T05:48:32Z</time>
      </trkpt>
      <trkpt lat="44.04842" lon="7.19383">
        <ele>1783.2</ele>
        <time>2012-05-27T05:48:46Z</time>
      </trkpt>
      <trkpt lat="44.04846" lon="7.19406">
        <ele>1786.2</ele>
        <time>2012-05-27T05:49:04Z</time>
      </trkpt>
      <trkpt lat="44.04849" lon="7.19419">
        <ele>1788</ele>
        <time>2012-05-27T05:49:13Z</time>
      </trkpt>
      <trkpt lat="44.04851" lon="7.19439">
        <ele>1790.3</ele>
        <time>2012-05-27T05:49:26Z</time>
      </trkpt>
      <trkpt lat="44.04854" lon="7.1945">
        <ele>1792.3</ele>
        <time>2012-05-27T05:49:37Z</time>
      </trkpt>
      <trkpt lat="44.04858" lon="7.19461">
        <ele>1794.4</ele>
        <time>2012-05-27T05:49:53Z</time>
      </trkpt>
      <trkpt lat="44.04857" lon="7.19484">
        <ele>1795.5</ele>
        <time>2012-05-27T05:50:09Z</time>
      </trkpt>
      <trkpt lat="44.04854" lon="7.19497">
        <ele>1795.4</ele>
        <time>2012-05-27T05:50:18Z</time>
      </trkpt>
      <trkpt lat="44.04852" lon="7.19517">
        <ele>1795.8</ele>
        <time>2012-05-27T05:50:27Z</time>
      </trkpt>
      <trkpt lat="44.04852" lon="7.1953">
        <ele>1796.4</ele>
        <time>2012-05-27T05:50:34Z</time>
      </trkpt>
      <trkpt lat="44.04849" lon="7.19553">
        <ele>1797.3</ele>
        <time>2012-05-27T05:50:50Z</time>
      </trkpt>
      <trkpt lat="44.04845" lon="7.19576">
        <ele>1798.2</ele>
        <time>2012-05-27T05:51:05Z</time>
      </trkpt>
      <trkpt lat="44.04848" lon="7.19587">
        <ele>1799.8</ele>
        <time>2012-05-27T05:51:12Z</time>
      </trkpt>
      <trkpt lat="44.0485" lon="7.196">
        <ele>1801.9</ele>
        <time>2012-05-27T05:51:22Z</time>
      </trkpt>
      <trkpt lat="44.04851" lon="7.1962">
        <ele>1804.2</ele>
        <time>2012-05-27T05:51:30Z</time>
      </trkpt>
      <trkpt lat="44.04849" lon="7.19631">
        <ele>1805</ele>
        <time>2012-05-27T05:51:34Z</time>
      </trkpt>
      <trkpt lat="44.04844" lon="7.19651">
        <ele>1806.5</ele>
        <time>2012-05-27T05:51:42Z</time>
      </trkpt>
      <trkpt lat="44.0484" lon="7.19662">
        <ele>1807.3</ele>
        <time>2012-05-27T05:51:47Z</time>
      </trkpt>
      <trkpt lat="44.04836" lon="7.19683">
        <ele>1809.4</ele>
        <time>2012-05-27T05:51:57Z</time>
      </trkpt>
      <trkpt lat="44.04831" lon="7.19692">
        <ele>1809.6</ele>
        <time>2012-05-27T05:52:02Z</time>
      </trkpt>
      <trkpt lat="44.04823" lon="7.19713">
        <ele>1810.9</ele>
        <time>2012-05-27T05:52:14Z</time>
      </trkpt>
      <trkpt lat="44.04813" lon="7.19732">
        <ele>1812.5</ele>
        <time>2012-05-27T05:52:25Z</time>
      </trkpt>
      <trkpt lat="44.04806" lon="7.19752">
        <ele>1815.5</ele>
        <time>2012-05-27T05:52:41Z</time>
      </trkpt>
      <trkpt lat="44.04796" lon="7.19771">
        <ele>1818.4</ele>
        <time>2012-05-27T05:53:04Z</time>
      </trkpt>
      <trkpt lat="44.04788" lon="7.19777">
        <ele>1818.4</ele>
        <time>2012-05-27T05:53:18Z</time>
      </trkpt>
      <trkpt lat="44.04782" lon="7.19787">
        <ele>1818.9</ele>
        <time>2012-05-27T05:53:33Z</time>
      </trkpt>
      <trkpt lat="44.04768" lon="7.198">
        <ele>1820</ele>
        <time>2012-05-27T05:53:53Z</time>
      </trkpt>
      <trkpt lat="44.04753" lon="7.19811">
        <ele>1820.1</ele>
        <time>2012-05-27T05:54:19Z</time>
      </trkpt>
      <trkpt lat="44.04739" lon="7.19823">
        <ele>1820.9</ele>
        <time>2012-05-27T05:54:38Z</time>
      </trkpt>
      <trkpt lat="44.04738" lon="7.19823">
        <ele>1820.9</ele>
        <time>2012-05-27T05:54:39Z</time>
      </trkpt>
      <trkpt lat="44.04726" lon="7.19838">
        <ele>1823</ele>
        <time>2012-05-27T05:54:59Z</time>
      </trkpt>
      <trkpt lat="44.0472" lon="7.19848">
        <ele>1824.8</ele>
        <time>2012-05-27T05:55:11Z</time>
      </trkpt>
      <trkpt lat="44.04713" lon="7.19869">
        <ele>1830.8</ele>
        <time>2012-05-27T05:55:33Z</time>
      </trkpt>
      <trkpt lat="44.04707" lon="7.19879">
        <ele>1832.3</ele>
        <time>2012-05-27T05:55:40Z</time>
      </trkpt>
      <trkpt lat="44.047" lon="7.199">
        <ele>1834</ele>
        <time>2012-05-27T05:55:57Z</time>
      </trkpt>
      <trkpt lat="44.04691" lon="7.19919">
        <ele>1834.7</ele>
        <time>2012-05-27T05:56:14Z</time>
      </trkpt>
      <trkpt lat="44.04689" lon="7.19931">
        <ele>1836.5</ele>
        <time>2012-05-27T05:56:24Z</time>
      </trkpt>
      <trkpt lat="44.04682" lon="7.19951">
        <ele>1838.2</ele>
        <time>2012-05-27T05:56:39Z</time>
      </trkpt>
      <trkpt lat="44.04679" lon="7.19964">
        <ele>1839.2</ele>
        <time>2012-05-27T05:56:48Z</time>
      </trkpt>
      <trkpt lat="44.04672" lon="7.19984">
        <ele>1840.1</ele>
        <time>2012-05-27T05:57:02Z</time>
      </trkpt>
      <trkpt lat="44.0467" lon="7.19996">
        <ele>1841.1</ele>
        <time>2012-05-27T05:57:10Z</time>
      </trkpt>
      <trkpt lat="44.04667" lon="7.20008">
        <ele>1841.8</ele>
        <time>2012-05-27T05:57:18Z</time>
      </trkpt>
      <trkpt lat="44.04665" lon="7.20019">
        <ele>1842.8</ele>
        <time>2012-05-27T05:57:25Z</time>
      </trkpt>
      <trkpt lat="44.04663" lon="7.20043">
        <ele>1846.4</ele>
        <time>2012-05-27T05:57:40Z</time>
      </trkpt>
      <trkpt lat="44.04661" lon="7.20066">
        <ele>1849.2</ele>
        <time>2012-05-27T05:57:53Z</time>
      </trkpt>
      <trkpt lat="44.04656" lon="7.20095">
        <ele>1851.3</ele>
        <time>2012-05-27T05:58:02Z</time>
      </trkpt>
      <trkpt lat="44.0465" lon="7.20115">
        <ele>1852.1</ele>
        <time>2012-05-27T05:58:08Z</time>
      </trkpt>
      <trkpt lat="44.0464" lon="7.20131">
        <ele>1850.1</ele>
        <time>2012-05-27T05:58:16Z</time>
      </trkpt>
      <trkpt lat="44.0463" lon="7.20148">
        <ele>1849.7</ele>
        <time>2012-05-27T05:58:22Z</time>
      </trkpt>
      <trkpt lat="44.04619" lon="7.20162">
        <ele>1849.3</ele>
        <time>2012-05-27T05:58:29Z</time>
      </trkpt>
      <trkpt lat="44.04607" lon="7.20177">
        <ele>1848.7</ele>
        <time>2012-05-27T05:58:46Z</time>
      </trkpt>
      <trkpt lat="44.0459" lon="7.20204">
        <ele>1851.1</ele>
        <time>2012-05-27T05:59:22Z</time>
      </trkpt>
      <trkpt lat="44.04575" lon="7.20217">
        <ele>1851.2</ele>
        <time>2012-05-27T05:59:37Z</time>
      </trkpt>
      <trkpt lat="44.04568" lon="7.20221">
        <ele>1850.5</ele>
        <time>2012-05-27T05:59:40Z</time>
      </trkpt>
      <trkpt lat="44.04554" lon="7.20232">
        <ele>1849.9</ele>
        <time>2012-05-27T05:59:46Z</time>
      </trkpt>
      <trkpt lat="44.04539" lon="7.2024">
        <ele>1847.9</ele>
        <time>2012-05-27T05:59:51Z</time>
      </trkpt>
      <trkpt lat="44.04527" lon="7.20249">
        <ele>1845.9</ele>
        <time>2012-05-27T05:59:54Z</time>
      </trkpt>
      <trkpt lat="44.04516" lon="7.2026">
        <ele>1844.6</ele>
        <time>2012-05-27T05:59:57Z</time>
      </trkpt>
      <trkpt lat="44.04509" lon="7.20268">
        <ele>1844.1</ele>
        <time>2012-05-27T05:59:59Z</time>
      </trkpt>
      <trkpt lat="44.04497" lon="7.20284">
        <ele>1844</ele>
        <time>2012-05-27T06:00:03Z</time>
      </trkpt>
      <trkpt lat="44.04487" lon="7.20302">
        <ele>1844.7</ele>
        <time>2012-05-27T06:00:07Z</time>
      </trkpt>
      <trkpt lat="44.04484" lon="7.20314">
        <ele>1847.3</ele>
        <time>2012-05-27T06:00:10Z</time>
      </trkpt>
      <trkpt lat="44.0448" lon="7.20325">
        <ele>1850.2</ele>
        <time>2012-05-27T06:00:17Z</time>
      </trkpt>
      <trkpt lat="44.04469" lon="7.20341">
        <ele>1851.3</ele>
        <time>2012-05-27T06:00:26Z</time>
      </trkpt>
      <trkpt lat="44.04459" lon="7.20356">
        <ele>1852.3</ele>
        <time>2012-05-27T06:00:32Z</time>
      </trkpt>
      <trkpt lat="44.04451" lon="7.20363">
        <ele>1853.1</ele>
        <time>2012-05-27T06:00:36Z</time>
      </trkpt>
      <trkpt lat="44.04438" lon="7.20375">
        <ele>1855.4</ele>
        <time>2012-05-27T06:00:44Z</time>
      </trkpt>
      <trkpt lat="44.04426" lon="7.20389">
        <ele>1858.3</ele>
        <time>2012-05-27T06:00:51Z</time>
      </trkpt>
      <trkpt lat="44.0442" lon="7.20395">
        <ele>1859.6</ele>
        <time>2012-05-27T06:00:54Z</time>
      </trkpt>
      <trkpt lat="44.04391" lon="7.20417">
        <ele>1862.5</ele>
        <time>2012-05-27T06:01:07Z</time>
      </trkpt>
      <trkpt lat="44.0437" lon="7.2043">
        <ele>1863.5</ele>
        <time>2012-05-27T06:01:17Z</time>
      </trkpt>
      <trkpt lat="44.04362" lon="7.20434">
        <ele>1865.1</ele>
        <time>2012-05-27T06:01:21Z</time>
      </trkpt>
      <trkpt lat="44.04348" lon="7.20444">
        <ele>1869.4</ele>
        <time>2012-05-27T06:01:30Z</time>
      </trkpt>
      <trkpt lat="44.04332" lon="7.20451">
        <ele>1872.7</ele>
        <time>2012-05-27T06:01:46Z</time>
      </trkpt>
      <trkpt lat="44.04317" lon="7.20457">
        <ele>1875.3</ele>
        <time>2012-05-27T06:01:56Z</time>
      </trkpt>
      <trkpt lat="44.04307" lon="7.20462">
        <ele>1877.7</ele>
        <time>2012-05-27T06:02:06Z</time>
      </trkpt>
      <trkpt lat="44.04293" lon="7.20473">
        <ele>1883.3</ele>
        <time>2012-05-27T06:02:20Z</time>
      </trkpt>
      <trkpt lat="44.04278" lon="7.20481">
        <ele>1888.1</ele>
        <time>2012-05-27T06:02:33Z</time>
      </trkpt>
      <trkpt lat="44.04261" lon="7.20484">
        <ele>1891.2</ele>
        <time>2012-05-27T06:02:46Z</time>
      </trkpt>
      <trkpt lat="44.04235" lon="7.20479">
        <ele>1891.1</ele>
        <time>2012-05-27T06:03:03Z</time>
      </trkpt>
      <trkpt lat="44.04227" lon="7.20476">
        <ele>1890.6</ele>
        <time>2012-05-27T06:03:09Z</time>
      </trkpt>
      <trkpt lat="44.0421" lon="7.20472">
        <ele>1890</ele>
        <time>2012-05-27T06:03:19Z</time>
      </trkpt>
      <trkpt lat="44.04202" lon="7.20471">
        <ele>1890.6</ele>
        <time>2012-05-27T06:03:23Z</time>
      </trkpt>
      <trkpt lat="44.04187" lon="7.20474">
        <ele>1894.1</ele>
        <time>2012-05-27T06:03:31Z</time>
      </trkpt>
      <trkpt lat="44.0417" lon="7.2048">
        <ele>1900</ele>
        <time>2012-05-27T06:03:41Z</time>
      </trkpt>
      <trkpt lat="44.04155" lon="7.20487">
        <ele>1905.9</ele>
        <time>2012-05-27T06:03:52Z</time>
      </trkpt>
      <trkpt lat="44.0414" lon="7.20487">
        <ele>1908.8</ele>
        <time>2012-05-27T06:04:03Z</time>
      </trkpt>
      <trkpt lat="44.04123" lon="7.20481">
        <ele>1909.1</ele>
        <time>2012-05-27T06:04:14Z</time>
      </trkpt>
      <trkpt lat="44.041" lon="7.20485">
        <ele>1918.8</ele>
        <time>2012-05-27T06:04:29Z</time>
      </trkpt>
      <trkpt lat="44.04084" lon="7.20483">
        <ele>1925.3</ele>
        <time>2012-05-27T06:04:41Z</time>
      </trkpt>
      <trkpt lat="44.04063" lon="7.20463">
        <ele>1924.8</ele>
        <time>2012-05-27T06:05:03Z</time>
      </trkpt>
      <trkpt lat="44.04054" lon="7.20461">
        <ele>1927.5</ele>
        <time>2012-05-27T06:05:18Z</time>
      </trkpt>
      <trkpt lat="44.04039" lon="7.20454">
        <ele>1930.8</ele>
        <time>2012-05-27T06:05:38Z</time>
      </trkpt>
      <trkpt lat="44.04023" lon="7.20444">
        <ele>1929.2</ele>
        <time>2012-05-27T06:06:07Z</time>
      </trkpt>
      <trkpt lat="44.04014" lon="7.20439">
        <ele>1928.5</ele>
        <time>2012-05-27T06:06:20Z</time>
      </trkpt>
      <trkpt lat="44.0399" lon="7.2043">
        <ele>1928</ele>
        <time>2012-05-27T06:06:47Z</time>
      </trkpt>
      <trkpt lat="44.03974" lon="7.20425">
        <ele>1928.2</ele>
        <time>2012-05-27T06:07:07Z</time>
      </trkpt>
      <trkpt lat="44.03967" lon="7.20422">
        <ele>1928.2</ele>
        <time>2012-05-27T06:07:12Z</time>
      </trkpt>
      <trkpt lat="44.03957" lon="7.20417">
        <ele>1927.5</ele>
        <time>2012-05-27T06:07:21Z</time>
      </trkpt>
      <trkpt lat="44.03942" lon="7.20415">
        <ele>1919.1</ele>
        <time>2012-05-27T06:07:36Z</time>
      </trkpt>
      <trkpt lat="44.03929" lon="7.2043">
        <ele>1916</ele>
        <time>2012-05-27T06:07:54Z</time>
      </trkpt>
      <trkpt lat="44.03926" lon="7.20453">
        <ele>1919.4</ele>
        <time>2012-05-27T06:08:11Z</time>
      </trkpt>
      <trkpt lat="44.03925" lon="7.20465">
        <ele>1922</ele>
        <time>2012-05-27T06:08:18Z</time>
      </trkpt>
      <trkpt lat="44.03924" lon="7.20479">
        <ele>1923.9</ele>
        <time>2012-05-27T06:08:24Z</time>
      </trkpt>
      <trkpt lat="44.03924" lon="7.20496">
        <ele>1927.4</ele>
        <time>2012-05-27T06:08:29Z</time>
      </trkpt>
      <trkpt lat="44.03919" lon="7.20514">
        <ele>1929.6</ele>
        <time>2012-05-27T06:08:35Z</time>
      </trkpt>
      <trkpt lat="44.03903" lon="7.20547">
        <ele>1928.9</ele>
        <time>2012-05-27T06:08:44Z</time>
      </trkpt>
      <trkpt lat="44.03894" lon="7.20561">
        <ele>1928</ele>
        <time>2012-05-27T06:08:48Z</time>
      </trkpt>
      <trkpt lat="44.0389" lon="7.2057">
        <ele>1927.6</ele>
        <time>2012-05-27T06:08:50Z</time>
      </trkpt>
      <trkpt lat="44.03881" lon="7.20586">
        <ele>1926.6</ele>
        <time>2012-05-27T06:08:54Z</time>
      </trkpt>
      <trkpt lat="44.03874" lon="7.20607">
        <ele>1926.5</ele>
        <time>2012-05-27T06:09:01Z</time>
      </trkpt>
      <trkpt lat="44.03869" lon="7.20618">
        <ele>1926.1</ele>
        <time>2012-05-27T06:09:07Z</time>
      </trkpt>
      <trkpt lat="44.0386" lon="7.20638">
        <ele>1925</ele>
        <time>2012-05-27T06:09:22Z</time>
      </trkpt>
      <trkpt lat="44.03855" lon="7.20647">
        <ele>1923.9</ele>
        <time>2012-05-27T06:09:29Z</time>
      </trkpt>
      <trkpt lat="44.03846" lon="7.20668">
        <ele>1924.3</ele>
        <time>2012-05-27T06:09:43Z</time>
      </trkpt>
      <trkpt lat="44.0384" lon="7.2069">
        <ele>1925.6</ele>
        <time>2012-05-27T06:09:57Z</time>
      </trkpt>
      <trkpt lat="44.03836" lon="7.207">
        <ele>1925.9</ele>
        <time>2012-05-27T06:10:04Z</time>
      </trkpt>
      <trkpt lat="44.0383" lon="7.20721">
        <ele>1928.2</ele>
        <time>2012-05-27T06:10:20Z</time>
      </trkpt>
      <trkpt lat="44.03825" lon="7.20744">
        <ele>1931.7</ele>
        <time>2012-05-27T06:10:33Z</time>
      </trkpt>
      <trkpt lat="44.03817" lon="7.20765">
        <ele>1934.1</ele>
        <time>2012-05-27T06:10:43Z</time>
      </trkpt>
      <trkpt lat="44.03809" lon="7.20784">
        <ele>1935.4</ele>
        <time>2012-05-27T06:10:53Z</time>
      </trkpt>
      <trkpt lat="44.038" lon="7.20801">
        <ele>1936.4</ele>
        <time>2012-05-27T06:11:01Z</time>
      </trkpt>
      <trkpt lat="44.03796" lon="7.2081">
        <ele>1937.2</ele>
        <time>2012-05-27T06:11:05Z</time>
      </trkpt>
      <trkpt lat="44.03786" lon="7.20825">
        <ele>1938.7</ele>
        <time>2012-05-27T06:11:13Z</time>
      </trkpt>
      <trkpt lat="44.03782" lon="7.20832">
        <ele>1939.3</ele>
        <time>2012-05-27T06:11:16Z</time>
      </trkpt>
      <trkpt lat="44.03772" lon="7.2085">
        <ele>1942.5</ele>
        <time>2012-05-27T06:11:23Z</time>
      </trkpt>
      <trkpt lat="44.03762" lon="7.20868">
        <ele>1947.4</ele>
        <time>2012-05-27T06:11:32Z</time>
      </trkpt>
      <trkpt lat="44.03755" lon="7.20878">
        <ele>1949.4</ele>
        <time>2012-05-27T06:11:38Z</time>
      </trkpt>
      <trkpt lat="44.03742" lon="7.20889">
        <ele>1951.9</ele>
        <time>2012-05-27T06:11:50Z</time>
      </trkpt>
      <trkpt lat="44.03725" lon="7.20893">
        <ele>1950.1</ele>
        <time>2012-05-27T06:12:01Z</time>
      </trkpt>
      <trkpt lat="44.0371" lon="7.20887">
        <ele>1943.5</ele>
        <time>2012-05-27T06:12:09Z</time>
      </trkpt>
      <trkpt lat="44.03701" lon="7.20887">
        <ele>1940</ele>
        <time>2012-05-27T06:12:13Z</time>
      </trkpt>
      <trkpt lat="44.03693" lon="7.20891">
        <ele>1938.4</ele>
        <time>2012-05-27T06:12:17Z</time>
      </trkpt>
      <trkpt lat="44.03685" lon="7.20898">
        <ele>1938.4</ele>
        <time>2012-05-27T06:12:20Z</time>
      </trkpt>
      <trkpt lat="44.03674" lon="7.20902">
        <ele>1937.6</ele>
        <time>2012-05-27T06:12:23Z</time>
      </trkpt>
      <trkpt lat="44.03658" lon="7.20906">
        <ele>1933.6</ele>
        <time>2012-05-27T06:12:27Z</time>
      </trkpt>
      <trkpt lat="44.03641" lon="7.20908">
        <ele>1927.7</ele>
        <time>2012-05-27T06:12:33Z</time>
      </trkpt>
      <trkpt lat="44.03635" lon="7.20913">
        <ele>1926.8</ele>
        <time>2012-05-27T06:12:36Z</time>
      </trkpt>
      <trkpt lat="44.03614" lon="7.20925">
        <ele>1924.7</ele>
        <time>2012-05-27T06:12:43Z</time>
      </trkpt>
      <trkpt lat="44.03607" lon="7.20945">
        <ele>1931</ele>
        <time>2012-05-27T06:12:53Z</time>
      </trkpt>
      <trkpt lat="44.03598" lon="7.20978">
        <ele>1944.7</ele>
        <time>2012-05-27T06:13:14Z</time>
      </trkpt>
      <trkpt lat="44.03585" lon="7.20991">
        <ele>1946.8</ele>
        <time>2012-05-27T06:13:26Z</time>
      </trkpt>
      <trkpt lat="44.03577" lon="7.20998">
        <ele>1947.5</ele>
        <time>2012-05-27T06:13:33Z</time>
      </trkpt>
      <trkpt lat="44.03568" lon="7.21">
        <ele>1945.5</ele>
        <time>2012-05-27T06:13:39Z</time>
      </trkpt>
      <trkpt lat="44.03559" lon="7.21005">
        <ele>1943.8</ele>
        <time>2012-05-27T06:13:47Z</time>
      </trkpt>
      <trkpt lat="44.03549" lon="7.21018">
        <ele>1945.9</ele>
        <time>2012-05-27T06:13:56Z</time>
      </trkpt>
      <trkpt lat="44.03541" lon="7.21024">
        <ele>1946.4</ele>
        <time>2012-05-27T06:14:00Z</time>
      </trkpt>
      <trkpt lat="44.03525" lon="7.21031">
        <ele>1946.3</ele>
        <time>2012-05-27T06:14:09Z</time>
      </trkpt>
      <trkpt lat="44.03514" lon="7.21039">
        <ele>1947.5</ele>
        <time>2012-05-27T06:14:14Z</time>
      </trkpt>
      <trkpt lat="44.035" lon="7.21047">
        <ele>1949.3</ele>
        <time>2012-05-27T06:14:20Z</time>
      </trkpt>
      <trkpt lat="44.03486" lon="7.21056">
        <ele>1952.9</ele>
        <time>2012-05-27T06:14:27Z</time>
      </trkpt>
      <trkpt lat="44.0347" lon="7.21063">
        <ele>1954.3</ele>
        <time>2012-05-27T06:14:39Z</time>
      </trkpt>
      <trkpt lat="44.03463" lon="7.21068">
        <ele>1956</ele>
        <time>2012-05-27T06:14:49Z</time>
      </trkpt>
      <trkpt lat="44.03447" lon="7.21074">
        <ele>1959</ele>
        <time>2012-05-27T06:15:04Z</time>
      </trkpt>
      <trkpt lat="44.03433" lon="7.21085">
        <ele>1965.7</ele>
        <time>2012-05-27T06:15:18Z</time>
      </trkpt>
      <trkpt lat="44.03417" lon="7.21093">
        <ele>1970.9</ele>
        <time>2012-05-27T06:15:32Z</time>
      </trkpt>
      <trkpt lat="44.034" lon="7.21099">
        <ele>1974.2</ele>
        <time>2012-05-27T06:15:46Z</time>
      </trkpt>
      <trkpt lat="44.03391" lon="7.21104">
        <ele>1977.3</ele>
        <time>2012-05-27T06:15:56Z</time>
      </trkpt>
      <trkpt lat="44.03377" lon="7.21115">
        <ele>1983.2</ele>
        <time>2012-05-27T06:16:11Z</time>
      </trkpt>
      <trkpt lat="44.03369" lon="7.2112">
        <ele>1985.6</ele>
        <time>2012-05-27T06:16:18Z</time>
      </trkpt>
      <trkpt lat="44.03354" lon="7.21123">
        <ele>1985.8</ele>
        <time>2012-05-27T06:16:26Z</time>
      </trkpt>
      <trkpt lat="44.03338" lon="7.21119">
        <ele>1982.1</ele>
        <time>2012-05-27T06:16:34Z</time>
      </trkpt>
      <trkpt lat="44.0333" lon="7.21115">
        <ele>1979</ele>
        <time>2012-05-27T06:16:38Z</time>
      </trkpt>
      <trkpt lat="44.03318" lon="7.21102">
        <ele>1970.9</ele>
        <time>2012-05-27T06:16:46Z</time>
      </trkpt>
      <trkpt lat="44.0331" lon="7.211">
        <ele>1968.7</ele>
        <time>2012-05-27T06:16:49Z</time>
      </trkpt>
      <trkpt lat="44.03295" lon="7.21101">
        <ele>1966.7</ele>
        <time>2012-05-27T06:16:55Z</time>
      </trkpt>
      <trkpt lat="44.03289" lon="7.21104">
        <ele>1966.8</ele>
        <time>2012-05-27T06:16:57Z</time>
      </trkpt>
      <trkpt lat="44.03277" lon="7.21111">
        <ele>1966.8</ele>
        <time>2012-05-27T06:17:00Z</time>
      </trkpt>
      <trkpt lat="44.03263" lon="7.2112">
        <ele>1967</ele>
        <time>2012-05-27T06:17:04Z</time>
      </trkpt>
      <trkpt lat="44.03251" lon="7.21131">
        <ele>1967.1</ele>
        <time>2012-05-27T06:17:10Z</time>
      </trkpt>
      <trkpt lat="44.03242" lon="7.21147">
        <ele>1967.1</ele>
        <time>2012-05-27T06:17:15Z</time>
      </trkpt>
      <trkpt lat="44.03235" lon="7.21157">
        <ele>1966.5</ele>
        <time>2012-05-27T06:17:17Z</time>
      </trkpt>
      <trkpt lat="44.03228" lon="7.21167">
        <ele>1965.3</ele>
        <time>2012-05-27T06:17:19Z</time>
      </trkpt>
      <trkpt lat="44.0322" lon="7.21181">
        <ele>1963.1</ele>
        <time>2012-05-27T06:17:22Z</time>
      </trkpt>
      <trkpt lat="44.03207" lon="7.21209">
        <ele>1958.2</ele>
        <time>2012-05-27T06:17:27Z</time>
      </trkpt>
      <trkpt lat="44.03204" lon="7.21222">
        <ele>1956.5</ele>
        <time>2012-05-27T06:17:29Z</time>
      </trkpt>
      <trkpt lat="44.03203" lon="7.21242">
        <ele>1955.6</ele>
        <time>2012-05-27T06:17:33Z</time>
      </trkpt>
      <trkpt lat="44.03204" lon="7.21252">
        <ele>1956.1</ele>
        <time>2012-05-27T06:17:35Z</time>
      </trkpt>
      <trkpt lat="44.03211" lon="7.21297">
        <ele>1961.3</ele>
        <time>2012-05-27T06:17:43Z</time>
      </trkpt>
      <trkpt lat="44.0321" lon="7.21314">
        <ele>1960.1</ele>
        <time>2012-05-27T06:17:47Z</time>
      </trkpt>
      <trkpt lat="44.03212" lon="7.21335">
        <ele>1958.3</ele>
        <time>2012-05-27T06:17:51Z</time>
      </trkpt>
      <trkpt lat="44.03212" lon="7.21346">
        <ele>1957.3</ele>
        <time>2012-05-27T06:17:53Z</time>
      </trkpt>
      <trkpt lat="44.03212" lon="7.21379">
        <ele>1953.3</ele>
        <time>2012-05-27T06:18:00Z</time>
      </trkpt>
      <trkpt lat="44.03212" lon="7.21394">
        <ele>1950.8</ele>
        <time>2012-05-27T06:18:03Z</time>
      </trkpt>
      <trkpt lat="44.03209" lon="7.21417">
        <ele>1945.8</ele>
        <time>2012-05-27T06:18:07Z</time>
      </trkpt>
      <trkpt lat="44.03207" lon="7.21439">
        <ele>1941.1</ele>
        <time>2012-05-27T06:18:12Z</time>
      </trkpt>
      <trkpt lat="44.03208" lon="7.21449">
        <ele>1939.6</ele>
        <time>2012-05-27T06:18:14Z</time>
      </trkpt>
      <trkpt lat="44.03211" lon="7.21469">
        <ele>1938.7</ele>
        <time>2012-05-27T06:18:18Z</time>
      </trkpt>
      <trkpt lat="44.03211" lon="7.21481">
        <ele>1938.7</ele>
        <time>2012-05-27T06:18:20Z</time>
      </trkpt>
      <trkpt lat="44.03206" lon="7.21494">
        <ele>1936.7</ele>
        <time>2012-05-27T06:18:22Z</time>
      </trkpt>
      <trkpt lat="44.03197" lon="7.2151">
        <ele>1930.4</ele>
        <time>2012-05-27T06:18:25Z</time>
      </trkpt>
      <trkpt lat="44.03187" lon="7.21522">
        <ele>1923</ele>
        <time>2012-05-27T06:18:29Z</time>
      </trkpt>
      <trkpt lat="44.03183" lon="7.21541">
        <ele>1919.4</ele>
        <time>2012-05-27T06:18:33Z</time>
      </trkpt>
      <trkpt lat="44.03177" lon="7.21548">
        <ele>1917.3</ele>
        <time>2012-05-27T06:18:36Z</time>
      </trkpt>
      <trkpt lat="44.03165" lon="7.2156">
        <ele>1913.2</ele>
        <time>2012-05-27T06:18:42Z</time>
      </trkpt>
      <trkpt lat="44.03153" lon="7.21575">
        <ele>1911.1</ele>
        <time>2012-05-27T06:18:52Z</time>
      </trkpt>
      <trkpt lat="44.03138" lon="7.21587">
        <ele>1908.1</ele>
        <time>2012-05-27T06:19:11Z</time>
      </trkpt>
      <trkpt lat="44.03125" lon="7.21599">
        <ele>1907.3</ele>
        <time>2012-05-27T06:19:18Z</time>
      </trkpt>
      <trkpt lat="44.03114" lon="7.21609">
        <ele>1905.8</ele>
        <time>2012-05-27T06:19:22Z</time>
      </trkpt>
      <trkpt lat="44.03092" lon="7.21635">
        <ele>1905</ele>
        <time>2012-05-27T06:19:31Z</time>
      </trkpt>
      <trkpt lat="44.03081" lon="7.21642">
        <ele>1903.4</ele>
        <time>2012-05-27T06:19:34Z</time>
      </trkpt>
      <trkpt lat="44.03063" lon="7.21645">
        <ele>1896.9</ele>
        <time>2012-05-27T06:19:38Z</time>
      </trkpt>
      <trkpt lat="44.03045" lon="7.21651">
        <ele>1889.4</ele>
        <time>2012-05-27T06:19:42Z</time>
      </trkpt>
      <trkpt lat="44.03032" lon="7.21666">
        <ele>1888.3</ele>
        <time>2012-05-27T06:19:47Z</time>
      </trkpt>
      <trkpt lat="44.03024" lon="7.21685">
        <ele>1894.4</ele>
        <time>2012-05-27T06:19:53Z</time>
      </trkpt>
      <trkpt lat="44.03017" lon="7.21703">
        <ele>1903</ele>
        <time>2012-05-27T06:20:02Z</time>
      </trkpt>
      <trkpt lat="44.0301" lon="7.2171">
        <ele>1904.4</ele>
        <time>2012-05-27T06:20:07Z</time>
      </trkpt>
      <trkpt lat="44.03003" lon="7.21718">
        <ele>1906.5</ele>
        <time>2012-05-27T06:20:14Z</time>
      </trkpt>
      <trkpt lat="44.02988" lon="7.21722">
        <ele>1904.4</ele>
        <time>2012-05-27T06:20:30Z</time>
      </trkpt>
      <trkpt lat="44.02973" lon="7.21725">
        <ele>1899.2</ele>
        <time>2012-05-27T06:20:45Z</time>
      </trkpt>
      <trkpt lat="44.02961" lon="7.21739">
        <ele>1901.9</ele>
        <time>2012-05-27T06:20:59Z</time>
      </trkpt>
      <trkpt lat="44.02948" lon="7.21751">
        <ele>1902.7</ele>
        <time>2012-05-27T06:21:04Z</time>
      </trkpt>
      <trkpt lat="44.02942" lon="7.21753">
        <ele>1901.5</ele>
        <time>2012-05-27T06:21:06Z</time>
      </trkpt>
      <trkpt lat="44.02916" lon="7.21756">
        <ele>1889.1</ele>
        <time>2012-05-27T06:21:24Z</time>
      </trkpt>
      <trkpt lat="44.02901" lon="7.21756">
        <ele>1880.5</ele>
        <time>2012-05-27T06:21:39Z</time>
      </trkpt>
      <trkpt lat="44.02893" lon="7.21776">
        <ele>1885.2</ele>
        <time>2012-05-27T06:21:53Z</time>
      </trkpt>
      <trkpt lat="44.02892" lon="7.21799">
        <ele>1894.4</ele>
        <time>2012-05-27T06:22:08Z</time>
      </trkpt>
      <trkpt lat="44.02886" lon="7.2182">
        <ele>1899.3</ele>
        <time>2012-05-27T06:22:17Z</time>
      </trkpt>
      <trkpt lat="44.02875" lon="7.21835">
        <ele>1899.4</ele>
        <time>2012-05-27T06:22:22Z</time>
      </trkpt>
      <trkpt lat="44.02867" lon="7.21842">
        <ele>1898.7</ele>
        <time>2012-05-27T06:22:25Z</time>
      </trkpt>
      <trkpt lat="44.02834" lon="7.21858">
        <ele>1887.1</ele>
        <time>2012-05-27T06:22:39Z</time>
      </trkpt>
      <trkpt lat="44.02824" lon="7.21868">
        <ele>1884.1</ele>
        <time>2012-05-27T06:22:43Z</time>
      </trkpt>
      <trkpt lat="44.02816" lon="7.21882">
        <ele>1884.1</ele>
        <time>2012-05-27T06:22:47Z</time>
      </trkpt>
      <trkpt lat="44.02804" lon="7.21916">
        <ele>1887.8</ele>
        <time>2012-05-27T06:22:55Z</time>
      </trkpt>
      <trkpt lat="44.02797" lon="7.21932">
        <ele>1889.2</ele>
        <time>2012-05-27T06:22:59Z</time>
      </trkpt>
      <trkpt lat="44.02786" lon="7.21956">
        <ele>1890.7</ele>
        <time>2012-05-27T06:23:04Z</time>
      </trkpt>
      <trkpt lat="44.02777" lon="7.2197">
        <ele>1891.3</ele>
        <time>2012-05-27T06:23:07Z</time>
      </trkpt>
      <trkpt lat="44.02769" lon="7.21982">
        <ele>1891.7</ele>
        <time>2012-05-27T06:23:09Z</time>
      </trkpt>
      <trkpt lat="44.0276" lon="7.21996">
        <ele>1892.1</ele>
        <time>2012-05-27T06:23:11Z</time>
      </trkpt>
      <trkpt lat="44.02743" lon="7.22013">
        <ele>1890.5</ele>
        <time>2012-05-27T06:23:14Z</time>
      </trkpt>
      <trkpt lat="44.02732" lon="7.22025">
        <ele>1889.5</ele>
        <time>2012-05-27T06:23:16Z</time>
      </trkpt>
      <trkpt lat="44.02728" lon="7.22031">
        <ele>1889.3</ele>
        <time>2012-05-27T06:23:17Z</time>
      </trkpt>
      <trkpt lat="44.02719" lon="7.22041">
        <ele>1888.9</ele>
        <time>2012-05-27T06:23:19Z</time>
      </trkpt>
      <trkpt lat="44.02711" lon="7.22052">
        <ele>1887.7</ele>
        <time>2012-05-27T06:23:21Z</time>
      </trkpt>
      <trkpt lat="44.02703" lon="7.22064">
        <ele>1887.1</ele>
        <time>2012-05-27T06:23:23Z</time>
      </trkpt>
      <trkpt lat="44.02697" lon="7.22077">
        <ele>1887.4</ele>
        <time>2012-05-27T06:23:25Z</time>
      </trkpt>
      <trkpt lat="44.02695" lon="7.22085">
        <ele>1887.7</ele>
        <time>2012-05-27T06:23:26Z</time>
      </trkpt>
      <trkpt lat="44.02693" lon="7.22103">
        <ele>1889.7</ele>
        <time>2012-05-27T06:23:28Z</time>
      </trkpt>
      <trkpt lat="44.02692" lon="7.22123">
        <ele>1892</ele>
        <time>2012-05-27T06:23:30Z</time>
      </trkpt>
      <trkpt lat="44.02682" lon="7.22156">
        <ele>1892.2</ele>
        <time>2012-05-27T06:23:34Z</time>
      </trkpt>
      <trkpt lat="44.0268" lon="7.22172">
        <ele>1891.8</ele>
        <time>2012-05-27T06:23:36Z</time>
      </trkpt>
      <trkpt lat="44.02681" lon="7.22196">
        <ele>1892.8</ele>
        <time>2012-05-27T06:23:39Z</time>
      </trkpt>
      <trkpt lat="44.02684" lon="7.22212">
        <ele>1894.1</ele>
        <time>2012-05-27T06:23:41Z</time>
      </trkpt>
      <trkpt lat="44.02684" lon="7.22228">
        <ele>1895</ele>
        <time>2012-05-27T06:23:43Z</time>
      </trkpt>
      <trkpt lat="44.02682" lon="7.2224">
        <ele>1895.1</ele>
        <time>2012-05-27T06:23:45Z</time>
      </trkpt>
      <trkpt lat="44.02676" lon="7.22258">
        <ele>1893.8</ele>
        <time>2012-05-27T06:23:50Z</time>
      </trkpt>
      <trkpt lat="44.02667" lon="7.22275">
        <ele>1892.3</ele>
        <time>2012-05-27T06:23:56Z</time>
      </trkpt>
      <trkpt lat="44.02659" lon="7.22293">
        <ele>1891.6</ele>
        <time>2012-05-27T06:24:01Z</time>
      </trkpt>
      <trkpt lat="44.02651" lon="7.22309">
        <ele>1893.8</ele>
        <time>2012-05-27T06:24:05Z</time>
      </trkpt>
      <trkpt lat="44.02641" lon="7.22321">
        <ele>1896.2</ele>
        <time>2012-05-27T06:24:09Z</time>
      </trkpt>
      <trkpt lat="44.0263" lon="7.22333">
        <ele>1899</ele>
        <time>2012-05-27T06:24:14Z</time>
      </trkpt>
      <trkpt lat="44.02615" lon="7.22342">
        <ele>1900.8</ele>
        <time>2012-05-27T06:24:21Z</time>
      </trkpt>
      <trkpt lat="44.02607" lon="7.22348">
        <ele>1901.5</ele>
        <time>2012-05-27T06:24:29Z</time>
      </trkpt>
      <trkpt lat="44.02593" lon="7.22357">
        <ele>1902.4</ele>
        <time>2012-05-27T06:24:41Z</time>
      </trkpt>
      <trkpt lat="44.02584" lon="7.22359">
        <ele>1901.9</ele>
        <time>2012-05-27T06:24:49Z</time>
      </trkpt>
      <trkpt lat="44.0256" lon="7.22373">
        <ele>1903</ele>
        <time>2012-05-27T06:25:16Z</time>
      </trkpt>
      <trkpt lat="44.02546" lon="7.22386">
        <ele>1904.2</ele>
        <time>2012-05-27T06:25:33Z</time>
      </trkpt>
      <trkpt lat="44.02546" lon="7.22387">
        <ele>1904.3</ele>
        <time>2012-05-27T06:25:34Z</time>
      </trkpt>
      <trkpt lat="44.02525" lon="7.22404">
        <ele>1903</ele>
        <time>2012-05-27T06:25:53Z</time>
      </trkpt>
      <trkpt lat="44.02513" lon="7.2242">
        <ele>1902.3</ele>
        <time>2012-05-27T06:26:09Z</time>
      </trkpt>
      <trkpt lat="44.02505" lon="7.22439">
        <ele>1902.7</ele>
        <time>2012-05-27T06:26:19Z</time>
      </trkpt>
      <trkpt lat="44.02503" lon="7.22451">
        <ele>1903.6</ele>
        <time>2012-05-27T06:26:26Z</time>
      </trkpt>
      <trkpt lat="44.02502" lon="7.22465">
        <ele>1905.2</ele>
        <time>2012-05-27T06:26:35Z</time>
      </trkpt>
      <trkpt lat="44.02502" lon="7.22486">
        <ele>1906.7</ele>
        <time>2012-05-27T06:26:48Z</time>
      </trkpt>
      <trkpt lat="44.02501" lon="7.22509">
        <ele>1907.9</ele>
        <time>2012-05-27T06:27:02Z</time>
      </trkpt>
      <trkpt lat="44.02501" lon="7.22521">
        <ele>1908.8</ele>
        <time>2012-05-27T06:27:09Z</time>
      </trkpt>
      <trkpt lat="44.02498" lon="7.22544">
        <ele>1909.1</ele>
        <time>2012-05-27T06:27:22Z</time>
      </trkpt>
      <trkpt lat="44.02494" lon="7.22577">
        <ele>1912.1</ele>
        <time>2012-05-27T06:27:37Z</time>
      </trkpt>
      <trkpt lat="44.02488" lon="7.22598">
        <ele>1913</ele>
        <time>2012-05-27T06:27:51Z</time>
      </trkpt>
      <trkpt lat="44.02484" lon="7.22607">
        <ele>1912.7</ele>
        <time>2012-05-27T06:27:58Z</time>
      </trkpt>
      <trkpt lat="44.02477" lon="7.22629">
        <ele>1913.1</ele>
        <time>2012-05-27T06:28:13Z</time>
      </trkpt>
      <trkpt lat="44.02474" lon="7.2264">
        <ele>1913</ele>
        <time>2012-05-27T06:28:20Z</time>
      </trkpt>
      <trkpt lat="44.0247" lon="7.22663">
        <ele>1913.8</ele>
        <time>2012-05-27T06:28:30Z</time>
      </trkpt>
      <trkpt lat="44.02466" lon="7.22685">
        <ele>1914.5</ele>
        <time>2012-05-27T06:28:41Z</time>
      </trkpt>
      <trkpt lat="44.02461" lon="7.22707">
        <ele>1915.3</ele>
        <time>2012-05-27T06:28:50Z</time>
      </trkpt>
      <trkpt lat="44.02457" lon="7.22716">
        <ele>1915.5</ele>
        <time>2012-05-27T06:28:53Z</time>
      </trkpt>
      <trkpt lat="44.02441" lon="7.22746">
        <ele>1913.1</ele>
        <time>2012-05-27T06:29:00Z</time>
      </trkpt>
      <trkpt lat="44.02431" lon="7.22761">
        <ele>1911.4</ele>
        <time>2012-05-27T06:29:03Z</time>
      </trkpt>
      <trkpt lat="44.02424" lon="7.22771">
        <ele>1909.9</ele>
        <time>2012-05-27T06:29:05Z</time>
      </trkpt>
      <trkpt lat="44.02411" lon="7.22785">
        <ele>1906</ele>
        <time>2012-05-27T06:29:10Z</time>
      </trkpt>
      <trkpt lat="44.02399" lon="7.228">
        <ele>1902.9</ele>
        <time>2012-05-27T06:29:17Z</time>
      </trkpt>
      <trkpt lat="44.02395" lon="7.22811">
        <ele>1904</ele>
        <time>2012-05-27T06:29:23Z</time>
      </trkpt>
      <trkpt lat="44.02389" lon="7.22856">
        <ele>1913.9</ele>
        <time>2012-05-27T06:29:46Z</time>
      </trkpt>
      <trkpt lat="44.02382" lon="7.22874">
        <ele>1917.1</ele>
        <time>2012-05-27T06:29:52Z</time>
      </trkpt>
      <trkpt lat="44.02378" lon="7.22882">
        <ele>1918.1</ele>
        <time>2012-05-27T06:29:55Z</time>
      </trkpt>
      <trkpt lat="44.02367" lon="7.22898">
        <ele>1918</ele>
        <time>2012-05-27T06:30:02Z</time>
      </trkpt>
      <trkpt lat="44.02354" lon="7.22912">
        <ele>1915.9</ele>
        <time>2012-05-27T06:30:11Z</time>
      </trkpt>
      <trkpt lat="44.02348" lon="7.22917">
        <ele>1914.6</ele>
        <time>2012-05-27T06:30:14Z</time>
      </trkpt>
      <trkpt lat="44.02338" lon="7.22934">
        <ele>1913.9</ele>
        <time>2012-05-27T06:30:20Z</time>
      </trkpt>
      <trkpt lat="44.02332" lon="7.22938">
        <ele>1913.2</ele>
        <time>2012-05-27T06:30:22Z</time>
      </trkpt>
      <trkpt lat="44.0232" lon="7.22946">
        <ele>1910.5</ele>
        <time>2012-05-27T06:30:26Z</time>
      </trkpt>
      <trkpt lat="44.02309" lon="7.22958">
        <ele>1908.6</ele>
        <time>2012-05-27T06:30:30Z</time>
      </trkpt>
      <trkpt lat="44.02306" lon="7.22969">
        <ele>1909.3</ele>
        <time>2012-05-27T06:30:32Z</time>
      </trkpt>
      <trkpt lat="44.02303" lon="7.22982">
        <ele>1911.2</ele>
        <time>2012-05-27T06:30:34Z</time>
      </trkpt>
      <trkpt lat="44.02297" lon="7.22998">
        <ele>1914</ele>
        <time>2012-05-27T06:30:37Z</time>
      </trkpt>
      <trkpt lat="44.0229" lon="7.23014">
        <ele>1916.9</ele>
        <time>2012-05-27T06:30:40Z</time>
      </trkpt>
      <trkpt lat="44.0228" lon="7.2303">
        <ele>1918.6</ele>
        <time>2012-05-27T06:30:43Z</time>
      </trkpt>
      <trkpt lat="44.02272" lon="7.23041">
        <ele>1919.1</ele>
        <time>2012-05-27T06:30:45Z</time>
      </trkpt>
      <trkpt lat="44.02262" lon="7.2305">
        <ele>1918.1</ele>
        <time>2012-05-27T06:30:48Z</time>
      </trkpt>
      <trkpt lat="44.02252" lon="7.23055">
        <ele>1915.5</ele>
        <time>2012-05-27T06:30:51Z</time>
      </trkpt>
      <trkpt lat="44.02238" lon="7.23066">
        <ele>1912.9</ele>
        <time>2012-05-27T06:30:55Z</time>
      </trkpt>
      <trkpt lat="44.02222" lon="7.23074">
        <ele>1911</ele>
        <time>2012-05-27T06:30:58Z</time>
      </trkpt>
      <trkpt lat="44.02215" lon="7.23079">
        <ele>1910.5</ele>
        <time>2012-05-27T06:30:59Z</time>
      </trkpt>
      <trkpt lat="44.02202" lon="7.23086">
        <ele>1909.9</ele>
        <time>2012-05-27T06:31:01Z</time>
      </trkpt>
      <trkpt lat="44.02196" lon="7.23088">
        <ele>1909.7</ele>
        <time>2012-05-27T06:31:02Z</time>
      </trkpt>
      <trkpt lat="44.02186" lon="7.23088">
        <ele>1908.3</ele>
        <time>2012-05-27T06:31:04Z</time>
      </trkpt>
      <trkpt lat="44.02163" lon="7.23097">
        <ele>1907.2</ele>
        <time>2012-05-27T06:31:09Z</time>
      </trkpt>
      <trkpt lat="44.02155" lon="7.23102">
        <ele>1907.6</ele>
        <time>2012-05-27T06:31:11Z</time>
      </trkpt>
      <trkpt lat="44.02147" lon="7.23107">
        <ele>1908.4</ele>
        <time>2012-05-27T06:31:13Z</time>
      </trkpt>
      <trkpt lat="44.02141" lon="7.23109">
        <ele>1908.5</ele>
        <time>2012-05-27T06:31:14Z</time>
      </trkpt>
      <trkpt lat="44.02126" lon="7.23108">
        <ele>1906.7</ele>
        <time>2012-05-27T06:31:17Z</time>
      </trkpt>
      <trkpt lat="44.02116" lon="7.23112">
        <ele>1905.3</ele>
        <time>2012-05-27T06:31:19Z</time>
      </trkpt>
      <trkpt lat="44.02107" lon="7.2312">
        <ele>1905.6</ele>
        <time>2012-05-27T06:31:21Z</time>
      </trkpt>
      <trkpt lat="44.02095" lon="7.23128">
        <ele>1906</ele>
        <time>2012-05-27T06:31:24Z</time>
      </trkpt>
      <trkpt lat="44.02074" lon="7.23135">
        <ele>1904</ele>
        <time>2012-05-27T06:31:32Z</time>
      </trkpt>
      <trkpt lat="44.02066" lon="7.2314">
        <ele>1903.6</ele>
        <time>2012-05-27T06:31:34Z</time>
      </trkpt>
      <trkpt lat="44.02055" lon="7.23149">
        <ele>1904.4</ele>
        <time>2012-05-27T06:31:37Z</time>
      </trkpt>
      <trkpt lat="44.02043" lon="7.23159">
        <ele>1906.4</ele>
        <time>2012-05-27T06:31:40Z</time>
      </trkpt>
      <trkpt lat="44.02037" lon="7.23163">
        <ele>1907.4</ele>
        <time>2012-05-27T06:31:42Z</time>
      </trkpt>
      <trkpt lat="44.02023" lon="7.23172">
        <ele>1910.8</ele>
        <time>2012-05-27T06:31:46Z</time>
      </trkpt>
      <trkpt lat="44.02012" lon="7.23177">
        <ele>1912.7</ele>
        <time>2012-05-27T06:31:49Z</time>
      </trkpt>
      <trkpt lat="44.01995" lon="7.23182">
        <ele>1915.1</ele>
        <time>2012-05-27T06:31:54Z</time>
      </trkpt>
      <trkpt lat="44.01981" lon="7.23181">
        <ele>1914.8</ele>
        <time>2012-05-27T06:31:58Z</time>
      </trkpt>
      <trkpt lat="44.01965" lon="7.23181">
        <ele>1914.3</ele>
        <time>2012-05-27T06:32:04Z</time>
      </trkpt>
      <trkpt lat="44.0195" lon="7.23182">
        <ele>1914.7</ele>
        <time>2012-05-27T06:32:10Z</time>
      </trkpt>
      <trkpt lat="44.01935" lon="7.2318">
        <ele>1915.5</ele>
        <time>2012-05-27T06:32:18Z</time>
      </trkpt>
      <trkpt lat="44.01926" lon="7.23182">
        <ele>1917.2</ele>
        <time>2012-05-27T06:32:26Z</time>
      </trkpt>
      <trkpt lat="44.0191" lon="7.23183">
        <ele>1919.5</ele>
        <time>2012-05-27T06:32:37Z</time>
      </trkpt>
      <trkpt lat="44.01892" lon="7.2318">
        <ele>1919.8</ele>
        <time>2012-05-27T06:32:47Z</time>
      </trkpt>
      <trkpt lat="44.01883" lon="7.23176">
        <ele>1918.9</ele>
        <time>2012-05-27T06:32:53Z</time>
      </trkpt>
      <trkpt lat="44.01869" lon="7.23178">
        <ele>1920.8</ele>
        <time>2012-05-27T06:33:01Z</time>
      </trkpt>
      <trkpt lat="44.01862" lon="7.23181">
        <ele>1922.8</ele>
        <time>2012-05-27T06:33:05Z</time>
      </trkpt>
      <trkpt lat="44.01845" lon="7.23185">
        <ele>1926.9</ele>
        <time>2012-05-27T06:33:14Z</time>
      </trkpt>
      <trkpt lat="44.01838" lon="7.23183">
        <ele>1927.3</ele>
        <time>2012-05-27T06:33:19Z</time>
      </trkpt>
      <trkpt lat="44.01822" lon="7.23182">
        <ele>1927.6</ele>
        <time>2012-05-27T06:33:29Z</time>
      </trkpt>
      <trkpt lat="44.01806" lon="7.23182">
        <ele>1929.3</ele>
        <time>2012-05-27T06:33:37Z</time>
      </trkpt>
      <trkpt lat="44.01789" lon="7.23176">
        <ele>1927.1</ele>
        <time>2012-05-27T06:33:50Z</time>
      </trkpt>
      <trkpt lat="44.0178" lon="7.23172">
        <ele>1926.2</ele>
        <time>2012-05-27T06:33:57Z</time>
      </trkpt>
      <trkpt lat="44.01759" lon="7.23174">
        <ele>1929.1</ele>
        <time>2012-05-27T06:34:09Z</time>
      </trkpt>
      <trkpt lat="44.01732" lon="7.23173">
        <ele>1931.4</ele>
        <time>2012-05-27T06:34:20Z</time>
      </trkpt>
      <trkpt lat="44.01715" lon="7.23172">
        <ele>1932.4</ele>
        <time>2012-05-27T06:34:27Z</time>
      </trkpt>
      <trkpt lat="44.01706" lon="7.23173">
        <ele>1933.6</ele>
        <time>2012-05-27T06:34:30Z</time>
      </trkpt>
      <trkpt lat="44.0169" lon="7.23177">
        <ele>1941</ele>
        <time>2012-05-27T06:34:34Z</time>
      </trkpt>
      <trkpt lat="44.01682" lon="7.23173">
        <ele>1943.2</ele>
        <time>2012-05-27T06:34:37Z</time>
      </trkpt>
      <trkpt lat="44.01667" lon="7.23169">
        <ele>1947</ele>
        <time>2012-05-27T06:34:43Z</time>
      </trkpt>
      <trkpt lat="44.01659" lon="7.23169">
        <ele>1950.1</ele>
        <time>2012-05-27T06:34:47Z</time>
      </trkpt>
      <trkpt lat="44.01642" lon="7.23173">
        <ele>1958.8</ele>
        <time>2012-05-27T06:34:59Z</time>
      </trkpt>
      <trkpt lat="44.01641" lon="7.23173">
        <ele>1959.1</ele>
        <time>2012-05-27T06:35:00Z</time>
      </trkpt>
      <trkpt lat="44.01625" lon="7.23175">
        <ele>1966.7</ele>
        <time>2012-05-27T06:35:18Z</time>
      </trkpt>
      <trkpt lat="44.01617" lon="7.23174">
        <ele>1969.6</ele>
        <time>2012-05-27T06:35:28Z</time>
      </trkpt>
      <trkpt lat="44.01603" lon="7.23163">
        <ele>1972.8</ele>
        <time>2012-05-27T06:35:42Z</time>
      </trkpt>
      <trkpt lat="44.01594" lon="7.2316">
        <ele>1975.9</ele>
        <time>2012-05-27T06:35:48Z</time>
      </trkpt>
      <trkpt lat="44.01589" lon="7.23151">
        <ele>1976.1</ele>
        <time>2012-05-27T06:35:55Z</time>
      </trkpt>
      <trkpt lat="44.01575" lon="7.23122">
        <ele>1973.3</ele>
        <time>2012-05-27T06:36:18Z</time>
      </trkpt>
      <trkpt lat="44.01565" lon="7.23107">
        <ele>1972.4</ele>
        <time>2012-05-27T06:36:24Z</time>
      </trkpt>
      <trkpt lat="44.01552" lon="7.23094">
        <ele>1974.2</ele>
        <time>2012-05-27T06:36:30Z</time>
      </trkpt>
      <trkpt lat="44.01548" lon="7.23073">
        <ele>1968.9</ele>
        <time>2012-05-27T06:36:37Z</time>
      </trkpt>
      <trkpt lat="44.01549" lon="7.2306">
        <ele>1964.3</ele>
        <time>2012-05-27T06:36:40Z</time>
      </trkpt>
      <trkpt lat="44.01547" lon="7.23041">
        <ele>1956.7</ele>
        <time>2012-05-27T06:36:45Z</time>
      </trkpt>
      <trkpt lat="44.01544" lon="7.23023">
        <ele>1949.1</ele>
        <time>2012-05-27T06:36:50Z</time>
      </trkpt>
      <trkpt lat="44.01532" lon="7.23008">
        <ele>1947.5</ele>
        <time>2012-05-27T06:36:54Z</time>
      </trkpt>
      <trkpt lat="44.01524" lon="7.23001">
        <ele>1947.5</ele>
        <time>2012-05-27T06:36:56Z</time>
      </trkpt>
      <trkpt lat="44.0152" lon="7.22998">
        <ele>1948.1</ele>
        <time>2012-05-27T06:36:57Z</time>
      </trkpt>
      <trkpt lat="44.01507" lon="7.22996">
        <ele>1952.4</ele>
        <time>2012-05-27T06:37:00Z</time>
      </trkpt>
      <trkpt lat="44.01497" lon="7.22986">
        <ele>1954.6</ele>
        <time>2012-05-27T06:37:03Z</time>
      </trkpt>
      <trkpt lat="44.01487" lon="7.2297">
        <ele>1953.5</ele>
        <time>2012-05-27T06:37:06Z</time>
      </trkpt>
      <trkpt lat="44.01479" lon="7.22962">
        <ele>1953.4</ele>
        <time>2012-05-27T06:37:08Z</time>
      </trkpt>
      <trkpt lat="44.01474" lon="7.22953">
        <ele>1953.1</ele>
        <time>2012-05-27T06:37:10Z</time>
      </trkpt>
      <trkpt lat="44.01474" lon="7.22934">
        <ele>1946.8</ele>
        <time>2012-05-27T06:37:15Z</time>
      </trkpt>
      <trkpt lat="44.01472" lon="7.22911">
        <ele>1938.7</ele>
        <time>2012-05-27T06:37:19Z</time>
      </trkpt>
      <trkpt lat="44.01471" lon="7.2289">
        <ele>1930.9</ele>
        <time>2012-05-27T06:37:22Z</time>
      </trkpt>
      <trkpt lat="44.01468" lon="7.22876">
        <ele>1925.9</ele>
        <time>2012-05-27T06:37:24Z</time>
      </trkpt>
      <trkpt lat="44.0146" lon="7.22861">
        <ele>1919.1</ele>
        <time>2012-05-27T06:37:27Z</time>
      </trkpt>
      <trkpt lat="44.01448" lon="7.22857">
        <ele>1916.2</ele>
        <time>2012-05-27T06:37:30Z</time>
      </trkpt>
      <trkpt lat="44.0144" lon="7.22854">
        <ele>1914.2</ele>
        <time>2012-05-27T06:37:32Z</time>
      </trkpt>
      <trkpt lat="44.01429" lon="7.22844">
        <ele>1909</ele>
        <time>2012-05-27T06:37:36Z</time>
      </trkpt>
      <trkpt lat="44.01415" lon="7.22832">
        <ele>1900.5</ele>
        <time>2012-05-27T06:37:41Z</time>
      </trkpt>
      <trkpt lat="44.01401" lon="7.22829">
        <ele>1897.6</ele>
        <time>2012-05-27T06:37:45Z</time>
      </trkpt>
      <trkpt lat="44.01387" lon="7.22821">
        <ele>1892.1</ele>
        <time>2012-05-27T06:37:53Z</time>
      </trkpt>
      <trkpt lat="44.01372" lon="7.22819">
        <ele>1889.4</ele>
        <time>2012-05-27T06:38:02Z</time>
      </trkpt>
      <trkpt lat="44.01376" lon="7.22808">
        <ele>1883</ele>
        <time>2012-05-27T06:38:16Z</time>
      </trkpt>
      <trkpt lat="44.01378" lon="7.22798">
        <ele>1876.6</ele>
        <time>2012-05-27T06:38:30Z</time>
      </trkpt>
      <trkpt lat="44.01347" lon="7.22794">
        <ele>1873.9</ele>
        <time>2012-05-27T06:38:44Z</time>
      </trkpt>
      <trkpt lat="44.01333" lon="7.22788">
        <ele>1870.4</ele>
        <time>2012-05-27T06:38:52Z</time>
      </trkpt>
      <trkpt lat="44.01318" lon="7.22784">
        <ele>1868.3</ele>
        <time>2012-05-27T06:39:00Z</time>
      </trkpt>
      <trkpt lat="44.0132" lon="7.22773">
        <ele>1862</ele>
        <time>2012-05-27T06:39:15Z</time>
      </trkpt>
      <trkpt lat="44.01329" lon="7.22768">
        <ele>1858.7</ele>
        <time>2012-05-27T06:39:21Z</time>
      </trkpt>
      <trkpt lat="44.01338" lon="7.22754">
        <ele>1848.5</ele>
        <time>2012-05-27T06:39:36Z</time>
      </trkpt>
      <trkpt lat="44.01322" lon="7.22756">
        <ele>1851.2</ele>
        <time>2012-05-27T06:39:54Z</time>
      </trkpt>
      <trkpt lat="44.01317" lon="7.22747">
        <ele>1847.2</ele>
        <time>2012-05-27T06:39:58Z</time>
      </trkpt>
      <trkpt lat="44.01304" lon="7.22734">
        <ele>1840.6</ele>
        <time>2012-05-27T06:40:06Z</time>
      </trkpt>
      <trkpt lat="44.01295" lon="7.22733">
        <ele>1840.7</ele>
        <time>2012-05-27T06:40:15Z</time>
      </trkpt>
      <trkpt lat="44.01287" lon="7.22726">
        <ele>1839.1</ele>
        <time>2012-05-27T06:40:29Z</time>
      </trkpt>
      <trkpt lat="44.01272" lon="7.22695">
        <ele>1829.8</ele>
        <time>2012-05-27T06:40:40Z</time>
      </trkpt>
      <trkpt lat="44.01259" lon="7.22693">
        <ele>1831.9</ele>
        <time>2012-05-27T06:40:44Z</time>
      </trkpt>
      <trkpt lat="44.01245" lon="7.22684">
        <ele>1834</ele>
        <time>2012-05-27T06:40:48Z</time>
      </trkpt>
      <trkpt lat="44.01234" lon="7.22674">
        <ele>1832.6</ele>
        <time>2012-05-27T06:40:52Z</time>
      </trkpt>
      <trkpt lat="44.01231" lon="7.22662">
        <ele>1828.9</ele>
        <time>2012-05-27T06:40:55Z</time>
      </trkpt>
      <trkpt lat="44.01227" lon="7.22643">
        <ele>1820</ele>
        <time>2012-05-27T06:40:59Z</time>
      </trkpt>
      <trkpt lat="44.01215" lon="7.22633">
        <ele>1815.2</ele>
        <time>2012-05-27T06:41:03Z</time>
      </trkpt>
      <trkpt lat="44.01206" lon="7.22634">
        <ele>1816.8</ele>
        <time>2012-05-27T06:41:05Z</time>
      </trkpt>
      <trkpt lat="44.01193" lon="7.22633">
        <ele>1821.9</ele>
        <time>2012-05-27T06:41:09Z</time>
      </trkpt>
      <trkpt lat="44.0118" lon="7.22625">
        <ele>1824.7</ele>
        <time>2012-05-27T06:41:13Z</time>
      </trkpt>
      <trkpt lat="44.01173" lon="7.22608">
        <ele>1821.7</ele>
        <time>2012-05-27T06:41:17Z</time>
      </trkpt>
      <trkpt lat="44.01172" lon="7.22596">
        <ele>1818.5</ele>
        <time>2012-05-27T06:41:19Z</time>
      </trkpt>
      <trkpt lat="44.01163" lon="7.22579">
        <ele>1813.7</ele>
        <time>2012-05-27T06:41:23Z</time>
      </trkpt>
      <trkpt lat="44.01153" lon="7.22564">
        <ele>1809.8</ele>
        <time>2012-05-27T06:41:28Z</time>
      </trkpt>
      <trkpt lat="44.01142" lon="7.22563">
        <ele>1812.4</ele>
        <time>2012-05-27T06:41:31Z</time>
      </trkpt>
      <trkpt lat="44.0113" lon="7.22564">
        <ele>1817.8</ele>
        <time>2012-05-27T06:41:34Z</time>
      </trkpt>
      <trkpt lat="44.01124" lon="7.22564">
        <ele>1820.6</ele>
        <time>2012-05-27T06:41:36Z</time>
      </trkpt>
      <trkpt lat="44.0111" lon="7.22554">
        <ele>1823.7</ele>
        <time>2012-05-27T06:41:40Z</time>
      </trkpt>
      <trkpt lat="44.01095" lon="7.22547">
        <ele>1828</ele>
        <time>2012-05-27T06:41:45Z</time>
      </trkpt>
      <trkpt lat="44.0109" lon="7.22525">
        <ele>1823.5</ele>
        <time>2012-05-27T06:41:49Z</time>
      </trkpt>
      <trkpt lat="44.01079" lon="7.2251">
        <ele>1821.3</ele>
        <time>2012-05-27T06:41:55Z</time>
      </trkpt>
      <trkpt lat="44.01078" lon="7.22492">
        <ele>1815.8</ele>
        <time>2012-05-27T06:41:59Z</time>
      </trkpt>
      <trkpt lat="44.01079" lon="7.22482">
        <ele>1811.9</ele>
        <time>2012-05-27T06:42:01Z</time>
      </trkpt>
      <trkpt lat="44.01074" lon="7.22446">
        <ele>1798.3</ele>
        <time>2012-05-27T06:42:09Z</time>
      </trkpt>
      <trkpt lat="44.01072" lon="7.22427">
        <ele>1791</ele>
        <time>2012-05-27T06:42:13Z</time>
      </trkpt>
      <trkpt lat="44.01067" lon="7.22408">
        <ele>1783</ele>
        <time>2012-05-27T06:42:18Z</time>
      </trkpt>
      <trkpt lat="44.01056" lon="7.22391">
        <ele>1777.9</ele>
        <time>2012-05-27T06:42:23Z</time>
      </trkpt>
      <trkpt lat="44.01052" lon="7.2238">
        <ele>1774.6</ele>
        <time>2012-05-27T06:42:25Z</time>
      </trkpt>
      <trkpt lat="44.01047" lon="7.2237">
        <ele>1771</ele>
        <time>2012-05-27T06:42:27Z</time>
      </trkpt>
      <trkpt lat="44.01038" lon="7.22357">
        <ele>1766.7</ele>
        <time>2012-05-27T06:42:30Z</time>
      </trkpt>
      <trkpt lat="44.01026" lon="7.22353">
        <ele>1763.4</ele>
        <time>2012-05-27T06:42:33Z</time>
      </trkpt>
      <trkpt lat="44.01013" lon="7.22352">
        <ele>1760.3</ele>
        <time>2012-05-27T06:42:36Z</time>
      </trkpt>
      <trkpt lat="44.00997" lon="7.22354">
        <ele>1758.2</ele>
        <time>2012-05-27T06:42:40Z</time>
      </trkpt>
      <trkpt lat="44.00983" lon="7.22353">
        <ele>1756.5</ele>
        <time>2012-05-27T06:42:43Z</time>
      </trkpt>
      <trkpt lat="44.00968" lon="7.22351">
        <ele>1753.6</ele>
        <time>2012-05-27T06:42:47Z</time>
      </trkpt>
      <trkpt lat="44.00962" lon="7.2235">
        <ele>1752.1</ele>
        <time>2012-05-27T06:42:49Z</time>
      </trkpt>
      <trkpt lat="44.00948" lon="7.22346">
        <ele>1748.6</ele>
        <time>2012-05-27T06:42:53Z</time>
      </trkpt>
      <trkpt lat="44.00926" lon="7.2235">
        <ele>1746.4</ele>
        <time>2012-05-27T06:42:59Z</time>
      </trkpt>
      <trkpt lat="44.00911" lon="7.22343">
        <ele>1742.5</ele>
        <time>2012-05-27T06:43:03Z</time>
      </trkpt>
      <trkpt lat="44.00897" lon="7.22343">
        <ele>1739.5</ele>
        <time>2012-05-27T06:43:07Z</time>
      </trkpt>
      <trkpt lat="44.00885" lon="7.22349">
        <ele>1739.4</ele>
        <time>2012-05-27T06:43:11Z</time>
      </trkpt>
      <trkpt lat="44.00869" lon="7.2235">
        <ele>1738.3</ele>
        <time>2012-05-27T06:43:18Z</time>
      </trkpt>
      <trkpt lat="44.00858" lon="7.22341">
        <ele>1734.9</ele>
        <time>2012-05-27T06:43:23Z</time>
      </trkpt>
      <trkpt lat="44.00844" lon="7.22333">
        <ele>1729.3</ele>
        <time>2012-05-27T06:43:27Z</time>
      </trkpt>
      <trkpt lat="44.00835" lon="7.22334">
        <ele>1727.8</ele>
        <time>2012-05-27T06:43:30Z</time>
      </trkpt>
      <trkpt lat="44.00809" lon="7.22331">
        <ele>1723.9</ele>
        <time>2012-05-27T06:43:49Z</time>
      </trkpt>
      <trkpt lat="44.00793" lon="7.22326">
        <ele>1719.4</ele>
        <time>2012-05-27T06:44:17Z</time>
      </trkpt>
      <trkpt lat="44.00777" lon="7.22332">
        <ele>1726.8</ele>
        <time>2012-05-27T06:44:36Z</time>
      </trkpt>
      <trkpt lat="44.00761" lon="7.2234">
        <ele>1736</ele>
        <time>2012-05-27T06:44:55Z</time>
      </trkpt>
      <trkpt lat="44.00752" lon="7.22344">
        <ele>1741.6</ele>
        <time>2012-05-27T06:45:03Z</time>
      </trkpt>
      <trkpt lat="44.00738" lon="7.22339">
        <ele>1744.4</ele>
        <time>2012-05-27T06:45:14Z</time>
      </trkpt>
      <trkpt lat="44.00728" lon="7.2232">
        <ele>1736.2</ele>
        <time>2012-05-27T06:45:21Z</time>
      </trkpt>
      <trkpt lat="44.00715" lon="7.22305">
        <ele>1729.1</ele>
        <time>2012-05-27T06:45:26Z</time>
      </trkpt>
      <trkpt lat="44.00703" lon="7.22296">
        <ele>1725.2</ele>
        <time>2012-05-27T06:45:30Z</time>
      </trkpt>
      <trkpt lat="44.00688" lon="7.22292">
        <ele>1723.7</ele>
        <time>2012-05-27T06:45:35Z</time>
      </trkpt>
      <trkpt lat="44.00679" lon="7.22293">
        <ele>1726</ele>
        <time>2012-05-27T06:45:39Z</time>
      </trkpt>
      <trkpt lat="44.00663" lon="7.22292">
        <ele>1729.7</ele>
        <time>2012-05-27T06:45:55Z</time>
      </trkpt>
      <trkpt lat="44.0065" lon="7.22282">
        <ele>1727.8</ele>
        <time>2012-05-27T06:46:13Z</time>
      </trkpt>
      <trkpt lat="44.00646" lon="7.22271">
        <ele>1723.6</ele>
        <time>2012-05-27T06:46:29Z</time>
      </trkpt>
      <trkpt lat="44.00656" lon="7.22275">
        <ele>1723.3</ele>
        <time>2012-05-27T06:46:45Z</time>
      </trkpt>
      <trkpt lat="44.00643" lon="7.22259">
        <ele>1718.8</ele>
        <time>2012-05-27T06:46:57Z</time>
      </trkpt>
      <trkpt lat="44.00628" lon="7.22252">
        <ele>1719.7</ele>
        <time>2012-05-27T06:47:03Z</time>
      </trkpt>
      <trkpt lat="44.00611" lon="7.22239">
        <ele>1722.4</ele>
        <time>2012-05-27T06:47:09Z</time>
      </trkpt>
      <trkpt lat="44.00597" lon="7.22235">
        <ele>1727</ele>
        <time>2012-05-27T06:47:13Z</time>
      </trkpt>
      <trkpt lat="44.00583" lon="7.22233">
        <ele>1733.5</ele>
        <time>2012-05-27T06:47:17Z</time>
      </trkpt>
      <trkpt lat="44.0057" lon="7.22224">
        <ele>1738.6</ele>
        <time>2012-05-27T06:47:22Z</time>
      </trkpt>
      <trkpt lat="44.00565" lon="7.22215">
        <ele>1738.5</ele>
        <time>2012-05-27T06:47:25Z</time>
      </trkpt>
      <trkpt lat="44.00557" lon="7.22195">
        <ele>1735.3</ele>
        <time>2012-05-27T06:47:31Z</time>
      </trkpt>
      <trkpt lat="44.00548" lon="7.22178">
        <ele>1731.9</ele>
        <time>2012-05-27T06:47:37Z</time>
      </trkpt>
      <trkpt lat="44.00538" lon="7.22162">
        <ele>1729.6</ele>
        <time>2012-05-27T06:47:44Z</time>
      </trkpt>
      <trkpt lat="44.0053" lon="7.22155">
        <ele>1729.8</ele>
        <time>2012-05-27T06:47:48Z</time>
      </trkpt>
      <trkpt lat="44.00515" lon="7.22148">
        <ele>1733.3</ele>
        <time>2012-05-27T06:47:54Z</time>
      </trkpt>
      <trkpt lat="44.00503" lon="7.22136">
        <ele>1734.2</ele>
        <time>2012-05-27T06:48:00Z</time>
      </trkpt>
      <trkpt lat="44.00497" lon="7.22128">
        <ele>1734.3</ele>
        <time>2012-05-27T06:48:03Z</time>
      </trkpt>
      <trkpt lat="44.00489" lon="7.22108">
        <ele>1731</ele>
        <time>2012-05-27T06:48:09Z</time>
      </trkpt>
      <trkpt lat="44.00484" lon="7.22098">
        <ele>1728.9</ele>
        <time>2012-05-27T06:48:12Z</time>
      </trkpt>
      <trkpt lat="44.00471" lon="7.22084">
        <ele>1728.4</ele>
        <time>2012-05-27T06:48:18Z</time>
      </trkpt>
      <trkpt lat="44.00464" lon="7.22078">
        <ele>1729.1</ele>
        <time>2012-05-27T06:48:21Z</time>
      </trkpt>
      <trkpt lat="44.00434" lon="7.22062">
        <ele>1728.6</ele>
        <time>2012-05-27T06:48:33Z</time>
      </trkpt>
      <trkpt lat="44.00421" lon="7.22048">
        <ele>1725.5</ele>
        <time>2012-05-27T06:48:39Z</time>
      </trkpt>
      <trkpt lat="44.00412" lon="7.22031">
        <ele>1721</ele>
        <time>2012-05-27T06:48:44Z</time>
      </trkpt>
      <trkpt lat="44.00402" lon="7.22011">
        <ele>1714.3</ele>
        <time>2012-05-27T06:48:50Z</time>
      </trkpt>
      <trkpt lat="44.00387" lon="7.22003">
        <ele>1711.6</ele>
        <time>2012-05-27T06:48:56Z</time>
      </trkpt>
      <trkpt lat="44.00379" lon="7.22002">
        <ele>1711.7</ele>
        <time>2012-05-27T06:48:59Z</time>
      </trkpt>
      <trkpt lat="44.00363" lon="7.22004">
        <ele>1711</ele>
        <time>2012-05-27T06:49:05Z</time>
      </trkpt>
      <trkpt lat="44.00347" lon="7.22007">
        <ele>1709</ele>
        <time>2012-05-27T06:49:11Z</time>
      </trkpt>
      <trkpt lat="44.00333" lon="7.22012">
        <ele>1707.7</ele>
        <time>2012-05-27T06:49:17Z</time>
      </trkpt>
      <trkpt lat="44.00319" lon="7.22014">
        <ele>1705.7</ele>
        <time>2012-05-27T06:49:21Z</time>
      </trkpt>
      <trkpt lat="44.00304" lon="7.22019">
        <ele>1703.9</ele>
        <time>2012-05-27T06:49:25Z</time>
      </trkpt>
      <trkpt lat="44.00289" lon="7.22025">
        <ele>1702</ele>
        <time>2012-05-27T06:49:29Z</time>
      </trkpt>
      <trkpt lat="44.00278" lon="7.22033">
        <ele>1699.3</ele>
        <time>2012-05-27T06:49:32Z</time>
      </trkpt>
      <trkpt lat="44.00266" lon="7.22038">
        <ele>1696.3</ele>
        <time>2012-05-27T06:49:34Z</time>
      </trkpt>
      <trkpt lat="44.00257" lon="7.22045">
        <ele>1693.3</ele>
        <time>2012-05-27T06:49:36Z</time>
      </trkpt>
      <trkpt lat="44.00249" lon="7.22056">
        <ele>1690.9</ele>
        <time>2012-05-27T06:49:38Z</time>
      </trkpt>
      <trkpt lat="44.00243" lon="7.22067">
        <ele>1689.4</ele>
        <time>2012-05-27T06:49:40Z</time>
      </trkpt>
      <trkpt lat="44.00238" lon="7.22079">
        <ele>1688.5</ele>
        <time>2012-05-27T06:49:42Z</time>
      </trkpt>
      <trkpt lat="44.00234" lon="7.22084">
        <ele>1687.8</ele>
        <time>2012-05-27T06:49:43Z</time>
      </trkpt>
      <trkpt lat="44.00223" lon="7.22102">
        <ele>1685.4</ele>
        <time>2012-05-27T06:49:46Z</time>
      </trkpt>
      <trkpt lat="44.00215" lon="7.22123">
        <ele>1683.4</ele>
        <time>2012-05-27T06:49:51Z</time>
      </trkpt>
      <trkpt lat="44.00202" lon="7.22162">
        <ele>1680.7</ele>
        <time>2012-05-27T06:49:59Z</time>
      </trkpt>
      <trkpt lat="44.00198" lon="7.22184">
        <ele>1679.7</ele>
        <time>2012-05-27T06:50:04Z</time>
      </trkpt>
      <trkpt lat="44.00193" lon="7.22197">
        <ele>1678.4</ele>
        <time>2012-05-27T06:50:06Z</time>
      </trkpt>
      <trkpt lat="44.00185" lon="7.22212">
        <ele>1674.7</ele>
        <time>2012-05-27T06:50:09Z</time>
      </trkpt>
      <trkpt lat="44.00178" lon="7.22219">
        <ele>1671.4</ele>
        <time>2012-05-27T06:50:11Z</time>
      </trkpt>
      <trkpt lat="44.00172" lon="7.22236">
        <ele>1667.5</ele>
        <time>2012-05-27T06:50:15Z</time>
      </trkpt>
      <trkpt lat="44.00173" lon="7.22255">
        <ele>1669.4</ele>
        <time>2012-05-27T06:50:19Z</time>
      </trkpt>
      <trkpt lat="44.00167" lon="7.22294">
        <ele>1671.2</ele>
        <time>2012-05-27T06:50:29Z</time>
      </trkpt>
      <trkpt lat="44.00154" lon="7.22322">
        <ele>1663</ele>
        <time>2012-05-27T06:50:39Z</time>
      </trkpt>
      <trkpt lat="44.00157" lon="7.22343">
        <ele>1667.1</ele>
        <time>2012-05-27T06:50:48Z</time>
      </trkpt>
      <trkpt lat="44.00156" lon="7.22355">
        <ele>1667.6</ele>
        <time>2012-05-27T06:50:53Z</time>
      </trkpt>
      <trkpt lat="44.00157" lon="7.22379">
        <ele>1670.4</ele>
        <time>2012-05-27T06:51:04Z</time>
      </trkpt>
      <trkpt lat="44.00159" lon="7.22391">
        <ele>1673.6</ele>
        <time>2012-05-27T06:51:12Z</time>
      </trkpt>
      <trkpt lat="44.00159" lon="7.22403">
        <ele>1676.6</ele>
        <time>2012-05-27T06:51:21Z</time>
      </trkpt>
      <trkpt lat="44.00157" lon="7.22415">
        <ele>1677.6</ele>
        <time>2012-05-27T06:51:31Z</time>
      </trkpt>
      <trkpt lat="44.00155" lon="7.22427">
        <ele>1677.5</ele>
        <time>2012-05-27T06:51:40Z</time>
      </trkpt>
      <trkpt lat="44.00143" lon="7.22444">
        <ele>1671.1</ele>
        <time>2012-05-27T06:51:56Z</time>
      </trkpt>
      <trkpt lat="44.00145" lon="7.22467">
        <ele>1677.3</ele>
        <time>2012-05-27T06:52:10Z</time>
      </trkpt>
      <trkpt lat="44.00134" lon="7.22483">
        <ele>1673</ele>
        <time>2012-05-27T06:52:23Z</time>
      </trkpt>
      <trkpt lat="44.00133" lon="7.22506">
        <ele>1676.6</ele>
        <time>2012-05-27T06:52:38Z</time>
      </trkpt>
      <trkpt lat="44.00136" lon="7.22528">
        <ele>1683.7</ele>
        <time>2012-05-27T06:52:51Z</time>
      </trkpt>
      <trkpt lat="44.00138" lon="7.22539">
        <ele>1688.4</ele>
        <time>2012-05-27T06:52:56Z</time>
      </trkpt>
      <trkpt lat="44.00139" lon="7.22553">
        <ele>1692.1</ele>
        <time>2012-05-27T06:53:03Z</time>
      </trkpt>
      <trkpt lat="44.00136" lon="7.22572">
        <ele>1692.9</ele>
        <time>2012-05-27T06:53:11Z</time>
      </trkpt>
      <trkpt lat="44.00135" lon="7.22593">
        <ele>1694.3</ele>
        <time>2012-05-27T06:53:16Z</time>
      </trkpt>
      <trkpt lat="44.00132" lon="7.22613">
        <ele>1695</ele>
        <time>2012-05-27T06:53:20Z</time>
      </trkpt>
      <trkpt lat="44.00127" lon="7.22624">
        <ele>1694</ele>
        <time>2012-05-27T06:53:22Z</time>
      </trkpt>
      <trkpt lat="44.00124" lon="7.2263">
        <ele>1693.3</ele>
        <time>2012-05-27T06:53:23Z</time>
      </trkpt>
      <trkpt lat="44.00115" lon="7.22643">
        <ele>1691</ele>
        <time>2012-05-27T06:53:26Z</time>
      </trkpt>
      <trkpt lat="44.00105" lon="7.22661">
        <ele>1689.5</ele>
        <time>2012-05-27T06:53:30Z</time>
      </trkpt>
      <trkpt lat="44.00101" lon="7.22672">
        <ele>1690.1</ele>
        <time>2012-05-27T06:53:32Z</time>
      </trkpt>
      <trkpt lat="44.00092" lon="7.2269">
        <ele>1691.5</ele>
        <time>2012-05-27T06:53:36Z</time>
      </trkpt>
      <trkpt lat="44.00089" lon="7.2271">
        <ele>1696.2</ele>
        <time>2012-05-27T06:53:40Z</time>
      </trkpt>
      <trkpt lat="44.00083" lon="7.22731">
        <ele>1699.5</ele>
        <time>2012-05-27T06:53:44Z</time>
      </trkpt>
      <trkpt lat="44.00071" lon="7.22746">
        <ele>1698.6</ele>
        <time>2012-05-27T06:53:48Z</time>
      </trkpt>
      <trkpt lat="44.00058" lon="7.22753">
        <ele>1695.1</ele>
        <time>2012-05-27T06:53:51Z</time>
      </trkpt>
      <trkpt lat="44.00054" lon="7.22757">
        <ele>1694</ele>
        <time>2012-05-27T06:53:52Z</time>
      </trkpt>
      <trkpt lat="44.0005" lon="7.22769">
        <ele>1694</ele>
        <time>2012-05-27T06:53:54Z</time>
      </trkpt>
      <trkpt lat="44.00052" lon="7.22787">
        <ele>1698.5</ele>
        <time>2012-05-27T06:53:57Z</time>
      </trkpt>
      <trkpt lat="44.00052" lon="7.228">
        <ele>1701.9</ele>
        <time>2012-05-27T06:53:59Z</time>
      </trkpt>
      <trkpt lat="44.0005" lon="7.22829">
        <ele>1707.3</ele>
        <time>2012-05-27T06:54:03Z</time>
      </trkpt>
      <trkpt lat="44.00055" lon="7.2285">
        <ele>1712.4</ele>
        <time>2012-05-27T06:54:06Z</time>
      </trkpt>
      <trkpt lat="44.00057" lon="7.22865">
        <ele>1716.1</ele>
        <time>2012-05-27T06:54:08Z</time>
      </trkpt>
      <trkpt lat="44.00058" lon="7.22876">
        <ele>1718.9</ele>
        <time>2012-05-27T06:54:10Z</time>
      </trkpt>
      <trkpt lat="44.00059" lon="7.22897">
        <ele>1721</ele>
        <time>2012-05-27T06:54:14Z</time>
      </trkpt>
      <trkpt lat="44.00058" lon="7.22907">
        <ele>1721.4</ele>
        <time>2012-05-27T06:54:16Z</time>
      </trkpt>
      <trkpt lat="44.00054" lon="7.22925">
        <ele>1721.3</ele>
        <time>2012-05-27T06:54:20Z</time>
      </trkpt>
      <trkpt lat="44.0003" lon="7.22958">
        <ele>1716.8</ele>
        <time>2012-05-27T06:54:27Z</time>
      </trkpt>
      <trkpt lat="44.00021" lon="7.22969">
        <ele>1715.7</ele>
        <time>2012-05-27T06:54:29Z</time>
      </trkpt>
      <trkpt lat="44.00001" lon="7.22994">
        <ele>1714.7</ele>
        <time>2012-05-27T06:54:33Z</time>
      </trkpt>
      <trkpt lat="43.99995" lon="7.23">
        <ele>1714.4</ele>
        <time>2012-05-27T06:54:34Z</time>
      </trkpt>
      <trkpt lat="43.99974" lon="7.23023">
        <ele>1713.5</ele>
        <time>2012-05-27T06:54:38Z</time>
      </trkpt>
      <trkpt lat="43.99951" lon="7.23049">
        <ele>1712.9</ele>
        <time>2012-05-27T06:54:42Z</time>
      </trkpt>
      <trkpt lat="43.99927" lon="7.23077">
        <ele>1713</ele>
        <time>2012-05-27T06:54:46Z</time>
      </trkpt>
      <trkpt lat="43.99915" lon="7.23094">
        <ele>1712.9</ele>
        <time>2012-05-27T06:54:48Z</time>
      </trkpt>
      <trkpt lat="43.99901" lon="7.2311">
        <ele>1712.1</ele>
        <time>2012-05-27T06:54:50Z</time>
      </trkpt>
      <trkpt lat="43.99893" lon="7.23117">
        <ele>1711.5</ele>
        <time>2012-05-27T06:54:51Z</time>
      </trkpt>
      <trkpt lat="43.99886" lon="7.23123">
        <ele>1710.6</ele>
        <time>2012-05-27T06:54:52Z</time>
      </trkpt>
      <trkpt lat="43.99869" lon="7.23133">
        <ele>1707.8</ele>
        <time>2012-05-27T06:54:54Z</time>
      </trkpt>
      <trkpt lat="43.99853" lon="7.23143">
        <ele>1703.9</ele>
        <time>2012-05-27T06:54:56Z</time>
      </trkpt>
      <trkpt lat="43.99846" lon="7.23149">
        <ele>1702</ele>
        <time>2012-05-27T06:54:57Z</time>
      </trkpt>
      <trkpt lat="43.99838" lon="7.23165">
        <ele>1699</ele>
        <time>2012-05-27T06:54:59Z</time>
      </trkpt>
      <trkpt lat="43.99836" lon="7.23175">
        <ele>1698.2</ele>
        <time>2012-05-27T06:55:00Z</time>
      </trkpt>
      <trkpt lat="43.99839" lon="7.23196">
        <ele>1698.5</ele>
        <time>2012-05-27T06:55:02Z</time>
      </trkpt>
      <trkpt lat="43.99845" lon="7.23216">
        <ele>1700.2</ele>
        <time>2012-05-27T06:55:04Z</time>
      </trkpt>
      <trkpt lat="43.99848" lon="7.23227">
        <ele>1700.4</ele>
        <time>2012-05-27T06:55:05Z</time>
      </trkpt>
      <trkpt lat="43.99853" lon="7.23251">
        <ele>1700.8</ele>
        <time>2012-05-27T06:55:07Z</time>
      </trkpt>
      <trkpt lat="43.99859" lon="7.23273">
        <ele>1701</ele>
        <time>2012-05-27T06:55:09Z</time>
      </trkpt>
      <trkpt lat="43.99862" lon="7.23284">
        <ele>1701</ele>
        <time>2012-05-27T06:55:10Z</time>
      </trkpt>
      <trkpt lat="43.99867" lon="7.23303">
        <ele>1700.7</ele>
        <time>2012-05-27T06:55:12Z</time>
      </trkpt>
      <trkpt lat="43.99869" lon="7.23313">
        <ele>1700.1</ele>
        <time>2012-05-27T06:55:13Z</time>
      </trkpt>
      <trkpt lat="43.99881" lon="7.23357">
        <ele>1696.4</ele>
        <time>2012-05-27T06:55:17Z</time>
      </trkpt>
      <trkpt lat="43.99883" lon="7.23371">
        <ele>1695.2</ele>
        <time>2012-05-27T06:55:18Z</time>
      </trkpt>
      <trkpt lat="43.99888" lon="7.23397">
        <ele>1693.3</ele>
        <time>2012-05-27T06:55:20Z</time>
      </trkpt>
      <trkpt lat="43.9989" lon="7.23411">
        <ele>1692.4</ele>
        <time>2012-05-27T06:55:21Z</time>
      </trkpt>
      <trkpt lat="43.99892" lon="7.23441">
        <ele>1689.8</ele>
        <time>2012-05-27T06:55:23Z</time>
      </trkpt>
      <trkpt lat="43.99892" lon="7.23455">
        <ele>1688.1</ele>
        <time>2012-05-27T06:55:24Z</time>
      </trkpt>
      <trkpt lat="43.99891" lon="7.2347">
        <ele>1686.6</ele>
        <time>2012-05-27T06:55:25Z</time>
      </trkpt>
      <trkpt lat="43.99889" lon="7.23485">
        <ele>1685.2</ele>
        <time>2012-05-27T06:55:26Z</time>
      </trkpt>
      <trkpt lat="43.99881" lon="7.23515">
        <ele>1681.9</ele>
        <time>2012-05-27T06:55:28Z</time>
      </trkpt>
      <trkpt lat="43.99875" lon="7.23544">
        <ele>1678.9</ele>
        <time>2012-05-27T06:55:30Z</time>
      </trkpt>
      <trkpt lat="43.99873" lon="7.23557">
        <ele>1678.2</ele>
        <time>2012-05-27T06:55:31Z</time>
      </trkpt>
      <trkpt lat="43.99868" lon="7.23573">
        <ele>1677.5</ele>
        <time>2012-05-27T06:55:33Z</time>
      </trkpt>
      <trkpt lat="43.99862" lon="7.23592">
        <ele>1677.3</ele>
        <time>2012-05-27T06:55:38Z</time>
      </trkpt>
      <trkpt lat="43.99849" lon="7.23592">
        <ele>1674.4</ele>
        <time>2012-05-27T06:56:03Z</time>
      </trkpt>
      <trkpt lat="43.99845" lon="7.2358">
        <ele>1671.7</ele>
        <time>2012-05-27T06:56:17Z</time>
      </trkpt>
      <trkpt lat="43.99838" lon="7.23562">
        <ele>1667.5</ele>
        <time>2012-05-27T06:56:33Z</time>
      </trkpt>
      <trkpt lat="43.99829" lon="7.23559">
        <ele>1664.8</ele>
        <time>2012-05-27T06:56:39Z</time>
      </trkpt>
      <trkpt lat="43.99816" lon="7.23567">
        <ele>1662</ele>
        <time>2012-05-27T06:56:44Z</time>
      </trkpt>
      <trkpt lat="43.99803" lon="7.23561">
        <ele>1656.5</ele>
        <time>2012-05-27T06:56:59Z</time>
      </trkpt>
      <trkpt lat="43.99797" lon="7.23551">
        <ele>1653.1</ele>
        <time>2012-05-27T06:57:09Z</time>
      </trkpt>
      <trkpt lat="43.99781" lon="7.23552">
        <ele>1648.8</ele>
        <time>2012-05-27T06:57:15Z</time>
      </trkpt>
      <trkpt lat="43.99771" lon="7.2355">
        <ele>1646.2</ele>
        <time>2012-05-27T06:57:18Z</time>
      </trkpt>
      <trkpt lat="43.99766" lon="7.23536">
        <ele>1640.8</ele>
        <time>2012-05-27T06:57:27Z</time>
      </trkpt>
      <trkpt lat="43.99753" lon="7.23522">
        <ele>1635.9</ele>
        <time>2012-05-27T06:57:41Z</time>
      </trkpt>
      <trkpt lat="43.99742" lon="7.23504">
        <ele>1631.1</ele>
        <time>2012-05-27T06:57:57Z</time>
      </trkpt>
      <trkpt lat="43.99725" lon="7.23504">
        <ele>1625.7</ele>
        <time>2012-05-27T06:58:06Z</time>
      </trkpt>
      <trkpt lat="43.99719" lon="7.23488">
        <ele>1622.6</ele>
        <time>2012-05-27T06:58:15Z</time>
      </trkpt>
      <trkpt lat="43.99707" lon="7.23488">
        <ele>1619.3</ele>
        <time>2012-05-27T06:58:19Z</time>
      </trkpt>
      <trkpt lat="43.99696" lon="7.23484">
        <ele>1614.8</ele>
        <time>2012-05-27T06:58:30Z</time>
      </trkpt>
      <trkpt lat="43.99688" lon="7.23487">
        <ele>1613.1</ele>
        <time>2012-05-27T06:58:34Z</time>
      </trkpt>
      <trkpt lat="43.9968" lon="7.2347">
        <ele>1608.8</ele>
        <time>2012-05-27T06:58:43Z</time>
      </trkpt>
      <trkpt lat="43.99667" lon="7.23477">
        <ele>1606.5</ele>
        <time>2012-05-27T06:58:48Z</time>
      </trkpt>
      <trkpt lat="43.99659" lon="7.23466">
        <ele>1602.4</ele>
        <time>2012-05-27T06:58:55Z</time>
      </trkpt>
      <trkpt lat="43.99646" lon="7.23454">
        <ele>1597.3</ele>
        <time>2012-05-27T06:59:07Z</time>
      </trkpt>
      <trkpt lat="43.99643" lon="7.23436">
        <ele>1597.7</ele>
        <time>2012-05-27T06:59:11Z</time>
      </trkpt>
      <trkpt lat="43.9963" lon="7.23425">
        <ele>1595.6</ele>
        <time>2012-05-27T06:59:17Z</time>
      </trkpt>
      <trkpt lat="43.99618" lon="7.23427">
        <ele>1593.5</ele>
        <time>2012-05-27T06:59:20Z</time>
      </trkpt>
      <trkpt lat="43.99597" lon="7.23422">
        <ele>1590.3</ele>
        <time>2012-05-27T06:59:25Z</time>
      </trkpt>
      <trkpt lat="43.99587" lon="7.23425">
        <ele>1588.9</ele>
        <time>2012-05-27T06:59:27Z</time>
      </trkpt>
      <trkpt lat="43.99577" lon="7.23424">
        <ele>1587.5</ele>
        <time>2012-05-27T06:59:29Z</time>
      </trkpt>
      <trkpt lat="43.99564" lon="7.23428">
        <ele>1585.4</ele>
        <time>2012-05-27T06:59:32Z</time>
      </trkpt>
      <trkpt lat="43.99568" lon="7.23411">
        <ele>1585.6</ele>
        <time>2012-05-27T06:59:37Z</time>
      </trkpt>
      <trkpt lat="43.99568" lon="7.23398">
        <ele>1586.3</ele>
        <time>2012-05-27T06:59:39Z</time>
      </trkpt>
      <trkpt lat="43.99562" lon="7.23385">
        <ele>1586.5</ele>
        <time>2012-05-27T06:59:41Z</time>
      </trkpt>
      <trkpt lat="43.99535" lon="7.23367">
        <ele>1585</ele>
        <time>2012-05-27T06:59:45Z</time>
      </trkpt>
      <trkpt lat="43.99521" lon="7.2336">
        <ele>1583.2</ele>
        <time>2012-05-27T06:59:47Z</time>
      </trkpt>
      <trkpt lat="43.99507" lon="7.23354">
        <ele>1580.6</ele>
        <time>2012-05-27T06:59:49Z</time>
      </trkpt>
      <trkpt lat="43.99494" lon="7.23346">
        <ele>1577.9</ele>
        <time>2012-05-27T06:59:51Z</time>
      </trkpt>
      <trkpt lat="43.99481" lon="7.2334">
        <ele>1574.4</ele>
        <time>2012-05-27T06:59:54Z</time>
      </trkpt>
      <trkpt lat="43.99475" lon="7.23335">
        <ele>1572.6</ele>
        <time>2012-05-27T06:59:56Z</time>
      </trkpt>
      <trkpt lat="43.99461" lon="7.23327">
        <ele>1568.5</ele>
        <time>2012-05-27T07:00:00Z</time>
      </trkpt>
      <trkpt lat="43.99453" lon="7.23324">
        <ele>1566.1</ele>
        <time>2012-05-27T07:00:02Z</time>
      </trkpt>
      <trkpt lat="43.9944" lon="7.23319">
        <ele>1562</ele>
        <time>2012-05-27T07:00:06Z</time>
      </trkpt>
      <trkpt lat="43.99427" lon="7.23305">
        <ele>1557.6</ele>
        <time>2012-05-27T07:00:12Z</time>
      </trkpt>
      <trkpt lat="43.99414" lon="7.23293">
        <ele>1552.6</ele>
        <time>2012-05-27T07:00:18Z</time>
      </trkpt>
      <trkpt lat="43.99408" lon="7.23284">
        <ele>1550.5</ele>
        <time>2012-05-27T07:00:22Z</time>
      </trkpt>
      <trkpt lat="43.99376" lon="7.23264">
        <ele>1541.1</ele>
        <time>2012-05-27T07:00:38Z</time>
      </trkpt>
      <trkpt lat="43.99365" lon="7.23255">
        <ele>1538.4</ele>
        <time>2012-05-27T07:00:41Z</time>
      </trkpt>
      <trkpt lat="43.99355" lon="7.23242">
        <ele>1537.1</ele>
        <time>2012-05-27T07:00:43Z</time>
      </trkpt>
      <trkpt lat="43.99345" lon="7.23231">
        <ele>1535.4</ele>
        <time>2012-05-27T07:00:45Z</time>
      </trkpt>
      <trkpt lat="43.99335" lon="7.23221">
        <ele>1533.1</ele>
        <time>2012-05-27T07:00:48Z</time>
      </trkpt>
      <trkpt lat="43.99321" lon="7.2321">
        <ele>1529.2</ele>
        <time>2012-05-27T07:00:54Z</time>
      </trkpt>
      <trkpt lat="43.99299" lon="7.23199">
        <ele>1524.3</ele>
        <time>2012-05-27T07:01:03Z</time>
      </trkpt>
      <trkpt lat="43.99282" lon="7.23194">
        <ele>1519.8</ele>
        <time>2012-05-27T07:01:17Z</time>
      </trkpt>
      <trkpt lat="43.99273" lon="7.23196">
        <ele>1516.2</ele>
        <time>2012-05-27T07:01:26Z</time>
      </trkpt>
      <trkpt lat="43.99238" lon="7.23186">
        <ele>1507.8</ele>
        <time>2012-05-27T07:01:40Z</time>
      </trkpt>
      <trkpt lat="43.99222" lon="7.23179">
        <ele>1503.8</ele>
        <time>2012-05-27T07:01:43Z</time>
      </trkpt>
      <trkpt lat="43.9921" lon="7.2317">
        <ele>1500.5</ele>
        <time>2012-05-27T07:01:45Z</time>
      </trkpt>
      <trkpt lat="43.99198" lon="7.23163">
        <ele>1495.8</ele>
        <time>2012-05-27T07:01:49Z</time>
      </trkpt>
      <trkpt lat="43.99183" lon="7.23171">
        <ele>1490.3</ele>
        <time>2012-05-27T07:02:02Z</time>
      </trkpt>
      <trkpt lat="43.99167" lon="7.2317">
        <ele>1486.1</ele>
        <time>2012-05-27T07:02:10Z</time>
      </trkpt>
      <trkpt lat="43.99138" lon="7.23169">
        <ele>1477.9</ele>
        <time>2012-05-27T07:02:18Z</time>
      </trkpt>
      <trkpt lat="43.99124" lon="7.2317">
        <ele>1473.4</ele>
        <time>2012-05-27T07:02:22Z</time>
      </trkpt>
      <trkpt lat="43.99093" lon="7.23178">
        <ele>1464.9</ele>
        <time>2012-05-27T07:02:30Z</time>
      </trkpt>
      <trkpt lat="43.99084" lon="7.23181">
        <ele>1462.9</ele>
        <time>2012-05-27T07:02:32Z</time>
      </trkpt>
      <trkpt lat="43.9907" lon="7.23185">
        <ele>1459.8</ele>
        <time>2012-05-27T07:02:35Z</time>
      </trkpt>
      <trkpt lat="43.99062" lon="7.23185">
        <ele>1457.7</ele>
        <time>2012-05-27T07:02:37Z</time>
      </trkpt>
      <trkpt lat="43.99047" lon="7.23177">
        <ele>1450.2</ele>
        <time>2012-05-27T07:02:45Z</time>
      </trkpt>
      <trkpt lat="43.99049" lon="7.23166">
        <ele>1446.3</ele>
        <time>2012-05-27T07:02:54Z</time>
      </trkpt>
      <trkpt lat="43.99033" lon="7.23165">
        <ele>1441.1</ele>
        <time>2012-05-27T07:03:07Z</time>
      </trkpt>
      <trkpt lat="43.99026" lon="7.23158">
        <ele>1436.4</ele>
        <time>2012-05-27T07:03:24Z</time>
      </trkpt>
      <trkpt lat="43.99017" lon="7.23157">
        <ele>1433.8</ele>
        <time>2012-05-27T07:03:31Z</time>
      </trkpt>
      <trkpt lat="43.99011" lon="7.23137">
        <ele>1424.7</ele>
        <time>2012-05-27T07:03:54Z</time>
      </trkpt>
      <trkpt lat="43.99004" lon="7.23138">
        <ele>1422.6</ele>
        <time>2012-05-27T07:04:02Z</time>
      </trkpt>
      <trkpt lat="43.98987" lon="7.2313">
        <ele>1416.4</ele>
        <time>2012-05-27T07:04:09Z</time>
      </trkpt>
      <trkpt lat="43.98979" lon="7.2313">
        <ele>1413.4</ele>
        <time>2012-05-27T07:04:12Z</time>
      </trkpt>
      <trkpt lat="43.98971" lon="7.23137">
        <ele>1412.7</ele>
        <time>2012-05-27T07:04:18Z</time>
      </trkpt>
      <trkpt lat="43.98963" lon="7.23139">
        <ele>1410.8</ele>
        <time>2012-05-27T07:04:27Z</time>
      </trkpt>
      <trkpt lat="43.98954" lon="7.23144">
        <ele>1409.3</ele>
        <time>2012-05-27T07:04:45Z</time>
      </trkpt>
      <trkpt lat="43.98939" lon="7.2315">
        <ele>1407</ele>
        <time>2012-05-27T07:04:57Z</time>
      </trkpt>
      <trkpt lat="43.98911" lon="7.2316">
        <ele>1401.5</ele>
        <time>2012-05-27T07:05:12Z</time>
      </trkpt>
      <trkpt lat="43.98895" lon="7.23156">
        <ele>1395.6</ele>
        <time>2012-05-27T07:05:19Z</time>
      </trkpt>
      <trkpt lat="43.98881" lon="7.23152">
        <ele>1389.8</ele>
        <time>2012-05-27T07:05:26Z</time>
      </trkpt>
      <trkpt lat="43.98874" lon="7.23155">
        <ele>1388.2</ele>
        <time>2012-05-27T07:05:29Z</time>
      </trkpt>
      <trkpt lat="43.98857" lon="7.23159">
        <ele>1383</ele>
        <time>2012-05-27T07:05:36Z</time>
      </trkpt>
      <trkpt lat="43.9885" lon="7.23152">
        <ele>1378.6</ele>
        <time>2012-05-27T07:05:55Z</time>
      </trkpt>
      <trkpt lat="43.98836" lon="7.23154">
        <ele>1373.2</ele>
        <time>2012-05-27T07:06:05Z</time>
      </trkpt>
      <trkpt lat="43.98822" lon="7.23164">
        <ele>1371.2</ele>
        <time>2012-05-27T07:06:21Z</time>
      </trkpt>
      <trkpt lat="43.98805" lon="7.23157">
        <ele>1363</ele>
        <time>2012-05-27T07:06:43Z</time>
      </trkpt>
      <trkpt lat="43.988" lon="7.23146">
        <ele>1357.2</ele>
        <time>2012-05-27T07:06:58Z</time>
      </trkpt>
      <trkpt lat="43.98785" lon="7.23134">
        <ele>1347.2</ele>
        <time>2012-05-27T07:07:26Z</time>
      </trkpt>
      <trkpt lat="43.98779" lon="7.23141">
        <ele>1346.6</ele>
        <time>2012-05-27T07:07:34Z</time>
      </trkpt>
      <trkpt lat="43.98763" lon="7.2315">
        <ele>1344.2</ele>
        <time>2012-05-27T07:07:47Z</time>
      </trkpt>
      <trkpt lat="43.98756" lon="7.23152">
        <ele>1342.3</ele>
        <time>2012-05-27T07:07:51Z</time>
      </trkpt>
      <trkpt lat="43.98743" lon="7.23161">
        <ele>1340.9</ele>
        <time>2012-05-27T07:07:56Z</time>
      </trkpt>
      <trkpt lat="43.98734" lon="7.23165">
        <ele>1340</ele>
        <time>2012-05-27T07:07:59Z</time>
      </trkpt>
      <trkpt lat="43.98723" lon="7.23172">
        <ele>1338.9</ele>
        <time>2012-05-27T07:08:04Z</time>
      </trkpt>
      <trkpt lat="43.9871" lon="7.23185">
        <ele>1340</ele>
        <time>2012-05-27T07:08:10Z</time>
      </trkpt>
      <trkpt lat="43.98705" lon="7.23192">
        <ele>1341.9</ele>
        <time>2012-05-27T07:08:13Z</time>
      </trkpt>
      <trkpt lat="43.98684" lon="7.23199">
        <ele>1341.9</ele>
        <time>2012-05-27T07:08:18Z</time>
      </trkpt>
      <trkpt lat="43.9867" lon="7.23201">
        <ele>1340.2</ele>
        <time>2012-05-27T07:08:22Z</time>
      </trkpt>
      <trkpt lat="43.98656" lon="7.23205">
        <ele>1338.8</ele>
        <time>2012-05-27T07:08:26Z</time>
      </trkpt>
      <trkpt lat="43.98641" lon="7.23211">
        <ele>1337.6</ele>
        <time>2012-05-27T07:08:30Z</time>
      </trkpt>
      <trkpt lat="43.98634" lon="7.23214">
        <ele>1336.6</ele>
        <time>2012-05-27T07:08:32Z</time>
      </trkpt>
      <trkpt lat="43.98619" lon="7.23218">
        <ele>1335.2</ele>
        <time>2012-05-27T07:08:36Z</time>
      </trkpt>
      <trkpt lat="43.98604" lon="7.23226">
        <ele>1336.6</ele>
        <time>2012-05-27T07:08:41Z</time>
      </trkpt>
      <trkpt lat="43.98588" lon="7.23236">
        <ele>1339.7</ele>
        <time>2012-05-27T07:08:52Z</time>
      </trkpt>
      <trkpt lat="43.98583" lon="7.23242">
        <ele>1340.9</ele>
        <time>2012-05-27T07:08:54Z</time>
      </trkpt>
      <trkpt lat="43.98573" lon="7.23254">
        <ele>1344.3</ele>
        <time>2012-05-27T07:08:57Z</time>
      </trkpt>
      <trkpt lat="43.98567" lon="7.23266">
        <ele>1347.5</ele>
        <time>2012-05-27T07:09:00Z</time>
      </trkpt>
      <trkpt lat="43.98556" lon="7.23283">
        <ele>1354.6</ele>
        <time>2012-05-27T07:09:05Z</time>
      </trkpt>
      <trkpt lat="43.98546" lon="7.23301">
        <ele>1359.7</ele>
        <time>2012-05-27T07:09:09Z</time>
      </trkpt>
      <trkpt lat="43.98541" lon="7.23309">
        <ele>1361</ele>
        <time>2012-05-27T07:09:11Z</time>
      </trkpt>
      <trkpt lat="43.98534" lon="7.23322">
        <ele>1363</ele>
        <time>2012-05-27T07:09:14Z</time>
      </trkpt>
      <trkpt lat="43.98526" lon="7.2333">
        <ele>1365.1</ele>
        <time>2012-05-27T07:09:16Z</time>
      </trkpt>
      <trkpt lat="43.98518" lon="7.23336">
        <ele>1367.7</ele>
        <time>2012-05-27T07:09:18Z</time>
      </trkpt>
      <trkpt lat="43.98506" lon="7.23346">
        <ele>1371.9</ele>
        <time>2012-05-27T07:09:21Z</time>
      </trkpt>
      <trkpt lat="43.98499" lon="7.2335">
        <ele>1374.7</ele>
        <time>2012-05-27T07:09:23Z</time>
      </trkpt>
      <trkpt lat="43.98485" lon="7.23364">
        <ele>1381.7</ele>
        <time>2012-05-27T07:09:30Z</time>
      </trkpt>
      <trkpt lat="43.98479" lon="7.23373">
        <ele>1385.3</ele>
        <time>2012-05-27T07:09:35Z</time>
      </trkpt>
      <trkpt lat="43.98468" lon="7.23389">
        <ele>1388.9</ele>
        <time>2012-05-27T07:09:48Z</time>
      </trkpt>
      <trkpt lat="43.98461" lon="7.23395">
        <ele>1390.5</ele>
        <time>2012-05-27T07:09:58Z</time>
      </trkpt>
      <trkpt lat="43.98455" lon="7.23405">
        <ele>1391.2</ele>
        <time>2012-05-27T07:10:11Z</time>
      </trkpt>
      <trkpt lat="43.98442" lon="7.23431">
        <ele>1391.8</ele>
        <time>2012-05-27T07:10:36Z</time>
      </trkpt>
      <trkpt lat="43.98433" lon="7.23452">
        <ele>1392.1</ele>
        <time>2012-05-27T07:10:48Z</time>
      </trkpt>
      <trkpt lat="43.98429" lon="7.2346">
        <ele>1392.4</ele>
        <time>2012-05-27T07:10:53Z</time>
      </trkpt>
      <trkpt lat="43.98414" lon="7.23471">
        <ele>1394.4</ele>
        <time>2012-05-27T07:11:01Z</time>
      </trkpt>
      <trkpt lat="43.98408" lon="7.23474">
        <ele>1395.6</ele>
        <time>2012-05-27T07:11:04Z</time>
      </trkpt>
      <trkpt lat="43.98394" lon="7.23483">
        <ele>1397.7</ele>
        <time>2012-05-27T07:11:09Z</time>
      </trkpt>
      <trkpt lat="43.98375" lon="7.23495">
        <ele>1400.6</ele>
        <time>2012-05-27T07:11:16Z</time>
      </trkpt>
      <trkpt lat="43.98363" lon="7.23506">
        <ele>1400.6</ele>
        <time>2012-05-27T07:11:20Z</time>
      </trkpt>
      <trkpt lat="43.98357" lon="7.2351">
        <ele>1400.6</ele>
        <time>2012-05-27T07:11:22Z</time>
      </trkpt>
      <trkpt lat="43.98345" lon="7.23521">
        <ele>1400.5</ele>
        <time>2012-05-27T07:11:26Z</time>
      </trkpt>
      <trkpt lat="43.98338" lon="7.23527">
        <ele>1400.6</ele>
        <time>2012-05-27T07:11:28Z</time>
      </trkpt>
      <trkpt lat="43.98324" lon="7.23535">
        <ele>1401.5</ele>
        <time>2012-05-27T07:11:32Z</time>
      </trkpt>
      <trkpt lat="43.9831" lon="7.23542">
        <ele>1402.9</ele>
        <time>2012-05-27T07:11:36Z</time>
      </trkpt>
      <trkpt lat="43.98296" lon="7.23547">
        <ele>1403.8</ele>
        <time>2012-05-27T07:11:40Z</time>
      </trkpt>
      <trkpt lat="43.98278" lon="7.23556">
        <ele>1403</ele>
        <time>2012-05-27T07:11:44Z</time>
      </trkpt>
      <trkpt lat="43.98269" lon="7.23562">
        <ele>1401.5</ele>
        <time>2012-05-27T07:11:46Z</time>
      </trkpt>
      <trkpt lat="43.98254" lon="7.23574">
        <ele>1398</ele>
        <time>2012-05-27T07:11:50Z</time>
      </trkpt>
      <trkpt lat="43.98247" lon="7.2358">
        <ele>1396.1</ele>
        <time>2012-05-27T07:11:52Z</time>
      </trkpt>
      <trkpt lat="43.98234" lon="7.23585">
        <ele>1394.2</ele>
        <time>2012-05-27T07:11:56Z</time>
      </trkpt>
      <trkpt lat="43.98222" lon="7.23593">
        <ele>1392.8</ele>
        <time>2012-05-27T07:12:00Z</time>
      </trkpt>
      <trkpt lat="43.98209" lon="7.23599">
        <ele>1391.1</ele>
        <time>2012-05-27T07:12:04Z</time>
      </trkpt>
      <trkpt lat="43.98194" lon="7.23602">
        <ele>1388.2</ele>
        <time>2012-05-27T07:12:10Z</time>
      </trkpt>
      <trkpt lat="43.98184" lon="7.23598">
        <ele>1387.1</ele>
        <time>2012-05-27T07:12:15Z</time>
      </trkpt>
      <trkpt lat="43.98173" lon="7.23588">
        <ele>1387.8</ele>
        <time>2012-05-27T07:12:21Z</time>
      </trkpt>
      <trkpt lat="43.98166" lon="7.2358">
        <ele>1389.3</ele>
        <time>2012-05-27T07:12:24Z</time>
      </trkpt>
      <trkpt lat="43.98154" lon="7.23573">
        <ele>1390.5</ele>
        <time>2012-05-27T07:12:28Z</time>
      </trkpt>
      <trkpt lat="43.98142" lon="7.23568">
        <ele>1389.9</ele>
        <time>2012-05-27T07:12:32Z</time>
      </trkpt>
      <trkpt lat="43.98129" lon="7.23563">
        <ele>1389.4</ele>
        <time>2012-05-27T07:12:36Z</time>
      </trkpt>
      <trkpt lat="43.98115" lon="7.23553">
        <ele>1389.8</ele>
        <time>2012-05-27T07:12:41Z</time>
      </trkpt>
      <trkpt lat="43.98101" lon="7.23548">
        <ele>1388.7</ele>
        <time>2012-05-27T07:12:45Z</time>
      </trkpt>
      <trkpt lat="43.98094" lon="7.23544">
        <ele>1388.1</ele>
        <time>2012-05-27T07:12:47Z</time>
      </trkpt>
      <trkpt lat="43.98082" lon="7.23534">
        <ele>1387.6</ele>
        <time>2012-05-27T07:12:51Z</time>
      </trkpt>
      <trkpt lat="43.98076" lon="7.23526">
        <ele>1387.8</ele>
        <time>2012-05-27T07:12:53Z</time>
      </trkpt>
      <trkpt lat="43.98067" lon="7.23511">
        <ele>1389.5</ele>
        <time>2012-05-27T07:12:57Z</time>
      </trkpt>
      <trkpt lat="43.98057" lon="7.235">
        <ele>1390.9</ele>
        <time>2012-05-27T07:13:01Z</time>
      </trkpt>
      <trkpt lat="43.98043" lon="7.23491">
        <ele>1391.8</ele>
        <time>2012-05-27T07:13:06Z</time>
      </trkpt>
      <trkpt lat="43.98032" lon="7.23484">
        <ele>1392.7</ele>
        <time>2012-05-27T07:13:10Z</time>
      </trkpt>
      <trkpt lat="43.98016" lon="7.23475">
        <ele>1393.8</ele>
        <time>2012-05-27T07:13:16Z</time>
      </trkpt>
      <trkpt lat="43.98004" lon="7.23464">
        <ele>1395.4</ele>
        <time>2012-05-27T07:13:22Z</time>
      </trkpt>
      <trkpt lat="43.9799" lon="7.23454">
        <ele>1395.7</ele>
        <time>2012-05-27T07:13:28Z</time>
      </trkpt>
      <trkpt lat="43.97978" lon="7.23441">
        <ele>1393</ele>
        <time>2012-05-27T07:13:35Z</time>
      </trkpt>
      <trkpt lat="43.97971" lon="7.23436">
        <ele>1391.8</ele>
        <time>2012-05-27T07:13:38Z</time>
      </trkpt>
      <trkpt lat="43.97959" lon="7.23429">
        <ele>1389.9</ele>
        <time>2012-05-27T07:13:42Z</time>
      </trkpt>
      <trkpt lat="43.97946" lon="7.23425">
        <ele>1390.2</ele>
        <time>2012-05-27T07:13:46Z</time>
      </trkpt>
      <trkpt lat="43.97929" lon="7.23422">
        <ele>1392</ele>
        <time>2012-05-27T07:13:52Z</time>
      </trkpt>
      <trkpt lat="43.97915" lon="7.23425">
        <ele>1394.5</ele>
        <time>2012-05-27T07:13:59Z</time>
      </trkpt>
      <trkpt lat="43.97898" lon="7.23427">
        <ele>1397.3</ele>
        <time>2012-05-27T07:14:14Z</time>
      </trkpt>
      <trkpt lat="43.97889" lon="7.23432">
        <ele>1399</ele>
        <time>2012-05-27T07:14:18Z</time>
      </trkpt>
      <trkpt lat="43.97871" lon="7.23447">
        <ele>1405.9</ele>
        <time>2012-05-27T07:14:26Z</time>
      </trkpt>
      <trkpt lat="43.97855" lon="7.23454">
        <ele>1411.7</ele>
        <time>2012-05-27T07:14:32Z</time>
      </trkpt>
      <trkpt lat="43.97848" lon="7.23458">
        <ele>1414.6</ele>
        <time>2012-05-27T07:14:35Z</time>
      </trkpt>
      <trkpt lat="43.97837" lon="7.23467">
        <ele>1416.4</ele>
        <time>2012-05-27T07:14:39Z</time>
      </trkpt>
      <trkpt lat="43.97824" lon="7.23474">
        <ele>1417.9</ele>
        <time>2012-05-27T07:14:43Z</time>
      </trkpt>
      <trkpt lat="43.97818" lon="7.23479">
        <ele>1418.6</ele>
        <time>2012-05-27T07:14:45Z</time>
      </trkpt>
      <trkpt lat="43.97803" lon="7.23487">
        <ele>1420.8</ele>
        <time>2012-05-27T07:14:53Z</time>
      </trkpt>
      <trkpt lat="43.97797" lon="7.2349">
        <ele>1421.5</ele>
        <time>2012-05-27T07:14:56Z</time>
      </trkpt>
      <trkpt lat="43.97771" lon="7.23506">
        <ele>1426.3</ele>
        <time>2012-05-27T07:15:04Z</time>
      </trkpt>
      <trkpt lat="43.97758" lon="7.23517">
        <ele>1429.6</ele>
        <time>2012-05-27T07:15:08Z</time>
      </trkpt>
      <trkpt lat="43.97746" lon="7.23529">
        <ele>1432.8</ele>
        <time>2012-05-27T07:15:12Z</time>
      </trkpt>
      <trkpt lat="43.97738" lon="7.2355">
        <ele>1434</ele>
        <time>2012-05-27T07:15:19Z</time>
      </trkpt>
      <trkpt lat="43.97716" lon="7.23595">
        <ele>1435.3</ele>
        <time>2012-05-27T07:15:46Z</time>
      </trkpt>
      <trkpt lat="43.97707" lon="7.23613">
        <ele>1436.4</ele>
        <time>2012-05-27T07:15:57Z</time>
      </trkpt>
      <trkpt lat="43.97696" lon="7.2363">
        <ele>1436.1</ele>
        <time>2012-05-27T07:16:08Z</time>
      </trkpt>
      <trkpt lat="43.97685" lon="7.23646">
        <ele>1434.2</ele>
        <time>2012-05-27T07:16:20Z</time>
      </trkpt>
      <trkpt lat="43.97674" lon="7.23662">
        <ele>1431.8</ele>
        <time>2012-05-27T07:16:32Z</time>
      </trkpt>
      <trkpt lat="43.97667" lon="7.23669">
        <ele>1430.4</ele>
        <time>2012-05-27T07:16:39Z</time>
      </trkpt>
      <trkpt lat="43.97653" lon="7.23677">
        <ele>1429.3</ele>
        <time>2012-05-27T07:17:01Z</time>
      </trkpt>
      <trkpt lat="43.97644" lon="7.23677">
        <ele>1430.2</ele>
        <time>2012-05-27T07:17:08Z</time>
      </trkpt>
      <trkpt lat="43.97612" lon="7.23661">
        <ele>1440.7</ele>
        <time>2012-05-27T07:17:30Z</time>
      </trkpt>
      <trkpt lat="43.97599" lon="7.23658">
        <ele>1442.5</ele>
        <time>2012-05-27T07:17:34Z</time>
      </trkpt>
      <trkpt lat="43.97591" lon="7.23656">
        <ele>1444.2</ele>
        <time>2012-05-27T07:17:37Z</time>
      </trkpt>
      <trkpt lat="43.97578" lon="7.23665">
        <ele>1441.9</ele>
        <time>2012-05-27T07:17:41Z</time>
      </trkpt>
      <trkpt lat="43.97563" lon="7.23671">
        <ele>1439.2</ele>
        <time>2012-05-27T07:17:46Z</time>
      </trkpt>
      <trkpt lat="43.9755" lon="7.23669">
        <ele>1440.1</ele>
        <time>2012-05-27T07:17:51Z</time>
      </trkpt>
      <trkpt lat="43.97537" lon="7.23669">
        <ele>1441.1</ele>
        <time>2012-05-27T07:17:55Z</time>
      </trkpt>
      <trkpt lat="43.97525" lon="7.23672">
        <ele>1441</ele>
        <time>2012-05-27T07:17:58Z</time>
      </trkpt>
      <trkpt lat="43.97517" lon="7.23676">
        <ele>1440.5</ele>
        <time>2012-05-27T07:18:00Z</time>
      </trkpt>
      <trkpt lat="43.97487" lon="7.23688">
        <ele>1438</ele>
        <time>2012-05-27T07:18:15Z</time>
      </trkpt>
      <trkpt lat="43.97479" lon="7.23688">
        <ele>1438.8</ele>
        <time>2012-05-27T07:18:21Z</time>
      </trkpt>
      <trkpt lat="43.97469" lon="7.23692">
        <ele>1438.6</ele>
        <time>2012-05-27T07:18:25Z</time>
      </trkpt>
      <trkpt lat="43.97447" lon="7.23698">
        <ele>1438.6</ele>
        <time>2012-05-27T07:18:33Z</time>
      </trkpt>
      <trkpt lat="43.9744" lon="7.237">
        <ele>1438.7</ele>
        <time>2012-05-27T07:18:37Z</time>
      </trkpt>
      <trkpt lat="43.97428" lon="7.23706">
        <ele>1438.2</ele>
        <time>2012-05-27T07:18:41Z</time>
      </trkpt>
      <trkpt lat="43.97421" lon="7.23708">
        <ele>1438.2</ele>
        <time>2012-05-27T07:18:43Z</time>
      </trkpt>
      <trkpt lat="43.97409" lon="7.23713">
        <ele>1437.7</ele>
        <time>2012-05-27T07:18:47Z</time>
      </trkpt>
      <trkpt lat="43.97394" lon="7.23713">
        <ele>1439.3</ele>
        <time>2012-05-27T07:18:52Z</time>
      </trkpt>
      <trkpt lat="43.97377" lon="7.23714">
        <ele>1441.4</ele>
        <time>2012-05-27T07:19:00Z</time>
      </trkpt>
      <trkpt lat="43.97361" lon="7.23716">
        <ele>1446.2</ele>
        <time>2012-05-27T07:19:07Z</time>
      </trkpt>
      <trkpt lat="43.97346" lon="7.2373">
        <ele>1447.7</ele>
        <time>2012-05-27T07:19:17Z</time>
      </trkpt>
      <trkpt lat="43.97331" lon="7.23738">
        <ele>1450.5</ele>
        <time>2012-05-27T07:19:26Z</time>
      </trkpt>
      <trkpt lat="43.97319" lon="7.23747">
        <ele>1454.2</ele>
        <time>2012-05-27T07:19:34Z</time>
      </trkpt>
      <trkpt lat="43.97305" lon="7.23759">
        <ele>1457.2</ele>
        <time>2012-05-27T07:19:44Z</time>
      </trkpt>
      <trkpt lat="43.97301" lon="7.23776">
        <ele>1455.1</ele>
        <time>2012-05-27T07:19:49Z</time>
      </trkpt>
      <trkpt lat="43.97299" lon="7.23789">
        <ele>1453.2</ele>
        <time>2012-05-27T07:19:51Z</time>
      </trkpt>
      <trkpt lat="43.97296" lon="7.23804">
        <ele>1450.3</ele>
        <time>2012-05-27T07:19:53Z</time>
      </trkpt>
      <trkpt lat="43.97282" lon="7.23836">
        <ele>1443.6</ele>
        <time>2012-05-27T07:19:58Z</time>
      </trkpt>
      <trkpt lat="43.97269" lon="7.23849">
        <ele>1440.9</ele>
        <time>2012-05-27T07:20:02Z</time>
      </trkpt>
      <trkpt lat="43.97256" lon="7.23856">
        <ele>1441.1</ele>
        <time>2012-05-27T07:20:05Z</time>
      </trkpt>
      <trkpt lat="43.97247" lon="7.23863">
        <ele>1441.1</ele>
        <time>2012-05-27T07:20:07Z</time>
      </trkpt>
      <trkpt lat="43.97236" lon="7.23871">
        <ele>1441.2</ele>
        <time>2012-05-27T07:20:10Z</time>
      </trkpt>
      <trkpt lat="43.97229" lon="7.23877">
        <ele>1441.1</ele>
        <time>2012-05-27T07:20:12Z</time>
      </trkpt>
      <trkpt lat="43.97215" lon="7.2389">
        <ele>1439.3</ele>
        <time>2012-05-27T07:20:16Z</time>
      </trkpt>
      <trkpt lat="43.97208" lon="7.23897">
        <ele>1438.2</ele>
        <time>2012-05-27T07:20:18Z</time>
      </trkpt>
      <trkpt lat="43.972" lon="7.23904">
        <ele>1435.1</ele>
        <time>2012-05-27T07:20:20Z</time>
      </trkpt>
      <trkpt lat="43.97188" lon="7.23912">
        <ele>1429.2</ele>
        <time>2012-05-27T07:20:23Z</time>
      </trkpt>
      <trkpt lat="43.97167" lon="7.23924">
        <ele>1419.1</ele>
        <time>2012-05-27T07:20:31Z</time>
      </trkpt>
      <trkpt lat="43.97142" lon="7.23936">
        <ele>1409.1</ele>
        <time>2012-05-27T07:20:42Z</time>
      </trkpt>
      <trkpt lat="43.97126" lon="7.2394">
        <ele>1404.3</ele>
        <time>2012-05-27T07:20:54Z</time>
      </trkpt>
      <trkpt lat="43.97109" lon="7.23936">
        <ele>1397.5</ele>
        <time>2012-05-27T07:21:08Z</time>
      </trkpt>
      <trkpt lat="43.97102" lon="7.2393">
        <ele>1395.9</ele>
        <time>2012-05-27T07:21:15Z</time>
      </trkpt>
      <trkpt lat="43.97094" lon="7.23911">
        <ele>1398.3</ele>
        <time>2012-05-27T07:21:26Z</time>
      </trkpt>
      <trkpt lat="43.9709" lon="7.23899">
        <ele>1399.9</ele>
        <time>2012-05-27T07:21:31Z</time>
      </trkpt>
      <trkpt lat="43.97075" lon="7.23878">
        <ele>1401.9</ele>
        <time>2012-05-27T07:21:44Z</time>
      </trkpt>
      <trkpt lat="43.9707" lon="7.23869">
        <ele>1403</ele>
        <time>2012-05-27T07:21:51Z</time>
      </trkpt>
      <trkpt lat="43.97062" lon="7.23849">
        <ele>1407.7</ele>
        <time>2012-05-27T07:22:00Z</time>
      </trkpt>
      <trkpt lat="43.97049" lon="7.23835">
        <ele>1410</ele>
        <time>2012-05-27T07:22:13Z</time>
      </trkpt>
      <trkpt lat="43.97041" lon="7.23837">
        <ele>1405.9</ele>
        <time>2012-05-27T07:22:19Z</time>
      </trkpt>
      <trkpt lat="43.97027" lon="7.2383">
        <ele>1404.8</ele>
        <time>2012-05-27T07:22:29Z</time>
      </trkpt>
      <trkpt lat="43.97017" lon="7.23825">
        <ele>1405.1</ele>
        <time>2012-05-27T07:22:34Z</time>
      </trkpt>
      <trkpt lat="43.97006" lon="7.23817">
        <ele>1406</ele>
        <time>2012-05-27T07:22:40Z</time>
      </trkpt>
      <trkpt lat="43.96994" lon="7.23801">
        <ele>1410.3</ele>
        <time>2012-05-27T07:22:49Z</time>
      </trkpt>
      <trkpt lat="43.96989" lon="7.23793">
        <ele>1413.1</ele>
        <time>2012-05-27T07:22:57Z</time>
      </trkpt>
      <trkpt lat="43.96976" lon="7.23779">
        <ele>1417.3</ele>
        <time>2012-05-27T07:23:10Z</time>
      </trkpt>
      <trkpt lat="43.9696" lon="7.2377">
        <ele>1417.8</ele>
        <time>2012-05-27T07:23:24Z</time>
      </trkpt>
      <trkpt lat="43.96946" lon="7.23757">
        <ele>1423.2</ele>
        <time>2012-05-27T07:23:34Z</time>
      </trkpt>
      <trkpt lat="43.96944" lon="7.23756">
        <ele>1423.4</ele>
        <time>2012-05-27T07:23:35Z</time>
      </trkpt>
      <trkpt lat="43.96923" lon="7.23752">
        <ele>1425.7</ele>
        <time>2012-05-27T07:23:42Z</time>
      </trkpt>
      <trkpt lat="43.96909" lon="7.23751">
        <ele>1426.3</ele>
        <time>2012-05-27T07:23:47Z</time>
      </trkpt>
      <trkpt lat="43.96877" lon="7.23747">
        <ele>1427.3</ele>
        <time>2012-05-27T07:24:00Z</time>
      </trkpt>
      <trkpt lat="43.9686" lon="7.23745">
        <ele>1426.1</ele>
        <time>2012-05-27T07:24:09Z</time>
      </trkpt>
      <trkpt lat="43.96844" lon="7.23746">
        <ele>1423.6</ele>
        <time>2012-05-27T07:24:18Z</time>
      </trkpt>
      <trkpt lat="43.96836" lon="7.23746">
        <ele>1422.2</ele>
        <time>2012-05-27T07:24:23Z</time>
      </trkpt>
      <trkpt lat="43.96819" lon="7.23749">
        <ele>1419.3</ele>
        <time>2012-05-27T07:24:33Z</time>
      </trkpt>
      <trkpt lat="43.96812" lon="7.23749">
        <ele>1418.2</ele>
        <time>2012-05-27T07:24:37Z</time>
      </trkpt>
      <trkpt lat="43.96795" lon="7.23752">
        <ele>1415.7</ele>
        <time>2012-05-27T07:24:46Z</time>
      </trkpt>
      <trkpt lat="43.96786" lon="7.23752">
        <ele>1414.2</ele>
        <time>2012-05-27T07:24:50Z</time>
      </trkpt>
      <trkpt lat="43.96772" lon="7.23756">
        <ele>1411.1</ele>
        <time>2012-05-27T07:24:57Z</time>
      </trkpt>
      <trkpt lat="43.96755" lon="7.23759">
        <ele>1408</ele>
        <time>2012-05-27T07:25:03Z</time>
      </trkpt>
      <trkpt lat="43.96741" lon="7.23761">
        <ele>1405.4</ele>
        <time>2012-05-27T07:25:09Z</time>
      </trkpt>
      <trkpt lat="43.96728" lon="7.23765">
        <ele>1403.7</ele>
        <time>2012-05-27T07:25:13Z</time>
      </trkpt>
      <trkpt lat="43.96721" lon="7.23767">
        <ele>1403</ele>
        <time>2012-05-27T07:25:15Z</time>
      </trkpt>
      <trkpt lat="43.96707" lon="7.23765">
        <ele>1400.6</ele>
        <time>2012-05-27T07:25:19Z</time>
      </trkpt>
      <trkpt lat="43.96693" lon="7.23764">
        <ele>1398.8</ele>
        <time>2012-05-27T07:25:22Z</time>
      </trkpt>
      <trkpt lat="43.9668" lon="7.23765">
        <ele>1397.6</ele>
        <time>2012-05-27T07:25:25Z</time>
      </trkpt>
      <trkpt lat="43.96667" lon="7.23774">
        <ele>1398.5</ele>
        <time>2012-05-27T07:25:30Z</time>
      </trkpt>
      <trkpt lat="43.96654" lon="7.23777">
        <ele>1399.2</ele>
        <time>2012-05-27T07:25:35Z</time>
      </trkpt>
      <trkpt lat="43.96646" lon="7.2378">
        <ele>1399.5</ele>
        <time>2012-05-27T07:25:37Z</time>
      </trkpt>
      <trkpt lat="43.96635" lon="7.23778">
        <ele>1399</ele>
        <time>2012-05-27T07:25:40Z</time>
      </trkpt>
      <trkpt lat="43.96624" lon="7.23778">
        <ele>1398.1</ele>
        <time>2012-05-27T07:25:43Z</time>
      </trkpt>
      <trkpt lat="43.96594" lon="7.23783">
        <ele>1400.2</ele>
        <time>2012-05-27T07:25:56Z</time>
      </trkpt>
      <trkpt lat="43.96579" lon="7.23783">
        <ele>1400.4</ele>
        <time>2012-05-27T07:26:02Z</time>
      </trkpt>
      <trkpt lat="43.9657" lon="7.23787">
        <ele>1401.7</ele>
        <time>2012-05-27T07:26:06Z</time>
      </trkpt>
      <trkpt lat="43.96556" lon="7.23791">
        <ele>1403.6</ele>
        <time>2012-05-27T07:26:14Z</time>
      </trkpt>
      <trkpt lat="43.96526" lon="7.23804">
        <ele>1407.1</ele>
        <time>2012-05-27T07:26:27Z</time>
      </trkpt>
      <trkpt lat="43.96519" lon="7.23809">
        <ele>1408.3</ele>
        <time>2012-05-27T07:26:30Z</time>
      </trkpt>
      <trkpt lat="43.96505" lon="7.23818">
        <ele>1410.8</ele>
        <time>2012-05-27T07:26:35Z</time>
      </trkpt>
      <trkpt lat="43.96499" lon="7.23824">
        <ele>1412.2</ele>
        <time>2012-05-27T07:26:38Z</time>
      </trkpt>
      <trkpt lat="43.96489" lon="7.23832">
        <ele>1414.1</ele>
        <time>2012-05-27T07:26:42Z</time>
      </trkpt>
      <trkpt lat="43.96473" lon="7.23848">
        <ele>1418.3</ele>
        <time>2012-05-27T07:26:47Z</time>
      </trkpt>
      <trkpt lat="43.96468" lon="7.23851">
        <ele>1419.3</ele>
        <time>2012-05-27T07:26:48Z</time>
      </trkpt>
      <trkpt lat="43.96456" lon="7.2386">
        <ele>1422.4</ele>
        <time>2012-05-27T07:26:51Z</time>
      </trkpt>
      <trkpt lat="43.96449" lon="7.23864">
        <ele>1424</ele>
        <time>2012-05-27T07:26:53Z</time>
      </trkpt>
      <trkpt lat="43.96437" lon="7.23874">
        <ele>1426.9</ele>
        <time>2012-05-27T07:26:57Z</time>
      </trkpt>
      <trkpt lat="43.9643" lon="7.23877">
        <ele>1427.7</ele>
        <time>2012-05-27T07:26:59Z</time>
      </trkpt>
      <trkpt lat="43.96404" lon="7.23888">
        <ele>1427.7</ele>
        <time>2012-05-27T07:27:06Z</time>
      </trkpt>
      <trkpt lat="43.96395" lon="7.23894">
        <ele>1427.3</ele>
        <time>2012-05-27T07:27:08Z</time>
      </trkpt>
      <trkpt lat="43.96384" lon="7.239">
        <ele>1426.9</ele>
        <time>2012-05-27T07:27:10Z</time>
      </trkpt>
      <trkpt lat="43.96371" lon="7.23907">
        <ele>1426.9</ele>
        <time>2012-05-27T07:27:12Z</time>
      </trkpt>
      <trkpt lat="43.96358" lon="7.23913">
        <ele>1428.5</ele>
        <time>2012-05-27T07:27:14Z</time>
      </trkpt>
      <trkpt lat="43.96345" lon="7.23918">
        <ele>1430.9</ele>
        <time>2012-05-27T07:27:16Z</time>
      </trkpt>
      <trkpt lat="43.96334" lon="7.23924">
        <ele>1433.3</ele>
        <time>2012-05-27T07:27:18Z</time>
      </trkpt>
      <trkpt lat="43.96322" lon="7.23929">
        <ele>1435.6</ele>
        <time>2012-05-27T07:27:20Z</time>
      </trkpt>
      <trkpt lat="43.96313" lon="7.23935">
        <ele>1437.6</ele>
        <time>2012-05-27T07:27:22Z</time>
      </trkpt>
      <trkpt lat="43.96304" lon="7.23941">
        <ele>1439.2</ele>
        <time>2012-05-27T07:27:24Z</time>
      </trkpt>
      <trkpt lat="43.96296" lon="7.2395">
        <ele>1440.1</ele>
        <time>2012-05-27T07:27:26Z</time>
      </trkpt>
      <trkpt lat="43.96286" lon="7.23958">
        <ele>1440.8</ele>
        <time>2012-05-27T07:27:28Z</time>
      </trkpt>
      <trkpt lat="43.96276" lon="7.23968">
        <ele>1440.3</ele>
        <time>2012-05-27T07:27:30Z</time>
      </trkpt>
      <trkpt lat="43.96262" lon="7.23979">
        <ele>1439.1</ele>
        <time>2012-05-27T07:27:33Z</time>
      </trkpt>
      <trkpt lat="43.96257" lon="7.23983">
        <ele>1438.6</ele>
        <time>2012-05-27T07:27:34Z</time>
      </trkpt>
      <trkpt lat="43.96247" lon="7.23992">
        <ele>1437.5</ele>
        <time>2012-05-27T07:27:36Z</time>
      </trkpt>
      <trkpt lat="43.96237" lon="7.24004">
        <ele>1435.8</ele>
        <time>2012-05-27T07:27:38Z</time>
      </trkpt>
      <trkpt lat="43.96224" lon="7.24012">
        <ele>1434.7</ele>
        <time>2012-05-27T07:27:40Z</time>
      </trkpt>
      <trkpt lat="43.9621" lon="7.24023">
        <ele>1434.3</ele>
        <time>2012-05-27T07:27:43Z</time>
      </trkpt>
      <trkpt lat="43.96202" lon="7.24038">
        <ele>1431.3</ele>
        <time>2012-05-27T07:27:45Z</time>
      </trkpt>
      <trkpt lat="43.96198" lon="7.24045">
        <ele>1429.6</ele>
        <time>2012-05-27T07:27:46Z</time>
      </trkpt>
      <trkpt lat="43.96187" lon="7.24054">
        <ele>1426.9</ele>
        <time>2012-05-27T07:27:49Z</time>
      </trkpt>
      <trkpt lat="43.96174" lon="7.24059">
        <ele>1426.7</ele>
        <time>2012-05-27T07:27:52Z</time>
      </trkpt>
      <trkpt lat="43.96162" lon="7.24066">
        <ele>1426.5</ele>
        <time>2012-05-27T07:27:55Z</time>
      </trkpt>
      <trkpt lat="43.96154" lon="7.24073">
        <ele>1426</ele>
        <time>2012-05-27T07:27:57Z</time>
      </trkpt>
      <trkpt lat="43.96137" lon="7.24081">
        <ele>1425.9</ele>
        <time>2012-05-27T07:28:01Z</time>
      </trkpt>
      <trkpt lat="43.96126" lon="7.2409">
        <ele>1425.4</ele>
        <time>2012-05-27T07:28:04Z</time>
      </trkpt>
      <trkpt lat="43.96121" lon="7.24093">
        <ele>1425.3</ele>
        <time>2012-05-27T07:28:05Z</time>
      </trkpt>
      <trkpt lat="43.96111" lon="7.24097">
        <ele>1425.8</ele>
        <time>2012-05-27T07:28:07Z</time>
      </trkpt>
      <trkpt lat="43.96099" lon="7.24108">
        <ele>1425.8</ele>
        <time>2012-05-27T07:28:11Z</time>
      </trkpt>
      <trkpt lat="43.96089" lon="7.24123">
        <ele>1424.2</ele>
        <time>2012-05-27T07:28:15Z</time>
      </trkpt>
      <trkpt lat="43.96076" lon="7.24139">
        <ele>1423.3</ele>
        <time>2012-05-27T07:28:19Z</time>
      </trkpt>
      <trkpt lat="43.96067" lon="7.24155">
        <ele>1422.1</ele>
        <time>2012-05-27T07:28:23Z</time>
      </trkpt>
      <trkpt lat="43.96064" lon="7.24161">
        <ele>1421.3</ele>
        <time>2012-05-27T07:28:25Z</time>
      </trkpt>
      <trkpt lat="43.96055" lon="7.24175">
        <ele>1420</ele>
        <time>2012-05-27T07:28:29Z</time>
      </trkpt>
      <trkpt lat="43.9604" lon="7.24199">
        <ele>1418.1</ele>
        <time>2012-05-27T07:28:34Z</time>
      </trkpt>
      <trkpt lat="43.96027" lon="7.24211">
        <ele>1418.1</ele>
        <time>2012-05-27T07:28:38Z</time>
      </trkpt>
      <trkpt lat="43.96016" lon="7.24221">
        <ele>1419.5</ele>
        <time>2012-05-27T07:28:42Z</time>
      </trkpt>
      <trkpt lat="43.96008" lon="7.2423">
        <ele>1419.9</ele>
        <time>2012-05-27T07:28:45Z</time>
      </trkpt>
      <trkpt lat="43.95998" lon="7.2424">
        <ele>1420.6</ele>
        <time>2012-05-27T07:28:49Z</time>
      </trkpt>
      <trkpt lat="43.95992" lon="7.24246">
        <ele>1420.7</ele>
        <time>2012-05-27T07:28:51Z</time>
      </trkpt>
      <trkpt lat="43.9598" lon="7.2426">
        <ele>1420.4</ele>
        <time>2012-05-27T07:28:55Z</time>
      </trkpt>
      <trkpt lat="43.95968" lon="7.24271">
        <ele>1420.3</ele>
        <time>2012-05-27T07:29:00Z</time>
      </trkpt>
      <trkpt lat="43.95953" lon="7.24277">
        <ele>1421.5</ele>
        <time>2012-05-27T07:29:05Z</time>
      </trkpt>
      <trkpt lat="43.95945" lon="7.24281">
        <ele>1421.9</ele>
        <time>2012-05-27T07:29:08Z</time>
      </trkpt>
      <trkpt lat="43.95931" lon="7.2429">
        <ele>1421.8</ele>
        <time>2012-05-27T07:29:14Z</time>
      </trkpt>
      <trkpt lat="43.95915" lon="7.24295">
        <ele>1422.7</ele>
        <time>2012-05-27T07:29:22Z</time>
      </trkpt>
      <trkpt lat="43.959" lon="7.24297">
        <ele>1424.4</ele>
        <time>2012-05-27T07:29:28Z</time>
      </trkpt>
      <trkpt lat="43.95892" lon="7.24302">
        <ele>1424.5</ele>
        <time>2012-05-27T07:29:34Z</time>
      </trkpt>
      <trkpt lat="43.95877" lon="7.24309">
        <ele>1424.7</ele>
        <time>2012-05-27T07:29:44Z</time>
      </trkpt>
      <trkpt lat="43.95868" lon="7.24311">
        <ele>1424.9</ele>
        <time>2012-05-27T07:29:50Z</time>
      </trkpt>
      <trkpt lat="43.95847" lon="7.24316">
        <ele>1423.8</ele>
        <time>2012-05-27T07:30:04Z</time>
      </trkpt>
      <trkpt lat="43.95832" lon="7.24314">
        <ele>1424.4</ele>
        <time>2012-05-27T07:30:11Z</time>
      </trkpt>
      <trkpt lat="43.95818" lon="7.24314">
        <ele>1424.9</ele>
        <time>2012-05-27T07:30:17Z</time>
      </trkpt>
      <trkpt lat="43.9581" lon="7.24315">
        <ele>1424.8</ele>
        <time>2012-05-27T07:30:20Z</time>
      </trkpt>
      <trkpt lat="43.95794" lon="7.24312">
        <ele>1425.8</ele>
        <time>2012-05-27T07:30:27Z</time>
      </trkpt>
      <trkpt lat="43.95788" lon="7.2431">
        <ele>1426</ele>
        <time>2012-05-27T07:30:30Z</time>
      </trkpt>
      <trkpt lat="43.95773" lon="7.24305">
        <ele>1426.1</ele>
        <time>2012-05-27T07:30:37Z</time>
      </trkpt>
      <trkpt lat="43.95765" lon="7.24298">
        <ele>1427.3</ele>
        <time>2012-05-27T07:30:41Z</time>
      </trkpt>
      <trkpt lat="43.95757" lon="7.24296">
        <ele>1427.3</ele>
        <time>2012-05-27T07:30:49Z</time>
      </trkpt>
      <trkpt lat="43.95748" lon="7.24293">
        <ele>1427.2</ele>
        <time>2012-05-27T07:30:56Z</time>
      </trkpt>
      <trkpt lat="43.95727" lon="7.24288">
        <ele>1427.1</ele>
        <time>2012-05-27T07:31:10Z</time>
      </trkpt>
      <trkpt lat="43.95711" lon="7.24286">
        <ele>1426.3</ele>
        <time>2012-05-27T07:31:16Z</time>
      </trkpt>
      <trkpt lat="43.95696" lon="7.24278">
        <ele>1428.2</ele>
        <time>2012-05-27T07:31:22Z</time>
      </trkpt>
      <trkpt lat="43.95682" lon="7.2427">
        <ele>1430.4</ele>
        <time>2012-05-27T07:31:28Z</time>
      </trkpt>
      <trkpt lat="43.95668" lon="7.24263">
        <ele>1432.5</ele>
        <time>2012-05-27T07:31:34Z</time>
      </trkpt>
      <trkpt lat="43.95655" lon="7.24252">
        <ele>1435.8</ele>
        <time>2012-05-27T07:31:42Z</time>
      </trkpt>
      <trkpt lat="43.95646" lon="7.24246">
        <ele>1437.5</ele>
        <time>2012-05-27T07:31:47Z</time>
      </trkpt>
      <trkpt lat="43.95633" lon="7.24234">
        <ele>1440.7</ele>
        <time>2012-05-27T07:31:57Z</time>
      </trkpt>
      <trkpt lat="43.95618" lon="7.24227">
        <ele>1443.2</ele>
        <time>2012-05-27T07:32:07Z</time>
      </trkpt>
      <trkpt lat="43.95611" lon="7.24219">
        <ele>1445.4</ele>
        <time>2012-05-27T07:32:14Z</time>
      </trkpt>
      <trkpt lat="43.95604" lon="7.24213">
        <ele>1447.5</ele>
        <time>2012-05-27T07:32:25Z</time>
      </trkpt>
      <trkpt lat="43.95596" lon="7.24208">
        <ele>1448.6</ele>
        <time>2012-05-27T07:32:33Z</time>
      </trkpt>
      <trkpt lat="43.95563" lon="7.242">
        <ele>1450.1</ele>
        <time>2012-05-27T07:32:56Z</time>
      </trkpt>
      <trkpt lat="43.95555" lon="7.24197">
        <ele>1450.6</ele>
        <time>2012-05-27T07:33:01Z</time>
      </trkpt>
      <trkpt lat="43.9554" lon="7.24194">
        <ele>1451.5</ele>
        <time>2012-05-27T07:33:14Z</time>
      </trkpt>
      <trkpt lat="43.95531" lon="7.24194">
        <ele>1453.6</ele>
        <time>2012-05-27T07:34:05Z</time>
      </trkpt>
      <trkpt lat="43.95516" lon="7.24186">
        <ele>1458.2</ele>
        <time>2012-05-27T07:34:23Z</time>
      </trkpt>
      <trkpt lat="43.95499" lon="7.24185">
        <ele>1462</ele>
        <time>2012-05-27T07:34:38Z</time>
      </trkpt>
      <trkpt lat="43.9549" lon="7.24189">
        <ele>1463.5</ele>
        <time>2012-05-27T07:34:47Z</time>
      </trkpt>
      <trkpt lat="43.95481" lon="7.24189">
        <ele>1465.4</ele>
        <time>2012-05-27T07:35:07Z</time>
      </trkpt>
      <trkpt lat="43.95468" lon="7.24187">
        <ele>1468.5</ele>
        <time>2012-05-27T07:35:36Z</time>
      </trkpt>
      <trkpt lat="43.95459" lon="7.2419">
        <ele>1470.4</ele>
        <time>2012-05-27T07:35:56Z</time>
      </trkpt>
      <trkpt lat="43.95451" lon="7.24197">
        <ele>1473.1</ele>
        <time>2012-05-27T07:36:11Z</time>
      </trkpt>
      <trkpt lat="43.95439" lon="7.24213">
        <ele>1478.4</ele>
        <time>2012-05-27T07:36:43Z</time>
      </trkpt>
      <trkpt lat="43.95434" lon="7.24223">
        <ele>1480</ele>
        <time>2012-05-27T07:37:00Z</time>
      </trkpt>
      <trkpt lat="43.95426" lon="7.24231">
        <ele>1482</ele>
        <time>2012-05-27T07:37:17Z</time>
      </trkpt>
      <trkpt lat="43.95413" lon="7.24246">
        <ele>1485.2</ele>
        <time>2012-05-27T07:37:44Z</time>
      </trkpt>
      <trkpt lat="43.95401" lon="7.24262">
        <ele>1486.4</ele>
        <time>2012-05-27T07:38:07Z</time>
      </trkpt>
      <trkpt lat="43.95386" lon="7.24262">
        <ele>1490.2</ele>
        <time>2012-05-27T07:38:14Z</time>
      </trkpt>
      <trkpt lat="43.95379" lon="7.24263">
        <ele>1492.5</ele>
        <time>2012-05-27T07:38:17Z</time>
      </trkpt>
      <trkpt lat="43.95366" lon="7.24262">
        <ele>1495</ele>
        <time>2012-05-27T07:38:22Z</time>
      </trkpt>
      <trkpt lat="43.95344" lon="7.24267">
        <ele>1495.5</ele>
        <time>2012-05-27T07:38:27Z</time>
      </trkpt>
      <trkpt lat="43.95336" lon="7.24268">
        <ele>1496.1</ele>
        <time>2012-05-27T07:38:34Z</time>
      </trkpt>
      <trkpt lat="43.9532" lon="7.24274">
        <ele>1496.6</ele>
        <time>2012-05-27T07:38:50Z</time>
      </trkpt>
      <trkpt lat="43.95312" lon="7.24273">
        <ele>1497.4</ele>
        <time>2012-05-27T07:38:57Z</time>
      </trkpt>
      <trkpt lat="43.95296" lon="7.24276">
        <ele>1498.8</ele>
        <time>2012-05-27T07:39:09Z</time>
      </trkpt>
      <trkpt lat="43.95288" lon="7.24278">
        <ele>1498.9</ele>
        <time>2012-05-27T07:39:17Z</time>
      </trkpt>
      <trkpt lat="43.95279" lon="7.24272">
        <ele>1497.6</ele>
        <time>2012-05-27T07:39:31Z</time>
      </trkpt>
      <trkpt lat="43.95263" lon="7.24279">
        <ele>1495.9</ele>
        <time>2012-05-27T07:39:52Z</time>
      </trkpt>
      <trkpt lat="43.95252" lon="7.24292">
        <ele>1496.3</ele>
        <time>2012-05-27T07:39:58Z</time>
      </trkpt>
      <trkpt lat="43.95236" lon="7.243">
        <ele>1494</ele>
        <time>2012-05-27T07:40:05Z</time>
      </trkpt>
      <trkpt lat="43.9522" lon="7.24306">
        <ele>1493.1</ele>
        <time>2012-05-27T07:40:19Z</time>
      </trkpt>
      <trkpt lat="43.95203" lon="7.24309">
        <ele>1492.7</ele>
        <time>2012-05-27T07:40:43Z</time>
      </trkpt>
      <trkpt lat="43.95202" lon="7.24308">
        <ele>1492.7</ele>
        <time>2012-05-27T07:40:44Z</time>
      </trkpt>
      <trkpt lat="43.95196" lon="7.24311">
        <ele>1492.2</ele>
        <time>2012-05-27T07:42:06Z</time>
      </trkpt>
      <trkpt lat="43.95184" lon="7.24328">
        <ele>1493.4</ele>
        <time>2012-05-27T07:42:46Z</time>
      </trkpt>
      <trkpt lat="43.95179" lon="7.24319">
        <ele>1492.4</ele>
        <time>2012-05-27T07:43:05Z</time>
      </trkpt>
      <trkpt lat="43.9517" lon="7.24321">
        <ele>1492.6</ele>
        <time>2012-05-27T07:43:25Z</time>
      </trkpt>
      <trkpt lat="43.95155" lon="7.24334">
        <ele>1496.5</ele>
        <time>2012-05-27T07:44:04Z</time>
      </trkpt>
      <trkpt lat="43.95154" lon="7.24347">
        <ele>1500.8</ele>
        <time>2012-05-27T07:44:32Z</time>
      </trkpt>
      <trkpt lat="43.95144" lon="7.24361">
        <ele>1508.6</ele>
        <time>2012-05-27T07:45:04Z</time>
      </trkpt>
      <trkpt lat="43.95127" lon="7.24368">
        <ele>1517.2</ele>
        <time>2012-05-27T07:45:21Z</time>
      </trkpt>
      <trkpt lat="43.9512" lon="7.24362">
        <ele>1515.2</ele>
        <time>2012-05-27T07:45:30Z</time>
      </trkpt>
      <trkpt lat="43.9511" lon="7.24364">
        <ele>1515.5</ele>
        <time>2012-05-27T07:45:39Z</time>
      </trkpt>
      <trkpt lat="43.95096" lon="7.24371">
        <ele>1520</ele>
        <time>2012-05-27T07:45:57Z</time>
      </trkpt>
      <trkpt lat="43.9508" lon="7.24363">
        <ele>1515.6</ele>
        <time>2012-05-27T07:46:17Z</time>
      </trkpt>
      <trkpt lat="43.95068" lon="7.24345">
        <ele>1505.3</ele>
        <time>2012-05-27T07:46:35Z</time>
      </trkpt>
      <trkpt lat="43.95062" lon="7.24335">
        <ele>1499</ele>
        <time>2012-05-27T07:46:42Z</time>
      </trkpt>
      <trkpt lat="43.95058" lon="7.24315">
        <ele>1485.5</ele>
        <time>2012-05-27T07:46:56Z</time>
      </trkpt>
      <trkpt lat="43.9505" lon="7.24309">
        <ele>1480.1</ele>
        <time>2012-05-27T07:47:14Z</time>
      </trkpt>
      <trkpt lat="43.95036" lon="7.24321">
        <ele>1485.4</ele>
        <time>2012-05-27T07:47:36Z</time>
      </trkpt>
      <trkpt lat="43.95026" lon="7.24327">
        <ele>1488</ele>
        <time>2012-05-27T07:47:45Z</time>
      </trkpt>
      <trkpt lat="43.95015" lon="7.24337">
        <ele>1490.5</ele>
        <time>2012-05-27T07:48:01Z</time>
      </trkpt>
      <trkpt lat="43.95001" lon="7.24351">
        <ele>1495.3</ele>
        <time>2012-05-27T07:48:15Z</time>
      </trkpt>
      <trkpt lat="43.94986" lon="7.24359">
        <ele>1495.7</ele>
        <time>2012-05-27T07:48:24Z</time>
      </trkpt>
      <trkpt lat="43.94972" lon="7.24359">
        <ele>1492.9</ele>
        <time>2012-05-27T07:48:29Z</time>
      </trkpt>
      <trkpt lat="43.94961" lon="7.2435">
        <ele>1486.4</ele>
        <time>2012-05-27T07:48:33Z</time>
      </trkpt>
      <trkpt lat="43.94945" lon="7.24342">
        <ele>1475.5</ele>
        <time>2012-05-27T07:48:40Z</time>
      </trkpt>
      <trkpt lat="43.94937" lon="7.24339">
        <ele>1469.8</ele>
        <time>2012-05-27T07:48:44Z</time>
      </trkpt>
      <trkpt lat="43.94928" lon="7.24349">
        <ele>1468.1</ele>
        <time>2012-05-27T07:48:49Z</time>
      </trkpt>
      <trkpt lat="43.94918" lon="7.24362">
        <ele>1467.3</ele>
        <time>2012-05-27T07:48:55Z</time>
      </trkpt>
      <trkpt lat="43.94913" lon="7.24371">
        <ele>1467.3</ele>
        <time>2012-05-27T07:49:02Z</time>
      </trkpt>
      <trkpt lat="43.94901" lon="7.24387">
        <ele>1466.8</ele>
        <time>2012-05-27T07:49:14Z</time>
      </trkpt>
      <trkpt lat="43.94895" lon="7.24395">
        <ele>1465.7</ele>
        <time>2012-05-27T07:49:21Z</time>
      </trkpt>
      <trkpt lat="43.94878" lon="7.24399">
        <ele>1458.2</ele>
        <time>2012-05-27T07:49:38Z</time>
      </trkpt>
      <trkpt lat="43.94878" lon="7.24386">
        <ele>1453.7</ele>
        <time>2012-05-27T07:49:56Z</time>
      </trkpt>
      <trkpt lat="43.94884" lon="7.24366">
        <ele>1450.8</ele>
        <time>2012-05-27T07:50:18Z</time>
      </trkpt>
      <trkpt lat="43.94889" lon="7.24344">
        <ele>1446.9</ele>
        <time>2012-05-27T07:50:32Z</time>
      </trkpt>
      <trkpt lat="43.9488" lon="7.24343">
        <ele>1442.4</ele>
        <time>2012-05-27T07:50:59Z</time>
      </trkpt>
      <trkpt lat="43.94866" lon="7.24355">
        <ele>1438.2</ele>
        <time>2012-05-27T07:51:18Z</time>
      </trkpt>
      <trkpt lat="43.94861" lon="7.24363">
        <ele>1438.8</ele>
        <time>2012-05-27T07:51:24Z</time>
      </trkpt>
      <trkpt lat="43.94848" lon="7.24379">
        <ele>1437.9</ele>
        <time>2012-05-27T07:51:31Z</time>
      </trkpt>
      <trkpt lat="43.94835" lon="7.24389">
        <ele>1436</ele>
        <time>2012-05-27T07:51:36Z</time>
      </trkpt>
      <trkpt lat="43.94829" lon="7.24397">
        <ele>1435</ele>
        <time>2012-05-27T07:51:41Z</time>
      </trkpt>
      <trkpt lat="43.94815" lon="7.24409">
        <ele>1433</ele>
        <time>2012-05-27T07:51:50Z</time>
      </trkpt>
      <trkpt lat="43.948" lon="7.24417">
        <ele>1428.8</ele>
        <time>2012-05-27T07:51:57Z</time>
      </trkpt>
      <trkpt lat="43.94792" lon="7.24423">
        <ele>1426.1</ele>
        <time>2012-05-27T07:52:03Z</time>
      </trkpt>
      <trkpt lat="43.94797" lon="7.244">
        <ele>1422.1</ele>
        <time>2012-05-27T07:52:25Z</time>
      </trkpt>
      <trkpt lat="43.94788" lon="7.24401">
        <ele>1418.5</ele>
        <time>2012-05-27T07:52:35Z</time>
      </trkpt>
      <trkpt lat="43.94779" lon="7.24396">
        <ele>1412.1</ele>
        <time>2012-05-27T07:52:49Z</time>
      </trkpt>
      <trkpt lat="43.94784" lon="7.24373">
        <ele>1409</ele>
        <time>2012-05-27T07:52:59Z</time>
      </trkpt>
      <trkpt lat="43.94774" lon="7.24373">
        <ele>1404.4</ele>
        <time>2012-05-27T07:53:12Z</time>
      </trkpt>
      <trkpt lat="43.94759" lon="7.24374">
        <ele>1396.9</ele>
        <time>2012-05-27T07:53:28Z</time>
      </trkpt>
      <trkpt lat="43.94756" lon="7.24352">
        <ele>1390.9</ele>
        <time>2012-05-27T07:53:43Z</time>
      </trkpt>
      <trkpt lat="43.9474" lon="7.24352">
        <ele>1383.4</ele>
        <time>2012-05-27T07:53:56Z</time>
      </trkpt>
      <trkpt lat="43.94723" lon="7.24347">
        <ele>1375.1</ele>
        <time>2012-05-27T07:54:17Z</time>
      </trkpt>
      <trkpt lat="43.94707" lon="7.24343">
        <ele>1367.4</ele>
        <time>2012-05-27T07:54:40Z</time>
      </trkpt>
      <trkpt lat="43.94699" lon="7.24328">
        <ele>1363</ele>
        <time>2012-05-27T07:55:03Z</time>
      </trkpt>
      <trkpt lat="43.94686" lon="7.24323">
        <ele>1360.1</ele>
        <time>2012-05-27T07:55:14Z</time>
      </trkpt>
      <trkpt lat="43.94677" lon="7.24318">
        <ele>1358.1</ele>
        <time>2012-05-27T07:55:24Z</time>
      </trkpt>
      <trkpt lat="43.94674" lon="7.24296">
        <ele>1359.5</ele>
        <time>2012-05-27T07:55:44Z</time>
      </trkpt>
      <trkpt lat="43.94659" lon="7.24287">
        <ele>1359.1</ele>
        <time>2012-05-27T07:55:51Z</time>
      </trkpt>
      <trkpt lat="43.94652" lon="7.24279">
        <ele>1359</ele>
        <time>2012-05-27T07:55:53Z</time>
      </trkpt>
      <trkpt lat="43.94642" lon="7.2427">
        <ele>1359.3</ele>
        <time>2012-05-27T07:55:55Z</time>
      </trkpt>
      <trkpt lat="43.94633" lon="7.24257">
        <ele>1360.4</ele>
        <time>2012-05-27T07:55:57Z</time>
      </trkpt>
      <trkpt lat="43.94626" lon="7.2424">
        <ele>1363</ele>
        <time>2012-05-27T07:56:00Z</time>
      </trkpt>
      <trkpt lat="43.9462" lon="7.24222">
        <ele>1366.9</ele>
        <time>2012-05-27T07:56:04Z</time>
      </trkpt>
      <trkpt lat="43.94615" lon="7.24212">
        <ele>1370.2</ele>
        <time>2012-05-27T07:56:08Z</time>
      </trkpt>
      <trkpt lat="43.94611" lon="7.24201">
        <ele>1371.7</ele>
        <time>2012-05-27T07:56:12Z</time>
      </trkpt>
      <trkpt lat="43.94596" lon="7.24174">
        <ele>1371.7</ele>
        <time>2012-05-27T07:56:22Z</time>
      </trkpt>
      <trkpt lat="43.9459" lon="7.24159">
        <ele>1372</ele>
        <time>2012-05-27T07:56:28Z</time>
      </trkpt>
      <trkpt lat="43.94578" lon="7.24137">
        <ele>1373.2</ele>
        <time>2012-05-27T07:56:36Z</time>
      </trkpt>
      <trkpt lat="43.94569" lon="7.24118">
        <ele>1373.2</ele>
        <time>2012-05-27T07:56:47Z</time>
      </trkpt>
      <trkpt lat="43.94566" lon="7.24096">
        <ele>1368.5</ele>
        <time>2012-05-27T07:56:57Z</time>
      </trkpt>
      <trkpt lat="43.94568" lon="7.24086">
        <ele>1365.7</ele>
        <time>2012-05-27T07:57:01Z</time>
      </trkpt>
      <trkpt lat="43.94566" lon="7.24063">
        <ele>1359.1</ele>
        <time>2012-05-27T07:57:13Z</time>
      </trkpt>
      <trkpt lat="43.94566" lon="7.24041">
        <ele>1353</ele>
        <time>2012-05-27T07:57:23Z</time>
      </trkpt>
      <trkpt lat="43.94564" lon="7.24019">
        <ele>1343.7</ele>
        <time>2012-05-27T07:57:29Z</time>
      </trkpt>
      <trkpt lat="43.94557" lon="7.23998">
        <ele>1333.5</ele>
        <time>2012-05-27T07:57:37Z</time>
      </trkpt>
      <trkpt lat="43.94554" lon="7.23986">
        <ele>1327.6</ele>
        <time>2012-05-27T07:57:42Z</time>
      </trkpt>
      <trkpt lat="43.94538" lon="7.23982">
        <ele>1324.6</ele>
        <time>2012-05-27T07:57:55Z</time>
      </trkpt>
      <trkpt lat="43.94511" lon="7.23994">
        <ele>1329.2</ele>
        <time>2012-05-27T07:58:07Z</time>
      </trkpt>
      <trkpt lat="43.94498" lon="7.24003">
        <ele>1333</ele>
        <time>2012-05-27T07:58:11Z</time>
      </trkpt>
      <trkpt lat="43.9447" lon="7.24012">
        <ele>1337</ele>
        <time>2012-05-27T07:58:16Z</time>
      </trkpt>
      <trkpt lat="43.94458" lon="7.24013">
        <ele>1337.8</ele>
        <time>2012-05-27T07:58:18Z</time>
      </trkpt>
      <trkpt lat="43.94441" lon="7.24014">
        <ele>1339.2</ele>
        <time>2012-05-27T07:58:23Z</time>
      </trkpt>
      <trkpt lat="43.94433" lon="7.24011">
        <ele>1339</ele>
        <time>2012-05-27T07:58:26Z</time>
      </trkpt>
      <trkpt lat="43.9442" lon="7.2401">
        <ele>1338.7</ele>
        <time>2012-05-27T07:58:30Z</time>
      </trkpt>
      <trkpt lat="43.94408" lon="7.2401">
        <ele>1339.3</ele>
        <time>2012-05-27T07:58:33Z</time>
      </trkpt>
      <trkpt lat="43.9438" lon="7.2401">
        <ele>1340.8</ele>
        <time>2012-05-27T07:58:39Z</time>
      </trkpt>
      <trkpt lat="43.94356" lon="7.24008">
        <ele>1342.6</ele>
        <time>2012-05-27T07:58:44Z</time>
      </trkpt>
      <trkpt lat="43.94346" lon="7.24006">
        <ele>1343.5</ele>
        <time>2012-05-27T07:58:46Z</time>
      </trkpt>
      <trkpt lat="43.94337" lon="7.24007">
        <ele>1344.8</ele>
        <time>2012-05-27T07:58:48Z</time>
      </trkpt>
      <trkpt lat="43.94332" lon="7.24005">
        <ele>1345.2</ele>
        <time>2012-05-27T07:58:49Z</time>
      </trkpt>
      <trkpt lat="43.94317" lon="7.24003">
        <ele>1346.4</ele>
        <time>2012-05-27T07:58:52Z</time>
      </trkpt>
      <trkpt lat="43.94302" lon="7.23997">
        <ele>1346.9</ele>
        <time>2012-05-27T07:58:55Z</time>
      </trkpt>
      <trkpt lat="43.94291" lon="7.23992">
        <ele>1346.8</ele>
        <time>2012-05-27T07:58:57Z</time>
      </trkpt>
      <trkpt lat="43.9428" lon="7.23991">
        <ele>1346.8</ele>
        <time>2012-05-27T07:58:59Z</time>
      </trkpt>
      <trkpt lat="43.94268" lon="7.2399">
        <ele>1347.1</ele>
        <time>2012-05-27T07:59:01Z</time>
      </trkpt>
      <trkpt lat="43.94261" lon="7.23988">
        <ele>1347.2</ele>
        <time>2012-05-27T07:59:02Z</time>
      </trkpt>
      <trkpt lat="43.9425" lon="7.23977">
        <ele>1345.4</ele>
        <time>2012-05-27T07:59:04Z</time>
      </trkpt>
      <trkpt lat="43.94242" lon="7.23962">
        <ele>1341</ele>
        <time>2012-05-27T07:59:06Z</time>
      </trkpt>
      <trkpt lat="43.94238" lon="7.23943">
        <ele>1334.9</ele>
        <time>2012-05-27T07:59:08Z</time>
      </trkpt>
      <trkpt lat="43.94239" lon="7.23925">
        <ele>1327.9</ele>
        <time>2012-05-27T07:59:10Z</time>
      </trkpt>
      <trkpt lat="43.94238" lon="7.23905">
        <ele>1320.2</ele>
        <time>2012-05-27T07:59:12Z</time>
      </trkpt>
      <trkpt lat="43.94239" lon="7.23884">
        <ele>1312.1</ele>
        <time>2012-05-27T07:59:14Z</time>
      </trkpt>
      <trkpt lat="43.94241" lon="7.23873">
        <ele>1308.3</ele>
        <time>2012-05-27T07:59:15Z</time>
      </trkpt>
      <trkpt lat="43.94247" lon="7.23852">
        <ele>1302.5</ele>
        <time>2012-05-27T07:59:17Z</time>
      </trkpt>
      <trkpt lat="43.94249" lon="7.2383">
        <ele>1297.2</ele>
        <time>2012-05-27T07:59:19Z</time>
      </trkpt>
      <trkpt lat="43.94253" lon="7.23807">
        <ele>1292.2</ele>
        <time>2012-05-27T07:59:21Z</time>
      </trkpt>
      <trkpt lat="43.94255" lon="7.23796">
        <ele>1289.9</ele>
        <time>2012-05-27T07:59:22Z</time>
      </trkpt>
      <trkpt lat="43.94261" lon="7.23775">
        <ele>1286.6</ele>
        <time>2012-05-27T07:59:24Z</time>
      </trkpt>
      <trkpt lat="43.94265" lon="7.23766">
        <ele>1285.8</ele>
        <time>2012-05-27T07:59:25Z</time>
      </trkpt>
      <trkpt lat="43.94272" lon="7.23751">
        <ele>1285.5</ele>
        <time>2012-05-27T07:59:27Z</time>
      </trkpt>
      <trkpt lat="43.94278" lon="7.23733">
        <ele>1285.7</ele>
        <time>2012-05-27T07:59:30Z</time>
      </trkpt>
      <trkpt lat="43.94277" lon="7.23718">
        <ele>1284</ele>
        <time>2012-05-27T07:59:33Z</time>
      </trkpt>
      <trkpt lat="43.94266" lon="7.2372">
        <ele>1277.7</ele>
        <time>2012-05-27T07:59:36Z</time>
      </trkpt>
      <trkpt lat="43.94259" lon="7.2373">
        <ele>1274.5</ele>
        <time>2012-05-27T07:59:38Z</time>
      </trkpt>
      <trkpt lat="43.94254" lon="7.23745">
        <ele>1273.8</ele>
        <time>2012-05-27T07:59:40Z</time>
      </trkpt>
      <trkpt lat="43.94247" lon="7.23761">
        <ele>1273.8</ele>
        <time>2012-05-27T07:59:42Z</time>
      </trkpt>
      <trkpt lat="43.94239" lon="7.23774">
        <ele>1273.3</ele>
        <time>2012-05-27T07:59:44Z</time>
      </trkpt>
      <trkpt lat="43.94224" lon="7.23807">
        <ele>1275.4</ele>
        <time>2012-05-27T07:59:48Z</time>
      </trkpt>
      <trkpt lat="43.94221" lon="7.23824">
        <ele>1278.6</ele>
        <time>2012-05-27T07:59:50Z</time>
      </trkpt>
      <trkpt lat="43.94214" lon="7.23838">
        <ele>1281.5</ele>
        <time>2012-05-27T07:59:52Z</time>
      </trkpt>
      <trkpt lat="43.94205" lon="7.23854">
        <ele>1284</ele>
        <time>2012-05-27T07:59:54Z</time>
      </trkpt>
      <trkpt lat="43.94193" lon="7.2386">
        <ele>1284.6</ele>
        <time>2012-05-27T07:59:56Z</time>
      </trkpt>
      <trkpt lat="43.9418" lon="7.23859">
        <ele>1281.7</ele>
        <time>2012-05-27T07:59:58Z</time>
      </trkpt>
      <trkpt lat="43.94168" lon="7.23863">
        <ele>1279.1</ele>
        <time>2012-05-27T08:00:00Z</time>
      </trkpt>
      <trkpt lat="43.94162" lon="7.23863">
        <ele>1277.6</ele>
        <time>2012-05-27T08:00:01Z</time>
      </trkpt>
      <trkpt lat="43.94149" lon="7.2386">
        <ele>1273.3</ele>
        <time>2012-05-27T08:00:03Z</time>
      </trkpt>
      <trkpt lat="43.94142" lon="7.23858">
        <ele>1270.6</ele>
        <time>2012-05-27T08:00:04Z</time>
      </trkpt>
      <trkpt lat="43.94128" lon="7.23854">
        <ele>1264.5</ele>
        <time>2012-05-27T08:00:06Z</time>
      </trkpt>
      <trkpt lat="43.94116" lon="7.2385">
        <ele>1256.9</ele>
        <time>2012-05-27T08:00:08Z</time>
      </trkpt>
      <trkpt lat="43.94105" lon="7.23844">
        <ele>1247.7</ele>
        <time>2012-05-27T08:00:10Z</time>
      </trkpt>
      <trkpt lat="43.94091" lon="7.23839">
        <ele>1233.7</ele>
        <time>2012-05-27T08:00:14Z</time>
      </trkpt>
      <trkpt lat="43.94084" lon="7.23845">
        <ele>1229.8</ele>
        <time>2012-05-27T08:00:16Z</time>
      </trkpt>
      <trkpt lat="43.94079" lon="7.23864">
        <ele>1231.2</ele>
        <time>2012-05-27T08:00:20Z</time>
      </trkpt>
      <trkpt lat="43.94079" lon="7.23886">
        <ele>1240.1</ele>
        <time>2012-05-27T08:00:24Z</time>
      </trkpt>
      <trkpt lat="43.94078" lon="7.23898">
        <ele>1244.4</ele>
        <time>2012-05-27T08:00:26Z</time>
      </trkpt>
      <trkpt lat="43.94068" lon="7.23916">
        <ele>1249.2</ele>
        <time>2012-05-27T08:00:30Z</time>
      </trkpt>
      <trkpt lat="43.9406" lon="7.23922">
        <ele>1248.2</ele>
        <time>2012-05-27T08:00:32Z</time>
      </trkpt>
      <trkpt lat="43.9404" lon="7.23945">
        <ele>1247.1</ele>
        <time>2012-05-27T08:00:37Z</time>
      </trkpt>
      <trkpt lat="43.94027" lon="7.23948">
        <ele>1245.9</ele>
        <time>2012-05-27T08:00:40Z</time>
      </trkpt>
      <trkpt lat="43.94007" lon="7.23944">
        <ele>1237.7</ele>
        <time>2012-05-27T08:00:44Z</time>
      </trkpt>
      <trkpt lat="43.93991" lon="7.23943">
        <ele>1230.7</ele>
        <time>2012-05-27T08:00:47Z</time>
      </trkpt>
      <trkpt lat="43.93982" lon="7.23946">
        <ele>1228.1</ele>
        <time>2012-05-27T08:00:49Z</time>
      </trkpt>
      <trkpt lat="43.93973" lon="7.23953">
        <ele>1227.8</ele>
        <time>2012-05-27T08:00:51Z</time>
      </trkpt>
      <trkpt lat="43.93959" lon="7.23961">
        <ele>1228</ele>
        <time>2012-05-27T08:00:54Z</time>
      </trkpt>
      <trkpt lat="43.9395" lon="7.23964">
        <ele>1228.1</ele>
        <time>2012-05-27T08:00:56Z</time>
      </trkpt>
      <trkpt lat="43.93941" lon="7.23968">
        <ele>1228.3</ele>
        <time>2012-05-27T08:00:58Z</time>
      </trkpt>
      <trkpt lat="43.93921" lon="7.23976">
        <ele>1227.9</ele>
        <time>2012-05-27T08:01:02Z</time>
      </trkpt>
      <trkpt lat="43.93908" lon="7.23985">
        <ele>1228.8</ele>
        <time>2012-05-27T08:01:05Z</time>
      </trkpt>
      <trkpt lat="43.93894" lon="7.23991">
        <ele>1228.9</ele>
        <time>2012-05-27T08:01:09Z</time>
      </trkpt>
      <trkpt lat="43.93879" lon="7.23995">
        <ele>1226.4</ele>
        <time>2012-05-27T08:01:13Z</time>
      </trkpt>
      <trkpt lat="43.93867" lon="7.23988">
        <ele>1218.1</ele>
        <time>2012-05-27T08:01:17Z</time>
      </trkpt>
      <trkpt lat="43.93859" lon="7.23981">
        <ele>1211.2</ele>
        <time>2012-05-27T08:01:19Z</time>
      </trkpt>
      <trkpt lat="43.93851" lon="7.23976">
        <ele>1204.3</ele>
        <time>2012-05-27T08:01:21Z</time>
      </trkpt>
      <trkpt lat="43.93837" lon="7.23986">
        <ele>1199.9</ele>
        <time>2012-05-27T08:01:25Z</time>
      </trkpt>
      <trkpt lat="43.93829" lon="7.23984">
        <ele>1197.1</ele>
        <time>2012-05-27T08:01:27Z</time>
      </trkpt>
      <trkpt lat="43.93821" lon="7.23978">
        <ele>1192</ele>
        <time>2012-05-27T08:01:29Z</time>
      </trkpt>
      <trkpt lat="43.93817" lon="7.23976">
        <ele>1189</ele>
        <time>2012-05-27T08:01:30Z</time>
      </trkpt>
      <trkpt lat="43.93805" lon="7.23979">
        <ele>1182.8</ele>
        <time>2012-05-27T08:01:33Z</time>
      </trkpt>
      <trkpt lat="43.93796" lon="7.23992">
        <ele>1182.1</ele>
        <time>2012-05-27T08:01:36Z</time>
      </trkpt>
      <trkpt lat="43.93791" lon="7.24005">
        <ele>1183.3</ele>
        <time>2012-05-27T08:01:39Z</time>
      </trkpt>
      <trkpt lat="43.93793" lon="7.24016">
        <ele>1186.8</ele>
        <time>2012-05-27T08:01:41Z</time>
      </trkpt>
      <trkpt lat="43.93785" lon="7.24054">
        <ele>1189.8</ele>
        <time>2012-05-27T08:01:48Z</time>
      </trkpt>
      <trkpt lat="43.93795" lon="7.24067">
        <ele>1195.3</ele>
        <time>2012-05-27T08:01:51Z</time>
      </trkpt>
      <trkpt lat="43.93797" lon="7.2409">
        <ele>1198.4</ele>
        <time>2012-05-27T08:01:55Z</time>
      </trkpt>
      <trkpt lat="43.93798" lon="7.24109">
        <ele>1198.5</ele>
        <time>2012-05-27T08:01:58Z</time>
      </trkpt>
      <trkpt lat="43.93802" lon="7.24129">
        <ele>1200</ele>
        <time>2012-05-27T08:02:02Z</time>
      </trkpt>
      <trkpt lat="43.93799" lon="7.24146">
        <ele>1201.1</ele>
        <time>2012-05-27T08:02:06Z</time>
      </trkpt>
      <trkpt lat="43.93789" lon="7.24163">
        <ele>1195.2</ele>
        <time>2012-05-27T08:02:11Z</time>
      </trkpt>
      <trkpt lat="43.93785" lon="7.24173">
        <ele>1192.7</ele>
        <time>2012-05-27T08:02:13Z</time>
      </trkpt>
      <trkpt lat="43.93781" lon="7.24195">
        <ele>1192.1</ele>
        <time>2012-05-27T08:02:17Z</time>
      </trkpt>
      <trkpt lat="43.93774" lon="7.24208">
        <ele>1189.5</ele>
        <time>2012-05-27T08:02:20Z</time>
      </trkpt>
      <trkpt lat="43.93765" lon="7.24222">
        <ele>1188.6</ele>
        <time>2012-05-27T08:02:23Z</time>
      </trkpt>
      <trkpt lat="43.9375" lon="7.24234">
        <ele>1185.8</ele>
        <time>2012-05-27T08:02:27Z</time>
      </trkpt>
      <trkpt lat="43.93733" lon="7.24234">
        <ele>1176</ele>
        <time>2012-05-27T08:02:31Z</time>
      </trkpt>
      <trkpt lat="43.93725" lon="7.24238">
        <ele>1171.4</ele>
        <time>2012-05-27T08:02:33Z</time>
      </trkpt>
      <trkpt lat="43.93716" lon="7.24246">
        <ele>1168.7</ele>
        <time>2012-05-27T08:02:35Z</time>
      </trkpt>
      <trkpt lat="43.93711" lon="7.24257">
        <ele>1168.5</ele>
        <time>2012-05-27T08:02:37Z</time>
      </trkpt>
      <trkpt lat="43.93708" lon="7.2427">
        <ele>1172.2</ele>
        <time>2012-05-27T08:02:39Z</time>
      </trkpt>
      <trkpt lat="43.93701" lon="7.24279">
        <ele>1175.5</ele>
        <time>2012-05-27T08:02:41Z</time>
      </trkpt>
      <trkpt lat="43.93687" lon="7.24285">
        <ele>1176.4</ele>
        <time>2012-05-27T08:02:44Z</time>
      </trkpt>
      <trkpt lat="43.93676" lon="7.24295">
        <ele>1177.2</ele>
        <time>2012-05-27T08:02:47Z</time>
      </trkpt>
      <trkpt lat="43.93668" lon="7.24313">
        <ele>1185.5</ele>
        <time>2012-05-27T08:02:51Z</time>
      </trkpt>
      <trkpt lat="43.93656" lon="7.24322">
        <ele>1189.3</ele>
        <time>2012-05-27T08:02:55Z</time>
      </trkpt>
      <trkpt lat="43.93648" lon="7.24325">
        <ele>1188.8</ele>
        <time>2012-05-27T08:02:57Z</time>
      </trkpt>
      <trkpt lat="43.93623" lon="7.24335">
        <ele>1184.8</ele>
        <time>2012-05-27T08:03:05Z</time>
      </trkpt>
      <trkpt lat="43.93609" lon="7.24336">
        <ele>1185.4</ele>
        <time>2012-05-27T08:03:09Z</time>
      </trkpt>
      <trkpt lat="43.93593" lon="7.24328">
        <ele>1182.9</ele>
        <time>2012-05-27T08:03:13Z</time>
      </trkpt>
      <trkpt lat="43.93578" lon="7.24337">
        <ele>1184.8</ele>
        <time>2012-05-27T08:03:17Z</time>
      </trkpt>
      <trkpt lat="43.93572" lon="7.24346">
        <ele>1188.1</ele>
        <time>2012-05-27T08:03:19Z</time>
      </trkpt>
      <trkpt lat="43.9356" lon="7.2435">
        <ele>1191.3</ele>
        <time>2012-05-27T08:03:23Z</time>
      </trkpt>
      <trkpt lat="43.93553" lon="7.24349">
        <ele>1191.4</ele>
        <time>2012-05-27T08:03:25Z</time>
      </trkpt>
      <trkpt lat="43.93541" lon="7.24345">
        <ele>1190.4</ele>
        <time>2012-05-27T08:03:28Z</time>
      </trkpt>
      <trkpt lat="43.93531" lon="7.24345">
        <ele>1190.2</ele>
        <time>2012-05-27T08:03:30Z</time>
      </trkpt>
      <trkpt lat="43.93518" lon="7.24345">
        <ele>1190.7</ele>
        <time>2012-05-27T08:03:33Z</time>
      </trkpt>
      <trkpt lat="43.93508" lon="7.24343">
        <ele>1190.7</ele>
        <time>2012-05-27T08:03:35Z</time>
      </trkpt>
      <trkpt lat="43.93493" lon="7.24335">
        <ele>1190</ele>
        <time>2012-05-27T08:03:38Z</time>
      </trkpt>
      <trkpt lat="43.93469" lon="7.24319">
        <ele>1188.5</ele>
        <time>2012-05-27T08:03:43Z</time>
      </trkpt>
      <trkpt lat="43.9345" lon="7.24307">
        <ele>1187.9</ele>
        <time>2012-05-27T08:03:47Z</time>
      </trkpt>
      <trkpt lat="43.93442" lon="7.24302">
        <ele>1187.3</ele>
        <time>2012-05-27T08:03:49Z</time>
      </trkpt>
      <trkpt lat="43.93433" lon="7.24301">
        <ele>1187.2</ele>
        <time>2012-05-27T08:03:51Z</time>
      </trkpt>
      <trkpt lat="43.93424" lon="7.24306">
        <ele>1187.7</ele>
        <time>2012-05-27T08:03:53Z</time>
      </trkpt>
      <trkpt lat="43.93416" lon="7.24315">
        <ele>1188.7</ele>
        <time>2012-05-27T08:03:55Z</time>
      </trkpt>
      <trkpt lat="43.93402" lon="7.24325">
        <ele>1190.2</ele>
        <time>2012-05-27T08:03:58Z</time>
      </trkpt>
      <trkpt lat="43.93392" lon="7.24332">
        <ele>1191.1</ele>
        <time>2012-05-27T08:04:00Z</time>
      </trkpt>
      <trkpt lat="43.93378" lon="7.24343">
        <ele>1192.3</ele>
        <time>2012-05-27T08:04:03Z</time>
      </trkpt>
      <trkpt lat="43.93352" lon="7.24366">
        <ele>1191.1</ele>
        <time>2012-05-27T08:04:12Z</time>
      </trkpt>
      <trkpt lat="43.93337" lon="7.24369">
        <ele>1189.3</ele>
        <time>2012-05-27T08:04:17Z</time>
      </trkpt>
      <trkpt lat="43.9333" lon="7.24369">
        <ele>1188</ele>
        <time>2012-05-27T08:04:20Z</time>
      </trkpt>
      <trkpt lat="43.93317" lon="7.24379">
        <ele>1186.8</ele>
        <time>2012-05-27T08:04:26Z</time>
      </trkpt>
      <trkpt lat="43.93311" lon="7.24384">
        <ele>1185.1</ele>
        <time>2012-05-27T08:04:30Z</time>
      </trkpt>
      <trkpt lat="43.93297" lon="7.24388">
        <ele>1182.9</ele>
        <time>2012-05-27T08:04:36Z</time>
      </trkpt>
      <trkpt lat="43.9329" lon="7.24391">
        <ele>1181.9</ele>
        <time>2012-05-27T08:04:39Z</time>
      </trkpt>
      <trkpt lat="43.9328" lon="7.24393">
        <ele>1182.1</ele>
        <time>2012-05-27T08:04:44Z</time>
      </trkpt>
      <trkpt lat="43.93269" lon="7.24404">
        <ele>1182.5</ele>
        <time>2012-05-27T08:04:50Z</time>
      </trkpt>
      <trkpt lat="43.93255" lon="7.24415">
        <ele>1183.2</ele>
        <time>2012-05-27T08:04:56Z</time>
      </trkpt>
      <trkpt lat="43.93248" lon="7.24421">
        <ele>1183.8</ele>
        <time>2012-05-27T08:04:59Z</time>
      </trkpt>
      <trkpt lat="43.93238" lon="7.24432">
        <ele>1184.7</ele>
        <time>2012-05-27T08:05:04Z</time>
      </trkpt>
      <trkpt lat="43.93231" lon="7.24437">
        <ele>1185.5</ele>
        <time>2012-05-27T08:05:06Z</time>
      </trkpt>
      <trkpt lat="43.93218" lon="7.24447">
        <ele>1187.3</ele>
        <time>2012-05-27T08:05:09Z</time>
      </trkpt>
      <trkpt lat="43.93212" lon="7.24456">
        <ele>1188.5</ele>
        <time>2012-05-27T08:05:11Z</time>
      </trkpt>
      <trkpt lat="43.93205" lon="7.24468">
        <ele>1187.3</ele>
        <time>2012-05-27T08:05:13Z</time>
      </trkpt>
      <trkpt lat="43.93197" lon="7.24482">
        <ele>1182.8</ele>
        <time>2012-05-27T08:05:15Z</time>
      </trkpt>
      <trkpt lat="43.93191" lon="7.24489">
        <ele>1178.4</ele>
        <time>2012-05-27T08:05:17Z</time>
      </trkpt>
      <trkpt lat="43.93181" lon="7.24505">
        <ele>1170.1</ele>
        <time>2012-05-27T08:05:23Z</time>
      </trkpt>
      <trkpt lat="43.9317" lon="7.2452">
        <ele>1163.5</ele>
        <time>2012-05-27T08:05:27Z</time>
      </trkpt>
      <trkpt lat="43.93156" lon="7.24533">
        <ele>1155.1</ele>
        <time>2012-05-27T08:05:34Z</time>
      </trkpt>
      <trkpt lat="43.93142" lon="7.24539">
        <ele>1150.4</ele>
        <time>2012-05-27T08:05:41Z</time>
      </trkpt>
      <trkpt lat="43.93135" lon="7.24534">
        <ele>1150.4</ele>
        <time>2012-05-27T08:05:44Z</time>
      </trkpt>
      <trkpt lat="43.93127" lon="7.24526">
        <ele>1152.1</ele>
        <time>2012-05-27T08:06:02Z</time>
      </trkpt>
      <trkpt lat="43.93115" lon="7.24522">
        <ele>1151.8</ele>
        <time>2012-05-27T08:06:10Z</time>
      </trkpt>
      <trkpt lat="43.931" lon="7.24524">
        <ele>1147.1</ele>
        <time>2012-05-27T08:06:16Z</time>
      </trkpt>
      <trkpt lat="43.93088" lon="7.24527">
        <ele>1142.8</ele>
        <time>2012-05-27T08:06:20Z</time>
      </trkpt>
      <trkpt lat="43.93079" lon="7.24528">
        <ele>1139.2</ele>
        <time>2012-05-27T08:06:25Z</time>
      </trkpt>
      <trkpt lat="43.93066" lon="7.24518">
        <ele>1138.2</ele>
        <time>2012-05-27T08:06:35Z</time>
      </trkpt>
      <trkpt lat="43.9306" lon="7.24509">
        <ele>1140.3</ele>
        <time>2012-05-27T08:06:38Z</time>
      </trkpt>
      <trkpt lat="43.93049" lon="7.24499">
        <ele>1141.8</ele>
        <time>2012-05-27T08:06:42Z</time>
      </trkpt>
      <trkpt lat="43.93036" lon="7.24493">
        <ele>1141.7</ele>
        <time>2012-05-27T08:06:46Z</time>
      </trkpt>
      <trkpt lat="43.93023" lon="7.24499">
        <ele>1138.6</ele>
        <time>2012-05-27T08:06:50Z</time>
      </trkpt>
      <trkpt lat="43.93009" lon="7.24509">
        <ele>1131.8</ele>
        <time>2012-05-27T08:06:54Z</time>
      </trkpt>
      <trkpt lat="43.93001" lon="7.24511">
        <ele>1128.7</ele>
        <time>2012-05-27T08:06:57Z</time>
      </trkpt>
      <trkpt lat="43.92988" lon="7.24504">
        <ele>1127.7</ele>
        <time>2012-05-27T08:07:03Z</time>
      </trkpt>
      <trkpt lat="43.92972" lon="7.24499">
        <ele>1126.2</ele>
        <time>2012-05-27T08:07:10Z</time>
      </trkpt>
      <trkpt lat="43.92959" lon="7.24496">
        <ele>1124.8</ele>
        <time>2012-05-27T08:07:15Z</time>
      </trkpt>
      <trkpt lat="43.92946" lon="7.2449">
        <ele>1125.8</ele>
        <time>2012-05-27T08:07:19Z</time>
      </trkpt>
      <trkpt lat="43.92931" lon="7.245">
        <ele>1122</ele>
        <time>2012-05-27T08:07:24Z</time>
      </trkpt>
      <trkpt lat="43.92904" lon="7.24495">
        <ele>1120.8</ele>
        <time>2012-05-27T08:07:33Z</time>
      </trkpt>
      <trkpt lat="43.92897" lon="7.24503">
        <ele>1119</ele>
        <time>2012-05-27T08:07:36Z</time>
      </trkpt>
      <trkpt lat="43.92884" lon="7.24515">
        <ele>1113.8</ele>
        <time>2012-05-27T08:07:40Z</time>
      </trkpt>
      <trkpt lat="43.9287" lon="7.24518">
        <ele>1111.2</ele>
        <time>2012-05-27T08:07:44Z</time>
      </trkpt>
      <trkpt lat="43.92857" lon="7.24532">
        <ele>1104</ele>
        <time>2012-05-27T08:07:49Z</time>
      </trkpt>
      <trkpt lat="43.92845" lon="7.24519">
        <ele>1103.4</ele>
        <time>2012-05-27T08:07:56Z</time>
      </trkpt>
      <trkpt lat="43.92834" lon="7.24513">
        <ele>1103.5</ele>
        <time>2012-05-27T08:08:00Z</time>
      </trkpt>
      <trkpt lat="43.9282" lon="7.24517">
        <ele>1100.7</ele>
        <time>2012-05-27T08:08:03Z</time>
      </trkpt>
      <trkpt lat="43.9281" lon="7.24521">
        <ele>1097.8</ele>
        <time>2012-05-27T08:08:05Z</time>
      </trkpt>
      <trkpt lat="43.92796" lon="7.24526">
        <ele>1092.8</ele>
        <time>2012-05-27T08:08:09Z</time>
      </trkpt>
      <trkpt lat="43.92789" lon="7.24531">
        <ele>1090.5</ele>
        <time>2012-05-27T08:08:11Z</time>
      </trkpt>
      <trkpt lat="43.92774" lon="7.24532">
        <ele>1086.4</ele>
        <time>2012-05-27T08:08:15Z</time>
      </trkpt>
      <trkpt lat="43.92759" lon="7.24541">
        <ele>1080.2</ele>
        <time>2012-05-27T08:08:22Z</time>
      </trkpt>
      <trkpt lat="43.92749" lon="7.24524">
        <ele>1080.8</ele>
        <time>2012-05-27T08:08:30Z</time>
      </trkpt>
      <trkpt lat="43.9274" lon="7.24508">
        <ele>1084.5</ele>
        <time>2012-05-27T08:08:36Z</time>
      </trkpt>
      <trkpt lat="43.92733" lon="7.24493">
        <ele>1087.9</ele>
        <time>2012-05-27T08:08:40Z</time>
      </trkpt>
      <trkpt lat="43.92727" lon="7.24474">
        <ele>1094.1</ele>
        <time>2012-05-27T08:08:47Z</time>
      </trkpt>
      <trkpt lat="43.9272" lon="7.24468">
        <ele>1096.6</ele>
        <time>2012-05-27T08:08:54Z</time>
      </trkpt>
      <trkpt lat="43.92705" lon="7.2447">
        <ele>1093.9</ele>
        <time>2012-05-27T08:09:01Z</time>
      </trkpt>
      <trkpt lat="43.92694" lon="7.2447">
        <ele>1090.4</ele>
        <time>2012-05-27T08:09:07Z</time>
      </trkpt>
      <trkpt lat="43.9268" lon="7.24462">
        <ele>1088</ele>
        <time>2012-05-27T08:09:19Z</time>
      </trkpt>
      <trkpt lat="43.92669" lon="7.24447">
        <ele>1088.6</ele>
        <time>2012-05-27T08:09:25Z</time>
      </trkpt>
      <trkpt lat="43.92657" lon="7.24452">
        <ele>1084.7</ele>
        <time>2012-05-27T08:09:29Z</time>
      </trkpt>
      <trkpt lat="43.92648" lon="7.24454">
        <ele>1081.8</ele>
        <time>2012-05-27T08:09:31Z</time>
      </trkpt>
      <trkpt lat="43.92636" lon="7.24459">
        <ele>1076.6</ele>
        <time>2012-05-27T08:09:34Z</time>
      </trkpt>
      <trkpt lat="43.92628" lon="7.24458">
        <ele>1073.2</ele>
        <time>2012-05-27T08:09:37Z</time>
      </trkpt>
      <trkpt lat="43.92614" lon="7.24467">
        <ele>1065.4</ele>
        <time>2012-05-27T08:09:45Z</time>
      </trkpt>
      <trkpt lat="43.92599" lon="7.2446">
        <ele>1062.2</ele>
        <time>2012-05-27T08:09:54Z</time>
      </trkpt>
      <trkpt lat="43.92591" lon="7.24444">
        <ele>1064.9</ele>
        <time>2012-05-27T08:10:01Z</time>
      </trkpt>
      <trkpt lat="43.92589" lon="7.24433">
        <ele>1067.7</ele>
        <time>2012-05-27T08:10:04Z</time>
      </trkpt>
      <trkpt lat="43.92588" lon="7.24421">
        <ele>1072.6</ele>
        <time>2012-05-27T08:10:20Z</time>
      </trkpt>
      <trkpt lat="43.92579" lon="7.24405">
        <ele>1076.4</ele>
        <time>2012-05-27T08:10:28Z</time>
      </trkpt>
      <trkpt lat="43.9255" lon="7.2441">
        <ele>1070.7</ele>
        <time>2012-05-27T08:10:40Z</time>
      </trkpt>
      <trkpt lat="43.92533" lon="7.24416">
        <ele>1064.2</ele>
        <time>2012-05-27T08:10:50Z</time>
      </trkpt>
      <trkpt lat="43.92546" lon="7.24433">
        <ele>1059.3</ele>
        <time>2012-05-27T08:11:12Z</time>
      </trkpt>
      <trkpt lat="43.92537" lon="7.24438">
        <ele>1054.7</ele>
        <time>2012-05-27T08:11:28Z</time>
      </trkpt>
      <trkpt lat="43.92523" lon="7.24444">
        <ele>1048.6</ele>
        <time>2012-05-27T08:11:50Z</time>
      </trkpt>
      <trkpt lat="43.92502" lon="7.24457">
        <ele>1038.8</ele>
        <time>2012-05-27T08:12:04Z</time>
      </trkpt>
      <trkpt lat="43.92493" lon="7.24462">
        <ele>1034.9</ele>
        <time>2012-05-27T08:12:09Z</time>
      </trkpt>
      <trkpt lat="43.92486" lon="7.2447">
        <ele>1031</ele>
        <time>2012-05-27T08:12:16Z</time>
      </trkpt>
      <trkpt lat="43.92485" lon="7.24483">
        <ele>1026.7</ele>
        <time>2012-05-27T08:12:33Z</time>
      </trkpt>
      <trkpt lat="43.92472" lon="7.24493">
        <ele>1021</ele>
        <time>2012-05-27T08:12:41Z</time>
      </trkpt>
      <trkpt lat="43.92458" lon="7.24502">
        <ele>1016.7</ele>
        <time>2012-05-27T08:12:48Z</time>
      </trkpt>
      <trkpt lat="43.92458" lon="7.24514">
        <ele>1012.6</ele>
        <time>2012-05-27T08:13:10Z</time>
      </trkpt>
      <trkpt lat="43.92447" lon="7.2453">
        <ele>1002.8</ele>
        <time>2012-05-27T08:13:30Z</time>
      </trkpt>
      <trkpt lat="43.92434" lon="7.24558">
        <ele>987.1</ele>
        <time>2012-05-27T08:13:43Z</time>
      </trkpt>
      <trkpt lat="43.92422" lon="7.24572">
        <ele>976.4</ele>
        <time>2012-05-27T08:13:51Z</time>
      </trkpt>
      <trkpt lat="43.92408" lon="7.24569">
        <ele>968.9</ele>
        <time>2012-05-27T08:13:58Z</time>
      </trkpt>
      <trkpt lat="43.92396" lon="7.24561">
        <ele>965.5</ele>
        <time>2012-05-27T08:14:04Z</time>
      </trkpt>
      <trkpt lat="43.92379" lon="7.2456">
        <ele>956.1</ele>
        <time>2012-05-27T08:14:19Z</time>
      </trkpt>
      <trkpt lat="43.92369" lon="7.24539">
        <ele>954.4</ele>
        <time>2012-05-27T08:14:29Z</time>
      </trkpt>
      <trkpt lat="43.92365" lon="7.24532">
        <ele>952.8</ele>
        <time>2012-05-27T08:14:32Z</time>
      </trkpt>
      <trkpt lat="43.92343" lon="7.24498">
        <ele>944.4</ele>
        <time>2012-05-27T08:15:06Z</time>
      </trkpt>
      <trkpt lat="43.92331" lon="7.24487">
        <ele>938.1</ele>
        <time>2012-05-27T08:15:27Z</time>
      </trkpt>
      <trkpt lat="43.9232" lon="7.24469">
        <ele>934.9</ele>
        <time>2012-05-27T08:15:45Z</time>
      </trkpt>
      <trkpt lat="43.92313" lon="7.24448">
        <ele>935.5</ele>
        <time>2012-05-27T08:16:03Z</time>
      </trkpt>
      <trkpt lat="43.92312" lon="7.24427">
        <ele>940.7</ele>
        <time>2012-05-27T08:16:27Z</time>
      </trkpt>
      <trkpt lat="43.92315" lon="7.24416">
        <ele>946.6</ele>
        <time>2012-05-27T08:16:30Z</time>
      </trkpt>
      <trkpt lat="43.92311" lon="7.24394">
        <ele>954.2</ele>
        <time>2012-05-27T08:16:41Z</time>
      </trkpt>
      <trkpt lat="43.92303" lon="7.24386">
        <ele>951.6</ele>
        <time>2012-05-27T08:16:47Z</time>
      </trkpt>
      <trkpt lat="43.92288" lon="7.24389">
        <ele>940.6</ele>
        <time>2012-05-27T08:16:57Z</time>
      </trkpt>
      <trkpt lat="43.92273" lon="7.2438">
        <ele>938.4</ele>
        <time>2012-05-27T08:17:10Z</time>
      </trkpt>
      <trkpt lat="43.92265" lon="7.24383">
        <ele>935</ele>
        <time>2012-05-27T08:17:20Z</time>
      </trkpt>
      <trkpt lat="43.92256" lon="7.24371">
        <ele>935.4</ele>
        <time>2012-05-27T08:17:26Z</time>
      </trkpt>
      <trkpt lat="43.92242" lon="7.24362">
        <ele>936.5</ele>
        <time>2012-05-27T08:17:32Z</time>
      </trkpt>
      <trkpt lat="43.92228" lon="7.24369">
        <ele>931.2</ele>
        <time>2012-05-27T08:17:36Z</time>
      </trkpt>
      <trkpt lat="43.92216" lon="7.24366">
        <ele>927.1</ele>
        <time>2012-05-27T08:17:39Z</time>
      </trkpt>
      <trkpt lat="43.9221" lon="7.2435">
        <ele>928.3</ele>
        <time>2012-05-27T08:17:43Z</time>
      </trkpt>
      <trkpt lat="43.92206" lon="7.24346">
        <ele>928.5</ele>
        <time>2012-05-27T08:17:44Z</time>
      </trkpt>
      <trkpt lat="43.92197" lon="7.24332">
        <ele>928.4</ele>
        <time>2012-05-27T08:17:47Z</time>
      </trkpt>
      <trkpt lat="43.92188" lon="7.24326">
        <ele>926.5</ele>
        <time>2012-05-27T08:17:50Z</time>
      </trkpt>
      <trkpt lat="43.92176" lon="7.24327">
        <ele>920.1</ele>
        <time>2012-05-27T08:17:56Z</time>
      </trkpt>
      <trkpt lat="43.92169" lon="7.2433">
        <ele>915.8</ele>
        <time>2012-05-27T08:17:59Z</time>
      </trkpt>
      <trkpt lat="43.9216" lon="7.24341">
        <ele>908.6</ele>
        <time>2012-05-27T08:18:04Z</time>
      </trkpt>
      <trkpt lat="43.92146" lon="7.24351">
        <ele>899.5</ele>
        <time>2012-05-27T08:18:09Z</time>
      </trkpt>
      <trkpt lat="43.92136" lon="7.24366">
        <ele>891</ele>
        <time>2012-05-27T08:18:16Z</time>
      </trkpt>
      <trkpt lat="43.92127" lon="7.24365">
        <ele>886.9</ele>
        <time>2012-05-27T08:18:20Z</time>
      </trkpt>
      <trkpt lat="43.92111" lon="7.24367">
        <ele>878.6</ele>
        <time>2012-05-27T08:18:32Z</time>
      </trkpt>
      <trkpt lat="43.92093" lon="7.24367">
        <ele>871.1</ele>
        <time>2012-05-27T08:18:41Z</time>
      </trkpt>
      <trkpt lat="43.92078" lon="7.24359">
        <ele>865.1</ele>
        <time>2012-05-27T08:18:51Z</time>
      </trkpt>
      <trkpt lat="43.92068" lon="7.24359">
        <ele>859.9</ele>
        <time>2012-05-27T08:19:00Z</time>
      </trkpt>
      <trkpt lat="43.92058" lon="7.24342">
        <ele>859.3</ele>
        <time>2012-05-27T08:19:07Z</time>
      </trkpt>
      <trkpt lat="43.92051" lon="7.2432">
        <ele>862.3</ele>
        <time>2012-05-27T08:19:16Z</time>
      </trkpt>
      <trkpt lat="43.9204" lon="7.24301">
        <ele>862.8</ele>
        <time>2012-05-27T08:19:39Z</time>
      </trkpt>
      <trkpt lat="43.92036" lon="7.24291">
        <ele>864</ele>
        <time>2012-05-27T08:19:44Z</time>
      </trkpt>
      <trkpt lat="43.92022" lon="7.24277">
        <ele>859.8</ele>
        <time>2012-05-27T08:19:55Z</time>
      </trkpt>
      <trkpt lat="43.92006" lon="7.2427">
        <ele>854.8</ele>
        <time>2012-05-27T08:20:06Z</time>
      </trkpt>
      <trkpt lat="43.91991" lon="7.2426">
        <ele>849.8</ele>
        <time>2012-05-27T08:20:17Z</time>
      </trkpt>
      <trkpt lat="43.91978" lon="7.24246">
        <ele>845.4</ele>
        <time>2012-05-27T08:20:29Z</time>
      </trkpt>
      <trkpt lat="43.91982" lon="7.24234">
        <ele>845</ele>
        <time>2012-05-27T08:20:53Z</time>
      </trkpt>
      <trkpt lat="43.9199" lon="7.24239">
        <ele>847.4</ele>
        <time>2012-05-27T08:21:00Z</time>
      </trkpt>
      <trkpt lat="43.92004" lon="7.2423">
        <ele>851.4</ele>
        <time>2012-05-27T08:21:12Z</time>
      </trkpt>
      <trkpt lat="43.92016" lon="7.24215">
        <ele>853.6</ele>
        <time>2012-05-27T08:21:23Z</time>
      </trkpt>
      <trkpt lat="43.92044" lon="7.24212">
        <ele>860.8</ele>
        <time>2012-05-27T08:21:34Z</time>
      </trkpt>
      <trkpt lat="43.92057" lon="7.24208">
        <ele>865.1</ele>
        <time>2012-05-27T08:21:38Z</time>
      </trkpt>
      <trkpt lat="43.92064" lon="7.24203">
        <ele>866.7</ele>
        <time>2012-05-27T08:21:40Z</time>
      </trkpt>
      <trkpt lat="43.9207" lon="7.24183">
        <ele>866.2</ele>
        <time>2012-05-27T08:21:45Z</time>
      </trkpt>
      <trkpt lat="43.92073" lon="7.24163">
        <ele>863.1</ele>
        <time>2012-05-27T08:21:49Z</time>
      </trkpt>
      <trkpt lat="43.92074" lon="7.24151">
        <ele>860.9</ele>
        <time>2012-05-27T08:21:52Z</time>
      </trkpt>
      <trkpt lat="43.92074" lon="7.2413">
        <ele>856.3</ele>
        <time>2012-05-27T08:21:58Z</time>
      </trkpt>
      <trkpt lat="43.92076" lon="7.24115">
        <ele>855</ele>
        <time>2012-05-27T08:22:03Z</time>
      </trkpt>
      <trkpt lat="43.92086" lon="7.24102">
        <ele>857.8</ele>
        <time>2012-05-27T08:22:08Z</time>
      </trkpt>
      <trkpt lat="43.92099" lon="7.24092">
        <ele>861.8</ele>
        <time>2012-05-27T08:22:13Z</time>
      </trkpt>
      <trkpt lat="43.92112" lon="7.24085">
        <ele>865.4</ele>
        <time>2012-05-27T08:22:17Z</time>
      </trkpt>
      <trkpt lat="43.92118" lon="7.24078">
        <ele>867</ele>
        <time>2012-05-27T08:22:19Z</time>
      </trkpt>
      <trkpt lat="43.92132" lon="7.24046">
        <ele>869.1</ele>
        <time>2012-05-27T08:22:27Z</time>
      </trkpt>
      <trkpt lat="43.92137" lon="7.24029">
        <ele>871</ele>
        <time>2012-05-27T08:22:31Z</time>
      </trkpt>
      <trkpt lat="43.92137" lon="7.24019">
        <ele>872.5</ele>
        <time>2012-05-27T08:22:33Z</time>
      </trkpt>
      <trkpt lat="43.92135" lon="7.23999">
        <ele>874.9</ele>
        <time>2012-05-27T08:22:36Z</time>
      </trkpt>
      <trkpt lat="43.92137" lon="7.23983">
        <ele>877.2</ele>
        <time>2012-05-27T08:22:38Z</time>
      </trkpt>
      <trkpt lat="43.92139" lon="7.23966">
        <ele>879.5</ele>
        <time>2012-05-27T08:22:40Z</time>
      </trkpt>
      <trkpt lat="43.92137" lon="7.23928">
        <ele>885.7</ele>
        <time>2012-05-27T08:22:46Z</time>
      </trkpt>
      <trkpt lat="43.92133" lon="7.23919">
        <ele>887.9</ele>
        <time>2012-05-27T08:22:48Z</time>
      </trkpt>
      <trkpt lat="43.92126" lon="7.239">
        <ele>893.9</ele>
        <time>2012-05-27T08:22:53Z</time>
      </trkpt>
      <trkpt lat="43.92111" lon="7.23891">
        <ele>896.5</ele>
        <time>2012-05-27T08:23:01Z</time>
      </trkpt>
      <trkpt lat="43.92102" lon="7.23896">
        <ele>895.1</ele>
        <time>2012-05-27T08:23:07Z</time>
      </trkpt>
      <trkpt lat="43.92089" lon="7.23898">
        <ele>893</ele>
        <time>2012-05-27T08:23:14Z</time>
      </trkpt>
      <trkpt lat="43.92081" lon="7.23895">
        <ele>892.7</ele>
        <time>2012-05-27T08:23:19Z</time>
      </trkpt>
      <trkpt lat="43.92059" lon="7.23886">
        <ele>892.4</ele>
        <time>2012-05-27T08:23:32Z</time>
      </trkpt>
      <trkpt lat="43.9205" lon="7.23868">
        <ele>893.8</ele>
        <time>2012-05-27T08:23:42Z</time>
      </trkpt>
      <trkpt lat="43.92041" lon="7.23851">
        <ele>893</ele>
        <time>2012-05-27T08:23:50Z</time>
      </trkpt>
      <trkpt lat="43.92029" lon="7.23839">
        <ele>890</ele>
        <time>2012-05-27T08:23:59Z</time>
      </trkpt>
      <trkpt lat="43.9203" lon="7.23818">
        <ele>889.4</ele>
        <time>2012-05-27T08:24:07Z</time>
      </trkpt>
      <trkpt lat="43.92038" lon="7.2381">
        <ele>890.6</ele>
        <time>2012-05-27T08:24:10Z</time>
      </trkpt>
      <trkpt lat="43.92043" lon="7.23795">
        <ele>892.6</ele>
        <time>2012-05-27T08:24:13Z</time>
      </trkpt>
      <trkpt lat="43.92044" lon="7.23783">
        <ele>893.2</ele>
        <time>2012-05-27T08:24:15Z</time>
      </trkpt>
      <trkpt lat="43.92044" lon="7.23771">
        <ele>893.8</ele>
        <time>2012-05-27T08:24:17Z</time>
      </trkpt>
      <trkpt lat="43.92041" lon="7.23758">
        <ele>894.1</ele>
        <time>2012-05-27T08:24:19Z</time>
      </trkpt>
      <trkpt lat="43.92037" lon="7.23746">
        <ele>893.9</ele>
        <time>2012-05-27T08:24:21Z</time>
      </trkpt>
      <trkpt lat="43.92035" lon="7.23734">
        <ele>893.8</ele>
        <time>2012-05-27T08:24:23Z</time>
      </trkpt>
      <trkpt lat="43.92035" lon="7.2371">
        <ele>894.7</ele>
        <time>2012-05-27T08:24:27Z</time>
      </trkpt>
      <trkpt lat="43.9204" lon="7.23687">
        <ele>897</ele>
        <time>2012-05-27T08:24:31Z</time>
      </trkpt>
      <trkpt lat="43.92043" lon="7.23671">
        <ele>898.6</ele>
        <time>2012-05-27T08:24:34Z</time>
      </trkpt>
      <trkpt lat="43.92046" lon="7.23659">
        <ele>899.2</ele>
        <time>2012-05-27T08:24:36Z</time>
      </trkpt>
      <trkpt lat="43.92049" lon="7.23647">
        <ele>899.7</ele>
        <time>2012-05-27T08:24:38Z</time>
      </trkpt>
      <trkpt lat="43.9205" lon="7.23634">
        <ele>900.2</ele>
        <time>2012-05-27T08:24:40Z</time>
      </trkpt>
      <trkpt lat="43.9205" lon="7.23622">
        <ele>900.8</ele>
        <time>2012-05-27T08:24:42Z</time>
      </trkpt>
      <trkpt lat="43.92044" lon="7.236">
        <ele>904.4</ele>
        <time>2012-05-27T08:24:46Z</time>
      </trkpt>
      <trkpt lat="43.92044" lon="7.23579">
        <ele>908.2</ele>
        <time>2012-05-27T08:24:50Z</time>
      </trkpt>
      <trkpt lat="43.92042" lon="7.23559">
        <ele>911.9</ele>
        <time>2012-05-27T08:24:54Z</time>
      </trkpt>
      <trkpt lat="43.92042" lon="7.2354">
        <ele>915.2</ele>
        <time>2012-05-27T08:24:58Z</time>
      </trkpt>
      <trkpt lat="43.92041" lon="7.23519">
        <ele>921.2</ele>
        <time>2012-05-27T08:25:03Z</time>
      </trkpt>
      <trkpt lat="43.92032" lon="7.23489">
        <ele>930.5</ele>
        <time>2012-05-27T08:25:14Z</time>
      </trkpt>
      <trkpt lat="43.92025" lon="7.23468">
        <ele>937.2</ele>
        <time>2012-05-27T08:25:24Z</time>
      </trkpt>
      <trkpt lat="43.92021" lon="7.23446">
        <ele>945.2</ele>
        <time>2012-05-27T08:25:35Z</time>
      </trkpt>
      <trkpt lat="43.92022" lon="7.23434">
        <ele>949.8</ele>
        <time>2012-05-27T08:25:41Z</time>
      </trkpt>
      <trkpt lat="43.92036" lon="7.23421">
        <ele>954.4</ele>
        <time>2012-05-27T08:25:53Z</time>
      </trkpt>
      <trkpt lat="43.92053" lon="7.23416">
        <ele>951.8</ele>
        <time>2012-05-27T08:26:05Z</time>
      </trkpt>
      <trkpt lat="43.92066" lon="7.23416">
        <ele>946.4</ele>
        <time>2012-05-27T08:26:10Z</time>
      </trkpt>
      <trkpt lat="43.9208" lon="7.23408">
        <ele>941.8</ele>
        <time>2012-05-27T08:26:15Z</time>
      </trkpt>
      <trkpt lat="43.92088" lon="7.23401">
        <ele>939.9</ele>
        <time>2012-05-27T08:26:21Z</time>
      </trkpt>
      <trkpt lat="43.92102" lon="7.23391">
        <ele>936</ele>
        <time>2012-05-27T08:26:35Z</time>
      </trkpt>
      <trkpt lat="43.9211" lon="7.23385">
        <ele>934.2</ele>
        <time>2012-05-27T08:26:42Z</time>
      </trkpt>
      <trkpt lat="43.92106" lon="7.23365">
        <ele>939</ele>
        <time>2012-05-27T08:26:49Z</time>
      </trkpt>
      <trkpt lat="43.92097" lon="7.23352">
        <ele>945.6</ele>
        <time>2012-05-27T08:26:52Z</time>
      </trkpt>
      <trkpt lat="43.92091" lon="7.23341">
        <ele>951</ele>
        <time>2012-05-27T08:26:54Z</time>
      </trkpt>
      <trkpt lat="43.92091" lon="7.23321">
        <ele>955.9</ele>
        <time>2012-05-27T08:26:56Z</time>
      </trkpt>
      <trkpt lat="43.92094" lon="7.23312">
        <ele>957.6</ele>
        <time>2012-05-27T08:26:57Z</time>
      </trkpt>
      <trkpt lat="43.92103" lon="7.23299">
        <ele>958</ele>
        <time>2012-05-27T08:26:59Z</time>
      </trkpt>
      <trkpt lat="43.9211" lon="7.2328">
        <ele>958.3</ele>
        <time>2012-05-27T08:27:01Z</time>
      </trkpt>
      <trkpt lat="43.92115" lon="7.23263">
        <ele>960.1</ele>
        <time>2012-05-27T08:27:03Z</time>
      </trkpt>
      <trkpt lat="43.92125" lon="7.23256">
        <ele>959.3</ele>
        <time>2012-05-27T08:27:05Z</time>
      </trkpt>
      <trkpt lat="43.9213" lon="7.23248">
        <ele>958.8</ele>
        <time>2012-05-27T08:27:07Z</time>
      </trkpt>
      <trkpt lat="43.92138" lon="7.23228">
        <ele>961.3</ele>
        <time>2012-05-27T08:27:13Z</time>
      </trkpt>
      <trkpt lat="43.92144" lon="7.23222">
        <ele>961.4</ele>
        <time>2012-05-27T08:27:16Z</time>
      </trkpt>
      <trkpt lat="43.9216" lon="7.23213">
        <ele>958.4</ele>
        <time>2012-05-27T08:27:20Z</time>
      </trkpt>
      <trkpt lat="43.92167" lon="7.23204">
        <ele>957.3</ele>
        <time>2012-05-27T08:27:24Z</time>
      </trkpt>
      <trkpt lat="43.92175" lon="7.23188">
        <ele>958.8</ele>
        <time>2012-05-27T08:27:32Z</time>
      </trkpt>
      <trkpt lat="43.92188" lon="7.23173">
        <ele>957.8</ele>
        <time>2012-05-27T08:27:41Z</time>
      </trkpt>
      <trkpt lat="43.92198" lon="7.23154">
        <ele>958.9</ele>
        <time>2012-05-27T08:27:50Z</time>
      </trkpt>
      <trkpt lat="43.92202" lon="7.23146">
        <ele>959.4</ele>
        <time>2012-05-27T08:27:53Z</time>
      </trkpt>
      <trkpt lat="43.9221" lon="7.23126">
        <ele>961.9</ele>
        <time>2012-05-27T08:28:01Z</time>
      </trkpt>
      <trkpt lat="43.92222" lon="7.23113">
        <ele>960.6</ele>
        <time>2012-05-27T08:28:11Z</time>
      </trkpt>
      <trkpt lat="43.92236" lon="7.23103">
        <ele>958</ele>
        <time>2012-05-27T08:28:18Z</time>
      </trkpt>
      <trkpt lat="43.92246" lon="7.23084">
        <ele>957.1</ele>
        <time>2012-05-27T08:28:24Z</time>
      </trkpt>
      <trkpt lat="43.92247" lon="7.23071">
        <ele>959.6</ele>
        <time>2012-05-27T08:28:33Z</time>
      </trkpt>
      <trkpt lat="43.92256" lon="7.23053">
        <ele>960.2</ele>
        <time>2012-05-27T08:28:43Z</time>
      </trkpt>
      <trkpt lat="43.92259" lon="7.23042">
        <ele>961.7</ele>
        <time>2012-05-27T08:28:49Z</time>
      </trkpt>
      <trkpt lat="43.9226" lon="7.23022">
        <ele>966.2</ele>
        <time>2012-05-27T08:28:56Z</time>
      </trkpt>
      <trkpt lat="43.9226" lon="7.23011">
        <ele>968.8</ele>
        <time>2012-05-27T08:28:58Z</time>
      </trkpt>
      <trkpt lat="43.92262" lon="7.22999">
        <ele>971.9</ele>
        <time>2012-05-27T08:29:00Z</time>
      </trkpt>
      <trkpt lat="43.92269" lon="7.22982">
        <ele>974.7</ele>
        <time>2012-05-27T08:29:03Z</time>
      </trkpt>
      <trkpt lat="43.92275" lon="7.22975">
        <ele>975.3</ele>
        <time>2012-05-27T08:29:05Z</time>
      </trkpt>
      <trkpt lat="43.92285" lon="7.22963">
        <ele>974.8</ele>
        <time>2012-05-27T08:29:10Z</time>
      </trkpt>
      <trkpt lat="43.92297" lon="7.22949">
        <ele>974.3</ele>
        <time>2012-05-27T08:29:17Z</time>
      </trkpt>
      <trkpt lat="43.92304" lon="7.22928">
        <ele>980.9</ele>
        <time>2012-05-27T08:29:29Z</time>
      </trkpt>
      <trkpt lat="43.92308" lon="7.22914">
        <ele>985.1</ele>
        <time>2012-05-27T08:29:36Z</time>
      </trkpt>
      <trkpt lat="43.92315" lon="7.22896">
        <ele>990.1</ele>
        <time>2012-05-27T08:29:47Z</time>
      </trkpt>
      <trkpt lat="43.92322" lon="7.22875">
        <ele>997.6</ele>
        <time>2012-05-27T08:29:59Z</time>
      </trkpt>
      <trkpt lat="43.92335" lon="7.22868">
        <ele>994.5</ele>
        <time>2012-05-27T08:30:05Z</time>
      </trkpt>
      <trkpt lat="43.92348" lon="7.22858">
        <ele>992.9</ele>
        <time>2012-05-27T08:30:14Z</time>
      </trkpt>
      <trkpt lat="43.92356" lon="7.22857">
        <ele>990.4</ele>
        <time>2012-05-27T08:30:17Z</time>
      </trkpt>
      <trkpt lat="43.92368" lon="7.2286">
        <ele>984.4</ele>
        <time>2012-05-27T08:30:21Z</time>
      </trkpt>
      <trkpt lat="43.92377" lon="7.22857">
        <ele>981.1</ele>
        <time>2012-05-27T08:30:24Z</time>
      </trkpt>
      <trkpt lat="43.92391" lon="7.22849">
        <ele>981.7</ele>
        <time>2012-05-27T08:30:29Z</time>
      </trkpt>
      <trkpt lat="43.92405" lon="7.22851">
        <ele>980.9</ele>
        <time>2012-05-27T08:30:34Z</time>
      </trkpt>
      <trkpt lat="43.92415" lon="7.22858">
        <ele>977.7</ele>
        <time>2012-05-27T08:30:37Z</time>
      </trkpt>
      <trkpt lat="43.92426" lon="7.22865">
        <ele>973.1</ele>
        <time>2012-05-27T08:30:40Z</time>
      </trkpt>
      <trkpt lat="43.92435" lon="7.22866">
        <ele>970.9</ele>
        <time>2012-05-27T08:30:42Z</time>
      </trkpt>
      <trkpt lat="43.92465" lon="7.22857">
        <ele>969.8</ele>
        <time>2012-05-27T08:30:50Z</time>
      </trkpt>
      <trkpt lat="43.92471" lon="7.22853">
        <ele>970.4</ele>
        <time>2012-05-27T08:30:52Z</time>
      </trkpt>
      <trkpt lat="43.92481" lon="7.22838">
        <ele>973.9</ele>
        <time>2012-05-27T08:30:56Z</time>
      </trkpt>
      <trkpt lat="43.92488" lon="7.22831">
        <ele>975.7</ele>
        <time>2012-05-27T08:30:58Z</time>
      </trkpt>
      <trkpt lat="43.92502" lon="7.2282">
        <ele>977.7</ele>
        <time>2012-05-27T08:31:02Z</time>
      </trkpt>
      <trkpt lat="43.92509" lon="7.22816">
        <ele>978.1</ele>
        <time>2012-05-27T08:31:04Z</time>
      </trkpt>
      <trkpt lat="43.92522" lon="7.22812">
        <ele>977.5</ele>
        <time>2012-05-27T08:31:08Z</time>
      </trkpt>
      <trkpt lat="43.92535" lon="7.22803">
        <ele>977.4</ele>
        <time>2012-05-27T08:31:13Z</time>
      </trkpt>
      <trkpt lat="43.92542" lon="7.22789">
        <ele>979.1</ele>
        <time>2012-05-27T08:31:17Z</time>
      </trkpt>
      <trkpt lat="43.92547" lon="7.2277">
        <ele>977.1</ele>
        <time>2012-05-27T08:31:22Z</time>
      </trkpt>
      <trkpt lat="43.92547" lon="7.22749">
        <ele>975.3</ele>
        <time>2012-05-27T08:31:29Z</time>
      </trkpt>
      <trkpt lat="43.92545" lon="7.22728">
        <ele>975.1</ele>
        <time>2012-05-27T08:31:34Z</time>
      </trkpt>
      <trkpt lat="43.92539" lon="7.22698">
        <ele>974.6</ele>
        <time>2012-05-27T08:31:39Z</time>
      </trkpt>
      <trkpt lat="43.92537" lon="7.22683">
        <ele>972.2</ele>
        <time>2012-05-27T08:31:41Z</time>
      </trkpt>
      <trkpt lat="43.92534" lon="7.2267">
        <ele>970</ele>
        <time>2012-05-27T08:31:43Z</time>
      </trkpt>
      <trkpt lat="43.92528" lon="7.22653">
        <ele>966.7</ele>
        <time>2012-05-27T08:31:46Z</time>
      </trkpt>
      <trkpt lat="43.9252" lon="7.22633">
        <ele>962.9</ele>
        <time>2012-05-27T08:31:49Z</time>
      </trkpt>
      <trkpt lat="43.92513" lon="7.22618">
        <ele>959.4</ele>
        <time>2012-05-27T08:31:51Z</time>
      </trkpt>
      <trkpt lat="43.92505" lon="7.22598">
        <ele>953</ele>
        <time>2012-05-27T08:31:54Z</time>
      </trkpt>
      <trkpt lat="43.92501" lon="7.22585">
        <ele>948.6</ele>
        <time>2012-05-27T08:31:56Z</time>
      </trkpt>
      <trkpt lat="43.92496" lon="7.22573">
        <ele>944.2</ele>
        <time>2012-05-27T08:31:58Z</time>
      </trkpt>
      <trkpt lat="43.92489" lon="7.22564">
        <ele>940.7</ele>
        <time>2012-05-27T08:32:00Z</time>
      </trkpt>
      <trkpt lat="43.9248" lon="7.22562">
        <ele>938.9</ele>
        <time>2012-05-27T08:32:02Z</time>
      </trkpt>
      <trkpt lat="43.92469" lon="7.22565">
        <ele>938.9</ele>
        <time>2012-05-27T08:32:04Z</time>
      </trkpt>
      <trkpt lat="43.92458" lon="7.2257">
        <ele>940.4</ele>
        <time>2012-05-27T08:32:06Z</time>
      </trkpt>
      <trkpt lat="43.92453" lon="7.22573">
        <ele>942.2</ele>
        <time>2012-05-27T08:32:07Z</time>
      </trkpt>
      <trkpt lat="43.92443" lon="7.22581">
        <ele>947.4</ele>
        <time>2012-05-27T08:32:09Z</time>
      </trkpt>
      <trkpt lat="43.92435" lon="7.2259">
        <ele>953</ele>
        <time>2012-05-27T08:32:11Z</time>
      </trkpt>
      <trkpt lat="43.92428" lon="7.22596">
        <ele>957.9</ele>
        <time>2012-05-27T08:32:13Z</time>
      </trkpt>
      <trkpt lat="43.92419" lon="7.22593">
        <ele>961.2</ele>
        <time>2012-05-27T08:32:15Z</time>
      </trkpt>
      <trkpt lat="43.92405" lon="7.22583">
        <ele>963.8</ele>
        <time>2012-05-27T08:32:18Z</time>
      </trkpt>
      <trkpt lat="43.92396" lon="7.22582">
        <ele>965.8</ele>
        <time>2012-05-27T08:32:20Z</time>
      </trkpt>
      <trkpt lat="43.92381" lon="7.22581">
        <ele>970.8</ele>
        <time>2012-05-27T08:32:24Z</time>
      </trkpt>
      <trkpt lat="43.92365" lon="7.2258">
        <ele>977.6</ele>
        <time>2012-05-27T08:32:30Z</time>
      </trkpt>
      <trkpt lat="43.92354" lon="7.22571">
        <ele>982.1</ele>
        <time>2012-05-27T08:32:34Z</time>
      </trkpt>
      <trkpt lat="43.92348" lon="7.22555">
        <ele>982.6</ele>
        <time>2012-05-27T08:32:37Z</time>
      </trkpt>
      <trkpt lat="43.92344" lon="7.22539">
        <ele>981.4</ele>
        <time>2012-05-27T08:32:39Z</time>
      </trkpt>
      <trkpt lat="43.92338" lon="7.22529">
        <ele>981.5</ele>
        <time>2012-05-27T08:32:41Z</time>
      </trkpt>
      <trkpt lat="43.92335" lon="7.22513">
        <ele>982.3</ele>
        <time>2012-05-27T08:32:45Z</time>
      </trkpt>
      <trkpt lat="43.9234" lon="7.22503">
        <ele>979.3</ele>
        <time>2012-05-27T08:32:47Z</time>
      </trkpt>
      <trkpt lat="43.92344" lon="7.22489">
        <ele>975.6</ele>
        <time>2012-05-27T08:32:49Z</time>
      </trkpt>
      <trkpt lat="43.92344" lon="7.22481">
        <ele>973.9</ele>
        <time>2012-05-27T08:32:50Z</time>
      </trkpt>
      <trkpt lat="43.92342" lon="7.22463">
        <ele>971.1</ele>
        <time>2012-05-27T08:32:53Z</time>
      </trkpt>
      <trkpt lat="43.92332" lon="7.22446">
        <ele>970.7</ele>
        <time>2012-05-27T08:32:58Z</time>
      </trkpt>
      <trkpt lat="43.92325" lon="7.22442">
        <ele>972.3</ele>
        <time>2012-05-27T08:33:01Z</time>
      </trkpt>
      <trkpt lat="43.92312" lon="7.22439">
        <ele>977.3</ele>
        <time>2012-05-27T08:33:05Z</time>
      </trkpt>
      <trkpt lat="43.92307" lon="7.22429">
        <ele>978.7</ele>
        <time>2012-05-27T08:33:09Z</time>
      </trkpt>
      <trkpt lat="43.92302" lon="7.22407">
        <ele>974.3</ele>
        <time>2012-05-27T08:33:19Z</time>
      </trkpt>
      <trkpt lat="43.92292" lon="7.22389">
        <ele>973.2</ele>
        <time>2012-05-27T08:33:31Z</time>
      </trkpt>
      <trkpt lat="43.92286" lon="7.22383">
        <ele>973.4</ele>
        <time>2012-05-27T08:33:36Z</time>
      </trkpt>
      <trkpt lat="43.92279" lon="7.22373">
        <ele>972.8</ele>
        <time>2012-05-27T08:33:42Z</time>
      </trkpt>
      <trkpt lat="43.92265" lon="7.22363">
        <ele>972.8</ele>
        <time>2012-05-27T08:33:54Z</time>
      </trkpt>
      <trkpt lat="43.92249" lon="7.22354">
        <ele>974.6</ele>
        <time>2012-05-27T08:34:09Z</time>
      </trkpt>
      <trkpt lat="43.92237" lon="7.22339">
        <ele>971.8</ele>
        <time>2012-05-27T08:34:21Z</time>
      </trkpt>
      <trkpt lat="43.92221" lon="7.22331">
        <ele>973.3</ele>
        <time>2012-05-27T08:34:33Z</time>
      </trkpt>
      <trkpt lat="43.92212" lon="7.22331">
        <ele>975.8</ele>
        <time>2012-05-27T08:34:41Z</time>
      </trkpt>
      <trkpt lat="43.92187" lon="7.22321">
        <ele>981.1</ele>
        <time>2012-05-27T08:35:21Z</time>
      </trkpt>
      <trkpt lat="43.92179" lon="7.22325">
        <ele>985.4</ele>
        <time>2012-05-27T08:35:33Z</time>
      </trkpt>
      <trkpt lat="43.9217" lon="7.22327">
        <ele>989.9</ele>
        <time>2012-05-27T08:35:45Z</time>
      </trkpt>
      <trkpt lat="43.92161" lon="7.22325">
        <ele>992.4</ele>
        <time>2012-05-27T08:36:00Z</time>
      </trkpt>
      <trkpt lat="43.92147" lon="7.22316">
        <ele>995</ele>
        <time>2012-05-27T08:36:20Z</time>
      </trkpt>
      <trkpt lat="43.92139" lon="7.2231">
        <ele>996.1</ele>
        <time>2012-05-27T08:36:34Z</time>
      </trkpt>
      <trkpt lat="43.9213" lon="7.22307">
        <ele>998.3</ele>
        <time>2012-05-27T08:36:48Z</time>
      </trkpt>
      <trkpt lat="43.92121" lon="7.22307">
        <ele>1001.7</ele>
        <time>2012-05-27T08:37:01Z</time>
      </trkpt>
      <trkpt lat="43.92106" lon="7.2231">
        <ele>1008.6</ele>
        <time>2012-05-27T08:37:25Z</time>
      </trkpt>
      <trkpt lat="43.92089" lon="7.22308">
        <ele>1014.2</ele>
        <time>2012-05-27T08:37:56Z</time>
      </trkpt>
      <trkpt lat="43.92079" lon="7.2231">
        <ele>1018.4</ele>
        <time>2012-05-27T08:38:11Z</time>
      </trkpt>
      <trkpt lat="43.92055" lon="7.22305">
        <ele>1026</ele>
        <time>2012-05-27T08:38:44Z</time>
      </trkpt>
      <trkpt lat="43.9204" lon="7.22295">
        <ele>1029</ele>
        <time>2012-05-27T08:39:03Z</time>
      </trkpt>
      <trkpt lat="43.92032" lon="7.22294">
        <ele>1030.3</ele>
        <time>2012-05-27T08:39:09Z</time>
      </trkpt>
      <trkpt lat="43.92022" lon="7.2229">
        <ele>1031.8</ele>
        <time>2012-05-27T08:39:16Z</time>
      </trkpt>
      <trkpt lat="43.92008" lon="7.22288">
        <ele>1033.6</ele>
        <time>2012-05-27T08:39:26Z</time>
      </trkpt>
      <trkpt lat="43.91992" lon="7.22283">
        <ele>1035.7</ele>
        <time>2012-05-27T08:39:39Z</time>
      </trkpt>
      <trkpt lat="43.91975" lon="7.22285">
        <ele>1040.9</ele>
        <time>2012-05-27T08:39:53Z</time>
      </trkpt>
      <trkpt lat="43.91967" lon="7.22266">
        <ele>1036.3</ele>
        <time>2012-05-27T08:40:03Z</time>
      </trkpt>
      <trkpt lat="43.9196" lon="7.2226">
        <ele>1035</ele>
        <time>2012-05-27T08:40:08Z</time>
      </trkpt>
      <trkpt lat="43.91946" lon="7.22252">
        <ele>1031.4</ele>
        <time>2012-05-27T08:40:16Z</time>
      </trkpt>
      <trkpt lat="43.9193" lon="7.22245">
        <ele>1026.5</ele>
        <time>2012-05-27T08:40:26Z</time>
      </trkpt>
      <trkpt lat="43.91919" lon="7.22261">
        <ele>1028.7</ele>
        <time>2012-05-27T08:40:38Z</time>
      </trkpt>
      <trkpt lat="43.91911" lon="7.22267">
        <ele>1029.8</ele>
        <time>2012-05-27T08:40:43Z</time>
      </trkpt>
      <trkpt lat="43.91906" lon="7.22287">
        <ele>1034.3</ele>
        <time>2012-05-27T08:40:52Z</time>
      </trkpt>
      <trkpt lat="43.91907" lon="7.22298">
        <ele>1036.8</ele>
        <time>2012-05-27T08:40:56Z</time>
      </trkpt>
      <trkpt lat="43.91909" lon="7.2232">
        <ele>1038</ele>
        <time>2012-05-27T08:41:03Z</time>
      </trkpt>
      <trkpt lat="43.91911" lon="7.2233">
        <ele>1038.5</ele>
        <time>2012-05-27T08:41:06Z</time>
      </trkpt>
      <trkpt lat="43.91916" lon="7.22347">
        <ele>1039.9</ele>
        <time>2012-05-27T08:41:10Z</time>
      </trkpt>
      <trkpt lat="43.91917" lon="7.22356">
        <ele>1040.6</ele>
        <time>2012-05-27T08:41:12Z</time>
      </trkpt>
      <trkpt lat="43.91917" lon="7.22375">
        <ele>1041.3</ele>
        <time>2012-05-27T08:41:16Z</time>
      </trkpt>
      <trkpt lat="43.91918" lon="7.22388">
        <ele>1041.5</ele>
        <time>2012-05-27T08:41:18Z</time>
      </trkpt>
      <trkpt lat="43.91916" lon="7.22404">
        <ele>1041.3</ele>
        <time>2012-05-27T08:41:20Z</time>
      </trkpt>
      <trkpt lat="43.91907" lon="7.22428">
        <ele>1039.2</ele>
        <time>2012-05-27T08:41:23Z</time>
      </trkpt>
      <trkpt lat="43.91903" lon="7.22435">
        <ele>1038</ele>
        <time>2012-05-27T08:41:24Z</time>
      </trkpt>
      <trkpt lat="43.91894" lon="7.22446">
        <ele>1035.1</ele>
        <time>2012-05-27T08:41:26Z</time>
      </trkpt>
      <trkpt lat="43.91883" lon="7.22457">
        <ele>1030.7</ele>
        <time>2012-05-27T08:41:29Z</time>
      </trkpt>
      <trkpt lat="43.91877" lon="7.22462">
        <ele>1028.6</ele>
        <time>2012-05-27T08:41:31Z</time>
      </trkpt>
      <trkpt lat="43.91853" lon="7.22479">
        <ele>1024.2</ele>
        <time>2012-05-27T08:41:37Z</time>
      </trkpt>
      <trkpt lat="43.91849" lon="7.22483">
        <ele>1023.7</ele>
        <time>2012-05-27T08:41:38Z</time>
      </trkpt>
      <trkpt lat="43.91839" lon="7.22494">
        <ele>1023.1</ele>
        <time>2012-05-27T08:41:40Z</time>
      </trkpt>
      <trkpt lat="43.91834" lon="7.225">
        <ele>1023</ele>
        <time>2012-05-27T08:41:41Z</time>
      </trkpt>
      <trkpt lat="43.91825" lon="7.22514">
        <ele>1023.4</ele>
        <time>2012-05-27T08:41:43Z</time>
      </trkpt>
      <trkpt lat="43.91819" lon="7.2252">
        <ele>1023.7</ele>
        <time>2012-05-27T08:41:44Z</time>
      </trkpt>
      <trkpt lat="43.9181" lon="7.22533">
        <ele>1024.8</ele>
        <time>2012-05-27T08:41:46Z</time>
      </trkpt>
      <trkpt lat="43.91801" lon="7.22548">
        <ele>1026.5</ele>
        <time>2012-05-27T08:41:48Z</time>
      </trkpt>
      <trkpt lat="43.91788" lon="7.22556">
        <ele>1027.1</ele>
        <time>2012-05-27T08:41:50Z</time>
      </trkpt>
      <trkpt lat="43.91776" lon="7.2256">
        <ele>1026.9</ele>
        <time>2012-05-27T08:41:52Z</time>
      </trkpt>
      <trkpt lat="43.91754" lon="7.22575">
        <ele>1026.7</ele>
        <time>2012-05-27T08:41:56Z</time>
      </trkpt>
      <trkpt lat="43.91742" lon="7.22583">
        <ele>1026.5</ele>
        <time>2012-05-27T08:41:58Z</time>
      </trkpt>
      <trkpt lat="43.91731" lon="7.22593">
        <ele>1026.5</ele>
        <time>2012-05-27T08:42:00Z</time>
      </trkpt>
      <trkpt lat="43.91722" lon="7.22609">
        <ele>1027.3</ele>
        <time>2012-05-27T08:42:02Z</time>
      </trkpt>
      <trkpt lat="43.91714" lon="7.2263">
        <ele>1028.7</ele>
        <time>2012-05-27T08:42:04Z</time>
      </trkpt>
      <trkpt lat="43.91707" lon="7.22651">
        <ele>1028.8</ele>
        <time>2012-05-27T08:42:06Z</time>
      </trkpt>
      <trkpt lat="43.91702" lon="7.22672">
        <ele>1028.5</ele>
        <time>2012-05-27T08:42:08Z</time>
      </trkpt>
      <trkpt lat="43.91697" lon="7.22687">
        <ele>1028</ele>
        <time>2012-05-27T08:42:10Z</time>
      </trkpt>
      <trkpt lat="43.91691" lon="7.22699">
        <ele>1027.1</ele>
        <time>2012-05-27T08:42:12Z</time>
      </trkpt>
      <trkpt lat="43.91687" lon="7.22722">
        <ele>1025.3</ele>
        <time>2012-05-27T08:42:16Z</time>
      </trkpt>
      <trkpt lat="43.91686" lon="7.22737">
        <ele>1024.2</ele>
        <time>2012-05-27T08:42:18Z</time>
      </trkpt>
      <trkpt lat="43.91684" lon="7.22754">
        <ele>1022.7</ele>
        <time>2012-05-27T08:42:20Z</time>
      </trkpt>
      <trkpt lat="43.9168" lon="7.2277">
        <ele>1020.7</ele>
        <time>2012-05-27T08:42:22Z</time>
      </trkpt>
      <trkpt lat="43.91668" lon="7.2278">
        <ele>1017.7</ele>
        <time>2012-05-27T08:42:24Z</time>
      </trkpt>
      <trkpt lat="43.91663" lon="7.22786">
        <ele>1016.1</ele>
        <time>2012-05-27T08:42:25Z</time>
      </trkpt>
      <trkpt lat="43.91653" lon="7.228">
        <ele>1013.1</ele>
        <time>2012-05-27T08:42:27Z</time>
      </trkpt>
      <trkpt lat="43.91645" lon="7.22815">
        <ele>1011.3</ele>
        <time>2012-05-27T08:42:29Z</time>
      </trkpt>
      <trkpt lat="43.9164" lon="7.22829">
        <ele>1010.3</ele>
        <time>2012-05-27T08:42:31Z</time>
      </trkpt>
      <trkpt lat="43.91639" lon="7.2284">
        <ele>1010.2</ele>
        <time>2012-05-27T08:42:33Z</time>
      </trkpt>
      <trkpt lat="43.91634" lon="7.22861">
        <ele>1009.9</ele>
        <time>2012-05-27T08:42:38Z</time>
      </trkpt>
      <trkpt lat="43.91627" lon="7.22877">
        <ele>1009</ele>
        <time>2012-05-27T08:42:43Z</time>
      </trkpt>
      <trkpt lat="43.91618" lon="7.22895">
        <ele>1008.9</ele>
        <time>2012-05-27T08:42:48Z</time>
      </trkpt>
      <trkpt lat="43.91612" lon="7.2291">
        <ele>1009.6</ele>
        <time>2012-05-27T08:42:52Z</time>
      </trkpt>
      <trkpt lat="43.916" lon="7.2293">
        <ele>1010.1</ele>
        <time>2012-05-27T08:42:58Z</time>
      </trkpt>
      <trkpt lat="43.91599" lon="7.22951">
        <ele>1012.3</ele>
        <time>2012-05-27T08:43:05Z</time>
      </trkpt>
      <trkpt lat="43.91601" lon="7.22973">
        <ele>1015.6</ele>
        <time>2012-05-27T08:43:13Z</time>
      </trkpt>
      <trkpt lat="43.91602" lon="7.22996">
        <ele>1018.6</ele>
        <time>2012-05-27T08:43:23Z</time>
      </trkpt>
      <trkpt lat="43.91605" lon="7.23019">
        <ele>1021.7</ele>
        <time>2012-05-27T08:43:33Z</time>
      </trkpt>
      <trkpt lat="43.91614" lon="7.23051">
        <ele>1026.4</ele>
        <time>2012-05-27T08:43:49Z</time>
      </trkpt>
      <trkpt lat="43.91619" lon="7.2306">
        <ele>1027.9</ele>
        <time>2012-05-27T08:43:55Z</time>
      </trkpt>
      <trkpt lat="43.91626" lon="7.23081">
        <ele>1030.5</ele>
        <time>2012-05-27T08:44:07Z</time>
      </trkpt>
      <trkpt lat="43.91625" lon="7.23104">
        <ele>1032.7</ele>
        <time>2012-05-27T08:44:19Z</time>
      </trkpt>
      <trkpt lat="43.9162" lon="7.23115">
        <ele>1033.7</ele>
        <time>2012-05-27T08:44:27Z</time>
      </trkpt>
      <trkpt lat="43.91605" lon="7.2311">
        <ele>1033.1</ele>
        <time>2012-05-27T08:44:43Z</time>
      </trkpt>
      <trkpt lat="43.91588" lon="7.23104">
        <ele>1031.8</ele>
        <time>2012-05-27T08:44:53Z</time>
      </trkpt>
      <trkpt lat="43.91573" lon="7.23109">
        <ele>1031.7</ele>
        <time>2012-05-27T08:45:02Z</time>
      </trkpt>
      <trkpt lat="43.9156" lon="7.23121">
        <ele>1033.1</ele>
        <time>2012-05-27T08:45:09Z</time>
      </trkpt>
      <trkpt lat="43.91547" lon="7.23131">
        <ele>1034.6</ele>
        <time>2012-05-27T08:45:15Z</time>
      </trkpt>
      <trkpt lat="43.91533" lon="7.2314">
        <ele>1037.7</ele>
        <time>2012-05-27T08:45:21Z</time>
      </trkpt>
      <trkpt lat="43.91519" lon="7.23147">
        <ele>1042.1</ele>
        <time>2012-05-27T08:45:27Z</time>
      </trkpt>
      <trkpt lat="43.91505" lon="7.23153">
        <ele>1046.2</ele>
        <time>2012-05-27T08:45:33Z</time>
      </trkpt>
      <trkpt lat="43.91498" lon="7.23155">
        <ele>1048.1</ele>
        <time>2012-05-27T08:45:36Z</time>
      </trkpt>
      <trkpt lat="43.91482" lon="7.23157">
        <ele>1052</ele>
        <time>2012-05-27T08:45:43Z</time>
      </trkpt>
      <trkpt lat="43.91466" lon="7.23162">
        <ele>1056.5</ele>
        <time>2012-05-27T08:46:00Z</time>
      </trkpt>
      <trkpt lat="43.91449" lon="7.23158">
        <ele>1061.7</ele>
        <time>2012-05-27T08:46:20Z</time>
      </trkpt>
      <trkpt lat="43.91441" lon="7.23152">
        <ele>1065.1</ele>
        <time>2012-05-27T08:46:29Z</time>
      </trkpt>
      <trkpt lat="43.91417" lon="7.23142">
        <ele>1076.1</ele>
        <time>2012-05-27T08:47:03Z</time>
      </trkpt>
      <trkpt lat="43.9141" lon="7.23147">
        <ele>1080.2</ele>
        <time>2012-05-27T08:47:25Z</time>
      </trkpt>
      <trkpt lat="43.914" lon="7.23146">
        <ele>1084.3</ele>
        <time>2012-05-27T08:47:42Z</time>
      </trkpt>
      <trkpt lat="43.91387" lon="7.23133">
        <ele>1091</ele>
        <time>2012-05-27T08:48:06Z</time>
      </trkpt>
      <trkpt lat="43.91378" lon="7.23149">
        <ele>1095.3</ele>
        <time>2012-05-27T08:48:31Z</time>
      </trkpt>
      <trkpt lat="43.91369" lon="7.23149">
        <ele>1099.3</ele>
        <time>2012-05-27T08:48:56Z</time>
      </trkpt>
      <trkpt lat="43.91352" lon="7.23147">
        <ele>1107.2</ele>
        <time>2012-05-27T08:49:20Z</time>
      </trkpt>
      <trkpt lat="43.91344" lon="7.23142">
        <ele>1111.2</ele>
        <time>2012-05-27T08:49:37Z</time>
      </trkpt>
      <trkpt lat="43.91336" lon="7.23147">
        <ele>1114.9</ele>
        <time>2012-05-27T08:50:08Z</time>
      </trkpt>
      <trkpt lat="43.9132" lon="7.23152">
        <ele>1122.3</ele>
        <time>2012-05-27T08:50:37Z</time>
      </trkpt>
      <trkpt lat="43.91313" lon="7.23156">
        <ele>1126</ele>
        <time>2012-05-27T08:51:02Z</time>
      </trkpt>
      <trkpt lat="43.91303" lon="7.23157">
        <ele>1130.2</ele>
        <time>2012-05-27T08:51:19Z</time>
      </trkpt>
      <trkpt lat="43.91288" lon="7.23152">
        <ele>1137.4</ele>
        <time>2012-05-27T08:51:51Z</time>
      </trkpt>
      <trkpt lat="43.91282" lon="7.23143">
        <ele>1139.6</ele>
        <time>2012-05-27T08:52:05Z</time>
      </trkpt>
      <trkpt lat="43.91273" lon="7.23146">
        <ele>1142.4</ele>
        <time>2012-05-27T08:52:34Z</time>
      </trkpt>
      <trkpt lat="43.91269" lon="7.23168">
        <ele>1143</ele>
        <time>2012-05-27T08:52:56Z</time>
      </trkpt>
      <trkpt lat="43.91256" lon="7.23156">
        <ele>1147.4</ele>
        <time>2012-05-27T08:53:21Z</time>
      </trkpt>
      <trkpt lat="43.91252" lon="7.23145">
        <ele>1149.1</ele>
        <time>2012-05-27T08:53:32Z</time>
      </trkpt>
      <trkpt lat="43.91248" lon="7.23156">
        <ele>1150.5</ele>
        <time>2012-05-27T08:53:50Z</time>
      </trkpt>
      <trkpt lat="43.91246" lon="7.23178">
        <ele>1150.5</ele>
        <time>2012-05-27T08:54:03Z</time>
      </trkpt>
      <trkpt lat="43.9124" lon="7.23187">
        <ele>1152</ele>
        <time>2012-05-27T08:54:11Z</time>
      </trkpt>
      <trkpt lat="43.91224" lon="7.23196">
        <ele>1156.8</ele>
        <time>2012-05-27T08:54:37Z</time>
      </trkpt>
      <trkpt lat="43.91192" lon="7.23214">
        <ele>1159.9</ele>
        <time>2012-05-27T08:55:30Z</time>
      </trkpt>
      <trkpt lat="43.91175" lon="7.23215">
        <ele>1158.2</ele>
        <time>2012-05-27T08:55:49Z</time>
      </trkpt>
      <trkpt lat="43.91165" lon="7.23217">
        <ele>1157.3</ele>
        <time>2012-05-27T08:55:54Z</time>
      </trkpt>
      <trkpt lat="43.91152" lon="7.23215">
        <ele>1156.3</ele>
        <time>2012-05-27T08:56:01Z</time>
      </trkpt>
      <trkpt lat="43.91145" lon="7.23211">
        <ele>1156.6</ele>
        <time>2012-05-27T08:56:05Z</time>
      </trkpt>
      <trkpt lat="43.91134" lon="7.23197">
        <ele>1157.7</ele>
        <time>2012-05-27T08:56:13Z</time>
      </trkpt>
      <trkpt lat="43.91125" lon="7.23182">
        <ele>1158.8</ele>
        <time>2012-05-27T08:56:21Z</time>
      </trkpt>
      <trkpt lat="43.91118" lon="7.23161">
        <ele>1157.4</ele>
        <time>2012-05-27T08:56:29Z</time>
      </trkpt>
      <trkpt lat="43.91116" lon="7.23139">
        <ele>1158.9</ele>
        <time>2012-05-27T08:56:37Z</time>
      </trkpt>
      <trkpt lat="43.91112" lon="7.23103">
        <ele>1160.7</ele>
        <time>2012-05-27T08:56:49Z</time>
      </trkpt>
      <trkpt lat="43.9111" lon="7.23082">
        <ele>1160.7</ele>
        <time>2012-05-27T08:56:55Z</time>
      </trkpt>
      <trkpt lat="43.91103" lon="7.23063">
        <ele>1160.1</ele>
        <time>2012-05-27T08:57:01Z</time>
      </trkpt>
      <trkpt lat="43.911" lon="7.23053">
        <ele>1159.8</ele>
        <time>2012-05-27T08:57:04Z</time>
      </trkpt>
      <trkpt lat="43.91084" lon="7.23018">
        <ele>1160.1</ele>
        <time>2012-05-27T08:57:15Z</time>
      </trkpt>
      <trkpt lat="43.91076" lon="7.22996">
        <ele>1161.7</ele>
        <time>2012-05-27T08:57:23Z</time>
      </trkpt>
      <trkpt lat="43.91082" lon="7.22986">
        <ele>1163.6</ele>
        <time>2012-05-27T09:00:03Z</time>
      </trkpt>
      <trkpt lat="43.91073" lon="7.22982">
        <ele>1163.9</ele>
        <time>2012-05-27T09:02:00Z</time>
      </trkpt>
      <trkpt lat="43.91065" lon="7.22969">
        <ele>1164.4</ele>
        <time>2012-05-27T09:02:05Z</time>
      </trkpt>
      <trkpt lat="43.91062" lon="7.2296">
        <ele>1165.5</ele>
        <time>2012-05-27T09:02:07Z</time>
      </trkpt>
      <trkpt lat="43.91052" lon="7.22941">
        <ele>1166.3</ele>
        <time>2012-05-27T09:02:11Z</time>
      </trkpt>
      <trkpt lat="43.91034" lon="7.22918">
        <ele>1164.3</ele>
        <time>2012-05-27T09:02:16Z</time>
      </trkpt>
      <trkpt lat="43.91025" lon="7.22906">
        <ele>1160.5</ele>
        <time>2012-05-27T09:02:18Z</time>
      </trkpt>
      <trkpt lat="43.9101" lon="7.2288">
        <ele>1153.9</ele>
        <time>2012-05-27T09:02:22Z</time>
      </trkpt>
      <trkpt lat="43.91001" lon="7.22872">
        <ele>1150.8</ele>
        <time>2012-05-27T09:02:24Z</time>
      </trkpt>
      <trkpt lat="43.90991" lon="7.22861">
        <ele>1146.5</ele>
        <time>2012-05-27T09:02:27Z</time>
      </trkpt>
      <trkpt lat="43.90978" lon="7.2285">
        <ele>1141.8</ele>
        <time>2012-05-27T09:02:31Z</time>
      </trkpt>
      <trkpt lat="43.90975" lon="7.2284">
        <ele>1140.7</ele>
        <time>2012-05-27T09:02:34Z</time>
      </trkpt>
      <trkpt lat="43.9097" lon="7.22817">
        <ele>1141.2</ele>
        <time>2012-05-27T09:02:45Z</time>
      </trkpt>
      <trkpt lat="43.90962" lon="7.22797">
        <ele>1141.6</ele>
        <time>2012-05-27T09:03:08Z</time>
      </trkpt>
      <trkpt lat="43.90955" lon="7.22775">
        <ele>1142.5</ele>
        <time>2012-05-27T09:03:34Z</time>
      </trkpt>
      <trkpt lat="43.90954" lon="7.22763">
        <ele>1144.4</ele>
        <time>2012-05-27T09:03:40Z</time>
      </trkpt>
      <trkpt lat="43.90949" lon="7.2274">
        <ele>1147</ele>
        <time>2012-05-27T09:04:06Z</time>
      </trkpt>
      <trkpt lat="43.90938" lon="7.2271">
        <ele>1148.6</ele>
        <time>2012-05-27T09:04:27Z</time>
      </trkpt>
      <trkpt lat="43.90936" lon="7.22698">
        <ele>1148.8</ele>
        <time>2012-05-27T09:04:37Z</time>
      </trkpt>
      <trkpt lat="43.9093" lon="7.22688">
        <ele>1147.9</ele>
        <time>2012-05-27T09:04:49Z</time>
      </trkpt>
      <trkpt lat="43.90918" lon="7.22673">
        <ele>1145.2</ele>
        <time>2012-05-27T09:05:01Z</time>
      </trkpt>
      <trkpt lat="43.90903" lon="7.22661">
        <ele>1141</ele>
        <time>2012-05-27T09:05:14Z</time>
      </trkpt>
      <trkpt lat="43.90895" lon="7.22655">
        <ele>1138.9</ele>
        <time>2012-05-27T09:05:19Z</time>
      </trkpt>
      <trkpt lat="43.90883" lon="7.22653">
        <ele>1133.9</ele>
        <time>2012-05-27T09:05:38Z</time>
      </trkpt>
      <trkpt lat="43.90868" lon="7.22641">
        <ele>1129.7</ele>
        <time>2012-05-27T09:05:51Z</time>
      </trkpt>
      <trkpt lat="43.90853" lon="7.22632">
        <ele>1124.9</ele>
        <time>2012-05-27T09:06:15Z</time>
      </trkpt>
      <trkpt lat="43.90843" lon="7.22628">
        <ele>1121.4</ele>
        <time>2012-05-27T09:06:20Z</time>
      </trkpt>
      <trkpt lat="43.90826" lon="7.22613">
        <ele>1116.7</ele>
        <time>2012-05-27T09:06:26Z</time>
      </trkpt>
      <trkpt lat="43.90819" lon="7.22606">
        <ele>1114.9</ele>
        <time>2012-05-27T09:06:28Z</time>
      </trkpt>
      <trkpt lat="43.9081" lon="7.22592">
        <ele>1113.6</ele>
        <time>2012-05-27T09:06:31Z</time>
      </trkpt>
      <trkpt lat="43.90801" lon="7.2258">
        <ele>1112.3</ele>
        <time>2012-05-27T09:06:34Z</time>
      </trkpt>
      <trkpt lat="43.90788" lon="7.22567">
        <ele>1109.9</ele>
        <time>2012-05-27T09:06:38Z</time>
      </trkpt>
      <trkpt lat="43.90773" lon="7.22554">
        <ele>1106.3</ele>
        <time>2012-05-27T09:06:43Z</time>
      </trkpt>
      <trkpt lat="43.9076" lon="7.22538">
        <ele>1102.7</ele>
        <time>2012-05-27T09:07:00Z</time>
      </trkpt>
      <trkpt lat="43.90745" lon="7.22526">
        <ele>1096.5</ele>
        <time>2012-05-27T09:07:23Z</time>
      </trkpt>
      <trkpt lat="43.90744" lon="7.22524">
        <ele>1096.3</ele>
        <time>2012-05-27T09:07:24Z</time>
      </trkpt>
      <trkpt lat="43.90725" lon="7.2251">
        <ele>1088.5</ele>
        <time>2012-05-27T09:07:39Z</time>
      </trkpt>
      <trkpt lat="43.90712" lon="7.22499">
        <ele>1082.3</ele>
        <time>2012-05-27T09:07:46Z</time>
      </trkpt>
      <trkpt lat="43.90698" lon="7.22493">
        <ele>1075.7</ele>
        <time>2012-05-27T09:07:54Z</time>
      </trkpt>
      <trkpt lat="43.90692" lon="7.22486">
        <ele>1072.9</ele>
        <time>2012-05-27T09:07:57Z</time>
      </trkpt>
      <trkpt lat="43.90679" lon="7.22471">
        <ele>1066.6</ele>
        <time>2012-05-27T09:08:25Z</time>
      </trkpt>
      <trkpt lat="43.90666" lon="7.22458">
        <ele>1060.8</ele>
        <time>2012-05-27T09:08:46Z</time>
      </trkpt>
      <trkpt lat="43.90653" lon="7.22447">
        <ele>1054.6</ele>
        <time>2012-05-27T09:09:01Z</time>
      </trkpt>
      <trkpt lat="43.90637" lon="7.2245">
        <ele>1046.3</ele>
        <time>2012-05-27T09:09:16Z</time>
      </trkpt>
      <trkpt lat="43.90628" lon="7.22447">
        <ele>1041.8</ele>
        <time>2012-05-27T09:09:27Z</time>
      </trkpt>
      <trkpt lat="43.90612" lon="7.22439">
        <ele>1033.9</ele>
        <time>2012-05-27T09:09:40Z</time>
      </trkpt>
      <trkpt lat="43.90605" lon="7.22432">
        <ele>1030.2</ele>
        <time>2012-05-27T09:09:47Z</time>
      </trkpt>
      <trkpt lat="43.90594" lon="7.22416">
        <ele>1024.5</ele>
        <time>2012-05-27T09:09:57Z</time>
      </trkpt>
      <trkpt lat="43.90585" lon="7.22416">
        <ele>1020.4</ele>
        <time>2012-05-27T09:10:04Z</time>
      </trkpt>
      <trkpt lat="43.90579" lon="7.22425">
        <ele>1018</ele>
        <time>2012-05-27T09:10:10Z</time>
      </trkpt>
      <trkpt lat="43.90564" lon="7.22419">
        <ele>1011</ele>
        <time>2012-05-27T09:10:22Z</time>
      </trkpt>
      <trkpt lat="43.90554" lon="7.22418">
        <ele>1006.6</ele>
        <time>2012-05-27T09:10:30Z</time>
      </trkpt>
      <trkpt lat="43.9054" lon="7.22412">
        <ele>999.5</ele>
        <time>2012-05-27T09:10:42Z</time>
      </trkpt>
      <trkpt lat="43.90532" lon="7.22413">
        <ele>997.3</ele>
        <time>2012-05-27T09:10:49Z</time>
      </trkpt>
      <trkpt lat="43.90517" lon="7.22404">
        <ele>992.7</ele>
        <time>2012-05-27T09:11:00Z</time>
      </trkpt>
      <trkpt lat="43.90504" lon="7.22395">
        <ele>988.4</ele>
        <time>2012-05-27T09:11:13Z</time>
      </trkpt>
      <trkpt lat="43.90496" lon="7.22377">
        <ele>985.2</ele>
        <time>2012-05-27T09:11:25Z</time>
      </trkpt>
      <trkpt lat="43.90487" lon="7.22379">
        <ele>983.4</ele>
        <time>2012-05-27T09:11:31Z</time>
      </trkpt>
      <trkpt lat="43.90478" lon="7.22382">
        <ele>981.5</ele>
        <time>2012-05-27T09:11:33Z</time>
      </trkpt>
      <trkpt lat="43.90467" lon="7.22381">
        <ele>979</ele>
        <time>2012-05-27T09:11:35Z</time>
      </trkpt>
      <trkpt lat="43.90456" lon="7.22375">
        <ele>976.3</ele>
        <time>2012-05-27T09:11:37Z</time>
      </trkpt>
      <trkpt lat="43.90447" lon="7.22367">
        <ele>973.8</ele>
        <time>2012-05-27T09:11:39Z</time>
      </trkpt>
      <trkpt lat="43.90437" lon="7.22362">
        <ele>971.6</ele>
        <time>2012-05-27T09:11:41Z</time>
      </trkpt>
      <trkpt lat="43.9042" lon="7.22359">
        <ele>969</ele>
        <time>2012-05-27T09:11:44Z</time>
      </trkpt>
      <trkpt lat="43.90404" lon="7.22355">
        <ele>966.7</ele>
        <time>2012-05-27T09:11:47Z</time>
      </trkpt>
      <trkpt lat="43.90393" lon="7.22348">
        <ele>964.6</ele>
        <time>2012-05-27T09:11:49Z</time>
      </trkpt>
      <trkpt lat="43.90382" lon="7.22344">
        <ele>962.7</ele>
        <time>2012-05-27T09:11:51Z</time>
      </trkpt>
      <trkpt lat="43.90367" lon="7.22342">
        <ele>960.6</ele>
        <time>2012-05-27T09:11:53Z</time>
      </trkpt>
      <trkpt lat="43.90351" lon="7.22346">
        <ele>958.9</ele>
        <time>2012-05-27T09:11:55Z</time>
      </trkpt>
      <trkpt lat="43.90334" lon="7.22348">
        <ele>957</ele>
        <time>2012-05-27T09:11:57Z</time>
      </trkpt>
      <trkpt lat="43.90325" lon="7.2235">
        <ele>956</ele>
        <time>2012-05-27T09:11:58Z</time>
      </trkpt>
      <trkpt lat="43.90316" lon="7.22353">
        <ele>955.2</ele>
        <time>2012-05-27T09:11:59Z</time>
      </trkpt>
      <trkpt lat="43.90308" lon="7.22358">
        <ele>954.5</ele>
        <time>2012-05-27T09:12:00Z</time>
      </trkpt>
      <trkpt lat="43.90293" lon="7.22369">
        <ele>953.7</ele>
        <time>2012-05-27T09:12:02Z</time>
      </trkpt>
      <trkpt lat="43.90277" lon="7.22378">
        <ele>954.9</ele>
        <time>2012-05-27T09:12:04Z</time>
      </trkpt>
      <trkpt lat="43.90262" lon="7.22386">
        <ele>957</ele>
        <time>2012-05-27T09:12:06Z</time>
      </trkpt>
      <trkpt lat="43.90255" lon="7.22392">
        <ele>958.2</ele>
        <time>2012-05-27T09:12:07Z</time>
      </trkpt>
      <trkpt lat="43.90244" lon="7.22403">
        <ele>960.5</ele>
        <time>2012-05-27T09:12:09Z</time>
      </trkpt>
      <trkpt lat="43.90234" lon="7.22415">
        <ele>962.8</ele>
        <time>2012-05-27T09:12:11Z</time>
      </trkpt>
      <trkpt lat="43.90226" lon="7.22429">
        <ele>965</ele>
        <time>2012-05-27T09:12:13Z</time>
      </trkpt>
      <trkpt lat="43.90222" lon="7.22436">
        <ele>966.1</ele>
        <time>2012-05-27T09:12:14Z</time>
      </trkpt>
      <trkpt lat="43.90214" lon="7.22448">
        <ele>968.1</ele>
        <time>2012-05-27T09:12:16Z</time>
      </trkpt>
      <trkpt lat="43.90204" lon="7.22459">
        <ele>970.4</ele>
        <time>2012-05-27T09:12:18Z</time>
      </trkpt>
      <trkpt lat="43.90201" lon="7.22467">
        <ele>971.8</ele>
        <time>2012-05-27T09:12:19Z</time>
      </trkpt>
      <trkpt lat="43.902" lon="7.22484">
        <ele>973.9</ele>
        <time>2012-05-27T09:12:21Z</time>
      </trkpt>
      <trkpt lat="43.90205" lon="7.22517">
        <ele>975.3</ele>
        <time>2012-05-27T09:12:25Z</time>
      </trkpt>
      <trkpt lat="43.90204" lon="7.22532">
        <ele>976</ele>
        <time>2012-05-27T09:12:27Z</time>
      </trkpt>
      <trkpt lat="43.902" lon="7.22543">
        <ele>977.4</ele>
        <time>2012-05-27T09:12:29Z</time>
      </trkpt>
      <trkpt lat="43.90191" lon="7.22548">
        <ele>980.6</ele>
        <time>2012-05-27T09:12:34Z</time>
      </trkpt>
      <trkpt lat="43.90177" lon="7.22537">
        <ele>985.1</ele>
        <time>2012-05-27T09:12:56Z</time>
      </trkpt>
      <trkpt lat="43.90168" lon="7.22539">
        <ele>987.9</ele>
        <time>2012-05-27T09:13:07Z</time>
      </trkpt>
      <trkpt lat="43.90159" lon="7.22556">
        <ele>991.2</ele>
        <time>2012-05-27T09:13:31Z</time>
      </trkpt>
      <trkpt lat="43.90149" lon="7.22556">
        <ele>994.2</ele>
        <time>2012-05-27T09:13:45Z</time>
      </trkpt>
      <trkpt lat="43.90133" lon="7.2256">
        <ele>999.4</ele>
        <time>2012-05-27T09:14:09Z</time>
      </trkpt>
      <trkpt lat="43.90115" lon="7.22556">
        <ele>1004.3</ele>
        <time>2012-05-27T09:14:33Z</time>
      </trkpt>
      <trkpt lat="43.90082" lon="7.22545">
        <ele>1013.4</ele>
        <time>2012-05-27T09:15:12Z</time>
      </trkpt>
      <trkpt lat="43.90074" lon="7.22545">
        <ele>1015.7</ele>
        <time>2012-05-27T09:15:23Z</time>
      </trkpt>
      <trkpt lat="43.90057" lon="7.22548">
        <ele>1020.2</ele>
        <time>2012-05-27T09:15:45Z</time>
      </trkpt>
      <trkpt lat="43.90049" lon="7.22554">
        <ele>1022.2</ele>
        <time>2012-05-27T09:15:54Z</time>
      </trkpt>
      <trkpt lat="43.90037" lon="7.2257">
        <ele>1024.5</ele>
        <time>2012-05-27T09:16:12Z</time>
      </trkpt>
      <trkpt lat="43.90024" lon="7.22582">
        <ele>1026.6</ele>
        <time>2012-05-27T09:16:28Z</time>
      </trkpt>
      <trkpt lat="43.90008" lon="7.2259">
        <ele>1029.5</ele>
        <time>2012-05-27T09:16:42Z</time>
      </trkpt>
      <trkpt lat="43.9" lon="7.22595">
        <ele>1031</ele>
        <time>2012-05-27T09:16:50Z</time>
      </trkpt>
      <trkpt lat="43.89993" lon="7.22605">
        <ele>1032.2</ele>
        <time>2012-05-27T09:17:00Z</time>
      </trkpt>
      <trkpt lat="43.89972" lon="7.22616">
        <ele>1036</ele>
        <time>2012-05-27T09:17:16Z</time>
      </trkpt>
      <trkpt lat="43.89955" lon="7.22622">
        <ele>1038.8</ele>
        <time>2012-05-27T09:17:24Z</time>
      </trkpt>
      <trkpt lat="43.89943" lon="7.22634">
        <ele>1037.9</ele>
        <time>2012-05-27T09:17:32Z</time>
      </trkpt>
      <trkpt lat="43.8993" lon="7.22651">
        <ele>1036.3</ele>
        <time>2012-05-27T09:17:43Z</time>
      </trkpt>
      <trkpt lat="43.89923" lon="7.22658">
        <ele>1035.8</ele>
        <time>2012-05-27T09:17:50Z</time>
      </trkpt>
      <trkpt lat="43.8991" lon="7.22674">
        <ele>1035</ele>
        <time>2012-05-27T09:18:03Z</time>
      </trkpt>
      <trkpt lat="43.89909" lon="7.22675">
        <ele>1034.9</ele>
        <time>2012-05-27T09:18:04Z</time>
      </trkpt>
      <trkpt lat="43.89889" lon="7.22692">
        <ele>1034.7</ele>
        <time>2012-05-27T09:18:21Z</time>
      </trkpt>
      <trkpt lat="43.89872" lon="7.22696">
        <ele>1035.2</ele>
        <time>2012-05-27T09:18:34Z</time>
      </trkpt>
      <trkpt lat="43.89857" lon="7.22687">
        <ele>1036.4</ele>
        <time>2012-05-27T09:18:48Z</time>
      </trkpt>
      <trkpt lat="43.89845" lon="7.22672">
        <ele>1036.6</ele>
        <time>2012-05-27T09:18:59Z</time>
      </trkpt>
      <trkpt lat="43.89844" lon="7.22658">
        <ele>1036.1</ele>
        <time>2012-05-27T09:19:06Z</time>
      </trkpt>
      <trkpt lat="43.89855" lon="7.22645">
        <ele>1035.6</ele>
        <time>2012-05-27T09:19:13Z</time>
      </trkpt>
      <trkpt lat="43.8986" lon="7.22636">
        <ele>1035.4</ele>
        <time>2012-05-27T09:19:16Z</time>
      </trkpt>
      <trkpt lat="43.89868" lon="7.22615">
        <ele>1035.3</ele>
        <time>2012-05-27T09:19:22Z</time>
      </trkpt>
      <trkpt lat="43.89874" lon="7.22576">
        <ele>1034.7</ele>
        <time>2012-05-27T09:19:34Z</time>
      </trkpt>
      <trkpt lat="43.89875" lon="7.22566">
        <ele>1034.6</ele>
        <time>2012-05-27T09:19:37Z</time>
      </trkpt>
      <trkpt lat="43.8988" lon="7.22527">
        <ele>1035.3</ele>
        <time>2012-05-27T09:19:49Z</time>
      </trkpt>
      <trkpt lat="43.89883" lon="7.22505">
        <ele>1037.4</ele>
        <time>2012-05-27T09:19:57Z</time>
      </trkpt>
      <trkpt lat="43.89879" lon="7.22483">
        <ele>1039</ele>
        <time>2012-05-27T09:20:05Z</time>
      </trkpt>
      <trkpt lat="43.89876" lon="7.22471">
        <ele>1039.7</ele>
        <time>2012-05-27T09:20:10Z</time>
      </trkpt>
      <trkpt lat="43.89872" lon="7.22416">
        <ele>1041.8</ele>
        <time>2012-05-27T09:20:31Z</time>
      </trkpt>
      <trkpt lat="43.89871" lon="7.22405">
        <ele>1042</ele>
        <time>2012-05-27T09:20:35Z</time>
      </trkpt>
      <trkpt lat="43.89859" lon="7.22366">
        <ele>1040.1</ele>
        <time>2012-05-27T09:20:48Z</time>
      </trkpt>
      <trkpt lat="43.89854" lon="7.22349">
        <ele>1038.6</ele>
        <time>2012-05-27T09:20:53Z</time>
      </trkpt>
      <trkpt lat="43.89847" lon="7.22332">
        <ele>1036.8</ele>
        <time>2012-05-27T09:20:57Z</time>
      </trkpt>
      <trkpt lat="43.89839" lon="7.22313">
        <ele>1035</ele>
        <time>2012-05-27T09:21:01Z</time>
      </trkpt>
      <trkpt lat="43.89837" lon="7.22302">
        <ele>1034.6</ele>
        <time>2012-05-27T09:21:03Z</time>
      </trkpt>
      <trkpt lat="43.89831" lon="7.22286">
        <ele>1034.1</ele>
        <time>2012-05-27T09:21:06Z</time>
      </trkpt>
      <trkpt lat="43.89825" lon="7.22268">
        <ele>1034.3</ele>
        <time>2012-05-27T09:21:09Z</time>
      </trkpt>
      <trkpt lat="43.8982" lon="7.22235">
        <ele>1036.2</ele>
        <time>2012-05-27T09:21:15Z</time>
      </trkpt>
      <trkpt lat="43.89819" lon="7.22223">
        <ele>1037.2</ele>
        <time>2012-05-27T09:21:17Z</time>
      </trkpt>
      <trkpt lat="43.89813" lon="7.22201">
        <ele>1039</ele>
        <time>2012-05-27T09:21:21Z</time>
      </trkpt>
      <trkpt lat="43.89799" lon="7.22162">
        <ele>1042.4</ele>
        <time>2012-05-27T09:21:29Z</time>
      </trkpt>
      <trkpt lat="43.89789" lon="7.22144">
        <ele>1043.8</ele>
        <time>2012-05-27T09:21:33Z</time>
      </trkpt>
      <trkpt lat="43.89783" lon="7.22125">
        <ele>1043</ele>
        <time>2012-05-27T09:21:37Z</time>
      </trkpt>
      <trkpt lat="43.8978" lon="7.22106">
        <ele>1042</ele>
        <time>2012-05-27T09:21:41Z</time>
      </trkpt>
      <trkpt lat="43.89775" lon="7.22084">
        <ele>1040.8</ele>
        <time>2012-05-27T09:21:45Z</time>
      </trkpt>
      <trkpt lat="43.89772" lon="7.22073">
        <ele>1040</ele>
        <time>2012-05-27T09:21:47Z</time>
      </trkpt>
      <trkpt lat="43.89768" lon="7.22053">
        <ele>1039.1</ele>
        <time>2012-05-27T09:21:51Z</time>
      </trkpt>
      <trkpt lat="43.89766" lon="7.22033">
        <ele>1038.6</ele>
        <time>2012-05-27T09:21:55Z</time>
      </trkpt>
      <trkpt lat="43.89759" lon="7.22017">
        <ele>1036.9</ele>
        <time>2012-05-27T09:21:59Z</time>
      </trkpt>
      <trkpt lat="43.89752" lon="7.22002">
        <ele>1034.5</ele>
        <time>2012-05-27T09:22:03Z</time>
      </trkpt>
      <trkpt lat="43.89747" lon="7.21986">
        <ele>1032.7</ele>
        <time>2012-05-27T09:22:07Z</time>
      </trkpt>
      <trkpt lat="43.8974" lon="7.21972">
        <ele>1030.5</ele>
        <time>2012-05-27T09:22:11Z</time>
      </trkpt>
      <trkpt lat="43.89735" lon="7.2196">
        <ele>1029.3</ele>
        <time>2012-05-27T09:22:14Z</time>
      </trkpt>
      <trkpt lat="43.89733" lon="7.21946">
        <ele>1028.9</ele>
        <time>2012-05-27T09:22:17Z</time>
      </trkpt>
      <trkpt lat="43.89723" lon="7.21911">
        <ele>1029.4</ele>
        <time>2012-05-27T09:22:25Z</time>
      </trkpt>
      <trkpt lat="43.89718" lon="7.21902">
        <ele>1029.5</ele>
        <time>2012-05-27T09:22:28Z</time>
      </trkpt>
      <trkpt lat="43.89709" lon="7.21888">
        <ele>1028.9</ele>
        <time>2012-05-27T09:22:32Z</time>
      </trkpt>
      <trkpt lat="43.89703" lon="7.21871">
        <ele>1029.7</ele>
        <time>2012-05-27T09:22:36Z</time>
      </trkpt>
      <trkpt lat="43.89701" lon="7.2185">
        <ele>1032.9</ele>
        <time>2012-05-27T09:22:41Z</time>
      </trkpt>
      <trkpt lat="43.89698" lon="7.21841">
        <ele>1034.1</ele>
        <time>2012-05-27T09:22:43Z</time>
      </trkpt>
      <trkpt lat="43.89687" lon="7.21828">
        <ele>1034.9</ele>
        <time>2012-05-27T09:22:48Z</time>
      </trkpt>
      <trkpt lat="43.8968" lon="7.21813">
        <ele>1036</ele>
        <time>2012-05-27T09:22:52Z</time>
      </trkpt>
      <trkpt lat="43.89678" lon="7.21795">
        <ele>1038.6</ele>
        <time>2012-05-27T09:22:55Z</time>
      </trkpt>
      <trkpt lat="43.89673" lon="7.21773">
        <ele>1041.2</ele>
        <time>2012-05-27T09:23:12Z</time>
      </trkpt>
      <trkpt lat="43.89664" lon="7.21763">
        <ele>1040.1</ele>
        <time>2012-05-27T09:23:21Z</time>
      </trkpt>
      <trkpt lat="43.89649" lon="7.21763">
        <ele>1037</ele>
        <time>2012-05-27T09:23:41Z</time>
      </trkpt>
      <trkpt lat="43.89641" lon="7.2176">
        <ele>1035.7</ele>
        <time>2012-05-27T09:23:45Z</time>
      </trkpt>
      <trkpt lat="43.89626" lon="7.21751">
        <ele>1032.7</ele>
        <time>2012-05-27T09:24:01Z</time>
      </trkpt>
      <trkpt lat="43.8961" lon="7.21741">
        <ele>1032.9</ele>
        <time>2012-05-27T09:24:08Z</time>
      </trkpt>
      <trkpt lat="43.89603" lon="7.21737">
        <ele>1033.3</ele>
        <time>2012-05-27T09:24:11Z</time>
      </trkpt>
      <trkpt lat="43.89597" lon="7.2172">
        <ele>1034.3</ele>
        <time>2012-05-27T09:24:17Z</time>
      </trkpt>
      <trkpt lat="43.89584" lon="7.21706">
        <ele>1035.2</ele>
        <time>2012-05-27T09:24:23Z</time>
      </trkpt>
      <trkpt lat="43.89576" lon="7.21688">
        <ele>1033</ele>
        <time>2012-05-27T09:24:33Z</time>
      </trkpt>
      <trkpt lat="43.89573" lon="7.21677">
        <ele>1031.6</ele>
        <time>2012-05-27T09:24:40Z</time>
      </trkpt>
      <trkpt lat="43.89568" lon="7.21644">
        <ele>1027.7</ele>
        <time>2012-05-27T09:24:51Z</time>
      </trkpt>
      <trkpt lat="43.89564" lon="7.21623">
        <ele>1025</ele>
        <time>2012-05-27T09:25:01Z</time>
      </trkpt>
      <trkpt lat="43.89555" lon="7.21605">
        <ele>1022.1</ele>
        <time>2012-05-27T09:25:07Z</time>
      </trkpt>
      <trkpt lat="43.89547" lon="7.21586">
        <ele>1019.4</ele>
        <time>2012-05-27T09:25:13Z</time>
      </trkpt>
      <trkpt lat="43.89543" lon="7.21575">
        <ele>1017.5</ele>
        <time>2012-05-27T09:25:16Z</time>
      </trkpt>
      <trkpt lat="43.89536" lon="7.21539">
        <ele>1013.9</ele>
        <time>2012-05-27T09:25:26Z</time>
      </trkpt>
      <trkpt lat="43.89532" lon="7.21522">
        <ele>1012.8</ele>
        <time>2012-05-27T09:25:29Z</time>
      </trkpt>
      <trkpt lat="43.89531" lon="7.21484">
        <ele>1008.3</ele>
        <time>2012-05-27T09:25:37Z</time>
      </trkpt>
      <trkpt lat="43.89529" lon="7.21472">
        <ele>1007.4</ele>
        <time>2012-05-27T09:25:40Z</time>
      </trkpt>
      <trkpt lat="43.89529" lon="7.21451">
        <ele>1005</ele>
        <time>2012-05-27T09:25:46Z</time>
      </trkpt>
      <trkpt lat="43.89526" lon="7.21433">
        <ele>1004.5</ele>
        <time>2012-05-27T09:25:50Z</time>
      </trkpt>
      <trkpt lat="43.89523" lon="7.21412">
        <ele>1003.8</ele>
        <time>2012-05-27T09:25:57Z</time>
      </trkpt>
      <trkpt lat="43.89513" lon="7.21393">
        <ele>1008</ele>
        <time>2012-05-27T09:26:08Z</time>
      </trkpt>
      <trkpt lat="43.89512" lon="7.21356">
        <ele>1003.1</ele>
        <time>2012-05-27T09:26:19Z</time>
      </trkpt>
      <trkpt lat="43.89511" lon="7.21346">
        <ele>1000.6</ele>
        <time>2012-05-27T09:26:21Z</time>
      </trkpt>
      <trkpt lat="43.8951" lon="7.21327">
        <ele>995.4</ele>
        <time>2012-05-27T09:26:26Z</time>
      </trkpt>
      <trkpt lat="43.89512" lon="7.21309">
        <ele>989.5</ele>
        <time>2012-05-27T09:26:30Z</time>
      </trkpt>
      <trkpt lat="43.89512" lon="7.21285">
        <ele>979.9</ele>
        <time>2012-05-27T09:26:43Z</time>
      </trkpt>
      <trkpt lat="43.89509" lon="7.21262">
        <ele>972.3</ele>
        <time>2012-05-27T09:26:56Z</time>
      </trkpt>
      <trkpt lat="43.89506" lon="7.21242">
        <ele>965.1</ele>
        <time>2012-05-27T09:27:06Z</time>
      </trkpt>
      <trkpt lat="43.89491" lon="7.21215">
        <ele>958.7</ele>
        <time>2012-05-27T09:27:26Z</time>
      </trkpt>
      <trkpt lat="43.89484" lon="7.21205">
        <ele>956.3</ele>
        <time>2012-05-27T09:27:32Z</time>
      </trkpt>
      <trkpt lat="43.89475" lon="7.21189">
        <ele>953.5</ele>
        <time>2012-05-27T09:27:41Z</time>
      </trkpt>
      <trkpt lat="43.89462" lon="7.21177">
        <ele>953</ele>
        <time>2012-05-27T09:27:54Z</time>
      </trkpt>
      <trkpt lat="43.89447" lon="7.21167">
        <ele>952.8</ele>
        <time>2012-05-27T09:28:05Z</time>
      </trkpt>
      <trkpt lat="43.8944" lon="7.21164">
        <ele>953.2</ele>
        <time>2012-05-27T09:28:09Z</time>
      </trkpt>
      <trkpt lat="43.89427" lon="7.21153">
        <ele>952.7</ele>
        <time>2012-05-27T09:28:14Z</time>
      </trkpt>
      <trkpt lat="43.89416" lon="7.21139">
        <ele>950.3</ele>
        <time>2012-05-27T09:28:18Z</time>
      </trkpt>
      <trkpt lat="43.8941" lon="7.21133">
        <ele>948.7</ele>
        <time>2012-05-27T09:28:21Z</time>
      </trkpt>
      <trkpt lat="43.89397" lon="7.2112">
        <ele>946</ele>
        <time>2012-05-27T09:28:28Z</time>
      </trkpt>
      <trkpt lat="43.89373" lon="7.21097">
        <ele>943.4</ele>
        <time>2012-05-27T09:28:37Z</time>
      </trkpt>
      <trkpt lat="43.89366" lon="7.21092">
        <ele>942.5</ele>
        <time>2012-05-27T09:28:39Z</time>
      </trkpt>
      <trkpt lat="43.89353" lon="7.21083">
        <ele>940.4</ele>
        <time>2012-05-27T09:28:46Z</time>
      </trkpt>
      <trkpt lat="43.89339" lon="7.21075">
        <ele>939.1</ele>
        <time>2012-05-27T09:28:51Z</time>
      </trkpt>
      <trkpt lat="43.89327" lon="7.21065">
        <ele>937</ele>
        <time>2012-05-27T09:28:56Z</time>
      </trkpt>
      <trkpt lat="43.8932" lon="7.21061">
        <ele>936.2</ele>
        <time>2012-05-27T09:28:58Z</time>
      </trkpt>
      <trkpt lat="43.89311" lon="7.21053">
        <ele>934.5</ele>
        <time>2012-05-27T09:29:01Z</time>
      </trkpt>
      <trkpt lat="43.89302" lon="7.21045">
        <ele>932.5</ele>
        <time>2012-05-27T09:29:03Z</time>
      </trkpt>
      <trkpt lat="43.89296" lon="7.21041">
        <ele>931.6</ele>
        <time>2012-05-27T09:29:04Z</time>
      </trkpt>
      <trkpt lat="43.89283" lon="7.21035">
        <ele>930.3</ele>
        <time>2012-05-27T09:29:06Z</time>
      </trkpt>
      <trkpt lat="43.89269" lon="7.2103">
        <ele>928.6</ele>
        <time>2012-05-27T09:29:13Z</time>
      </trkpt>
      <trkpt lat="43.89256" lon="7.21022">
        <ele>927.6</ele>
        <time>2012-05-27T09:29:18Z</time>
      </trkpt>
      <trkpt lat="43.89241" lon="7.21016">
        <ele>926.4</ele>
        <time>2012-05-27T09:29:22Z</time>
      </trkpt>
      <trkpt lat="43.89228" lon="7.21002">
        <ele>923.5</ele>
        <time>2012-05-27T09:29:29Z</time>
      </trkpt>
      <trkpt lat="43.89216" lon="7.20991">
        <ele>921.6</ele>
        <time>2012-05-27T09:29:33Z</time>
      </trkpt>
      <trkpt lat="43.89209" lon="7.20981">
        <ele>919.5</ele>
        <time>2012-05-27T09:29:37Z</time>
      </trkpt>
      <trkpt lat="43.892" lon="7.20971">
        <ele>917.3</ele>
        <time>2012-05-27T09:29:40Z</time>
      </trkpt>
      <trkpt lat="43.89186" lon="7.20963">
        <ele>915.3</ele>
        <time>2012-05-27T09:29:43Z</time>
      </trkpt>
      <trkpt lat="43.89174" lon="7.20957">
        <ele>914.2</ele>
        <time>2012-05-27T09:29:45Z</time>
      </trkpt>
      <trkpt lat="43.89168" lon="7.20956">
        <ele>914</ele>
        <time>2012-05-27T09:29:46Z</time>
      </trkpt>
      <trkpt lat="43.89154" lon="7.20955">
        <ele>913.9</ele>
        <time>2012-05-27T09:29:48Z</time>
      </trkpt>
      <trkpt lat="43.89142" lon="7.2095">
        <ele>913.7</ele>
        <time>2012-05-27T09:29:50Z</time>
      </trkpt>
      <trkpt lat="43.89131" lon="7.20947">
        <ele>913.8</ele>
        <time>2012-05-27T09:29:52Z</time>
      </trkpt>
      <trkpt lat="43.8912" lon="7.20946">
        <ele>913.9</ele>
        <time>2012-05-27T09:29:54Z</time>
      </trkpt>
      <trkpt lat="43.89113" lon="7.20944">
        <ele>913.6</ele>
        <time>2012-05-27T09:29:56Z</time>
      </trkpt>
      <trkpt lat="43.89098" lon="7.20933">
        <ele>912.5</ele>
        <time>2012-05-27T09:30:01Z</time>
      </trkpt>
      <trkpt lat="43.8909" lon="7.20926">
        <ele>911.8</ele>
        <time>2012-05-27T09:30:03Z</time>
      </trkpt>
      <trkpt lat="43.8908" lon="7.20918">
        <ele>911.1</ele>
        <time>2012-05-27T09:30:05Z</time>
      </trkpt>
      <trkpt lat="43.8907" lon="7.20905">
        <ele>910.1</ele>
        <time>2012-05-27T09:30:08Z</time>
      </trkpt>
      <trkpt lat="43.89058" lon="7.2089">
        <ele>909.1</ele>
        <time>2012-05-27T09:30:12Z</time>
      </trkpt>
      <trkpt lat="43.89053" lon="7.20881">
        <ele>908.6</ele>
        <time>2012-05-27T09:30:14Z</time>
      </trkpt>
      <trkpt lat="43.89047" lon="7.2086">
        <ele>906.5</ele>
        <time>2012-05-27T09:30:18Z</time>
      </trkpt>
      <trkpt lat="43.89042" lon="7.20839">
        <ele>903.2</ele>
        <time>2012-05-27T09:30:23Z</time>
      </trkpt>
      <trkpt lat="43.89034" lon="7.20823">
        <ele>900.3</ele>
        <time>2012-05-27T09:30:27Z</time>
      </trkpt>
      <trkpt lat="43.89027" lon="7.20807">
        <ele>897.6</ele>
        <time>2012-05-27T09:30:31Z</time>
      </trkpt>
      <trkpt lat="43.89021" lon="7.20801">
        <ele>896.4</ele>
        <time>2012-05-27T09:30:33Z</time>
      </trkpt>
      <trkpt lat="43.89007" lon="7.20792">
        <ele>894.1</ele>
        <time>2012-05-27T09:30:38Z</time>
      </trkpt>
      <trkpt lat="43.8899" lon="7.20785">
        <ele>891.2</ele>
        <time>2012-05-27T09:30:44Z</time>
      </trkpt>
      <trkpt lat="43.88975" lon="7.20778">
        <ele>887.8</ele>
        <time>2012-05-27T09:30:50Z</time>
      </trkpt>
      <trkpt lat="43.8896" lon="7.2077">
        <ele>884.2</ele>
        <time>2012-05-27T09:30:57Z</time>
      </trkpt>
      <trkpt lat="43.8895" lon="7.20758">
        <ele>879.5</ele>
        <time>2012-05-27T09:31:02Z</time>
      </trkpt>
      <trkpt lat="43.88938" lon="7.20746">
        <ele>873.5</ele>
        <time>2012-05-27T09:31:07Z</time>
      </trkpt>
      <trkpt lat="43.88923" lon="7.20735">
        <ele>868.8</ele>
        <time>2012-05-27T09:31:24Z</time>
      </trkpt>
      <trkpt lat="43.88913" lon="7.20719">
        <ele>865.4</ele>
        <time>2012-05-27T09:31:36Z</time>
      </trkpt>
      <trkpt lat="43.88903" lon="7.2071">
        <ele>864.5</ele>
        <time>2012-05-27T09:31:40Z</time>
      </trkpt>
      <trkpt lat="43.88873" lon="7.20689">
        <ele>866.1</ele>
        <time>2012-05-27T09:31:54Z</time>
      </trkpt>
      <trkpt lat="43.88858" lon="7.20685">
        <ele>864.1</ele>
        <time>2012-05-27T09:31:58Z</time>
      </trkpt>
      <trkpt lat="43.88846" lon="7.20672">
        <ele>862.1</ele>
        <time>2012-05-27T09:32:02Z</time>
      </trkpt>
      <trkpt lat="43.88848" lon="7.20661">
        <ele>862.7</ele>
        <time>2012-05-27T09:32:04Z</time>
      </trkpt>
      <trkpt lat="43.88847" lon="7.20642">
        <ele>864.1</ele>
        <time>2012-05-27T09:32:07Z</time>
      </trkpt>
      <trkpt lat="43.88846" lon="7.2062">
        <ele>865.2</ele>
        <time>2012-05-27T09:32:10Z</time>
      </trkpt>
      <trkpt lat="43.88848" lon="7.20605">
        <ele>863.9</ele>
        <time>2012-05-27T09:32:12Z</time>
      </trkpt>
      <trkpt lat="43.88852" lon="7.20589">
        <ele>861.6</ele>
        <time>2012-05-27T09:32:14Z</time>
      </trkpt>
      <trkpt lat="43.88857" lon="7.20571">
        <ele>858.1</ele>
        <time>2012-05-27T09:32:17Z</time>
      </trkpt>
      <trkpt lat="43.88861" lon="7.2055">
        <ele>853.6</ele>
        <time>2012-05-27T09:32:25Z</time>
      </trkpt>
      <trkpt lat="43.88858" lon="7.20532">
        <ele>850</ele>
        <time>2012-05-27T09:32:29Z</time>
      </trkpt>
      <trkpt lat="43.88848" lon="7.20517">
        <ele>846.8</ele>
        <time>2012-05-27T09:32:33Z</time>
      </trkpt>
      <trkpt lat="43.88836" lon="7.20505">
        <ele>844.9</ele>
        <time>2012-05-27T09:32:37Z</time>
      </trkpt>
      <trkpt lat="43.88828" lon="7.20498">
        <ele>844.3</ele>
        <time>2012-05-27T09:32:39Z</time>
      </trkpt>
      <trkpt lat="43.8882" lon="7.20492">
        <ele>843.9</ele>
        <time>2012-05-27T09:32:41Z</time>
      </trkpt>
      <trkpt lat="43.88806" lon="7.20479">
        <ele>843.8</ele>
        <time>2012-05-27T09:32:45Z</time>
      </trkpt>
      <trkpt lat="43.88794" lon="7.20471">
        <ele>844.4</ele>
        <time>2012-05-27T09:32:48Z</time>
      </trkpt>
      <trkpt lat="43.8878" lon="7.20464">
        <ele>844.4</ele>
        <time>2012-05-27T09:32:51Z</time>
      </trkpt>
      <trkpt lat="43.88768" lon="7.2046">
        <ele>844.1</ele>
        <time>2012-05-27T09:32:53Z</time>
      </trkpt>
      <trkpt lat="43.88761" lon="7.20456">
        <ele>844.3</ele>
        <time>2012-05-27T09:32:54Z</time>
      </trkpt>
      <trkpt lat="43.88749" lon="7.20451">
        <ele>845.1</ele>
        <time>2012-05-27T09:32:56Z</time>
      </trkpt>
      <trkpt lat="43.88739" lon="7.20449">
        <ele>845.9</ele>
        <time>2012-05-27T09:32:58Z</time>
      </trkpt>
      <trkpt lat="43.88728" lon="7.2045">
        <ele>846.2</ele>
        <time>2012-05-27T09:33:00Z</time>
      </trkpt>
      <trkpt lat="43.88717" lon="7.20453">
        <ele>845.9</ele>
        <time>2012-05-27T09:33:02Z</time>
      </trkpt>
      <trkpt lat="43.88707" lon="7.20453">
        <ele>845.7</ele>
        <time>2012-05-27T09:33:04Z</time>
      </trkpt>
      <trkpt lat="43.8869" lon="7.20455">
        <ele>844.8</ele>
        <time>2012-05-27T09:33:08Z</time>
      </trkpt>
      <trkpt lat="43.88673" lon="7.20459">
        <ele>843.2</ele>
        <time>2012-05-27T09:33:12Z</time>
      </trkpt>
      <trkpt lat="43.88665" lon="7.2046">
        <ele>842.4</ele>
        <time>2012-05-27T09:33:14Z</time>
      </trkpt>
      <trkpt lat="43.88635" lon="7.20467">
        <ele>838.7</ele>
        <time>2012-05-27T09:33:21Z</time>
      </trkpt>
      <trkpt lat="43.88618" lon="7.20468">
        <ele>837.2</ele>
        <time>2012-05-27T09:33:24Z</time>
      </trkpt>
      <trkpt lat="43.88604" lon="7.20467">
        <ele>837.3</ele>
        <time>2012-05-27T09:33:30Z</time>
      </trkpt>
      <trkpt lat="43.88596" lon="7.20466">
        <ele>837.8</ele>
        <time>2012-05-27T09:33:39Z</time>
      </trkpt>
      <trkpt lat="43.88585" lon="7.20466">
        <ele>838.1</ele>
        <time>2012-05-27T09:33:48Z</time>
      </trkpt>
      <trkpt lat="43.8857" lon="7.20465">
        <ele>839</ele>
        <time>2012-05-27T09:33:54Z</time>
      </trkpt>
      <trkpt lat="43.88561" lon="7.20465">
        <ele>838.9</ele>
        <time>2012-05-27T09:33:57Z</time>
      </trkpt>
      <trkpt lat="43.8854" lon="7.20471">
        <ele>837.1</ele>
        <time>2012-05-27T09:34:02Z</time>
      </trkpt>
      <trkpt lat="43.8853" lon="7.20472">
        <ele>837.6</ele>
        <time>2012-05-27T09:34:04Z</time>
      </trkpt>
      <trkpt lat="43.88521" lon="7.20476">
        <ele>838.3</ele>
        <time>2012-05-27T09:34:06Z</time>
      </trkpt>
      <trkpt lat="43.8851" lon="7.20476">
        <ele>839.8</ele>
        <time>2012-05-27T09:34:08Z</time>
      </trkpt>
      <trkpt lat="43.88504" lon="7.20475">
        <ele>841.1</ele>
        <time>2012-05-27T09:34:09Z</time>
      </trkpt>
      <trkpt lat="43.88492" lon="7.20468">
        <ele>845.8</ele>
        <time>2012-05-27T09:34:12Z</time>
      </trkpt>
      <trkpt lat="43.88473" lon="7.20474">
        <ele>849</ele>
        <time>2012-05-27T09:34:18Z</time>
      </trkpt>
      <trkpt lat="43.88461" lon="7.20488">
        <ele>847.9</ele>
        <time>2012-05-27T09:34:22Z</time>
      </trkpt>
      <trkpt lat="43.88455" lon="7.20495">
        <ele>846.6</ele>
        <time>2012-05-27T09:34:24Z</time>
      </trkpt>
      <trkpt lat="43.88445" lon="7.2051">
        <ele>843.7</ele>
        <time>2012-05-27T09:34:28Z</time>
      </trkpt>
      <trkpt lat="43.88439" lon="7.20517">
        <ele>842.5</ele>
        <time>2012-05-27T09:34:30Z</time>
      </trkpt>
      <trkpt lat="43.88427" lon="7.20529">
        <ele>841</ele>
        <time>2012-05-27T09:34:34Z</time>
      </trkpt>
      <trkpt lat="43.88415" lon="7.20539">
        <ele>840.6</ele>
        <time>2012-05-27T09:34:39Z</time>
      </trkpt>
      <trkpt lat="43.88401" lon="7.20549">
        <ele>840.7</ele>
        <time>2012-05-27T09:34:46Z</time>
      </trkpt>
      <trkpt lat="43.88392" lon="7.20555">
        <ele>840.9</ele>
        <time>2012-05-27T09:34:50Z</time>
      </trkpt>
      <trkpt lat="43.88376" lon="7.20567">
        <ele>840.9</ele>
        <time>2012-05-27T09:34:58Z</time>
      </trkpt>
      <trkpt lat="43.88368" lon="7.20572">
        <ele>839.3</ele>
        <time>2012-05-27T09:35:01Z</time>
      </trkpt>
      <trkpt lat="43.88354" lon="7.2058">
        <ele>835.5</ele>
        <time>2012-05-27T09:35:06Z</time>
      </trkpt>
      <trkpt lat="43.88346" lon="7.20584">
        <ele>833.4</ele>
        <time>2012-05-27T09:35:09Z</time>
      </trkpt>
      <trkpt lat="43.88333" lon="7.20587">
        <ele>831.3</ele>
        <time>2012-05-27T09:35:13Z</time>
      </trkpt>
      <trkpt lat="43.88325" lon="7.2059">
        <ele>830</ele>
        <time>2012-05-27T09:35:16Z</time>
      </trkpt>
      <trkpt lat="43.8831" lon="7.20592">
        <ele>828.1</ele>
        <time>2012-05-27T09:35:23Z</time>
      </trkpt>
      <trkpt lat="43.88294" lon="7.20597">
        <ele>826.5</ele>
        <time>2012-05-27T09:35:30Z</time>
      </trkpt>
      <trkpt lat="43.8828" lon="7.20603">
        <ele>824.2</ele>
        <time>2012-05-27T09:35:34Z</time>
      </trkpt>
      <trkpt lat="43.8826" lon="7.20615">
        <ele>820.2</ele>
        <time>2012-05-27T09:35:38Z</time>
      </trkpt>
      <trkpt lat="43.88243" lon="7.20619">
        <ele>817.3</ele>
        <time>2012-05-27T09:35:41Z</time>
      </trkpt>
      <trkpt lat="43.88238" lon="7.20621">
        <ele>816.4</ele>
        <time>2012-05-27T09:35:42Z</time>
      </trkpt>
      <trkpt lat="43.88221" lon="7.2063">
        <ele>813.7</ele>
        <time>2012-05-27T09:35:45Z</time>
      </trkpt>
      <trkpt lat="43.88209" lon="7.20649">
        <ele>811</ele>
        <time>2012-05-27T09:35:51Z</time>
      </trkpt>
      <trkpt lat="43.88196" lon="7.20644">
        <ele>810.5</ele>
        <time>2012-05-27T09:35:56Z</time>
      </trkpt>
      <trkpt lat="43.88189" lon="7.20645">
        <ele>810.3</ele>
        <time>2012-05-27T09:35:58Z</time>
      </trkpt>
      <trkpt lat="43.88177" lon="7.20649">
        <ele>810</ele>
        <time>2012-05-27T09:36:02Z</time>
      </trkpt>
      <trkpt lat="43.8816" lon="7.20647">
        <ele>809.6</ele>
        <time>2012-05-27T09:36:06Z</time>
      </trkpt>
      <trkpt lat="43.88155" lon="7.20647">
        <ele>809.5</ele>
        <time>2012-05-27T09:36:07Z</time>
      </trkpt>
      <trkpt lat="43.88141" lon="7.20648">
        <ele>809.1</ele>
        <time>2012-05-27T09:36:11Z</time>
      </trkpt>
      <trkpt lat="43.88124" lon="7.20643">
        <ele>808.5</ele>
        <time>2012-05-27T09:36:15Z</time>
      </trkpt>
      <trkpt lat="43.88111" lon="7.2064">
        <ele>808.1</ele>
        <time>2012-05-27T09:36:18Z</time>
      </trkpt>
      <trkpt lat="43.88094" lon="7.20635">
        <ele>807.5</ele>
        <time>2012-05-27T09:36:22Z</time>
      </trkpt>
      <trkpt lat="43.88078" lon="7.20633">
        <ele>806.9</ele>
        <time>2012-05-27T09:36:26Z</time>
      </trkpt>
      <trkpt lat="43.88062" lon="7.20631">
        <ele>806.5</ele>
        <time>2012-05-27T09:36:30Z</time>
      </trkpt>
      <trkpt lat="43.88033" lon="7.20633">
        <ele>806</ele>
        <time>2012-05-27T09:36:38Z</time>
      </trkpt>
      <trkpt lat="43.88025" lon="7.20632">
        <ele>805.5</ele>
        <time>2012-05-27T09:36:40Z</time>
      </trkpt>
      <trkpt lat="43.88009" lon="7.20629">
        <ele>804</ele>
        <time>2012-05-27T09:36:44Z</time>
      </trkpt>
      <trkpt lat="43.87994" lon="7.20621">
        <ele>801.9</ele>
        <time>2012-05-27T09:36:48Z</time>
      </trkpt>
      <trkpt lat="43.87985" lon="7.20618">
        <ele>800.5</ele>
        <time>2012-05-27T09:36:50Z</time>
      </trkpt>
      <trkpt lat="43.8797" lon="7.2062">
        <ele>799.6</ele>
        <time>2012-05-27T09:36:53Z</time>
      </trkpt>
      <trkpt lat="43.87956" lon="7.2062">
        <ele>798.6</ele>
        <time>2012-05-27T09:36:56Z</time>
      </trkpt>
      <trkpt lat="43.87942" lon="7.20621">
        <ele>795.5</ele>
        <time>2012-05-27T09:36:59Z</time>
      </trkpt>
      <trkpt lat="43.87932" lon="7.20623">
        <ele>793.2</ele>
        <time>2012-05-27T09:37:01Z</time>
      </trkpt>
      <trkpt lat="43.87922" lon="7.20625">
        <ele>790.8</ele>
        <time>2012-05-27T09:37:03Z</time>
      </trkpt>
      <trkpt lat="43.87906" lon="7.20631">
        <ele>787</ele>
        <time>2012-05-27T09:37:07Z</time>
      </trkpt>
      <trkpt lat="43.87894" lon="7.20639">
        <ele>785</ele>
        <time>2012-05-27T09:37:10Z</time>
      </trkpt>
      <trkpt lat="43.87882" lon="7.20653">
        <ele>783.9</ele>
        <time>2012-05-27T09:37:13Z</time>
      </trkpt>
      <trkpt lat="43.87874" lon="7.20663">
        <ele>783.5</ele>
        <time>2012-05-27T09:37:15Z</time>
      </trkpt>
      <trkpt lat="43.87869" lon="7.20681">
        <ele>784</ele>
        <time>2012-05-27T09:37:18Z</time>
      </trkpt>
      <trkpt lat="43.87865" lon="7.20692">
        <ele>785.1</ele>
        <time>2012-05-27T09:37:21Z</time>
      </trkpt>
      <trkpt lat="43.87857" lon="7.20706">
        <ele>785.6</ele>
        <time>2012-05-27T09:37:25Z</time>
      </trkpt>
      <trkpt lat="43.87843" lon="7.20715">
        <ele>783.4</ele>
        <time>2012-05-27T09:37:30Z</time>
      </trkpt>
      <trkpt lat="43.87838" lon="7.20726">
        <ele>783.1</ele>
        <time>2012-05-27T09:37:32Z</time>
      </trkpt>
      <trkpt lat="43.8783" lon="7.20734">
        <ele>782.7</ele>
        <time>2012-05-27T09:37:34Z</time>
      </trkpt>
      <trkpt lat="43.8781" lon="7.20748">
        <ele>780.6</ele>
        <time>2012-05-27T09:37:38Z</time>
      </trkpt>
      <trkpt lat="43.878" lon="7.20753">
        <ele>779.6</ele>
        <time>2012-05-27T09:37:40Z</time>
      </trkpt>
      <trkpt lat="43.87786" lon="7.20758">
        <ele>777.4</ele>
        <time>2012-05-27T09:37:43Z</time>
      </trkpt>
      <trkpt lat="43.8777" lon="7.20761">
        <ele>773.6</ele>
        <time>2012-05-27T09:37:46Z</time>
      </trkpt>
      <trkpt lat="43.8776" lon="7.20767">
        <ele>772.1</ele>
        <time>2012-05-27T09:37:48Z</time>
      </trkpt>
      <trkpt lat="43.87748" lon="7.20774">
        <ele>770.8</ele>
        <time>2012-05-27T09:37:50Z</time>
      </trkpt>
      <trkpt lat="43.87737" lon="7.20778">
        <ele>769.3</ele>
        <time>2012-05-27T09:37:52Z</time>
      </trkpt>
      <trkpt lat="43.87725" lon="7.2078">
        <ele>767.4</ele>
        <time>2012-05-27T09:37:54Z</time>
      </trkpt>
      <trkpt lat="43.87711" lon="7.20786">
        <ele>764.8</ele>
        <time>2012-05-27T09:37:56Z</time>
      </trkpt>
      <trkpt lat="43.87695" lon="7.20794">
        <ele>763.1</ele>
        <time>2012-05-27T09:37:59Z</time>
      </trkpt>
      <trkpt lat="43.87682" lon="7.20795">
        <ele>760.6</ele>
        <time>2012-05-27T09:38:02Z</time>
      </trkpt>
      <trkpt lat="43.87669" lon="7.20804">
        <ele>758.4</ele>
        <time>2012-05-27T09:38:05Z</time>
      </trkpt>
      <trkpt lat="43.87658" lon="7.20804">
        <ele>756.5</ele>
        <time>2012-05-27T09:38:07Z</time>
      </trkpt>
      <trkpt lat="43.87646" lon="7.20799">
        <ele>753.9</ele>
        <time>2012-05-27T09:38:09Z</time>
      </trkpt>
      <trkpt lat="43.8764" lon="7.20799">
        <ele>752.5</ele>
        <time>2012-05-27T09:38:10Z</time>
      </trkpt>
      <trkpt lat="43.87629" lon="7.20801">
        <ele>750</ele>
        <time>2012-05-27T09:38:12Z</time>
      </trkpt>
      <trkpt lat="43.87614" lon="7.20802">
        <ele>746.4</ele>
        <time>2012-05-27T09:38:15Z</time>
      </trkpt>
      <trkpt lat="43.87601" lon="7.20808">
        <ele>743.1</ele>
        <time>2012-05-27T09:38:18Z</time>
      </trkpt>
      <trkpt lat="43.87593" lon="7.2081">
        <ele>741.2</ele>
        <time>2012-05-27T09:38:20Z</time>
      </trkpt>
      <trkpt lat="43.87564" lon="7.2081">
        <ele>733.6</ele>
        <time>2012-05-27T09:38:29Z</time>
      </trkpt>
      <trkpt lat="43.87547" lon="7.2081">
        <ele>729</ele>
        <time>2012-05-27T09:38:36Z</time>
      </trkpt>
      <trkpt lat="43.87534" lon="7.20808">
        <ele>726.2</ele>
        <time>2012-05-27T09:38:39Z</time>
      </trkpt>
      <trkpt lat="43.87519" lon="7.20804">
        <ele>722.6</ele>
        <time>2012-05-27T09:38:43Z</time>
      </trkpt>
      <trkpt lat="43.87511" lon="7.20805">
        <ele>721</ele>
        <time>2012-05-27T09:38:45Z</time>
      </trkpt>
      <trkpt lat="43.87495" lon="7.20807">
        <ele>718</ele>
        <time>2012-05-27T09:38:49Z</time>
      </trkpt>
      <trkpt lat="43.87487" lon="7.20806">
        <ele>716.3</ele>
        <time>2012-05-27T09:38:52Z</time>
      </trkpt>
      <trkpt lat="43.87477" lon="7.20803">
        <ele>714.5</ele>
        <time>2012-05-27T09:38:55Z</time>
      </trkpt>
      <trkpt lat="43.8744" lon="7.20803">
        <ele>706.5</ele>
        <time>2012-05-27T09:39:03Z</time>
      </trkpt>
      <trkpt lat="43.87427" lon="7.20802">
        <ele>703.2</ele>
        <time>2012-05-27T09:39:05Z</time>
      </trkpt>
      <trkpt lat="43.87415" lon="7.20798">
        <ele>699.6</ele>
        <time>2012-05-27T09:39:07Z</time>
      </trkpt>
      <trkpt lat="43.87403" lon="7.20798">
        <ele>696</ele>
        <time>2012-05-27T09:39:09Z</time>
      </trkpt>
      <trkpt lat="43.87392" lon="7.20799">
        <ele>693.1</ele>
        <time>2012-05-27T09:39:11Z</time>
      </trkpt>
      <trkpt lat="43.87382" lon="7.20798">
        <ele>690.2</ele>
        <time>2012-05-27T09:39:13Z</time>
      </trkpt>
      <trkpt lat="43.87369" lon="7.20798">
        <ele>686.1</ele>
        <time>2012-05-27T09:39:16Z</time>
      </trkpt>
      <trkpt lat="43.87358" lon="7.20809">
        <ele>684.7</ele>
        <time>2012-05-27T09:39:20Z</time>
      </trkpt>
      <trkpt lat="43.87345" lon="7.20815">
        <ele>683.1</ele>
        <time>2012-05-27T09:39:24Z</time>
      </trkpt>
      <trkpt lat="43.87337" lon="7.20818">
        <ele>681.8</ele>
        <time>2012-05-27T09:39:27Z</time>
      </trkpt>
      <trkpt lat="43.87323" lon="7.20818">
        <ele>679.2</ele>
        <time>2012-05-27T09:39:30Z</time>
      </trkpt>
      <trkpt lat="43.87313" lon="7.20821">
        <ele>677.2</ele>
        <time>2012-05-27T09:39:32Z</time>
      </trkpt>
      <trkpt lat="43.87304" lon="7.20824">
        <ele>675.6</ele>
        <time>2012-05-27T09:39:34Z</time>
      </trkpt>
      <trkpt lat="43.87294" lon="7.20829">
        <ele>674.6</ele>
        <time>2012-05-27T09:39:36Z</time>
      </trkpt>
      <trkpt lat="43.87281" lon="7.20837">
        <ele>674.8</ele>
        <time>2012-05-27T09:39:39Z</time>
      </trkpt>
      <trkpt lat="43.87273" lon="7.20833">
        <ele>673.8</ele>
        <time>2012-05-27T09:39:42Z</time>
      </trkpt>
      <trkpt lat="43.87261" lon="7.20833">
        <ele>672.1</ele>
        <time>2012-05-27T09:39:45Z</time>
      </trkpt>
      <trkpt lat="43.8725" lon="7.20835">
        <ele>671.5</ele>
        <time>2012-05-27T09:39:47Z</time>
      </trkpt>
      <trkpt lat="43.8723" lon="7.20833">
        <ele>669.2</ele>
        <time>2012-05-27T09:39:51Z</time>
      </trkpt>
      <trkpt lat="43.87213" lon="7.20834">
        <ele>667.7</ele>
        <time>2012-05-27T09:39:56Z</time>
      </trkpt>
      <trkpt lat="43.87212" lon="7.20832">
        <ele>667.4</ele>
        <time>2012-05-27T09:39:57Z</time>
      </trkpt>
      <trkpt lat="43.87195" lon="7.20822">
        <ele>663.8</ele>
        <time>2012-05-27T09:40:03Z</time>
      </trkpt>
      <trkpt lat="43.87186" lon="7.20817">
        <ele>662.8</ele>
        <time>2012-05-27T09:40:05Z</time>
      </trkpt>
      <trkpt lat="43.87177" lon="7.20815">
        <ele>662.3</ele>
        <time>2012-05-27T09:40:07Z</time>
      </trkpt>
      <trkpt lat="43.87168" lon="7.20828">
        <ele>662.9</ele>
        <time>2012-05-27T09:40:16Z</time>
      </trkpt>
      <trkpt lat="43.87169" lon="7.2084">
        <ele>663.4</ele>
        <time>2012-05-27T09:40:19Z</time>
      </trkpt>
      <trkpt lat="43.87175" lon="7.20861">
        <ele>665.6</ele>
        <time>2012-05-27T09:40:24Z</time>
      </trkpt>
      <trkpt lat="43.87181" lon="7.20872">
        <ele>667.5</ele>
        <time>2012-05-27T09:40:26Z</time>
      </trkpt>
      <trkpt lat="43.87195" lon="7.20881">
        <ele>671.5</ele>
        <time>2012-05-27T09:40:30Z</time>
      </trkpt>
      <trkpt lat="43.87225" lon="7.20885">
        <ele>678.2</ele>
        <time>2012-05-27T09:40:38Z</time>
      </trkpt>
      <trkpt lat="43.87234" lon="7.20889">
        <ele>678.9</ele>
        <time>2012-05-27T09:40:40Z</time>
      </trkpt>
      <trkpt lat="43.87239" lon="7.2089">
        <ele>679.4</ele>
        <time>2012-05-27T09:40:41Z</time>
      </trkpt>
      <trkpt lat="43.87249" lon="7.20891">
        <ele>680.6</ele>
        <time>2012-05-27T09:40:43Z</time>
      </trkpt>
      <trkpt lat="43.87267" lon="7.20895">
        <ele>682.3</ele>
        <time>2012-05-27T09:40:46Z</time>
      </trkpt>
      <trkpt lat="43.87279" lon="7.20896">
        <ele>683.7</ele>
        <time>2012-05-27T09:40:48Z</time>
      </trkpt>
      <trkpt lat="43.87294" lon="7.20896">
        <ele>685.9</ele>
        <time>2012-05-27T09:40:51Z</time>
      </trkpt>
      <trkpt lat="43.87321" lon="7.20901">
        <ele>689</ele>
        <time>2012-05-27T09:40:57Z</time>
      </trkpt>
      <trkpt lat="43.87332" lon="7.20904">
        <ele>689.9</ele>
        <time>2012-05-27T09:40:59Z</time>
      </trkpt>
      <trkpt lat="43.87343" lon="7.20907">
        <ele>690.7</ele>
        <time>2012-05-27T09:41:01Z</time>
      </trkpt>
      <trkpt lat="43.87349" lon="7.20908">
        <ele>691.2</ele>
        <time>2012-05-27T09:41:02Z</time>
      </trkpt>
      <trkpt lat="43.87362" lon="7.20908">
        <ele>692.5</ele>
        <time>2012-05-27T09:41:04Z</time>
      </trkpt>
      <trkpt lat="43.87375" lon="7.20909">
        <ele>693.8</ele>
        <time>2012-05-27T09:41:06Z</time>
      </trkpt>
      <trkpt lat="43.87385" lon="7.20913">
        <ele>694.8</ele>
        <time>2012-05-27T09:41:08Z</time>
      </trkpt>
      <trkpt lat="43.87394" lon="7.20921">
        <ele>694.7</ele>
        <time>2012-05-27T09:41:10Z</time>
      </trkpt>
      <trkpt lat="43.87402" lon="7.20933">
        <ele>693.3</ele>
        <time>2012-05-27T09:41:12Z</time>
      </trkpt>
      <trkpt lat="43.87415" lon="7.20948">
        <ele>690.9</ele>
        <time>2012-05-27T09:41:15Z</time>
      </trkpt>
      <trkpt lat="43.87423" lon="7.20957">
        <ele>689.5</ele>
        <time>2012-05-27T09:41:17Z</time>
      </trkpt>
      <trkpt lat="43.87436" lon="7.20967">
        <ele>687.3</ele>
        <time>2012-05-27T09:41:20Z</time>
      </trkpt>
      <trkpt lat="43.87457" lon="7.20977">
        <ele>686</ele>
        <time>2012-05-27T09:41:25Z</time>
      </trkpt>
      <trkpt lat="43.87467" lon="7.20983">
        <ele>686.2</ele>
        <time>2012-05-27T09:41:27Z</time>
      </trkpt>
      <trkpt lat="43.87475" lon="7.20991">
        <ele>686.1</ele>
        <time>2012-05-27T09:41:29Z</time>
      </trkpt>
      <trkpt lat="43.875" lon="7.21007">
        <ele>688.1</ele>
        <time>2012-05-27T09:41:35Z</time>
      </trkpt>
      <trkpt lat="43.87508" lon="7.21012">
        <ele>689.2</ele>
        <time>2012-05-27T09:41:37Z</time>
      </trkpt>
      <trkpt lat="43.87516" lon="7.21021">
        <ele>689.9</ele>
        <time>2012-05-27T09:41:39Z</time>
      </trkpt>
      <trkpt lat="43.87522" lon="7.21043">
        <ele>687</ele>
        <time>2012-05-27T09:41:44Z</time>
      </trkpt>
      <trkpt lat="43.8753" lon="7.21057">
        <ele>684.7</ele>
        <time>2012-05-27T09:41:49Z</time>
      </trkpt>
      <trkpt lat="43.87538" lon="7.21063">
        <ele>685.4</ele>
        <time>2012-05-27T09:41:55Z</time>
      </trkpt>
      <trkpt lat="43.87547" lon="7.21067">
        <ele>687.5</ele>
        <time>2012-05-27T09:42:05Z</time>
      </trkpt>
      <trkpt lat="43.87561" lon="7.21072">
        <ele>689.8</ele>
        <time>2012-05-27T09:42:18Z</time>
      </trkpt>
      <trkpt lat="43.87575" lon="7.21079">
        <ele>691</ele>
        <time>2012-05-27T09:42:25Z</time>
      </trkpt>
      <trkpt lat="43.87608" lon="7.21094">
        <ele>695.2</ele>
        <time>2012-05-27T09:42:37Z</time>
      </trkpt>
      <trkpt lat="43.87621" lon="7.211">
        <ele>696.6</ele>
        <time>2012-05-27T09:42:42Z</time>
      </trkpt>
      <trkpt lat="43.87628" lon="7.21104">
        <ele>697.2</ele>
        <time>2012-05-27T09:42:44Z</time>
      </trkpt>
      <trkpt lat="43.87643" lon="7.2111">
        <ele>699.3</ele>
        <time>2012-05-27T09:42:48Z</time>
      </trkpt>
      <trkpt lat="43.87649" lon="7.21115">
        <ele>700</ele>
        <time>2012-05-27T09:42:50Z</time>
      </trkpt>
      <trkpt lat="43.87661" lon="7.21126">
        <ele>700.1</ele>
        <time>2012-05-27T09:42:54Z</time>
      </trkpt>
      <trkpt lat="43.87667" lon="7.21134">
        <ele>699.2</ele>
        <time>2012-05-27T09:42:57Z</time>
      </trkpt>
      <trkpt lat="43.87674" lon="7.21153">
        <ele>694.7</ele>
        <time>2012-05-27T09:43:03Z</time>
      </trkpt>
      <trkpt lat="43.87678" lon="7.21159">
        <ele>693.3</ele>
        <time>2012-05-27T09:43:05Z</time>
      </trkpt>
      <trkpt lat="43.87688" lon="7.21171">
        <ele>692</ele>
        <time>2012-05-27T09:43:09Z</time>
      </trkpt>
      <trkpt lat="43.87696" lon="7.21177">
        <ele>692</ele>
        <time>2012-05-27T09:43:12Z</time>
      </trkpt>
      <trkpt lat="43.8771" lon="7.2118">
        <ele>694.9</ele>
        <time>2012-05-27T09:43:16Z</time>
      </trkpt>
      <trkpt lat="43.87718" lon="7.21184">
        <ele>697.1</ele>
        <time>2012-05-27T09:43:19Z</time>
      </trkpt>
      <trkpt lat="43.87728" lon="7.21194">
        <ele>697.5</ele>
        <time>2012-05-27T09:43:23Z</time>
      </trkpt>
      <trkpt lat="43.87732" lon="7.21201">
        <ele>697</ele>
        <time>2012-05-27T09:43:25Z</time>
      </trkpt>
      <trkpt lat="43.87742" lon="7.2122">
        <ele>693.7</ele>
        <time>2012-05-27T09:43:31Z</time>
      </trkpt>
      <trkpt lat="43.87746" lon="7.2123">
        <ele>691.4</ele>
        <time>2012-05-27T09:43:34Z</time>
      </trkpt>
      <trkpt lat="43.87757" lon="7.21248">
        <ele>687.5</ele>
        <time>2012-05-27T09:44:07Z</time>
      </trkpt>
      <trkpt lat="43.87773" lon="7.21258">
        <ele>689.1</ele>
        <time>2012-05-27T09:44:24Z</time>
      </trkpt>
      <trkpt lat="43.87781" lon="7.21258">
        <ele>691.7</ele>
        <time>2012-05-27T09:44:33Z</time>
      </trkpt>
      <trkpt lat="43.87795" lon="7.21253">
        <ele>697.9</ele>
        <time>2012-05-27T09:44:41Z</time>
      </trkpt>
      <trkpt lat="43.87809" lon="7.21241">
        <ele>703.4</ele>
        <time>2012-05-27T09:44:51Z</time>
      </trkpt>
      <trkpt lat="43.8782" lon="7.21226">
        <ele>709.1</ele>
        <time>2012-05-27T09:44:59Z</time>
      </trkpt>
      <trkpt lat="43.87827" lon="7.2122">
        <ele>711.9</ele>
        <time>2012-05-27T09:45:03Z</time>
      </trkpt>
      <trkpt lat="43.87849" lon="7.21188">
        <ele>724.8</ele>
        <time>2012-05-27T09:45:18Z</time>
      </trkpt>
      <trkpt lat="43.87861" lon="7.21173">
        <ele>731.4</ele>
        <time>2012-05-27T09:45:25Z</time>
      </trkpt>
      <trkpt lat="43.87868" lon="7.21166">
        <ele>735.2</ele>
        <time>2012-05-27T09:45:29Z</time>
      </trkpt>
      <trkpt lat="43.87892" lon="7.2115">
        <ele>739.4</ele>
        <time>2012-05-27T09:45:38Z</time>
      </trkpt>
      <trkpt lat="43.87906" lon="7.21145">
        <ele>738.8</ele>
        <time>2012-05-27T09:45:42Z</time>
      </trkpt>
      <trkpt lat="43.87917" lon="7.21143">
        <ele>737.5</ele>
        <time>2012-05-27T09:45:45Z</time>
      </trkpt>
      <trkpt lat="43.87932" lon="7.21135">
        <ele>737.1</ele>
        <time>2012-05-27T09:45:49Z</time>
      </trkpt>
      <trkpt lat="43.8794" lon="7.21133">
        <ele>736.4</ele>
        <time>2012-05-27T09:45:51Z</time>
      </trkpt>
      <trkpt lat="43.87952" lon="7.21137">
        <ele>732.9</ele>
        <time>2012-05-27T09:45:54Z</time>
      </trkpt>
      <trkpt lat="43.87963" lon="7.21139">
        <ele>730.1</ele>
        <time>2012-05-27T09:45:56Z</time>
      </trkpt>
      <trkpt lat="43.87979" lon="7.21144">
        <ele>726</ele>
        <time>2012-05-27T09:45:59Z</time>
      </trkpt>
      <trkpt lat="43.8799" lon="7.21142">
        <ele>724.2</ele>
        <time>2012-05-27T09:46:01Z</time>
      </trkpt>
      <trkpt lat="43.87999" lon="7.21139">
        <ele>723.5</ele>
        <time>2012-05-27T09:46:03Z</time>
      </trkpt>
      <trkpt lat="43.88009" lon="7.21136">
        <ele>723</ele>
        <time>2012-05-27T09:46:05Z</time>
      </trkpt>
      <trkpt lat="43.8802" lon="7.21132">
        <ele>722.8</ele>
        <time>2012-05-27T09:46:07Z</time>
      </trkpt>
      <trkpt lat="43.88029" lon="7.21126">
        <ele>723.3</ele>
        <time>2012-05-27T09:46:09Z</time>
      </trkpt>
      <trkpt lat="43.88036" lon="7.21119">
        <ele>724.4</ele>
        <time>2012-05-27T09:46:11Z</time>
      </trkpt>
      <trkpt lat="43.88047" lon="7.21112">
        <ele>725.5</ele>
        <time>2012-05-27T09:46:14Z</time>
      </trkpt>
      <trkpt lat="43.88056" lon="7.21103">
        <ele>727.2</ele>
        <time>2012-05-27T09:46:17Z</time>
      </trkpt>
      <trkpt lat="43.88067" lon="7.21098">
        <ele>727.7</ele>
        <time>2012-05-27T09:46:21Z</time>
      </trkpt>
      <trkpt lat="43.88095" lon="7.2109">
        <ele>724.9</ele>
        <time>2012-05-27T09:46:30Z</time>
      </trkpt>
      <trkpt lat="43.88102" lon="7.21086">
        <ele>724.8</ele>
        <time>2012-05-27T09:46:33Z</time>
      </trkpt>
      <trkpt lat="43.88119" lon="7.21087">
        <ele>722.3</ele>
        <time>2012-05-27T09:46:38Z</time>
      </trkpt>
      <trkpt lat="43.88127" lon="7.21083">
        <ele>721.5</ele>
        <time>2012-05-27T09:46:40Z</time>
      </trkpt>
      <trkpt lat="43.88141" lon="7.21076">
        <ele>721.8</ele>
        <time>2012-05-27T09:46:45Z</time>
      </trkpt>
      <trkpt lat="43.88157" lon="7.21069">
        <ele>721.4</ele>
        <time>2012-05-27T09:46:49Z</time>
      </trkpt>
      <trkpt lat="43.8817" lon="7.21067">
        <ele>720.1</ele>
        <time>2012-05-27T09:46:52Z</time>
      </trkpt>
      <trkpt lat="43.88183" lon="7.21062">
        <ele>719.7</ele>
        <time>2012-05-27T09:46:55Z</time>
      </trkpt>
      <trkpt lat="43.88198" lon="7.21051">
        <ele>721.2</ele>
        <time>2012-05-27T09:47:08Z</time>
      </trkpt>
      <trkpt lat="43.88219" lon="7.2104">
        <ele>722.5</ele>
        <time>2012-05-27T09:47:22Z</time>
      </trkpt>
      <trkpt lat="43.88231" lon="7.21037">
        <ele>721.8</ele>
        <time>2012-05-27T09:47:26Z</time>
      </trkpt>
      <trkpt lat="43.88245" lon="7.21035">
        <ele>719.9</ele>
        <time>2012-05-27T09:47:31Z</time>
      </trkpt>
      <trkpt lat="43.8827" lon="7.21039">
        <ele>713.9</ele>
        <time>2012-05-27T09:47:42Z</time>
      </trkpt>
      <trkpt lat="43.88283" lon="7.2104">
        <ele>711.2</ele>
        <time>2012-05-27T09:47:46Z</time>
      </trkpt>
      <trkpt lat="43.88292" lon="7.21038">
        <ele>709.9</ele>
        <time>2012-05-27T09:47:48Z</time>
      </trkpt>
      <trkpt lat="43.88301" lon="7.21033">
        <ele>709.4</ele>
        <time>2012-05-27T09:47:50Z</time>
      </trkpt>
      <trkpt lat="43.8831" lon="7.21028">
        <ele>709.7</ele>
        <time>2012-05-27T09:47:52Z</time>
      </trkpt>
      <trkpt lat="43.8832" lon="7.21014">
        <ele>712.2</ele>
        <time>2012-05-27T09:47:56Z</time>
      </trkpt>
      <trkpt lat="43.88332" lon="7.21003">
        <ele>713.9</ele>
        <time>2012-05-27T09:48:00Z</time>
      </trkpt>
      <trkpt lat="43.8834" lon="7.20997">
        <ele>714.5</ele>
        <time>2012-05-27T09:48:02Z</time>
      </trkpt>
      <trkpt lat="43.88353" lon="7.20983">
        <ele>716.4</ele>
        <time>2012-05-27T09:48:07Z</time>
      </trkpt>
      <trkpt lat="43.8836" lon="7.20976">
        <ele>717.3</ele>
        <time>2012-05-27T09:48:10Z</time>
      </trkpt>
      <trkpt lat="43.88374" lon="7.2097">
        <ele>716.9</ele>
        <time>2012-05-27T09:48:15Z</time>
      </trkpt>
      <trkpt lat="43.88384" lon="7.2097">
        <ele>715.8</ele>
        <time>2012-05-27T09:48:23Z</time>
      </trkpt>
      <trkpt lat="43.88397" lon="7.20976">
        <ele>713</ele>
        <time>2012-05-27T09:48:30Z</time>
      </trkpt>
      <trkpt lat="43.88393" lon="7.20987">
        <ele>710</ele>
        <time>2012-05-27T09:48:39Z</time>
      </trkpt>
      <trkpt lat="43.88383" lon="7.21002">
        <ele>707.2</ele>
        <time>2012-05-27T09:48:46Z</time>
      </trkpt>
      <trkpt lat="43.88379" lon="7.21019">
        <ele>703.1</ele>
        <time>2012-05-27T09:48:49Z</time>
      </trkpt>
      <trkpt lat="43.88382" lon="7.21038">
        <ele>697.8</ele>
        <time>2012-05-27T09:48:52Z</time>
      </trkpt>
      <trkpt lat="43.88383" lon="7.21059">
        <ele>692</ele>
        <time>2012-05-27T09:48:56Z</time>
      </trkpt>
      <trkpt lat="43.88394" lon="7.21072">
        <ele>689.1</ele>
        <time>2012-05-27T09:49:01Z</time>
      </trkpt>
      <trkpt lat="43.88397" lon="7.21094">
        <ele>686.7</ele>
        <time>2012-05-27T09:49:06Z</time>
      </trkpt>
      <trkpt lat="43.88392" lon="7.21115">
        <ele>681.6</ele>
        <time>2012-05-27T09:49:10Z</time>
      </trkpt>
      <trkpt lat="43.88391" lon="7.21128">
        <ele>678.8</ele>
        <time>2012-05-27T09:49:12Z</time>
      </trkpt>
      <trkpt lat="43.88397" lon="7.21149">
        <ele>678</ele>
        <time>2012-05-27T09:49:15Z</time>
      </trkpt>
      <trkpt lat="43.88398" lon="7.21165">
        <ele>677.9</ele>
        <time>2012-05-27T09:49:21Z</time>
      </trkpt>
      <trkpt lat="43.8839" lon="7.21173">
        <ele>675.3</ele>
        <time>2012-05-27T09:49:25Z</time>
      </trkpt>
      <trkpt lat="43.8837" lon="7.21191">
        <ele>666.7</ele>
        <time>2012-05-27T09:49:32Z</time>
      </trkpt>
      <trkpt lat="43.88362" lon="7.21204">
        <ele>662.5</ele>
        <time>2012-05-27T09:49:36Z</time>
      </trkpt>
      <trkpt lat="43.88356" lon="7.21219">
        <ele>660</ele>
        <time>2012-05-27T09:49:39Z</time>
      </trkpt>
      <trkpt lat="43.88355" lon="7.21232">
        <ele>659.5</ele>
        <time>2012-05-27T09:49:41Z</time>
      </trkpt>
      <trkpt lat="43.88353" lon="7.2125">
        <ele>659.6</ele>
        <time>2012-05-27T09:49:45Z</time>
      </trkpt>
      <trkpt lat="43.88352" lon="7.21261">
        <ele>659.4</ele>
        <time>2012-05-27T09:49:48Z</time>
      </trkpt>
      <trkpt lat="43.88342" lon="7.21278">
        <ele>655.3</ele>
        <time>2012-05-27T09:49:54Z</time>
      </trkpt>
      <trkpt lat="43.8834" lon="7.21297">
        <ele>653.4</ele>
        <time>2012-05-27T09:49:58Z</time>
      </trkpt>
      <trkpt lat="43.88341" lon="7.2132">
        <ele>653.7</ele>
        <time>2012-05-27T09:50:02Z</time>
      </trkpt>
      <trkpt lat="43.88342" lon="7.21329">
        <ele>654</ele>
        <time>2012-05-27T09:50:04Z</time>
      </trkpt>
      <trkpt lat="43.88337" lon="7.2137">
        <ele>651.3</ele>
        <time>2012-05-27T09:50:15Z</time>
      </trkpt>
      <trkpt lat="43.88338" lon="7.21381">
        <ele>650.7</ele>
        <time>2012-05-27T09:50:19Z</time>
      </trkpt>
      <trkpt lat="43.88344" lon="7.21392">
        <ele>652.6</ele>
        <time>2012-05-27T09:50:28Z</time>
      </trkpt>
      <trkpt lat="43.88349" lon="7.21407">
        <ele>654.9</ele>
        <time>2012-05-27T09:50:47Z</time>
      </trkpt>
      <trkpt lat="43.88349" lon="7.21416">
        <ele>653.2</ele>
        <time>2012-05-27T09:50:50Z</time>
      </trkpt>
      <trkpt lat="43.88358" lon="7.21436">
        <ele>654.7</ele>
        <time>2012-05-27T09:50:54Z</time>
      </trkpt>
      <trkpt lat="43.88361" lon="7.21446">
        <ele>655.4</ele>
        <time>2012-05-27T09:50:56Z</time>
      </trkpt>
      <trkpt lat="43.88364" lon="7.21468">
        <ele>653.3</ele>
        <time>2012-05-27T09:51:05Z</time>
      </trkpt>
      <trkpt lat="43.88365" lon="7.21491">
        <ele>646</ele>
        <time>2012-05-27T09:51:16Z</time>
      </trkpt>
      <trkpt lat="43.88368" lon="7.21503">
        <ele>643.6</ele>
        <time>2012-05-27T09:51:20Z</time>
      </trkpt>
      <trkpt lat="43.88377" lon="7.2153">
        <ele>638.1</ele>
        <time>2012-05-27T09:51:42Z</time>
      </trkpt>
      <trkpt lat="43.88383" lon="7.21539">
        <ele>637.9</ele>
        <time>2012-05-27T09:51:44Z</time>
      </trkpt>
      <trkpt lat="43.88392" lon="7.21553">
        <ele>636.6</ele>
        <time>2012-05-27T09:51:46Z</time>
      </trkpt>
      <trkpt lat="43.88403" lon="7.21569">
        <ele>635</ele>
        <time>2012-05-27T09:51:48Z</time>
      </trkpt>
      <trkpt lat="43.88408" lon="7.21575">
        <ele>634.3</ele>
        <time>2012-05-27T09:51:49Z</time>
      </trkpt>
      <trkpt lat="43.88418" lon="7.21589">
        <ele>633</ele>
        <time>2012-05-27T09:51:51Z</time>
      </trkpt>
      <trkpt lat="43.88423" lon="7.21595">
        <ele>632.5</ele>
        <time>2012-05-27T09:51:52Z</time>
      </trkpt>
      <trkpt lat="43.88435" lon="7.21608">
        <ele>631.9</ele>
        <time>2012-05-27T09:51:54Z</time>
      </trkpt>
      <trkpt lat="43.88445" lon="7.21622">
        <ele>630.8</ele>
        <time>2012-05-27T09:51:58Z</time>
      </trkpt>
      <trkpt lat="43.8845" lon="7.21632">
        <ele>629.5</ele>
        <time>2012-05-27T09:52:00Z</time>
      </trkpt>
      <trkpt lat="43.8846" lon="7.21645">
        <ele>628.9</ele>
        <time>2012-05-27T09:52:03Z</time>
      </trkpt>
      <trkpt lat="43.88468" lon="7.21658">
        <ele>628.1</ele>
        <time>2012-05-27T09:52:06Z</time>
      </trkpt>
      <trkpt lat="43.88474" lon="7.21675">
        <ele>625.4</ele>
        <time>2012-05-27T09:52:09Z</time>
      </trkpt>
      <trkpt lat="43.8848" lon="7.21692">
        <ele>622.4</ele>
        <time>2012-05-27T09:52:12Z</time>
      </trkpt>
      <trkpt lat="43.88488" lon="7.21704">
        <ele>620.8</ele>
        <time>2012-05-27T09:52:14Z</time>
      </trkpt>
      <trkpt lat="43.88491" lon="7.21712">
        <ele>620.3</ele>
        <time>2012-05-27T09:52:15Z</time>
      </trkpt>
      <trkpt lat="43.88493" lon="7.21726">
        <ele>619.6</ele>
        <time>2012-05-27T09:52:17Z</time>
      </trkpt>
      <trkpt lat="43.88491" lon="7.2174">
        <ele>618.1</ele>
        <time>2012-05-27T09:52:19Z</time>
      </trkpt>
      <trkpt lat="43.88491" lon="7.21759">
        <ele>615.9</ele>
        <time>2012-05-27T09:52:22Z</time>
      </trkpt>
      <trkpt lat="43.88486" lon="7.21777">
        <ele>612.6</ele>
        <time>2012-05-27T09:52:26Z</time>
      </trkpt>
      <trkpt lat="43.8848" lon="7.21784">
        <ele>610</ele>
        <time>2012-05-27T09:52:29Z</time>
      </trkpt>
      <trkpt lat="43.88474" lon="7.21795">
        <ele>607</ele>
        <time>2012-05-27T09:52:34Z</time>
      </trkpt>
      <trkpt lat="43.88471" lon="7.21814">
        <ele>607.9</ele>
        <time>2012-05-27T09:52:46Z</time>
      </trkpt>
      <trkpt lat="43.88465" lon="7.21854">
        <ele>612.7</ele>
        <time>2012-05-27T09:52:58Z</time>
      </trkpt>
      <trkpt lat="43.88464" lon="7.21862">
        <ele>613.7</ele>
        <time>2012-05-27T09:53:00Z</time>
      </trkpt>
      <trkpt lat="43.88462" lon="7.21882">
        <ele>616</ele>
        <time>2012-05-27T09:53:04Z</time>
      </trkpt>
      <trkpt lat="43.8846" lon="7.21902">
        <ele>617.7</ele>
        <time>2012-05-27T09:53:08Z</time>
      </trkpt>
      <trkpt lat="43.88459" lon="7.21937">
        <ele>620.4</ele>
        <time>2012-05-27T09:53:14Z</time>
      </trkpt>
      <trkpt lat="43.88461" lon="7.21957">
        <ele>623.2</ele>
        <time>2012-05-27T09:53:21Z</time>
      </trkpt>
      <trkpt lat="43.88467" lon="7.21978">
        <ele>623.9</ele>
        <time>2012-05-27T09:53:31Z</time>
      </trkpt>
      <trkpt lat="43.8847" lon="7.21992">
        <ele>623.8</ele>
        <time>2012-05-27T09:53:38Z</time>
      </trkpt>
      <trkpt lat="43.88481" lon="7.22008">
        <ele>625.6</ele>
        <time>2012-05-27T09:53:57Z</time>
      </trkpt>
      <trkpt lat="43.88495" lon="7.22022">
        <ele>629.4</ele>
        <time>2012-05-27T09:54:16Z</time>
      </trkpt>
      <trkpt lat="43.88504" lon="7.22042">
        <ele>631.9</ele>
        <time>2012-05-27T09:54:37Z</time>
      </trkpt>
      <trkpt lat="43.8852" lon="7.2207">
        <ele>633</ele>
        <time>2012-05-27T09:55:01Z</time>
      </trkpt>
      <trkpt lat="43.88533" lon="7.22085">
        <ele>635.8</ele>
        <time>2012-05-27T09:55:17Z</time>
      </trkpt>
      <trkpt lat="43.88537" lon="7.22095">
        <ele>636</ele>
        <time>2012-05-27T09:55:26Z</time>
      </trkpt>
      <trkpt lat="43.88546" lon="7.22114">
        <ele>637.7</ele>
        <time>2012-05-27T09:55:42Z</time>
      </trkpt>
      <trkpt lat="43.88551" lon="7.22122">
        <ele>638.9</ele>
        <time>2012-05-27T09:55:46Z</time>
      </trkpt>
      <trkpt lat="43.88559" lon="7.22132">
        <ele>640.8</ele>
        <time>2012-05-27T09:55:51Z</time>
      </trkpt>
      <trkpt lat="43.88571" lon="7.22145">
        <ele>644.1</ele>
        <time>2012-05-27T09:55:58Z</time>
      </trkpt>
      <trkpt lat="43.88578" lon="7.22152">
        <ele>646.5</ele>
        <time>2012-05-27T09:56:02Z</time>
      </trkpt>
      <trkpt lat="43.88585" lon="7.22159">
        <ele>648.5</ele>
        <time>2012-05-27T09:56:06Z</time>
      </trkpt>
      <trkpt lat="43.88595" lon="7.22175">
        <ele>650.1</ele>
        <time>2012-05-27T09:56:12Z</time>
      </trkpt>
      <trkpt lat="43.886" lon="7.22182">
        <ele>650.8</ele>
        <time>2012-05-27T09:56:15Z</time>
      </trkpt>
      <trkpt lat="43.88611" lon="7.22197">
        <ele>652.7</ele>
        <time>2012-05-27T09:56:23Z</time>
      </trkpt>
      <trkpt lat="43.88625" lon="7.22211">
        <ele>656.2</ele>
        <time>2012-05-27T09:56:35Z</time>
      </trkpt>
      <trkpt lat="43.88639" lon="7.22219">
        <ele>659.3</ele>
        <time>2012-05-27T09:56:44Z</time>
      </trkpt>
      <trkpt lat="43.88648" lon="7.22223">
        <ele>661.9</ele>
        <time>2012-05-27T09:56:48Z</time>
      </trkpt>
      <trkpt lat="43.88656" lon="7.22231">
        <ele>663.1</ele>
        <time>2012-05-27T09:56:53Z</time>
      </trkpt>
      <trkpt lat="43.88678" lon="7.22243">
        <ele>668.6</ele>
        <time>2012-05-27T09:57:17Z</time>
      </trkpt>
      <trkpt lat="43.88692" lon="7.22256">
        <ele>670.8</ele>
        <time>2012-05-27T09:57:38Z</time>
      </trkpt>
      <trkpt lat="43.88698" lon="7.22276">
        <ele>667.6</ele>
        <time>2012-05-27T09:57:47Z</time>
      </trkpt>
      <trkpt lat="43.88703" lon="7.22288">
        <ele>665.4</ele>
        <time>2012-05-27T09:57:54Z</time>
      </trkpt>
      <trkpt lat="43.88708" lon="7.22307">
        <ele>662.4</ele>
        <time>2012-05-27T09:58:01Z</time>
      </trkpt>
      <trkpt lat="43.8872" lon="7.22324">
        <ele>663.2</ele>
        <time>2012-05-27T09:58:10Z</time>
      </trkpt>
      <trkpt lat="43.88712" lon="7.22341">
        <ele>656.3</ele>
        <time>2012-05-27T09:58:16Z</time>
      </trkpt>
      <trkpt lat="43.88704" lon="7.22361">
        <ele>647</ele>
        <time>2012-05-27T09:58:28Z</time>
      </trkpt>
      <trkpt lat="43.88696" lon="7.22365">
        <ele>642.2</ele>
        <time>2012-05-27T09:58:34Z</time>
      </trkpt>
      <trkpt lat="43.88696" lon="7.22386">
        <ele>636.5</ele>
        <time>2012-05-27T09:58:42Z</time>
      </trkpt>
      <trkpt lat="43.88704" lon="7.22424">
        <ele>631.8</ele>
        <time>2012-05-27T09:58:52Z</time>
      </trkpt>
      <trkpt lat="43.88707" lon="7.22441">
        <ele>630.2</ele>
        <time>2012-05-27T09:58:55Z</time>
      </trkpt>
      <trkpt lat="43.88706" lon="7.22452">
        <ele>627.6</ele>
        <time>2012-05-27T09:58:57Z</time>
      </trkpt>
      <trkpt lat="43.88711" lon="7.22471">
        <ele>625.7</ele>
        <time>2012-05-27T09:59:01Z</time>
      </trkpt>
      <trkpt lat="43.88714" lon="7.2249">
        <ele>624.6</ele>
        <time>2012-05-27T09:59:05Z</time>
      </trkpt>
      <trkpt lat="43.8871" lon="7.22513">
        <ele>619.3</ele>
        <time>2012-05-27T09:59:11Z</time>
      </trkpt>
      <trkpt lat="43.88712" lon="7.22534">
        <ele>616.5</ele>
        <time>2012-05-27T09:59:17Z</time>
      </trkpt>
      <trkpt lat="43.88709" lon="7.22552">
        <ele>612.9</ele>
        <time>2012-05-27T09:59:21Z</time>
      </trkpt>
      <trkpt lat="43.88717" lon="7.22569">
        <ele>611.2</ele>
        <time>2012-05-27T09:59:26Z</time>
      </trkpt>
      <trkpt lat="43.88728" lon="7.22587">
        <ele>612.5</ele>
        <time>2012-05-27T09:59:33Z</time>
      </trkpt>
      <trkpt lat="43.88732" lon="7.22597">
        <ele>611.8</ele>
        <time>2012-05-27T09:59:37Z</time>
      </trkpt>
      <trkpt lat="43.88729" lon="7.22619">
        <ele>606.6</ele>
        <time>2012-05-27T09:59:45Z</time>
      </trkpt>
      <trkpt lat="43.88721" lon="7.22623">
        <ele>602.7</ele>
        <time>2012-05-27T09:59:58Z</time>
      </trkpt>
      <trkpt lat="43.88721" lon="7.22644">
        <ele>597.2</ele>
        <time>2012-05-27T10:00:04Z</time>
      </trkpt>
      <trkpt lat="43.88715" lon="7.22664">
        <ele>589.4</ele>
        <time>2012-05-27T10:00:10Z</time>
      </trkpt>
      <trkpt lat="43.88714" lon="7.22687">
        <ele>582</ele>
        <time>2012-05-27T10:00:16Z</time>
      </trkpt>
      <trkpt lat="43.88717" lon="7.22708">
        <ele>576.6</ele>
        <time>2012-05-27T10:00:21Z</time>
      </trkpt>
      <trkpt lat="43.88715" lon="7.22718">
        <ele>574</ele>
        <time>2012-05-27T10:00:24Z</time>
      </trkpt>
      <trkpt lat="43.88715" lon="7.22741">
        <ele>569</ele>
        <time>2012-05-27T10:00:31Z</time>
      </trkpt>
      <trkpt lat="43.8871" lon="7.22752">
        <ele>565.8</ele>
        <time>2012-05-27T10:00:35Z</time>
      </trkpt>
      <trkpt lat="43.887" lon="7.2277">
        <ele>558.5</ele>
        <time>2012-05-27T10:00:45Z</time>
      </trkpt>
      <trkpt lat="43.88691" lon="7.22767">
        <ele>555.2</ele>
        <time>2012-05-27T10:01:06Z</time>
      </trkpt>
      <trkpt lat="43.88684" lon="7.22785">
        <ele>549.9</ele>
        <time>2012-05-27T10:01:19Z</time>
      </trkpt>
      <trkpt lat="43.88675" lon="7.22817">
        <ele>544.7</ele>
        <time>2012-05-27T10:01:33Z</time>
      </trkpt>
      <trkpt lat="43.88666" lon="7.22832">
        <ele>541.4</ele>
        <time>2012-05-27T10:01:44Z</time>
      </trkpt>
      <trkpt lat="43.88665" lon="7.22844">
        <ele>541</ele>
        <time>2012-05-27T10:01:54Z</time>
      </trkpt>
      <trkpt lat="43.88655" lon="7.2286">
        <ele>538.4</ele>
        <time>2012-05-27T10:02:08Z</time>
      </trkpt>
      <trkpt lat="43.8864" lon="7.22866">
        <ele>534.9</ele>
        <time>2012-05-27T10:02:21Z</time>
      </trkpt>
      <trkpt lat="43.88632" lon="7.2287">
        <ele>533</ele>
        <time>2012-05-27T10:02:25Z</time>
      </trkpt>
      <trkpt lat="43.88623" lon="7.22886">
        <ele>529.7</ele>
        <time>2012-05-27T10:02:32Z</time>
      </trkpt>
      <trkpt lat="43.88632" lon="7.22903">
        <ele>531.5</ele>
        <time>2012-05-27T10:02:39Z</time>
      </trkpt>
      <trkpt lat="43.88626" lon="7.22921">
        <ele>529.9</ele>
        <time>2012-05-27T10:02:46Z</time>
      </trkpt>
      <trkpt lat="43.8862" lon="7.22937">
        <ele>527.6</ele>
        <time>2012-05-27T10:02:51Z</time>
      </trkpt>
      <trkpt lat="43.88618" lon="7.22954">
        <ele>526.4</ele>
        <time>2012-05-27T10:02:55Z</time>
      </trkpt>
      <trkpt lat="43.88619" lon="7.22963">
        <ele>525.9</ele>
        <time>2012-05-27T10:02:57Z</time>
      </trkpt>
      <trkpt lat="43.88618" lon="7.22983">
        <ele>523</ele>
        <time>2012-05-27T10:03:01Z</time>
      </trkpt>
      <trkpt lat="43.88618" lon="7.23004">
        <ele>519.4</ele>
        <time>2012-05-27T10:03:06Z</time>
      </trkpt>
      <trkpt lat="43.88627" lon="7.23015">
        <ele>518.8</ele>
        <time>2012-05-27T10:03:10Z</time>
      </trkpt>
      <trkpt lat="43.88625" lon="7.23034">
        <ele>515.9</ele>
        <time>2012-05-27T10:03:18Z</time>
      </trkpt>
      <trkpt lat="43.88618" lon="7.2305">
        <ele>510.6</ele>
        <time>2012-05-27T10:03:24Z</time>
      </trkpt>
      <trkpt lat="43.88622" lon="7.23069">
        <ele>501.5</ele>
        <time>2012-05-27T10:03:34Z</time>
      </trkpt>
      <trkpt lat="43.88638" lon="7.23074">
        <ele>500.1</ele>
        <time>2012-05-27T10:03:51Z</time>
      </trkpt>
      <trkpt lat="43.88645" lon="7.23078">
        <ele>498.8</ele>
        <time>2012-05-27T10:03:54Z</time>
      </trkpt>
      <trkpt lat="43.88658" lon="7.23074">
        <ele>499.6</ele>
        <time>2012-05-27T10:03:59Z</time>
      </trkpt>
      <trkpt lat="43.88664" lon="7.23081">
        <ele>498.5</ele>
        <time>2012-05-27T10:04:02Z</time>
      </trkpt>
      <trkpt lat="43.88674" lon="7.23099">
        <ele>491.8</ele>
        <time>2012-05-27T10:04:08Z</time>
      </trkpt>
      <trkpt lat="43.88678" lon="7.23112">
        <ele>486.3</ele>
        <time>2012-05-27T10:04:15Z</time>
      </trkpt>
      <trkpt lat="43.88685" lon="7.23126">
        <ele>480.3</ele>
        <time>2012-05-27T10:04:22Z</time>
      </trkpt>
      <trkpt lat="43.88692" lon="7.23129">
        <ele>479.5</ele>
        <time>2012-05-27T10:04:25Z</time>
      </trkpt>
      <trkpt lat="43.88701" lon="7.2314">
        <ele>477.1</ele>
        <time>2012-05-27T10:04:28Z</time>
      </trkpt>
      <trkpt lat="43.88715" lon="7.2316">
        <ele>472</ele>
        <time>2012-05-27T10:04:32Z</time>
      </trkpt>
      <trkpt lat="43.88722" lon="7.23175">
        <ele>467.8</ele>
        <time>2012-05-27T10:04:36Z</time>
      </trkpt>
      <trkpt lat="43.88727" lon="7.23182">
        <ele>465.9</ele>
        <time>2012-05-27T10:04:38Z</time>
      </trkpt>
      <trkpt lat="43.88735" lon="7.23188">
        <ele>465.1</ele>
        <time>2012-05-27T10:04:40Z</time>
      </trkpt>
      <trkpt lat="43.88752" lon="7.23205">
        <ele>462.6</ele>
        <time>2012-05-27T10:04:44Z</time>
      </trkpt>
      <trkpt lat="43.88756" lon="7.23216">
        <ele>460</ele>
        <time>2012-05-27T10:04:46Z</time>
      </trkpt>
      <trkpt lat="43.88757" lon="7.23236">
        <ele>451.2</ele>
        <time>2012-05-27T10:04:52Z</time>
      </trkpt>
      <trkpt lat="43.88763" lon="7.23245">
        <ele>447.6</ele>
        <time>2012-05-27T10:04:55Z</time>
      </trkpt>
      <trkpt lat="43.88766" lon="7.23263">
        <ele>440</ele>
        <time>2012-05-27T10:05:09Z</time>
      </trkpt>
      <trkpt lat="43.88779" lon="7.23277">
        <ele>437.7</ele>
        <time>2012-05-27T10:05:19Z</time>
      </trkpt>
      <trkpt lat="43.88764" lon="7.23285">
        <ele>429.7</ele>
        <time>2012-05-27T10:05:44Z</time>
      </trkpt>
      <trkpt lat="43.88755" lon="7.23286">
        <ele>426.5</ele>
        <time>2012-05-27T10:05:49Z</time>
      </trkpt>
      <trkpt lat="43.88746" lon="7.23303">
        <ele>419.5</ele>
        <time>2012-05-27T10:05:56Z</time>
      </trkpt>
      <trkpt lat="43.88737" lon="7.23303">
        <ele>416</ele>
        <time>2012-05-27T10:05:59Z</time>
      </trkpt>
      <trkpt lat="43.88722" lon="7.23301">
        <ele>411.5</ele>
        <time>2012-05-27T10:06:07Z</time>
      </trkpt>
      <trkpt lat="43.88709" lon="7.23293">
        <ele>409</ele>
        <time>2012-05-27T10:06:12Z</time>
      </trkpt>
      <trkpt lat="43.88696" lon="7.23295">
        <ele>405.7</ele>
        <time>2012-05-27T10:06:16Z</time>
      </trkpt>
      <trkpt lat="43.88685" lon="7.23308">
        <ele>400.9</ele>
        <time>2012-05-27T10:06:21Z</time>
      </trkpt>
      <trkpt lat="43.88672" lon="7.23316">
        <ele>397.2</ele>
        <time>2012-05-27T10:06:24Z</time>
      </trkpt>
      <trkpt lat="43.88646" lon="7.23334">
        <ele>387.5</ele>
        <time>2012-05-27T10:06:29Z</time>
      </trkpt>
      <trkpt lat="43.88634" lon="7.23344">
        <ele>381.8</ele>
        <time>2012-05-27T10:06:32Z</time>
      </trkpt>
      <trkpt lat="43.88631" lon="7.23356">
        <ele>377.4</ele>
        <time>2012-05-27T10:06:36Z</time>
      </trkpt>
      <trkpt lat="43.88623" lon="7.23375">
        <ele>370.9</ele>
        <time>2012-05-27T10:06:43Z</time>
      </trkpt>
      <trkpt lat="43.8862" lon="7.23386">
        <ele>370.1</ele>
        <time>2012-05-27T10:06:45Z</time>
      </trkpt>
      <trkpt lat="43.88615" lon="7.23399">
        <ele>369.8</ele>
        <time>2012-05-27T10:06:47Z</time>
      </trkpt>
      <trkpt lat="43.88603" lon="7.23418">
        <ele>368.4</ele>
        <time>2012-05-27T10:06:50Z</time>
      </trkpt>
      <trkpt lat="43.88594" lon="7.23431">
        <ele>367</ele>
        <time>2012-05-27T10:06:52Z</time>
      </trkpt>
      <trkpt lat="43.88589" lon="7.23438">
        <ele>366.2</ele>
        <time>2012-05-27T10:06:53Z</time>
      </trkpt>
      <trkpt lat="43.88581" lon="7.23453">
        <ele>364.6</ele>
        <time>2012-05-27T10:06:55Z</time>
      </trkpt>
      <trkpt lat="43.88577" lon="7.23459">
        <ele>363.8</ele>
        <time>2012-05-27T10:06:56Z</time>
      </trkpt>
      <trkpt lat="43.88567" lon="7.23469">
        <ele>362.5</ele>
        <time>2012-05-27T10:06:58Z</time>
      </trkpt>
      <trkpt lat="43.88559" lon="7.2348">
        <ele>361.7</ele>
        <time>2012-05-27T10:07:00Z</time>
      </trkpt>
      <trkpt lat="43.88548" lon="7.23495">
        <ele>361.5</ele>
        <time>2012-05-27T10:07:03Z</time>
      </trkpt>
      <trkpt lat="43.88523" lon="7.23514">
        <ele>359.7</ele>
        <time>2012-05-27T10:07:10Z</time>
      </trkpt>
      <trkpt lat="43.8851" lon="7.23524">
        <ele>359.4</ele>
        <time>2012-05-27T10:07:14Z</time>
      </trkpt>
      <trkpt lat="43.88498" lon="7.23532">
        <ele>358.9</ele>
        <time>2012-05-27T10:07:18Z</time>
      </trkpt>
      <trkpt lat="43.88477" lon="7.23554">
        <ele>360.6</ele>
        <time>2012-05-27T10:07:26Z</time>
      </trkpt>
      <trkpt lat="43.88465" lon="7.23564">
        <ele>361.3</ele>
        <time>2012-05-27T10:07:31Z</time>
      </trkpt>
      <trkpt lat="43.8846" lon="7.23575">
        <ele>363</ele>
        <time>2012-05-27T10:07:35Z</time>
      </trkpt>
      <trkpt lat="43.88456" lon="7.23597">
        <ele>368.5</ele>
        <time>2012-05-27T10:07:43Z</time>
      </trkpt>
      <trkpt lat="43.88457" lon="7.23621">
        <ele>376.2</ele>
        <time>2012-05-27T10:07:51Z</time>
      </trkpt>
      <trkpt lat="43.88454" lon="7.23645">
        <ele>379</ele>
        <time>2012-05-27T10:08:01Z</time>
      </trkpt>
      <trkpt lat="43.88461" lon="7.23654">
        <ele>381.5</ele>
        <time>2012-05-27T10:08:26Z</time>
      </trkpt>
      <trkpt lat="43.88467" lon="7.23672">
        <ele>384.9</ele>
        <time>2012-05-27T10:08:42Z</time>
      </trkpt>
      <trkpt lat="43.88475" lon="7.23703">
        <ele>389.9</ele>
        <time>2012-05-27T10:08:51Z</time>
      </trkpt>
      <trkpt lat="43.88479" lon="7.23719">
        <ele>391.6</ele>
        <time>2012-05-27T10:08:55Z</time>
      </trkpt>
      <trkpt lat="43.88486" lon="7.23738">
        <ele>392.8</ele>
        <time>2012-05-27T10:09:00Z</time>
      </trkpt>
      <trkpt lat="43.88488" lon="7.2376">
        <ele>392.7</ele>
        <time>2012-05-27T10:09:12Z</time>
      </trkpt>
      <trkpt lat="43.88485" lon="7.23782">
        <ele>390</ele>
        <time>2012-05-27T10:09:22Z</time>
      </trkpt>
      <trkpt lat="43.88479" lon="7.23798">
        <ele>386.6</ele>
        <time>2012-05-27T10:09:27Z</time>
      </trkpt>
      <trkpt lat="43.88476" lon="7.23819">
        <ele>383.8</ele>
        <time>2012-05-27T10:09:38Z</time>
      </trkpt>
      <trkpt lat="43.88479" lon="7.2383">
        <ele>385.7</ele>
        <time>2012-05-27T10:09:48Z</time>
      </trkpt>
      <trkpt lat="43.88479" lon="7.23876">
        <ele>386.9</ele>
        <time>2012-05-27T10:10:13Z</time>
      </trkpt>
      <trkpt lat="43.88476" lon="7.23897">
        <ele>385.8</ele>
        <time>2012-05-27T10:10:19Z</time>
      </trkpt>
      <trkpt lat="43.88476" lon="7.23906">
        <ele>385.5</ele>
        <time>2012-05-27T10:10:22Z</time>
      </trkpt>
      <trkpt lat="43.88473" lon="7.23927">
        <ele>384</ele>
        <time>2012-05-27T10:10:29Z</time>
      </trkpt>
      <trkpt lat="43.88475" lon="7.23948">
        <ele>384.6</ele>
        <time>2012-05-27T10:10:34Z</time>
      </trkpt>
      <trkpt lat="43.88478" lon="7.23969">
        <ele>386.2</ele>
        <time>2012-05-27T10:10:39Z</time>
      </trkpt>
      <trkpt lat="43.8848" lon="7.23977">
        <ele>386.1</ele>
        <time>2012-05-27T10:10:41Z</time>
      </trkpt>
      <trkpt lat="43.88482" lon="7.24002">
        <ele>384.7</ele>
        <time>2012-05-27T10:10:47Z</time>
      </trkpt>
      <trkpt lat="43.88485" lon="7.24011">
        <ele>385.1</ele>
        <time>2012-05-27T10:10:49Z</time>
      </trkpt>
      <trkpt lat="43.88492" lon="7.24026">
        <ele>387.7</ele>
        <time>2012-05-27T10:10:53Z</time>
      </trkpt>
      <trkpt lat="43.88502" lon="7.24043">
        <ele>392.2</ele>
        <time>2012-05-27T10:10:59Z</time>
      </trkpt>
      <trkpt lat="43.88516" lon="7.24054">
        <ele>399.3</ele>
        <time>2012-05-27T10:11:05Z</time>
      </trkpt>
      <trkpt lat="43.88526" lon="7.24064">
        <ele>404.1</ele>
        <time>2012-05-27T10:11:10Z</time>
      </trkpt>
      <trkpt lat="43.88536" lon="7.24077">
        <ele>407.6</ele>
        <time>2012-05-27T10:11:14Z</time>
      </trkpt>
      <trkpt lat="43.88528" lon="7.24075">
        <ele>405.3</ele>
        <time>2012-05-27T10:11:22Z</time>
      </trkpt>
      <trkpt lat="43.88519" lon="7.24068">
        <ele>400.9</ele>
        <time>2012-05-27T10:11:36Z</time>
      </trkpt>
      <trkpt lat="43.88499" lon="7.2407">
        <ele>388.2</ele>
        <time>2012-05-27T10:11:44Z</time>
      </trkpt>
      <trkpt lat="43.8849" lon="7.2407">
        <ele>382.4</ele>
        <time>2012-05-27T10:11:48Z</time>
      </trkpt>
      <trkpt lat="43.88477" lon="7.24061">
        <ele>374.5</ele>
        <time>2012-05-27T10:11:54Z</time>
      </trkpt>
      <trkpt lat="43.88466" lon="7.24045">
        <ele>369.7</ele>
        <time>2012-05-27T10:12:00Z</time>
      </trkpt>
      <trkpt lat="43.88457" lon="7.24026">
        <ele>366</ele>
        <time>2012-05-27T10:12:05Z</time>
      </trkpt>
      <trkpt lat="43.8845" lon="7.24007">
        <ele>363.5</ele>
        <time>2012-05-27T10:12:09Z</time>
      </trkpt>
      <trkpt lat="43.88444" lon="7.2399">
        <ele>362.3</ele>
        <time>2012-05-27T10:12:13Z</time>
      </trkpt>
      <trkpt lat="43.88437" lon="7.23974">
        <ele>360.6</ele>
        <time>2012-05-27T10:12:17Z</time>
      </trkpt>
      <trkpt lat="43.88428" lon="7.23954">
        <ele>357.6</ele>
        <time>2012-05-27T10:12:21Z</time>
      </trkpt>
      <trkpt lat="43.88423" lon="7.23942">
        <ele>355.5</ele>
        <time>2012-05-27T10:12:23Z</time>
      </trkpt>
      <trkpt lat="43.88415" lon="7.23928">
        <ele>351.6</ele>
        <time>2012-05-27T10:12:26Z</time>
      </trkpt>
      <trkpt lat="43.88411" lon="7.23909">
        <ele>348.9</ele>
        <time>2012-05-27T10:12:31Z</time>
      </trkpt>
      <trkpt lat="43.88409" lon="7.239">
        <ele>348.1</ele>
        <time>2012-05-27T10:12:34Z</time>
      </trkpt>
      <trkpt lat="43.88406" lon="7.23888">
        <ele>347.4</ele>
        <time>2012-05-27T10:12:38Z</time>
      </trkpt>
      <trkpt lat="43.88392" lon="7.23892">
        <ele>339.6</ele>
        <time>2012-05-27T10:12:59Z</time>
      </trkpt>
      <trkpt lat="43.88392" lon="7.23879">
        <ele>340.2</ele>
        <time>2012-05-27T10:13:05Z</time>
      </trkpt>
      <trkpt lat="43.88388" lon="7.23861">
        <ele>339.8</ele>
        <time>2012-05-27T10:13:13Z</time>
      </trkpt>
      <trkpt lat="43.88381" lon="7.23846">
        <ele>337.8</ele>
        <time>2012-05-27T10:13:17Z</time>
      </trkpt>
      <trkpt lat="43.88375" lon="7.23835">
        <ele>336</ele>
        <time>2012-05-27T10:13:19Z</time>
      </trkpt>
      <trkpt lat="43.88367" lon="7.23816">
        <ele>332.8</ele>
        <time>2012-05-27T10:13:22Z</time>
      </trkpt>
      <trkpt lat="43.88363" lon="7.23802">
        <ele>330.8</ele>
        <time>2012-05-27T10:13:24Z</time>
      </trkpt>
      <trkpt lat="43.88354" lon="7.23779">
        <ele>328.6</ele>
        <time>2012-05-27T10:13:27Z</time>
      </trkpt>
      <trkpt lat="43.88349" lon="7.23763">
        <ele>328.1</ele>
        <time>2012-05-27T10:13:29Z</time>
      </trkpt>
      <trkpt lat="43.88345" lon="7.23756">
        <ele>327.7</ele>
        <time>2012-05-27T10:13:30Z</time>
      </trkpt>
      <trkpt lat="43.88338" lon="7.23743">
        <ele>326.5</ele>
        <time>2012-05-27T10:13:32Z</time>
      </trkpt>
      <trkpt lat="43.88334" lon="7.23736">
        <ele>326.1</ele>
        <time>2012-05-27T10:13:33Z</time>
      </trkpt>
      <trkpt lat="43.8833" lon="7.23721">
        <ele>326.1</ele>
        <time>2012-05-27T10:13:35Z</time>
      </trkpt>
      <trkpt lat="43.88325" lon="7.237">
        <ele>327.8</ele>
        <time>2012-05-27T10:13:39Z</time>
      </trkpt>
      <trkpt lat="43.88318" lon="7.23681">
        <ele>327.8</ele>
        <time>2012-05-27T10:13:43Z</time>
      </trkpt>
      <trkpt lat="43.88309" lon="7.23668">
        <ele>326.6</ele>
        <time>2012-05-27T10:13:46Z</time>
      </trkpt>
      <trkpt lat="43.88301" lon="7.23648">
        <ele>326.4</ele>
        <time>2012-05-27T10:13:49Z</time>
      </trkpt>
      <trkpt lat="43.88299" lon="7.23641">
        <ele>326.9</ele>
        <time>2012-05-27T10:13:50Z</time>
      </trkpt>
      <trkpt lat="43.883" lon="7.23627">
        <ele>328.8</ele>
        <time>2012-05-27T10:13:52Z</time>
      </trkpt>
      <trkpt lat="43.88298" lon="7.23604">
        <ele>328.4</ele>
        <time>2012-05-27T10:14:08Z</time>
      </trkpt>
      <trkpt lat="43.88287" lon="7.23588">
        <ele>324.7</ele>
        <time>2012-05-27T10:14:19Z</time>
      </trkpt>
      <trkpt lat="43.88276" lon="7.23579">
        <ele>321.3</ele>
        <time>2012-05-27T10:14:23Z</time>
      </trkpt>
      <trkpt lat="43.8827" lon="7.23575">
        <ele>319.4</ele>
        <time>2012-05-27T10:14:25Z</time>
      </trkpt>
      <trkpt lat="43.88258" lon="7.23566">
        <ele>315.9</ele>
        <time>2012-05-27T10:14:28Z</time>
      </trkpt>
      <trkpt lat="43.88247" lon="7.23556">
        <ele>313</ele>
        <time>2012-05-27T10:14:30Z</time>
      </trkpt>
      <trkpt lat="43.88242" lon="7.23551">
        <ele>311.4</ele>
        <time>2012-05-27T10:14:31Z</time>
      </trkpt>
      <trkpt lat="43.88236" lon="7.23537">
        <ele>308.6</ele>
        <time>2012-05-27T10:14:33Z</time>
      </trkpt>
      <trkpt lat="43.88226" lon="7.23522">
        <ele>302.2</ele>
        <time>2012-05-27T10:14:38Z</time>
      </trkpt>
      <trkpt lat="43.88215" lon="7.23519">
        <ele>299.2</ele>
        <time>2012-05-27T10:14:42Z</time>
      </trkpt>
      <trkpt lat="43.88207" lon="7.23512">
        <ele>295.9</ele>
        <time>2012-05-27T10:14:45Z</time>
      </trkpt>
      <trkpt lat="43.88204" lon="7.235">
        <ele>293.2</ele>
        <time>2012-05-27T10:14:47Z</time>
      </trkpt>
      <trkpt lat="43.88199" lon="7.2349">
        <ele>290.2</ele>
        <time>2012-05-27T10:14:49Z</time>
      </trkpt>
      <trkpt lat="43.88195" lon="7.2347">
        <ele>284.9</ele>
        <time>2012-05-27T10:14:53Z</time>
      </trkpt>
      <trkpt lat="43.88188" lon="7.23455">
        <ele>279.4</ele>
        <time>2012-05-27T10:15:03Z</time>
      </trkpt>
      <trkpt lat="43.88185" lon="7.23435">
        <ele>274.9</ele>
        <time>2012-05-27T10:15:18Z</time>
      </trkpt>
      <trkpt lat="43.88175" lon="7.23433">
        <ele>272.9</ele>
        <time>2012-05-27T10:15:20Z</time>
      </trkpt>
      <trkpt lat="43.88163" lon="7.23427">
        <ele>269.1</ele>
        <time>2012-05-27T10:15:23Z</time>
      </trkpt>
      <trkpt lat="43.88156" lon="7.23423">
        <ele>266.8</ele>
        <time>2012-05-27T10:15:25Z</time>
      </trkpt>
      <trkpt lat="43.8814" lon="7.23417">
        <ele>262.2</ele>
        <time>2012-05-27T10:15:29Z</time>
      </trkpt>
      <trkpt lat="43.88132" lon="7.23416">
        <ele>260.1</ele>
        <time>2012-05-27T10:15:31Z</time>
      </trkpt>
      <trkpt lat="43.88117" lon="7.23413">
        <ele>255.1</ele>
        <time>2012-05-27T10:15:35Z</time>
      </trkpt>
      <trkpt lat="43.88106" lon="7.23424">
        <ele>251.9</ele>
        <time>2012-05-27T10:15:39Z</time>
      </trkpt>
      <trkpt lat="43.88107" lon="7.23411">
        <ele>249.4</ele>
        <time>2012-05-27T10:15:45Z</time>
      </trkpt>
      <trkpt lat="43.88105" lon="7.234">
        <ele>247.5</ele>
        <time>2012-05-27T10:15:53Z</time>
      </trkpt>
      <trkpt lat="43.88097" lon="7.23401">
        <ele>243.9</ele>
        <time>2012-05-27T10:16:10Z</time>
      </trkpt>
      <trkpt lat="43.88102" lon="7.23391">
        <ele>243</ele>
        <time>2012-05-27T10:16:22Z</time>
      </trkpt>
      <trkpt lat="43.88102" lon="7.23378">
        <ele>241.9</ele>
        <time>2012-05-27T10:16:43Z</time>
      </trkpt>
      <trkpt lat="43.88092" lon="7.23373">
        <ele>238.5</ele>
        <time>2012-05-27T10:16:49Z</time>
      </trkpt>
      <trkpt lat="43.88084" lon="7.23363">
        <ele>235.5</ele>
        <time>2012-05-27T10:16:54Z</time>
      </trkpt>
      <trkpt lat="43.88091" lon="7.23356">
        <ele>237</ele>
        <time>2012-05-27T10:16:56Z</time>
      </trkpt>
      <trkpt lat="43.88107" lon="7.23349">
        <ele>243.6</ele>
        <time>2012-05-27T10:17:13Z</time>
      </trkpt>
      <trkpt lat="43.88124" lon="7.23348">
        <ele>248.5</ele>
        <time>2012-05-27T10:17:19Z</time>
      </trkpt>
      <trkpt lat="43.88133" lon="7.2335">
        <ele>251</ele>
        <time>2012-05-27T10:17:21Z</time>
      </trkpt>
      <trkpt lat="43.88148" lon="7.23342">
        <ele>257.3</ele>
        <time>2012-05-27T10:17:30Z</time>
      </trkpt>
      <trkpt lat="43.88142" lon="7.23323">
        <ele>258.6</ele>
        <time>2012-05-27T10:17:38Z</time>
      </trkpt>
      <trkpt lat="43.8813" lon="7.23316">
        <ele>255.8</ele>
        <time>2012-05-27T10:17:41Z</time>
      </trkpt>
      <trkpt lat="43.88119" lon="7.23311">
        <ele>252.7</ele>
        <time>2012-05-27T10:17:43Z</time>
      </trkpt>
      <trkpt lat="43.88109" lon="7.23303">
        <ele>249.6</ele>
        <time>2012-05-27T10:17:45Z</time>
      </trkpt>
      <trkpt lat="43.88101" lon="7.23291">
        <ele>247.1</ele>
        <time>2012-05-27T10:17:47Z</time>
      </trkpt>
      <trkpt lat="43.88089" lon="7.23279">
        <ele>243.2</ele>
        <time>2012-05-27T10:17:51Z</time>
      </trkpt>
      <trkpt lat="43.8807" lon="7.23276">
        <ele>237.1</ele>
        <time>2012-05-27T10:17:57Z</time>
      </trkpt>
      <trkpt lat="43.88056" lon="7.23278">
        <ele>232.5</ele>
        <time>2012-05-27T10:18:00Z</time>
      </trkpt>
      <trkpt lat="43.88047" lon="7.23283">
        <ele>229.1</ele>
        <time>2012-05-27T10:18:02Z</time>
      </trkpt>
      <trkpt lat="43.88039" lon="7.23284">
        <ele>225.9</ele>
        <time>2012-05-27T10:18:04Z</time>
      </trkpt>
      <trkpt lat="43.88026" lon="7.23274">
        <ele>220.5</ele>
        <time>2012-05-27T10:18:08Z</time>
      </trkpt>
      <trkpt lat="43.88014" lon="7.23268">
        <ele>216.2</ele>
        <time>2012-05-27T10:18:12Z</time>
      </trkpt>
      <trkpt lat="43.88004" lon="7.23265">
        <ele>212.9</ele>
        <time>2012-05-27T10:18:14Z</time>
      </trkpt>
      <trkpt lat="43.8799" lon="7.23263">
        <ele>207.5</ele>
        <time>2012-05-27T10:18:17Z</time>
      </trkpt>
      <trkpt lat="43.87983" lon="7.2327">
        <ele>203.4</ele>
        <time>2012-05-27T10:18:21Z</time>
      </trkpt>
      <trkpt lat="43.87974" lon="7.23271">
        <ele>199.2</ele>
        <time>2012-05-27T10:18:32Z</time>
      </trkpt>
      <trkpt lat="43.87967" lon="7.23239">
        <ele>196.9</ele>
        <time>2012-05-27T10:18:38Z</time>
      </trkpt>
      <trkpt lat="43.87965" lon="7.23227">
        <ele>196.1</ele>
        <time>2012-05-27T10:18:40Z</time>
      </trkpt>
      <trkpt lat="43.87962" lon="7.23212">
        <ele>195</ele>
        <time>2012-05-27T10:18:42Z</time>
      </trkpt>
      <trkpt lat="43.8796" lon="7.23193">
        <ele>194.4</ele>
        <time>2012-05-27T10:18:46Z</time>
      </trkpt>
      <trkpt lat="43.87956" lon="7.23173">
        <ele>194.6</ele>
        <time>2012-05-27T10:18:50Z</time>
      </trkpt>
      <trkpt lat="43.87954" lon="7.23152">
        <ele>195.4</ele>
        <time>2012-05-27T10:18:53Z</time>
      </trkpt>
      <trkpt lat="43.87952" lon="7.23141">
        <ele>196</ele>
        <time>2012-05-27T10:18:55Z</time>
      </trkpt>
      <trkpt lat="43.87948" lon="7.2313">
        <ele>196.6</ele>
        <time>2012-05-27T10:18:58Z</time>
      </trkpt>
      <trkpt lat="43.87946" lon="7.23141">
        <ele>196.6</ele>
        <time>2012-05-27T10:19:01Z</time>
      </trkpt>
      <trkpt lat="43.87947" lon="7.23161">
        <ele>196.1</ele>
        <time>2012-05-27T10:19:03Z</time>
      </trkpt>
      <trkpt lat="43.87947" lon="7.23172">
        <ele>195.8</ele>
        <time>2012-05-27T10:19:04Z</time>
      </trkpt>
      <trkpt lat="43.87947" lon="7.2321">
        <ele>194.7</ele>
        <time>2012-05-27T10:19:07Z</time>
      </trkpt>
      <trkpt lat="43.87948" lon="7.23238">
        <ele>194.4</ele>
        <time>2012-05-27T10:19:09Z</time>
      </trkpt>
      <trkpt lat="43.8795" lon="7.23266">
        <ele>194.2</ele>
        <time>2012-05-27T10:19:11Z</time>
      </trkpt>
      <trkpt lat="43.87951" lon="7.23279">
        <ele>194.1</ele>
        <time>2012-05-27T10:19:12Z</time>
      </trkpt>
      <trkpt lat="43.87955" lon="7.23297">
        <ele>193.5</ele>
        <time>2012-05-27T10:19:14Z</time>
      </trkpt>
      <trkpt lat="43.87962" lon="7.23312">
        <ele>192.8</ele>
        <time>2012-05-27T10:19:16Z</time>
      </trkpt>
      <trkpt lat="43.87971" lon="7.23325">
        <ele>194.1</ele>
        <time>2012-05-27T10:19:18Z</time>
      </trkpt>
      <trkpt lat="43.87977" lon="7.2334">
        <ele>195.6</ele>
        <time>2012-05-27T10:19:20Z</time>
      </trkpt>
      <trkpt lat="43.87977" lon="7.23356">
        <ele>195.4</ele>
        <time>2012-05-27T10:19:22Z</time>
      </trkpt>
      <trkpt lat="43.87966" lon="7.23355">
        <ele>191.7</ele>
        <time>2012-05-27T10:19:26Z</time>
      </trkpt>
      <trkpt lat="43.87962" lon="7.23334">
        <ele>191</ele>
        <time>2012-05-27T10:19:29Z</time>
      </trkpt>
      <trkpt lat="43.87958" lon="7.23319">
        <ele>190.8</ele>
        <time>2012-05-27T10:19:31Z</time>
      </trkpt>
      <trkpt lat="43.87949" lon="7.23287">
        <ele>193.5</ele>
        <time>2012-05-27T10:19:35Z</time>
      </trkpt>
      <trkpt lat="43.87945" lon="7.23271">
        <ele>194.4</ele>
        <time>2012-05-27T10:19:37Z</time>
      </trkpt>
      <trkpt lat="43.87937" lon="7.23251">
        <ele>195.4</ele>
        <time>2012-05-27T10:19:40Z</time>
      </trkpt>
      <trkpt lat="43.87933" lon="7.23234">
        <ele>195.8</ele>
        <time>2012-05-27T10:19:42Z</time>
      </trkpt>
      <trkpt lat="43.8793" lon="7.23213">
        <ele>196</ele>
        <time>2012-05-27T10:19:44Z</time>
      </trkpt>
      <trkpt lat="43.8792" lon="7.23176">
        <ele>196.8</ele>
        <time>2012-05-27T10:19:48Z</time>
      </trkpt>
      <trkpt lat="43.87915" lon="7.23157">
        <ele>197.1</ele>
        <time>2012-05-27T10:19:51Z</time>
      </trkpt>
      <trkpt lat="43.87911" lon="7.23144">
        <ele>197.2</ele>
        <time>2012-05-27T10:19:58Z</time>
      </trkpt>
      <trkpt lat="43.87891" lon="7.2313">
        <ele>197.2</ele>
        <time>2012-05-27T10:20:10Z</time>
      </trkpt>
      <trkpt lat="43.87876" lon="7.23137">
        <ele>197.6</ele>
        <time>2012-05-27T10:20:16Z</time>
      </trkpt>
      <trkpt lat="43.87868" lon="7.23138">
        <ele>200.4</ele>
        <time>2012-05-27T10:20:19Z</time>
      </trkpt>
      <trkpt lat="43.87853" lon="7.2314">
        <ele>210.2</ele>
        <time>2012-05-27T10:20:26Z</time>
      </trkpt>
      <trkpt lat="43.87846" lon="7.23146">
        <ele>215.8</ele>
        <time>2012-05-27T10:20:32Z</time>
      </trkpt>
      <trkpt lat="43.87845" lon="7.23167">
        <ele>218.5</ele>
        <time>2012-05-27T10:20:47Z</time>
      </trkpt>
      <trkpt lat="43.8784" lon="7.23177">
        <ele>222.9</ele>
        <time>2012-05-27T10:20:53Z</time>
      </trkpt>
      <trkpt lat="43.87837" lon="7.2319">
        <ele>226.7</ele>
        <time>2012-05-27T10:21:01Z</time>
      </trkpt>
      <trkpt lat="43.8783" lon="7.23153">
        <ele>227.3</ele>
        <time>2012-05-27T10:21:56Z</time>
      </trkpt>
      <trkpt lat="43.87826" lon="7.23141">
        <ele>228.3</ele>
        <time>2012-05-27T10:22:08Z</time>
      </trkpt>
      <trkpt lat="43.87822" lon="7.2312">
        <ele>227.7</ele>
        <time>2012-05-27T10:22:29Z</time>
      </trkpt>
      <trkpt lat="43.87819" lon="7.23109">
        <ele>226.6</ele>
        <time>2012-05-27T10:22:38Z</time>
      </trkpt>
      <trkpt lat="43.87814" lon="7.23099">
        <ele>226.6</ele>
        <time>2012-05-27T10:22:49Z</time>
      </trkpt>
      <trkpt lat="43.87797" lon="7.23093">
        <ele>233.5</ele>
        <time>2012-05-27T10:23:32Z</time>
      </trkpt>
      <trkpt lat="43.87784" lon="7.23077">
        <ele>235</ele>
        <time>2012-05-27T10:23:56Z</time>
      </trkpt>
      <trkpt lat="43.8777" lon="7.23064">
        <ele>237.5</ele>
        <time>2012-05-27T10:24:16Z</time>
      </trkpt>
      <trkpt lat="43.87756" lon="7.23051">
        <ele>240.3</ele>
        <time>2012-05-27T10:24:40Z</time>
      </trkpt>
      <trkpt lat="43.87741" lon="7.23041">
        <ele>245.1</ele>
        <time>2012-05-27T10:24:58Z</time>
      </trkpt>
      <trkpt lat="43.8773" lon="7.23023">
        <ele>245.1</ele>
        <time>2012-05-27T10:25:12Z</time>
      </trkpt>
      <trkpt lat="43.87698" lon="7.23007">
        <ele>257.3</ele>
        <time>2012-05-27T10:25:43Z</time>
      </trkpt>
      <trkpt lat="43.87682" lon="7.23001">
        <ele>266.4</ele>
        <time>2012-05-27T10:26:03Z</time>
      </trkpt>
      <trkpt lat="43.87669" lon="7.22987">
        <ele>269.9</ele>
        <time>2012-05-27T10:26:17Z</time>
      </trkpt>
      <trkpt lat="43.87654" lon="7.22975">
        <ele>275</ele>
        <time>2012-05-27T10:26:35Z</time>
      </trkpt>
      <trkpt lat="43.87647" lon="7.22967">
        <ele>276.2</ele>
        <time>2012-05-27T10:26:45Z</time>
      </trkpt>
      <trkpt lat="43.87639" lon="7.22951">
        <ele>275.6</ele>
        <time>2012-05-27T10:26:59Z</time>
      </trkpt>
      <trkpt lat="43.87634" lon="7.22931">
        <ele>274.2</ele>
        <time>2012-05-27T10:27:05Z</time>
      </trkpt>
      <trkpt lat="43.8763" lon="7.2292">
        <ele>273.8</ele>
        <time>2012-05-27T10:27:08Z</time>
      </trkpt>
      <trkpt lat="43.87619" lon="7.22902">
        <ele>274.7</ele>
        <time>2012-05-27T10:27:15Z</time>
      </trkpt>
      <trkpt lat="43.87614" lon="7.22894">
        <ele>275.2</ele>
        <time>2012-05-27T10:27:19Z</time>
      </trkpt>
      <trkpt lat="43.87606" lon="7.22877">
        <ele>275</ele>
        <time>2012-05-27T10:27:26Z</time>
      </trkpt>
      <trkpt lat="43.87594" lon="7.22864">
        <ele>279.3</ele>
        <time>2012-05-27T10:27:33Z</time>
      </trkpt>
      <trkpt lat="43.87586" lon="7.22861">
        <ele>283.2</ele>
        <time>2012-05-27T10:27:37Z</time>
      </trkpt>
      <trkpt lat="43.87571" lon="7.22861">
        <ele>290.2</ele>
        <time>2012-05-27T10:27:44Z</time>
      </trkpt>
      <trkpt lat="43.87566" lon="7.2286">
        <ele>292.7</ele>
        <time>2012-05-27T10:27:46Z</time>
      </trkpt>
      <trkpt lat="43.87553" lon="7.22855">
        <ele>299.2</ele>
        <time>2012-05-27T10:27:50Z</time>
      </trkpt>
      <trkpt lat="43.87548" lon="7.22838">
        <ele>304.9</ele>
        <time>2012-05-27T10:27:54Z</time>
      </trkpt>
      <trkpt lat="43.87564" lon="7.228">
        <ele>301.9</ele>
        <time>2012-05-27T10:28:19Z</time>
      </trkpt>
      <trkpt lat="43.87573" lon="7.2278">
        <ele>295.8</ele>
        <time>2012-05-27T10:28:33Z</time>
      </trkpt>
      <trkpt lat="43.8757" lon="7.22758">
        <ele>293.8</ele>
        <time>2012-05-27T10:28:53Z</time>
      </trkpt>
      <trkpt lat="43.8756" lon="7.22738">
        <ele>299.4</ele>
        <time>2012-05-27T10:29:12Z</time>
      </trkpt>
      <trkpt lat="43.87542" lon="7.22713">
        <ele>313.8</ele>
        <time>2012-05-27T10:29:41Z</time>
      </trkpt>
      <trkpt lat="43.87542" lon="7.22727">
        <ele>315.6</ele>
        <time>2012-05-27T10:30:00Z</time>
      </trkpt>
      <trkpt lat="43.87537" lon="7.22759">
        <ele>319.3</ele>
        <time>2012-05-27T10:30:26Z</time>
      </trkpt>
      <trkpt lat="43.87528" lon="7.22739">
        <ele>323.9</ele>
        <time>2012-05-27T10:30:58Z</time>
      </trkpt>
      <trkpt lat="43.87526" lon="7.22727">
        <ele>324.9</ele>
        <time>2012-05-27T10:31:08Z</time>
      </trkpt>
      <trkpt lat="43.87519" lon="7.22748">
        <ele>330.3</ele>
        <time>2012-05-27T10:31:34Z</time>
      </trkpt>
      <trkpt lat="43.87509" lon="7.22729">
        <ele>335.4</ele>
        <time>2012-05-27T10:32:00Z</time>
      </trkpt>
      <trkpt lat="43.87506" lon="7.22717">
        <ele>336.2</ele>
        <time>2012-05-27T10:32:13Z</time>
      </trkpt>
      <trkpt lat="43.87499" lon="7.22738">
        <ele>342.2</ele>
        <time>2012-05-27T10:32:45Z</time>
      </trkpt>
      <trkpt lat="43.87493" lon="7.22747">
        <ele>346.5</ele>
        <time>2012-05-27T10:32:55Z</time>
      </trkpt>
      <trkpt lat="43.87491" lon="7.22735">
        <ele>347.5</ele>
        <time>2012-05-27T10:33:09Z</time>
      </trkpt>
      <trkpt lat="43.87489" lon="7.22723">
        <ele>346.4</ele>
        <time>2012-05-27T10:33:20Z</time>
      </trkpt>
      <trkpt lat="43.87486" lon="7.22702">
        <ele>345.6</ele>
        <time>2012-05-27T10:33:35Z</time>
      </trkpt>
      <trkpt lat="43.87478" lon="7.22701">
        <ele>348.9</ele>
        <time>2012-05-27T10:33:54Z</time>
      </trkpt>
      <trkpt lat="43.87475" lon="7.22724">
        <ele>355.2</ele>
        <time>2012-05-27T10:34:14Z</time>
      </trkpt>
      <trkpt lat="43.87469" lon="7.22714">
        <ele>357.8</ele>
        <time>2012-05-27T10:34:31Z</time>
      </trkpt>
      <trkpt lat="43.87456" lon="7.22712">
        <ele>364</ele>
        <time>2012-05-27T10:35:12Z</time>
      </trkpt>
      <trkpt lat="43.87456" lon="7.22701">
        <ele>361.7</ele>
        <time>2012-05-27T10:35:22Z</time>
      </trkpt>
      <trkpt lat="43.87459" lon="7.22677">
        <ele>353</ele>
        <time>2012-05-27T10:35:36Z</time>
      </trkpt>
      <trkpt lat="43.87457" lon="7.22653">
        <ele>345.7</ele>
        <time>2012-05-27T10:35:56Z</time>
      </trkpt>
      <trkpt lat="43.87448" lon="7.22635">
        <ele>341.2</ele>
        <time>2012-05-27T10:36:18Z</time>
      </trkpt>
      <trkpt lat="43.87443" lon="7.22645">
        <ele>344.9</ele>
        <time>2012-05-27T10:36:32Z</time>
      </trkpt>
      <trkpt lat="43.87434" lon="7.2264">
        <ele>345.7</ele>
        <time>2012-05-27T10:36:52Z</time>
      </trkpt>
      <trkpt lat="43.87419" lon="7.22636">
        <ele>346.7</ele>
        <time>2012-05-27T10:37:09Z</time>
      </trkpt>
      <trkpt lat="43.8741" lon="7.22636">
        <ele>348.1</ele>
        <time>2012-05-27T10:37:19Z</time>
      </trkpt>
      <trkpt lat="43.87395" lon="7.22647">
        <ele>354.4</ele>
        <time>2012-05-27T10:37:35Z</time>
      </trkpt>
      <trkpt lat="43.87382" lon="7.2266">
        <ele>362.3</ele>
        <time>2012-05-27T10:37:51Z</time>
      </trkpt>
      <trkpt lat="43.87374" lon="7.2267">
        <ele>367</ele>
        <time>2012-05-27T10:38:04Z</time>
      </trkpt>
      <trkpt lat="43.8736" lon="7.2268">
        <ele>379.7</ele>
        <time>2012-05-27T10:38:20Z</time>
      </trkpt>
      <trkpt lat="43.87344" lon="7.22688">
        <ele>393.1</ele>
        <time>2012-05-27T10:38:36Z</time>
      </trkpt>
      <trkpt lat="43.87327" lon="7.22693">
        <ele>405.7</ele>
        <time>2012-05-27T10:38:55Z</time>
      </trkpt>
      <trkpt lat="43.87319" lon="7.22688">
        <ele>409.4</ele>
        <time>2012-05-27T10:39:06Z</time>
      </trkpt>
      <trkpt lat="43.87306" lon="7.22675">
        <ele>413.4</ele>
        <time>2012-05-27T10:39:25Z</time>
      </trkpt>
      <trkpt lat="43.87297" lon="7.22655">
        <ele>412</ele>
        <time>2012-05-27T10:39:39Z</time>
      </trkpt>
      <trkpt lat="43.87286" lon="7.22636">
        <ele>410.8</ele>
        <time>2012-05-27T10:39:56Z</time>
      </trkpt>
      <trkpt lat="43.8728" lon="7.22628">
        <ele>409.7</ele>
        <time>2012-05-27T10:40:04Z</time>
      </trkpt>
      <trkpt lat="43.87274" lon="7.22618">
        <ele>408.1</ele>
        <time>2012-05-27T10:40:12Z</time>
      </trkpt>
      <trkpt lat="43.87264" lon="7.22602">
        <ele>404.8</ele>
        <time>2012-05-27T10:40:26Z</time>
      </trkpt>
      <trkpt lat="43.87261" lon="7.22592">
        <ele>402</ele>
        <time>2012-05-27T10:40:33Z</time>
      </trkpt>
      <trkpt lat="43.87251" lon="7.22573">
        <ele>397.5</ele>
        <time>2012-05-27T10:40:50Z</time>
      </trkpt>
      <trkpt lat="43.87237" lon="7.22562">
        <ele>396.8</ele>
        <time>2012-05-27T10:41:11Z</time>
      </trkpt>
      <trkpt lat="43.87231" lon="7.22554">
        <ele>396</ele>
        <time>2012-05-27T10:41:18Z</time>
      </trkpt>
      <trkpt lat="43.87217" lon="7.22542">
        <ele>394.6</ele>
        <time>2012-05-27T10:41:33Z</time>
      </trkpt>
      <trkpt lat="43.87208" lon="7.22521">
        <ele>391.2</ele>
        <time>2012-05-27T10:41:49Z</time>
      </trkpt>
      <trkpt lat="43.87196" lon="7.22507">
        <ele>387.8</ele>
        <time>2012-05-27T10:42:04Z</time>
      </trkpt>
      <trkpt lat="43.87188" lon="7.22512">
        <ele>388.6</ele>
        <time>2012-05-27T10:42:15Z</time>
      </trkpt>
      <trkpt lat="43.87184" lon="7.22524">
        <ele>391.6</ele>
        <time>2012-05-27T10:42:24Z</time>
      </trkpt>
      <trkpt lat="43.87164" lon="7.22543">
        <ele>396</ele>
        <time>2012-05-27T10:42:44Z</time>
      </trkpt>
      <trkpt lat="43.8715" lon="7.22554">
        <ele>399.3</ele>
        <time>2012-05-27T10:42:56Z</time>
      </trkpt>
      <trkpt lat="43.87137" lon="7.22566">
        <ele>403</ele>
        <time>2012-05-27T10:43:08Z</time>
      </trkpt>
      <trkpt lat="43.87131" lon="7.22575">
        <ele>405.5</ele>
        <time>2012-05-27T10:43:12Z</time>
      </trkpt>
      <trkpt lat="43.87119" lon="7.22589">
        <ele>410.4</ele>
        <time>2012-05-27T10:43:18Z</time>
      </trkpt>
      <trkpt lat="43.87108" lon="7.22606">
        <ele>417.5</ele>
        <time>2012-05-27T10:43:24Z</time>
      </trkpt>
      <trkpt lat="43.871" lon="7.22621">
        <ele>423.7</ele>
        <time>2012-05-27T10:43:28Z</time>
      </trkpt>
      <trkpt lat="43.87093" lon="7.22638">
        <ele>430.5</ele>
        <time>2012-05-27T10:43:32Z</time>
      </trkpt>
      <trkpt lat="43.87085" lon="7.22654">
        <ele>438</ele>
        <time>2012-05-27T10:43:37Z</time>
      </trkpt>
      <trkpt lat="43.87075" lon="7.2264">
        <ele>438.1</ele>
        <time>2012-05-27T10:43:43Z</time>
      </trkpt>
      <trkpt lat="43.87064" lon="7.22624">
        <ele>434</ele>
        <time>2012-05-27T10:43:51Z</time>
      </trkpt>
      <trkpt lat="43.87056" lon="7.22604">
        <ele>427.3</ele>
        <time>2012-05-27T10:44:02Z</time>
      </trkpt>
      <trkpt lat="43.87042" lon="7.22591">
        <ele>424.2</ele>
        <time>2012-05-27T10:44:15Z</time>
      </trkpt>
      <trkpt lat="43.87027" lon="7.2258">
        <ele>419.9</ele>
        <time>2012-05-27T10:44:29Z</time>
      </trkpt>
      <trkpt lat="43.8701" lon="7.22581">
        <ele>420.4</ele>
        <time>2012-05-27T10:44:45Z</time>
      </trkpt>
      <trkpt lat="43.86993" lon="7.22586">
        <ele>422.7</ele>
        <time>2012-05-27T10:45:03Z</time>
      </trkpt>
      <trkpt lat="43.87" lon="7.22592">
        <ele>424.6</ele>
        <time>2012-05-27T10:45:15Z</time>
      </trkpt>
      <trkpt lat="43.87012" lon="7.22609">
        <ele>430.1</ele>
        <time>2012-05-27T10:45:30Z</time>
      </trkpt>
      <trkpt lat="43.87008" lon="7.22618">
        <ele>434</ele>
        <time>2012-05-27T10:45:54Z</time>
      </trkpt>
      <trkpt lat="43.86992" lon="7.22612">
        <ele>431.5</ele>
        <time>2012-05-27T10:46:13Z</time>
      </trkpt>
      <trkpt lat="43.86983" lon="7.22616">
        <ele>432.2</ele>
        <time>2012-05-27T10:46:32Z</time>
      </trkpt>
      <trkpt lat="43.86967" lon="7.22622">
        <ele>433.5</ele>
        <time>2012-05-27T10:46:49Z</time>
      </trkpt>
      <trkpt lat="43.8695" lon="7.22627">
        <ele>436.4</ele>
        <time>2012-05-27T10:47:10Z</time>
      </trkpt>
      <trkpt lat="43.86942" lon="7.22628">
        <ele>439.2</ele>
        <time>2012-05-27T10:47:19Z</time>
      </trkpt>
      <trkpt lat="43.86927" lon="7.22638">
        <ele>445.5</ele>
        <time>2012-05-27T10:47:36Z</time>
      </trkpt>
      <trkpt lat="43.86915" lon="7.22651">
        <ele>451.1</ele>
        <time>2012-05-27T10:47:48Z</time>
      </trkpt>
      <trkpt lat="43.86905" lon="7.2267">
        <ele>456.6</ele>
        <time>2012-05-27T10:48:02Z</time>
      </trkpt>
      <trkpt lat="43.86893" lon="7.22684">
        <ele>459.7</ele>
        <time>2012-05-27T10:48:17Z</time>
      </trkpt>
      <trkpt lat="43.86877" lon="7.22694">
        <ele>461</ele>
        <time>2012-05-27T10:48:33Z</time>
      </trkpt>
      <trkpt lat="43.86868" lon="7.227">
        <ele>463.5</ele>
        <time>2012-05-27T10:48:41Z</time>
      </trkpt>
      <trkpt lat="43.86855" lon="7.22713">
        <ele>470.3</ele>
        <time>2012-05-27T10:48:55Z</time>
      </trkpt>
      <trkpt lat="43.86854" lon="7.22725">
        <ele>472.5</ele>
        <time>2012-05-27T10:49:05Z</time>
      </trkpt>
      <trkpt lat="43.86856" lon="7.22737">
        <ele>473.4</ele>
        <time>2012-05-27T10:49:12Z</time>
      </trkpt>
      <trkpt lat="43.86852" lon="7.22748">
        <ele>475.7</ele>
        <time>2012-05-27T10:49:20Z</time>
      </trkpt>
      <trkpt lat="43.86837" lon="7.22758">
        <ele>480.7</ele>
        <time>2012-05-27T10:49:36Z</time>
      </trkpt>
      <trkpt lat="43.8683" lon="7.22766">
        <ele>482.9</ele>
        <time>2012-05-27T10:49:49Z</time>
      </trkpt>
      <trkpt lat="43.8682" lon="7.22785">
        <ele>485.3</ele>
        <time>2012-05-27T10:50:07Z</time>
      </trkpt>
      <trkpt lat="43.86817" lon="7.22796">
        <ele>486.7</ele>
        <time>2012-05-27T10:50:16Z</time>
      </trkpt>
      <trkpt lat="43.86806" lon="7.22813">
        <ele>491.7</ele>
        <time>2012-05-27T10:50:31Z</time>
      </trkpt>
      <trkpt lat="43.86783" lon="7.22825">
        <ele>496.5</ele>
        <time>2012-05-27T10:50:56Z</time>
      </trkpt>
      <trkpt lat="43.86766" lon="7.22821">
        <ele>498.8</ele>
        <time>2012-05-27T10:51:11Z</time>
      </trkpt>
      <trkpt lat="43.86758" lon="7.22825">
        <ele>500.7</ele>
        <time>2012-05-27T10:51:19Z</time>
      </trkpt>
      <trkpt lat="43.86742" lon="7.22833">
        <ele>503.8</ele>
        <time>2012-05-27T10:51:34Z</time>
      </trkpt>
      <trkpt lat="43.86735" lon="7.22838">
        <ele>505.1</ele>
        <time>2012-05-27T10:51:40Z</time>
      </trkpt>
      <trkpt lat="43.8672" lon="7.22847">
        <ele>507.1</ele>
        <time>2012-05-27T10:51:49Z</time>
      </trkpt>
      <trkpt lat="43.86712" lon="7.22848">
        <ele>508.1</ele>
        <time>2012-05-27T10:51:55Z</time>
      </trkpt>
      <trkpt lat="43.86703" lon="7.22837">
        <ele>509.2</ele>
        <time>2012-05-27T10:52:00Z</time>
      </trkpt>
      <trkpt lat="43.86692" lon="7.22827">
        <ele>511.7</ele>
        <time>2012-05-27T10:52:06Z</time>
      </trkpt>
      <trkpt lat="43.86679" lon="7.22823">
        <ele>514.2</ele>
        <time>2012-05-27T10:52:12Z</time>
      </trkpt>
      <trkpt lat="43.86667" lon="7.22834">
        <ele>516.7</ele>
        <time>2012-05-27T10:52:18Z</time>
      </trkpt>
      <trkpt lat="43.86658" lon="7.22837">
        <ele>518.4</ele>
        <time>2012-05-27T10:52:22Z</time>
      </trkpt>
      <trkpt lat="43.86644" lon="7.22847">
        <ele>521.6</ele>
        <time>2012-05-27T10:52:30Z</time>
      </trkpt>
      <trkpt lat="43.8663" lon="7.22859">
        <ele>524.9</ele>
        <time>2012-05-27T10:52:40Z</time>
      </trkpt>
      <trkpt lat="43.86618" lon="7.22873">
        <ele>528.6</ele>
        <time>2012-05-27T10:52:51Z</time>
      </trkpt>
      <trkpt lat="43.86614" lon="7.22885">
        <ele>530.1</ele>
        <time>2012-05-27T10:53:09Z</time>
      </trkpt>
      <trkpt lat="43.8662" lon="7.22894">
        <ele>529.7</ele>
        <time>2012-05-27T10:53:30Z</time>
      </trkpt>
      <trkpt lat="43.86636" lon="7.22886">
        <ele>525.7</ele>
        <time>2012-05-27T10:53:48Z</time>
      </trkpt>
      <trkpt lat="43.86644" lon="7.22885">
        <ele>523.8</ele>
        <time>2012-05-27T10:53:56Z</time>
      </trkpt>
      <trkpt lat="43.8666" lon="7.2289">
        <ele>521.2</ele>
        <time>2012-05-27T10:54:10Z</time>
      </trkpt>
      <trkpt lat="43.86676" lon="7.22901">
        <ele>520.2</ele>
        <time>2012-05-27T10:54:26Z</time>
      </trkpt>
      <trkpt lat="43.86685" lon="7.2292">
        <ele>522.6</ele>
        <time>2012-05-27T10:54:41Z</time>
      </trkpt>
      <trkpt lat="43.86694" lon="7.22935">
        <ele>524.8</ele>
        <time>2012-05-27T10:54:49Z</time>
      </trkpt>
      <trkpt lat="43.86707" lon="7.22938">
        <ele>525.7</ele>
        <time>2012-05-27T10:54:55Z</time>
      </trkpt>
      <trkpt lat="43.86717" lon="7.22921">
        <ele>521.3</ele>
        <time>2012-05-27T10:55:06Z</time>
      </trkpt>
      <trkpt lat="43.86726" lon="7.22914">
        <ele>519.5</ele>
        <time>2012-05-27T10:55:13Z</time>
      </trkpt>
      <trkpt lat="43.8674" lon="7.22914">
        <ele>519.2</ele>
        <time>2012-05-27T10:55:32Z</time>
      </trkpt>
      <trkpt lat="43.86749" lon="7.22918">
        <ele>521.1</ele>
        <time>2012-05-27T10:55:44Z</time>
      </trkpt>
      <trkpt lat="43.86757" lon="7.22917">
        <ele>520.9</ele>
        <time>2012-05-27T10:55:54Z</time>
      </trkpt>
      <trkpt lat="43.86773" lon="7.22915">
        <ele>521.1</ele>
        <time>2012-05-27T10:56:06Z</time>
      </trkpt>
      <trkpt lat="43.86806" lon="7.22928">
        <ele>528</ele>
        <time>2012-05-27T10:56:38Z</time>
      </trkpt>
      <trkpt lat="43.86822" lon="7.2293">
        <ele>530.3</ele>
        <time>2012-05-27T10:56:53Z</time>
      </trkpt>
      <trkpt lat="43.8683" lon="7.22927">
        <ele>530.3</ele>
        <time>2012-05-27T10:57:00Z</time>
      </trkpt>
      <trkpt lat="43.86844" lon="7.22917">
        <ele>527.5</ele>
        <time>2012-05-27T10:57:12Z</time>
      </trkpt>
      <trkpt lat="43.86861" lon="7.22915">
        <ele>527.3</ele>
        <time>2012-05-27T10:57:25Z</time>
      </trkpt>
      <trkpt lat="43.86877" lon="7.2292">
        <ele>531</ele>
        <time>2012-05-27T10:57:39Z</time>
      </trkpt>
      <trkpt lat="43.86894" lon="7.22927">
        <ele>537.4</ele>
        <time>2012-05-27T10:57:53Z</time>
      </trkpt>
      <trkpt lat="43.8691" lon="7.22925">
        <ele>539.4</ele>
        <time>2012-05-27T10:58:05Z</time>
      </trkpt>
      <trkpt lat="43.86928" lon="7.22926">
        <ele>542.6</ele>
        <time>2012-05-27T10:58:20Z</time>
      </trkpt>
      <trkpt lat="43.86934" lon="7.2292">
        <ele>541.6</ele>
        <time>2012-05-27T10:58:26Z</time>
      </trkpt>
      <trkpt lat="43.86947" lon="7.22903">
        <ele>537.8</ele>
        <time>2012-05-27T10:58:43Z</time>
      </trkpt>
      <trkpt lat="43.86956" lon="7.22914">
        <ele>542.5</ele>
        <time>2012-05-27T10:58:58Z</time>
      </trkpt>
      <trkpt lat="43.86953" lon="7.22926">
        <ele>545.8</ele>
        <time>2012-05-27T10:59:04Z</time>
      </trkpt>
      <trkpt lat="43.8695" lon="7.22947">
        <ele>552.8</ele>
        <time>2012-05-27T10:59:18Z</time>
      </trkpt>
      <trkpt lat="43.86945" lon="7.22957">
        <ele>555.9</ele>
        <time>2012-05-27T10:59:25Z</time>
      </trkpt>
      <trkpt lat="43.86935" lon="7.2296">
        <ele>556.5</ele>
        <time>2012-05-27T10:59:29Z</time>
      </trkpt>
      <trkpt lat="43.86924" lon="7.2296">
        <ele>555.8</ele>
        <time>2012-05-27T10:59:33Z</time>
      </trkpt>
      <trkpt lat="43.8691" lon="7.22963">
        <ele>555.5</ele>
        <time>2012-05-27T10:59:38Z</time>
      </trkpt>
      <trkpt lat="43.86894" lon="7.22962">
        <ele>554.4</ele>
        <time>2012-05-27T10:59:43Z</time>
      </trkpt>
      <trkpt lat="43.86885" lon="7.22964">
        <ele>554</ele>
        <time>2012-05-27T10:59:48Z</time>
      </trkpt>
      <trkpt lat="43.86869" lon="7.22969">
        <ele>554.1</ele>
        <time>2012-05-27T10:59:57Z</time>
      </trkpt>
      <trkpt lat="43.86839" lon="7.22983">
        <ele>555.8</ele>
        <time>2012-05-27T11:00:12Z</time>
      </trkpt>
      <trkpt lat="43.86832" lon="7.2299">
        <ele>557.2</ele>
        <time>2012-05-27T11:00:16Z</time>
      </trkpt>
      <trkpt lat="43.86816" lon="7.22995">
        <ele>557.6</ele>
        <time>2012-05-27T11:00:24Z</time>
      </trkpt>
      <trkpt lat="43.86807" lon="7.22994">
        <ele>556.8</ele>
        <time>2012-05-27T11:00:28Z</time>
      </trkpt>
      <trkpt lat="43.86798" lon="7.22999">
        <ele>556.9</ele>
        <time>2012-05-27T11:00:33Z</time>
      </trkpt>
      <trkpt lat="43.86784" lon="7.23007">
        <ele>558.5</ele>
        <time>2012-05-27T11:00:46Z</time>
      </trkpt>
      <trkpt lat="43.86772" lon="7.23023">
        <ele>563.8</ele>
        <time>2012-05-27T11:01:05Z</time>
      </trkpt>
      <trkpt lat="43.86759" lon="7.23037">
        <ele>567.7</ele>
        <time>2012-05-27T11:01:15Z</time>
      </trkpt>
      <trkpt lat="43.86747" lon="7.23053">
        <ele>571.1</ele>
        <time>2012-05-27T11:01:28Z</time>
      </trkpt>
      <trkpt lat="43.86728" lon="7.23072">
        <ele>573.1</ele>
        <time>2012-05-27T11:01:45Z</time>
      </trkpt>
      <trkpt lat="43.86722" lon="7.23076">
        <ele>572.9</ele>
        <time>2012-05-27T11:01:47Z</time>
      </trkpt>
      <trkpt lat="43.86706" lon="7.23084">
        <ele>571.9</ele>
        <time>2012-05-27T11:01:53Z</time>
      </trkpt>
      <trkpt lat="43.8669" lon="7.23095">
        <ele>572.3</ele>
        <time>2012-05-27T11:02:01Z</time>
      </trkpt>
      <trkpt lat="43.86684" lon="7.23103">
        <ele>573.4</ele>
        <time>2012-05-27T11:02:05Z</time>
      </trkpt>
      <trkpt lat="43.86675" lon="7.23123">
        <ele>576.7</ele>
        <time>2012-05-27T11:02:10Z</time>
      </trkpt>
      <trkpt lat="43.86668" lon="7.23142">
        <ele>580.7</ele>
        <time>2012-05-27T11:02:14Z</time>
      </trkpt>
      <trkpt lat="43.86663" lon="7.23151">
        <ele>582.9</ele>
        <time>2012-05-27T11:02:17Z</time>
      </trkpt>
      <trkpt lat="43.86655" lon="7.23164">
        <ele>585.4</ele>
        <time>2012-05-27T11:02:21Z</time>
      </trkpt>
      <trkpt lat="43.86651" lon="7.23174">
        <ele>587</ele>
        <time>2012-05-27T11:02:23Z</time>
      </trkpt>
      <trkpt lat="43.86646" lon="7.23184">
        <ele>589.3</ele>
        <time>2012-05-27T11:02:26Z</time>
      </trkpt>
      <trkpt lat="43.86635" lon="7.23198">
        <ele>591.9</ele>
        <time>2012-05-27T11:02:31Z</time>
      </trkpt>
      <trkpt lat="43.86629" lon="7.23208">
        <ele>593.6</ele>
        <time>2012-05-27T11:02:36Z</time>
      </trkpt>
      <trkpt lat="43.86615" lon="7.23209">
        <ele>595</ele>
        <time>2012-05-27T11:02:44Z</time>
      </trkpt>
      <trkpt lat="43.86606" lon="7.23208">
        <ele>595.4</ele>
        <time>2012-05-27T11:02:48Z</time>
      </trkpt>
      <trkpt lat="43.86592" lon="7.2321">
        <ele>597.2</ele>
        <time>2012-05-27T11:02:56Z</time>
      </trkpt>
      <trkpt lat="43.86559" lon="7.23222">
        <ele>601.1</ele>
        <time>2012-05-27T11:03:28Z</time>
      </trkpt>
      <trkpt lat="43.8655" lon="7.23227">
        <ele>601.9</ele>
        <time>2012-05-27T11:03:41Z</time>
      </trkpt>
      <trkpt lat="43.86568" lon="7.23254">
        <ele>603.5</ele>
        <time>2012-05-27T11:04:29Z</time>
      </trkpt>
      <trkpt lat="43.86572" lon="7.23265">
        <ele>604.7</ele>
        <time>2012-05-27T11:04:44Z</time>
      </trkpt>
      <trkpt lat="43.86586" lon="7.23278">
        <ele>607.2</ele>
        <time>2012-05-27T11:05:18Z</time>
      </trkpt>
      <trkpt lat="43.86595" lon="7.23279">
        <ele>608.2</ele>
        <time>2012-05-27T11:05:31Z</time>
      </trkpt>
      <trkpt lat="43.86603" lon="7.23284">
        <ele>609.6</ele>
        <time>2012-05-27T11:05:45Z</time>
      </trkpt>
      <trkpt lat="43.86614" lon="7.23301">
        <ele>614.9</ele>
        <time>2012-05-27T11:06:22Z</time>
      </trkpt>
      <trkpt lat="43.86629" lon="7.2331">
        <ele>620.1</ele>
        <time>2012-05-27T11:06:42Z</time>
      </trkpt>
      <trkpt lat="43.86638" lon="7.23311">
        <ele>621.9</ele>
        <time>2012-05-27T11:06:51Z</time>
      </trkpt>
      <trkpt lat="43.86654" lon="7.23306">
        <ele>623</ele>
        <time>2012-05-27T11:07:04Z</time>
      </trkpt>
      <trkpt lat="43.86663" lon="7.23306">
        <ele>624.4</ele>
        <time>2012-05-27T11:07:15Z</time>
      </trkpt>
      <trkpt lat="43.8668" lon="7.23299">
        <ele>624.9</ele>
        <time>2012-05-27T11:07:38Z</time>
      </trkpt>
      <trkpt lat="43.86688" lon="7.23299">
        <ele>626.1</ele>
        <time>2012-05-27T11:07:51Z</time>
      </trkpt>
      <trkpt lat="43.86696" lon="7.23293">
        <ele>625.7</ele>
        <time>2012-05-27T11:08:07Z</time>
      </trkpt>
      <trkpt lat="43.86728" lon="7.23283">
        <ele>630.9</ele>
        <time>2012-05-27T11:08:54Z</time>
      </trkpt>
      <trkpt lat="43.86736" lon="7.23278">
        <ele>632.3</ele>
        <time>2012-05-27T11:09:05Z</time>
      </trkpt>
      <trkpt lat="43.86745" lon="7.23278">
        <ele>634.8</ele>
        <time>2012-05-27T11:09:16Z</time>
      </trkpt>
      <trkpt lat="43.86754" lon="7.23294">
        <ele>643.1</ele>
        <time>2012-05-27T11:09:39Z</time>
      </trkpt>
      <trkpt lat="43.86757" lon="7.23317">
        <ele>649.3</ele>
        <time>2012-05-27T11:09:59Z</time>
      </trkpt>
      <trkpt lat="43.86745" lon="7.23332">
        <ele>649.6</ele>
        <time>2012-05-27T11:10:14Z</time>
      </trkpt>
      <trkpt lat="43.86744" lon="7.23345">
        <ele>651.4</ele>
        <time>2012-05-27T11:10:21Z</time>
      </trkpt>
      <trkpt lat="43.86729" lon="7.23371">
        <ele>656.4</ele>
        <time>2012-05-27T11:10:44Z</time>
      </trkpt>
      <trkpt lat="43.86722" lon="7.23378">
        <ele>657.5</ele>
        <time>2012-05-27T11:10:50Z</time>
      </trkpt>
      <trkpt lat="43.86711" lon="7.23392">
        <ele>659.2</ele>
        <time>2012-05-27T11:10:59Z</time>
      </trkpt>
      <trkpt lat="43.86705" lon="7.23413">
        <ele>664.6</ele>
        <time>2012-05-27T11:11:15Z</time>
      </trkpt>
      <trkpt lat="43.86698" lon="7.23423">
        <ele>666.7</ele>
        <time>2012-05-27T11:11:24Z</time>
      </trkpt>
      <trkpt lat="43.86684" lon="7.23447">
        <ele>672.8</ele>
        <time>2012-05-27T11:11:45Z</time>
      </trkpt>
      <trkpt lat="43.86677" lon="7.23453">
        <ele>674.3</ele>
        <time>2012-05-27T11:11:52Z</time>
      </trkpt>
      <trkpt lat="43.86661" lon="7.23463">
        <ele>675.8</ele>
        <time>2012-05-27T11:12:05Z</time>
      </trkpt>
      <trkpt lat="43.86655" lon="7.23473">
        <ele>677</ele>
        <time>2012-05-27T11:12:14Z</time>
      </trkpt>
      <trkpt lat="43.86647" lon="7.23478">
        <ele>677.8</ele>
        <time>2012-05-27T11:12:23Z</time>
      </trkpt>
      <trkpt lat="43.86639" lon="7.23475">
        <ele>677.1</ele>
        <time>2012-05-27T11:12:31Z</time>
      </trkpt>
      <trkpt lat="43.86625" lon="7.23484">
        <ele>677.9</ele>
        <time>2012-05-27T11:12:44Z</time>
      </trkpt>
      <trkpt lat="43.86618" lon="7.23504">
        <ele>679.5</ele>
        <time>2012-05-27T11:12:59Z</time>
      </trkpt>
      <trkpt lat="43.86615" lon="7.23515">
        <ele>681</ele>
        <time>2012-05-27T11:13:03Z</time>
      </trkpt>
      <trkpt lat="43.86607" lon="7.23533">
        <ele>682.2</ele>
        <time>2012-05-27T11:13:08Z</time>
      </trkpt>
      <trkpt lat="43.866" lon="7.23552">
        <ele>683.1</ele>
        <time>2012-05-27T11:13:14Z</time>
      </trkpt>
      <trkpt lat="43.86598" lon="7.23562">
        <ele>683.4</ele>
        <time>2012-05-27T11:13:17Z</time>
      </trkpt>
      <trkpt lat="43.8659" lon="7.23578">
        <ele>683.1</ele>
        <time>2012-05-27T11:13:23Z</time>
      </trkpt>
      <trkpt lat="43.86588" lon="7.23588">
        <ele>683.2</ele>
        <time>2012-05-27T11:13:26Z</time>
      </trkpt>
      <trkpt lat="43.86584" lon="7.23609">
        <ele>684.1</ele>
        <time>2012-05-27T11:13:30Z</time>
      </trkpt>
      <trkpt lat="43.86587" lon="7.2362">
        <ele>685.7</ele>
        <time>2012-05-27T11:13:34Z</time>
      </trkpt>
      <trkpt lat="43.86588" lon="7.23639">
        <ele>687.2</ele>
        <time>2012-05-27T11:13:38Z</time>
      </trkpt>
      <trkpt lat="43.8659" lon="7.23648">
        <ele>687.9</ele>
        <time>2012-05-27T11:13:40Z</time>
      </trkpt>
      <trkpt lat="43.86589" lon="7.23665">
        <ele>688.6</ele>
        <time>2012-05-27T11:13:44Z</time>
      </trkpt>
      <trkpt lat="43.86587" lon="7.23686">
        <ele>689.4</ele>
        <time>2012-05-27T11:13:49Z</time>
      </trkpt>
      <trkpt lat="43.86587" lon="7.23699">
        <ele>689.9</ele>
        <time>2012-05-27T11:13:52Z</time>
      </trkpt>
      <trkpt lat="43.86588" lon="7.23721">
        <ele>691.3</ele>
        <time>2012-05-27T11:14:00Z</time>
      </trkpt>
      <trkpt lat="43.86584" lon="7.23731">
        <ele>691.8</ele>
        <time>2012-05-27T11:14:10Z</time>
      </trkpt>
      <trkpt lat="43.8659" lon="7.2375">
        <ele>692.9</ele>
        <time>2012-05-27T11:14:22Z</time>
      </trkpt>
      <trkpt lat="43.86595" lon="7.23759">
        <ele>693.4</ele>
        <time>2012-05-27T11:14:25Z</time>
      </trkpt>
      <trkpt lat="43.86602" lon="7.23781">
        <ele>694.6</ele>
        <time>2012-05-27T11:14:34Z</time>
      </trkpt>
      <trkpt lat="43.8661" lon="7.23789">
        <ele>695</ele>
        <time>2012-05-27T11:14:46Z</time>
      </trkpt>
      <trkpt lat="43.86621" lon="7.23803">
        <ele>696.5</ele>
        <time>2012-05-27T11:15:00Z</time>
      </trkpt>
      <trkpt lat="43.86624" lon="7.23815">
        <ele>698.3</ele>
        <time>2012-05-27T11:15:11Z</time>
      </trkpt>
      <trkpt lat="43.86636" lon="7.2383">
        <ele>699.7</ele>
        <time>2012-05-27T11:15:26Z</time>
      </trkpt>
      <trkpt lat="43.86647" lon="7.23849">
        <ele>701.9</ele>
        <time>2012-05-27T11:15:45Z</time>
      </trkpt>
      <trkpt lat="43.86649" lon="7.23861">
        <ele>703.5</ele>
        <time>2012-05-27T11:15:55Z</time>
      </trkpt>
      <trkpt lat="43.86652" lon="7.23883">
        <ele>706.8</ele>
        <time>2012-05-27T11:16:11Z</time>
      </trkpt>
      <trkpt lat="43.86668" lon="7.23888">
        <ele>706.5</ele>
        <time>2012-05-27T11:16:27Z</time>
      </trkpt>
      <trkpt lat="43.8667" lon="7.23907">
        <ele>708.6</ele>
        <time>2012-05-27T11:16:35Z</time>
      </trkpt>
      <trkpt lat="43.8667" lon="7.23927">
        <ele>711.8</ele>
        <time>2012-05-27T11:16:49Z</time>
      </trkpt>
      <trkpt lat="43.86675" lon="7.23938">
        <ele>712.9</ele>
        <time>2012-05-27T11:16:57Z</time>
      </trkpt>
      <trkpt lat="43.86688" lon="7.23944">
        <ele>713.7</ele>
        <time>2012-05-27T11:17:07Z</time>
      </trkpt>
      <trkpt lat="43.86712" lon="7.23975">
        <ele>716.6</ele>
        <time>2012-05-27T11:17:30Z</time>
      </trkpt>
      <trkpt lat="43.86722" lon="7.23992">
        <ele>717.2</ele>
        <time>2012-05-27T11:17:38Z</time>
      </trkpt>
      <trkpt lat="43.86729" lon="7.24013">
        <ele>719.1</ele>
        <time>2012-05-27T11:17:53Z</time>
      </trkpt>
      <trkpt lat="43.86731" lon="7.24026">
        <ele>720.3</ele>
        <time>2012-05-27T11:18:00Z</time>
      </trkpt>
      <trkpt lat="43.86735" lon="7.24045">
        <ele>722</ele>
        <time>2012-05-27T11:18:08Z</time>
      </trkpt>
      <trkpt lat="43.86735" lon="7.24057">
        <ele>722.9</ele>
        <time>2012-05-27T11:18:12Z</time>
      </trkpt>
      <trkpt lat="43.86733" lon="7.24079">
        <ele>724.8</ele>
        <time>2012-05-27T11:18:20Z</time>
      </trkpt>
      <trkpt lat="43.86722" lon="7.24098">
        <ele>728.2</ele>
        <time>2012-05-27T11:18:40Z</time>
      </trkpt>
      <trkpt lat="43.86719" lon="7.24109">
        <ele>729.5</ele>
        <time>2012-05-27T11:18:46Z</time>
      </trkpt>
      <trkpt lat="43.86708" lon="7.24125">
        <ele>732.7</ele>
        <time>2012-05-27T11:18:59Z</time>
      </trkpt>
      <trkpt lat="43.867" lon="7.24133">
        <ele>733.1</ele>
        <time>2012-05-27T11:19:08Z</time>
      </trkpt>
      <trkpt lat="43.86687" lon="7.24141">
        <ele>733.6</ele>
        <time>2012-05-27T11:19:21Z</time>
      </trkpt>
      <trkpt lat="43.86672" lon="7.24138">
        <ele>733.6</ele>
        <time>2012-05-27T11:19:36Z</time>
      </trkpt>
      <trkpt lat="43.86655" lon="7.2414">
        <ele>733.8</ele>
        <time>2012-05-27T11:19:47Z</time>
      </trkpt>
      <trkpt lat="43.86647" lon="7.2416">
        <ele>735.3</ele>
        <time>2012-05-27T11:20:06Z</time>
      </trkpt>
      <trkpt lat="43.86638" lon="7.24158">
        <ele>735.4</ele>
        <time>2012-05-27T11:20:13Z</time>
      </trkpt>
      <trkpt lat="43.86626" lon="7.24146">
        <ele>734.8</ele>
        <time>2012-05-27T11:20:25Z</time>
      </trkpt>
      <trkpt lat="43.86604" lon="7.24158">
        <ele>734.9</ele>
        <time>2012-05-27T11:20:38Z</time>
      </trkpt>
      <trkpt lat="43.86589" lon="7.24168">
        <ele>735.6</ele>
        <time>2012-05-27T11:20:46Z</time>
      </trkpt>
      <trkpt lat="43.86576" lon="7.24176">
        <ele>736.3</ele>
        <time>2012-05-27T11:20:54Z</time>
      </trkpt>
      <trkpt lat="43.86546" lon="7.24188">
        <ele>737.7</ele>
        <time>2012-05-27T11:21:08Z</time>
      </trkpt>
      <trkpt lat="43.86538" lon="7.24192">
        <ele>737.9</ele>
        <time>2012-05-27T11:21:12Z</time>
      </trkpt>
      <trkpt lat="43.86528" lon="7.24195">
        <ele>737.2</ele>
        <time>2012-05-27T11:21:18Z</time>
      </trkpt>
      <trkpt lat="43.86499" lon="7.242">
        <ele>734.2</ele>
        <time>2012-05-27T11:21:34Z</time>
      </trkpt>
      <trkpt lat="43.86485" lon="7.24206">
        <ele>733.2</ele>
        <time>2012-05-27T11:21:42Z</time>
      </trkpt>
      <trkpt lat="43.86478" lon="7.24212">
        <ele>733.1</ele>
        <time>2012-05-27T11:21:46Z</time>
      </trkpt>
      <trkpt lat="43.86469" lon="7.2423">
        <ele>734.6</ele>
        <time>2012-05-27T11:21:54Z</time>
      </trkpt>
      <trkpt lat="43.86457" lon="7.24246">
        <ele>735.9</ele>
        <time>2012-05-27T11:22:02Z</time>
      </trkpt>
      <trkpt lat="43.86447" lon="7.24264">
        <ele>736.2</ele>
        <time>2012-05-27T11:22:10Z</time>
      </trkpt>
      <trkpt lat="43.86443" lon="7.24273">
        <ele>736.7</ele>
        <time>2012-05-27T11:22:14Z</time>
      </trkpt>
      <trkpt lat="43.8644" lon="7.24286">
        <ele>737.8</ele>
        <time>2012-05-27T11:22:19Z</time>
      </trkpt>
      <trkpt lat="43.86435" lon="7.24314">
        <ele>741.3</ele>
        <time>2012-05-27T11:22:31Z</time>
      </trkpt>
      <trkpt lat="43.86432" lon="7.24326">
        <ele>742.3</ele>
        <time>2012-05-27T11:22:36Z</time>
      </trkpt>
      <trkpt lat="43.86423" lon="7.24342">
        <ele>742.6</ele>
        <time>2012-05-27T11:22:44Z</time>
      </trkpt>
      <trkpt lat="43.86412" lon="7.24359">
        <ele>741.8</ele>
        <time>2012-05-27T11:22:53Z</time>
      </trkpt>
      <trkpt lat="43.86402" lon="7.24375">
        <ele>741.1</ele>
        <time>2012-05-27T11:23:01Z</time>
      </trkpt>
      <trkpt lat="43.86393" lon="7.24395">
        <ele>741.1</ele>
        <time>2012-05-27T11:23:09Z</time>
      </trkpt>
      <trkpt lat="43.86387" lon="7.24414">
        <ele>741.5</ele>
        <time>2012-05-27T11:23:17Z</time>
      </trkpt>
      <trkpt lat="43.86384" lon="7.24426">
        <ele>741.9</ele>
        <time>2012-05-27T11:23:22Z</time>
      </trkpt>
      <trkpt lat="43.86388" lon="7.24446">
        <ele>745.8</ele>
        <time>2012-05-27T11:23:31Z</time>
      </trkpt>
      <trkpt lat="43.864" lon="7.24487">
        <ele>752.1</ele>
        <time>2012-05-27T11:23:49Z</time>
      </trkpt>
      <trkpt lat="43.86403" lon="7.24498">
        <ele>753</ele>
        <time>2012-05-27T11:23:53Z</time>
      </trkpt>
      <trkpt lat="43.86419" lon="7.24534">
        <ele>759.3</ele>
        <time>2012-05-27T11:24:09Z</time>
      </trkpt>
      <trkpt lat="43.86431" lon="7.24552">
        <ele>763.8</ele>
        <time>2012-05-27T11:24:19Z</time>
      </trkpt>
      <trkpt lat="43.86436" lon="7.24565">
        <ele>765.3</ele>
        <time>2012-05-27T11:24:25Z</time>
      </trkpt>
      <trkpt lat="43.8644" lon="7.24583">
        <ele>766.1</ele>
        <time>2012-05-27T11:24:33Z</time>
      </trkpt>
      <trkpt lat="43.86441" lon="7.24595">
        <ele>765.6</ele>
        <time>2012-05-27T11:24:37Z</time>
      </trkpt>
      <trkpt lat="43.8644" lon="7.24618">
        <ele>763.7</ele>
        <time>2012-05-27T11:24:45Z</time>
      </trkpt>
      <trkpt lat="43.86437" lon="7.2464">
        <ele>763.2</ele>
        <time>2012-05-27T11:24:53Z</time>
      </trkpt>
      <trkpt lat="43.86432" lon="7.2466">
        <ele>763.6</ele>
        <time>2012-05-27T11:25:01Z</time>
      </trkpt>
      <trkpt lat="43.86429" lon="7.24669">
        <ele>763.4</ele>
        <time>2012-05-27T11:25:05Z</time>
      </trkpt>
      <trkpt lat="43.86422" lon="7.24688">
        <ele>762.5</ele>
        <time>2012-05-27T11:25:13Z</time>
      </trkpt>
      <trkpt lat="43.86419" lon="7.24697">
        <ele>762.2</ele>
        <time>2012-05-27T11:25:17Z</time>
      </trkpt>
      <trkpt lat="43.86402" lon="7.24743">
        <ele>763.3</ele>
        <time>2012-05-27T11:25:37Z</time>
      </trkpt>
      <trkpt lat="43.8639" lon="7.24782">
        <ele>765.8</ele>
        <time>2012-05-27T11:25:53Z</time>
      </trkpt>
      <trkpt lat="43.8638" lon="7.24823">
        <ele>769.4</ele>
        <time>2012-05-27T11:26:10Z</time>
      </trkpt>
      <trkpt lat="43.86379" lon="7.24834">
        <ele>770.9</ele>
        <time>2012-05-27T11:26:14Z</time>
      </trkpt>
      <trkpt lat="43.86373" lon="7.24853">
        <ele>772.5</ele>
        <time>2012-05-27T11:26:22Z</time>
      </trkpt>
      <trkpt lat="43.86371" lon="7.24863">
        <ele>773.4</ele>
        <time>2012-05-27T11:26:26Z</time>
      </trkpt>
      <trkpt lat="43.86367" lon="7.24886">
        <ele>776</ele>
        <time>2012-05-27T11:26:36Z</time>
      </trkpt>
      <trkpt lat="43.86363" lon="7.24908">
        <ele>777.1</ele>
        <time>2012-05-27T11:26:46Z</time>
      </trkpt>
      <trkpt lat="43.86362" lon="7.2493">
        <ele>779</ele>
        <time>2012-05-27T11:26:56Z</time>
      </trkpt>
      <trkpt lat="43.86361" lon="7.24952">
        <ele>781.3</ele>
        <time>2012-05-27T11:27:05Z</time>
      </trkpt>
      <trkpt lat="43.86361" lon="7.24974">
        <ele>783</ele>
        <time>2012-05-27T11:27:13Z</time>
      </trkpt>
      <trkpt lat="43.86362" lon="7.24995">
        <ele>784.2</ele>
        <time>2012-05-27T11:27:21Z</time>
      </trkpt>
      <trkpt lat="43.86365" lon="7.25018">
        <ele>785.9</ele>
        <time>2012-05-27T11:27:30Z</time>
      </trkpt>
      <trkpt lat="43.86367" lon="7.25037">
        <ele>788</ele>
        <time>2012-05-27T11:27:37Z</time>
      </trkpt>
      <trkpt lat="43.86372" lon="7.25058">
        <ele>789.5</ele>
        <time>2012-05-27T11:27:45Z</time>
      </trkpt>
      <trkpt lat="43.86378" lon="7.25078">
        <ele>791.2</ele>
        <time>2012-05-27T11:27:53Z</time>
      </trkpt>
      <trkpt lat="43.86383" lon="7.25098">
        <ele>793</ele>
        <time>2012-05-27T11:28:01Z</time>
      </trkpt>
      <trkpt lat="43.86387" lon="7.25108">
        <ele>794.3</ele>
        <time>2012-05-27T11:28:05Z</time>
      </trkpt>
      <trkpt lat="43.86398" lon="7.25148">
        <ele>798.9</ele>
        <time>2012-05-27T11:28:21Z</time>
      </trkpt>
      <trkpt lat="43.86404" lon="7.25168">
        <ele>800.6</ele>
        <time>2012-05-27T11:28:29Z</time>
      </trkpt>
      <trkpt lat="43.86412" lon="7.25197">
        <ele>803.4</ele>
        <time>2012-05-27T11:28:41Z</time>
      </trkpt>
      <trkpt lat="43.8642" lon="7.25227">
        <ele>806.2</ele>
        <time>2012-05-27T11:28:53Z</time>
      </trkpt>
      <trkpt lat="43.86424" lon="7.25249">
        <ele>807.5</ele>
        <time>2012-05-27T11:29:01Z</time>
      </trkpt>
      <trkpt lat="43.86427" lon="7.25259">
        <ele>808.2</ele>
        <time>2012-05-27T11:29:05Z</time>
      </trkpt>
      <trkpt lat="43.86431" lon="7.2528">
        <ele>809</ele>
        <time>2012-05-27T11:29:13Z</time>
      </trkpt>
      <trkpt lat="43.86439" lon="7.25323">
        <ele>811.7</ele>
        <time>2012-05-27T11:29:32Z</time>
      </trkpt>
      <trkpt lat="43.86441" lon="7.25338">
        <ele>812.6</ele>
        <time>2012-05-27T11:29:38Z</time>
      </trkpt>
      <trkpt lat="43.86449" lon="7.25368">
        <ele>816.2</ele>
        <time>2012-05-27T11:29:52Z</time>
      </trkpt>
      <trkpt lat="43.8645" lon="7.25379">
        <ele>817.1</ele>
        <time>2012-05-27T11:29:57Z</time>
      </trkpt>
      <trkpt lat="43.86453" lon="7.25402">
        <ele>817.9</ele>
        <time>2012-05-27T11:30:06Z</time>
      </trkpt>
      <trkpt lat="43.86452" lon="7.25422">
        <ele>817.3</ele>
        <time>2012-05-27T11:30:14Z</time>
      </trkpt>
      <trkpt lat="43.86455" lon="7.25432">
        <ele>818.3</ele>
        <time>2012-05-27T11:30:18Z</time>
      </trkpt>
      <trkpt lat="43.86462" lon="7.25451">
        <ele>821.6</ele>
        <time>2012-05-27T11:30:26Z</time>
      </trkpt>
      <trkpt lat="43.86468" lon="7.25484">
        <ele>824.9</ele>
        <time>2012-05-27T11:30:39Z</time>
      </trkpt>
      <trkpt lat="43.86472" lon="7.25512">
        <ele>826.6</ele>
        <time>2012-05-27T11:30:50Z</time>
      </trkpt>
      <trkpt lat="43.86475" lon="7.25522">
        <ele>827.7</ele>
        <time>2012-05-27T11:30:54Z</time>
      </trkpt>
      <trkpt lat="43.86478" lon="7.25542">
        <ele>828.9</ele>
        <time>2012-05-27T11:31:02Z</time>
      </trkpt>
      <trkpt lat="43.86484" lon="7.25563">
        <ele>829.9</ele>
        <time>2012-05-27T11:31:11Z</time>
      </trkpt>
      <trkpt lat="43.8649" lon="7.25585">
        <ele>831.3</ele>
        <time>2012-05-27T11:31:21Z</time>
      </trkpt>
      <trkpt lat="43.865" lon="7.25604">
        <ele>835</ele>
        <time>2012-05-27T11:31:31Z</time>
      </trkpt>
      <trkpt lat="43.86512" lon="7.25621">
        <ele>840.1</ele>
        <time>2012-05-27T11:31:41Z</time>
      </trkpt>
      <trkpt lat="43.86538" lon="7.25652">
        <ele>849.8</ele>
        <time>2012-05-27T11:32:01Z</time>
      </trkpt>
      <trkpt lat="43.86547" lon="7.2567">
        <ele>851.6</ele>
        <time>2012-05-27T11:32:11Z</time>
      </trkpt>
      <trkpt lat="43.86551" lon="7.25681">
        <ele>851.6</ele>
        <time>2012-05-27T11:32:16Z</time>
      </trkpt>
      <trkpt lat="43.86554" lon="7.25704">
        <ele>849.2</ele>
        <time>2012-05-27T11:32:26Z</time>
      </trkpt>
      <trkpt lat="43.86563" lon="7.25722">
        <ele>850.2</ele>
        <time>2012-05-27T11:32:37Z</time>
      </trkpt>
      <trkpt lat="43.8657" lon="7.25732">
        <ele>852</ele>
        <time>2012-05-27T11:32:52Z</time>
      </trkpt>
      <trkpt lat="43.86579" lon="7.25751">
        <ele>854.1</ele>
        <time>2012-05-27T11:33:16Z</time>
      </trkpt>
      <trkpt lat="43.86602" lon="7.2577">
        <ele>863.6</ele>
        <time>2012-05-27T11:34:04Z</time>
      </trkpt>
      <trkpt lat="43.86614" lon="7.25786">
        <ele>868.3</ele>
        <time>2012-05-27T11:34:30Z</time>
      </trkpt>
      <trkpt lat="43.86619" lon="7.25795">
        <ele>869.9</ele>
        <time>2012-05-27T11:34:40Z</time>
      </trkpt>
      <trkpt lat="43.86631" lon="7.25812">
        <ele>873</ele>
        <time>2012-05-27T11:35:00Z</time>
      </trkpt>
      <trkpt lat="43.86633" lon="7.25826">
        <ele>872.7</ele>
        <time>2012-05-27T11:35:08Z</time>
      </trkpt>
      <trkpt lat="43.8664" lon="7.25844">
        <ele>871.9</ele>
        <time>2012-05-27T11:35:19Z</time>
      </trkpt>
      <trkpt lat="43.86645" lon="7.25867">
        <ele>871.1</ele>
        <time>2012-05-27T11:35:34Z</time>
      </trkpt>
      <trkpt lat="43.86651" lon="7.25875">
        <ele>872.8</ele>
        <time>2012-05-27T11:35:40Z</time>
      </trkpt>
      <trkpt lat="43.86665" lon="7.25888">
        <ele>877.3</ele>
        <time>2012-05-27T11:35:53Z</time>
      </trkpt>
      <trkpt lat="43.8668" lon="7.25898">
        <ele>883.1</ele>
        <time>2012-05-27T11:36:09Z</time>
      </trkpt>
      <trkpt lat="43.86693" lon="7.25909">
        <ele>887.5</ele>
        <time>2012-05-27T11:36:29Z</time>
      </trkpt>
      <trkpt lat="43.86703" lon="7.25924">
        <ele>889.3</ele>
        <time>2012-05-27T11:36:35Z</time>
      </trkpt>
      <trkpt lat="43.86708" lon="7.25932">
        <ele>889.9</ele>
        <time>2012-05-27T11:36:38Z</time>
      </trkpt>
      <trkpt lat="43.86695" lon="7.25945">
        <ele>882.2</ele>
        <time>2012-05-27T11:36:46Z</time>
      </trkpt>
      <trkpt lat="43.86683" lon="7.25953">
        <ele>874.2</ele>
        <time>2012-05-27T11:36:53Z</time>
      </trkpt>
      <trkpt lat="43.86678" lon="7.25977">
        <ele>868.7</ele>
        <time>2012-05-27T11:36:57Z</time>
      </trkpt>
      <trkpt lat="43.8667" lon="7.25994">
        <ele>862.9</ele>
        <time>2012-05-27T11:37:02Z</time>
      </trkpt>
      <trkpt lat="43.86666" lon="7.26006">
        <ele>859</ele>
        <time>2012-05-27T11:37:15Z</time>
      </trkpt>
      <trkpt lat="43.86656" lon="7.26025">
        <ele>852.8</ele>
        <time>2012-05-27T11:37:43Z</time>
      </trkpt>
      <trkpt lat="43.86641" lon="7.26034">
        <ele>846.5</ele>
        <time>2012-05-27T11:38:01Z</time>
      </trkpt>
      <trkpt lat="43.86626" lon="7.2604">
        <ele>839.7</ele>
        <time>2012-05-27T11:38:09Z</time>
      </trkpt>
      <trkpt lat="43.86619" lon="7.26051">
        <ele>837.9</ele>
        <time>2012-05-27T11:38:19Z</time>
      </trkpt>
      <trkpt lat="43.86617" lon="7.26071">
        <ele>840.7</ele>
        <time>2012-05-27T11:38:27Z</time>
      </trkpt>
      <trkpt lat="43.8661" lon="7.26072">
        <ele>840.8</ele>
        <time>2012-05-27T11:38:30Z</time>
      </trkpt>
      <trkpt lat="43.86594" lon="7.26076">
        <ele>840.3</ele>
        <time>2012-05-27T11:38:38Z</time>
      </trkpt>
      <trkpt lat="43.86577" lon="7.26073">
        <ele>838.6</ele>
        <time>2012-05-27T11:38:52Z</time>
      </trkpt>
      <trkpt lat="43.86569" lon="7.26078">
        <ele>839.2</ele>
        <time>2012-05-27T11:39:02Z</time>
      </trkpt>
      <trkpt lat="43.86553" lon="7.26082">
        <ele>839.7</ele>
        <time>2012-05-27T11:39:17Z</time>
      </trkpt>
      <trkpt lat="43.86544" lon="7.26082">
        <ele>839.4</ele>
        <time>2012-05-27T11:39:24Z</time>
      </trkpt>
      <trkpt lat="43.86529" lon="7.26077">
        <ele>840.7</ele>
        <time>2012-05-27T11:39:39Z</time>
      </trkpt>
      <trkpt lat="43.86515" lon="7.26067">
        <ele>840.4</ele>
        <time>2012-05-27T11:39:55Z</time>
      </trkpt>
      <trkpt lat="43.86506" lon="7.26066">
        <ele>842.1</ele>
        <time>2012-05-27T11:40:04Z</time>
      </trkpt>
      <trkpt lat="43.86492" lon="7.2606">
        <ele>843.8</ele>
        <time>2012-05-27T11:40:12Z</time>
      </trkpt>
      <trkpt lat="43.86478" lon="7.2605">
        <ele>844</ele>
        <time>2012-05-27T11:40:20Z</time>
      </trkpt>
      <trkpt lat="43.86468" lon="7.26055">
        <ele>847.1</ele>
        <time>2012-05-27T11:40:25Z</time>
      </trkpt>
      <trkpt lat="43.86455" lon="7.2605">
        <ele>850.9</ele>
        <time>2012-05-27T11:40:37Z</time>
      </trkpt>
      <trkpt lat="43.86445" lon="7.26033">
        <ele>846.3</ele>
        <time>2012-05-27T11:40:53Z</time>
      </trkpt>
      <trkpt lat="43.86439" lon="7.26028">
        <ele>845.4</ele>
        <time>2012-05-27T11:40:58Z</time>
      </trkpt>
      <trkpt lat="43.86426" lon="7.2602">
        <ele>845.5</ele>
        <time>2012-05-27T11:41:04Z</time>
      </trkpt>
      <trkpt lat="43.86414" lon="7.26007">
        <ele>843.6</ele>
        <time>2012-05-27T11:41:10Z</time>
      </trkpt>
      <trkpt lat="43.864" lon="7.25996">
        <ele>842</ele>
        <time>2012-05-27T11:41:18Z</time>
      </trkpt>
      <trkpt lat="43.86388" lon="7.25985">
        <ele>840.6</ele>
        <time>2012-05-27T11:41:24Z</time>
      </trkpt>
      <trkpt lat="43.8638" lon="7.25981">
        <ele>840.7</ele>
        <time>2012-05-27T11:41:27Z</time>
      </trkpt>
      <trkpt lat="43.86364" lon="7.25974">
        <ele>842.4</ele>
        <time>2012-05-27T11:41:33Z</time>
      </trkpt>
      <trkpt lat="43.86349" lon="7.25969">
        <ele>845.5</ele>
        <time>2012-05-27T11:41:39Z</time>
      </trkpt>
      <trkpt lat="43.86335" lon="7.25963">
        <ele>848</ele>
        <time>2012-05-27T11:41:43Z</time>
      </trkpt>
      <trkpt lat="43.8632" lon="7.25958">
        <ele>852.1</ele>
        <time>2012-05-27T11:41:49Z</time>
      </trkpt>
      <trkpt lat="43.86308" lon="7.25947">
        <ele>852.6</ele>
        <time>2012-05-27T11:41:55Z</time>
      </trkpt>
      <trkpt lat="43.86303" lon="7.2594">
        <ele>852.4</ele>
        <time>2012-05-27T11:41:58Z</time>
      </trkpt>
      <trkpt lat="43.86293" lon="7.25929">
        <ele>851.7</ele>
        <time>2012-05-27T11:42:02Z</time>
      </trkpt>
      <trkpt lat="43.86282" lon="7.25918">
        <ele>851.3</ele>
        <time>2012-05-27T11:42:06Z</time>
      </trkpt>
      <trkpt lat="43.8627" lon="7.25905">
        <ele>850.3</ele>
        <time>2012-05-27T11:42:11Z</time>
      </trkpt>
      <trkpt lat="43.86256" lon="7.25895">
        <ele>850.4</ele>
        <time>2012-05-27T11:42:15Z</time>
      </trkpt>
      <trkpt lat="43.86252" lon="7.25885">
        <ele>849.3</ele>
        <time>2012-05-27T11:42:18Z</time>
      </trkpt>
      <trkpt lat="43.86247" lon="7.25869">
        <ele>845.4</ele>
        <time>2012-05-27T11:42:22Z</time>
      </trkpt>
      <trkpt lat="43.86242" lon="7.25859">
        <ele>843.5</ele>
        <time>2012-05-27T11:42:24Z</time>
      </trkpt>
      <trkpt lat="43.86232" lon="7.25842">
        <ele>840.2</ele>
        <time>2012-05-27T11:42:28Z</time>
      </trkpt>
      <trkpt lat="43.8623" lon="7.25839">
        <ele>839.8</ele>
        <time>2012-05-27T11:42:29Z</time>
      </trkpt>
      <trkpt lat="43.86221" lon="7.25821">
        <ele>836</ele>
        <time>2012-05-27T11:42:34Z</time>
      </trkpt>
      <trkpt lat="43.86209" lon="7.25804">
        <ele>833.5</ele>
        <time>2012-05-27T11:42:40Z</time>
      </trkpt>
      <trkpt lat="43.86204" lon="7.25799">
        <ele>832.7</ele>
        <time>2012-05-27T11:42:42Z</time>
      </trkpt>
      <trkpt lat="43.86196" lon="7.25787">
        <ele>830.1</ele>
        <time>2012-05-27T11:42:45Z</time>
      </trkpt>
      <trkpt lat="43.86189" lon="7.25778">
        <ele>828.1</ele>
        <time>2012-05-27T11:42:47Z</time>
      </trkpt>
      <trkpt lat="43.86176" lon="7.2576">
        <ele>823.8</ele>
        <time>2012-05-27T11:42:51Z</time>
      </trkpt>
      <trkpt lat="43.86171" lon="7.2575">
        <ele>821.1</ele>
        <time>2012-05-27T11:42:53Z</time>
      </trkpt>
      <trkpt lat="43.8616" lon="7.25735">
        <ele>816.7</ele>
        <time>2012-05-27T11:42:57Z</time>
      </trkpt>
      <trkpt lat="43.8615" lon="7.25721">
        <ele>812.7</ele>
        <time>2012-05-27T11:43:01Z</time>
      </trkpt>
      <trkpt lat="43.86136" lon="7.25711">
        <ele>810.2</ele>
        <time>2012-05-27T11:43:06Z</time>
      </trkpt>
      <trkpt lat="43.86124" lon="7.25712">
        <ele>810.7</ele>
        <time>2012-05-27T11:43:09Z</time>
      </trkpt>
      <trkpt lat="43.86112" lon="7.25705">
        <ele>810.4</ele>
        <time>2012-05-27T11:43:12Z</time>
      </trkpt>
      <trkpt lat="43.86104" lon="7.25695">
        <ele>807.9</ele>
        <time>2012-05-27T11:43:14Z</time>
      </trkpt>
      <trkpt lat="43.86095" lon="7.25685">
        <ele>805.1</ele>
        <time>2012-05-27T11:43:16Z</time>
      </trkpt>
      <trkpt lat="43.86088" lon="7.25673">
        <ele>801.5</ele>
        <time>2012-05-27T11:43:18Z</time>
      </trkpt>
      <trkpt lat="43.86077" lon="7.25661">
        <ele>797.2</ele>
        <time>2012-05-27T11:43:21Z</time>
      </trkpt>
      <trkpt lat="43.86068" lon="7.25656">
        <ele>795.4</ele>
        <time>2012-05-27T11:43:23Z</time>
      </trkpt>
      <trkpt lat="43.86057" lon="7.25653">
        <ele>794.6</ele>
        <time>2012-05-27T11:43:25Z</time>
      </trkpt>
      <trkpt lat="43.86044" lon="7.25647">
        <ele>793.8</ele>
        <time>2012-05-27T11:43:28Z</time>
      </trkpt>
      <trkpt lat="43.86016" lon="7.25639">
        <ele>795.7</ele>
        <time>2012-05-27T11:43:34Z</time>
      </trkpt>
      <trkpt lat="43.86009" lon="7.25632">
        <ele>795.7</ele>
        <time>2012-05-27T11:43:36Z</time>
      </trkpt>
      <trkpt lat="43.86002" lon="7.25626">
        <ele>795.4</ele>
        <time>2012-05-27T11:43:38Z</time>
      </trkpt>
      <trkpt lat="43.85986" lon="7.2562">
        <ele>796.8</ele>
        <time>2012-05-27T11:43:42Z</time>
      </trkpt>
      <trkpt lat="43.85982" lon="7.256">
        <ele>794.9</ele>
        <time>2012-05-27T11:43:46Z</time>
      </trkpt>
      <trkpt lat="43.85971" lon="7.25585">
        <ele>792.8</ele>
        <time>2012-05-27T11:43:51Z</time>
      </trkpt>
      <trkpt lat="43.85959" lon="7.2558">
        <ele>793.8</ele>
        <time>2012-05-27T11:43:54Z</time>
      </trkpt>
      <trkpt lat="43.85949" lon="7.25577">
        <ele>795</ele>
        <time>2012-05-27T11:43:56Z</time>
      </trkpt>
      <trkpt lat="43.85944" lon="7.25567">
        <ele>795</ele>
        <time>2012-05-27T11:43:58Z</time>
      </trkpt>
      <trkpt lat="43.85945" lon="7.25554">
        <ele>792.9</ele>
        <time>2012-05-27T11:44:00Z</time>
      </trkpt>
      <trkpt lat="43.85941" lon="7.25537">
        <ele>789.3</ele>
        <time>2012-05-27T11:44:03Z</time>
      </trkpt>
      <trkpt lat="43.85936" lon="7.25529">
        <ele>787.9</ele>
        <time>2012-05-27T11:44:05Z</time>
      </trkpt>
      <trkpt lat="43.85921" lon="7.25518">
        <ele>787.2</ele>
        <time>2012-05-27T11:44:09Z</time>
      </trkpt>
      <trkpt lat="43.85914" lon="7.2551">
        <ele>786.9</ele>
        <time>2012-05-27T11:44:11Z</time>
      </trkpt>
      <trkpt lat="43.85907" lon="7.255">
        <ele>786.2</ele>
        <time>2012-05-27T11:44:13Z</time>
      </trkpt>
      <trkpt lat="43.85902" lon="7.25487">
        <ele>784.9</ele>
        <time>2012-05-27T11:44:15Z</time>
      </trkpt>
      <trkpt lat="43.85898" lon="7.2548">
        <ele>784.1</ele>
        <time>2012-05-27T11:44:16Z</time>
      </trkpt>
      <trkpt lat="43.8589" lon="7.25469">
        <ele>783.1</ele>
        <time>2012-05-27T11:44:18Z</time>
      </trkpt>
      <trkpt lat="43.85879" lon="7.25457">
        <ele>782.8</ele>
        <time>2012-05-27T11:44:21Z</time>
      </trkpt>
      <trkpt lat="43.85871" lon="7.25445">
        <ele>782.4</ele>
        <time>2012-05-27T11:44:23Z</time>
      </trkpt>
      <trkpt lat="43.85859" lon="7.25431">
        <ele>780.6</ele>
        <time>2012-05-27T11:44:27Z</time>
      </trkpt>
      <trkpt lat="43.85852" lon="7.25419">
        <ele>779.5</ele>
        <time>2012-05-27T11:44:29Z</time>
      </trkpt>
      <trkpt lat="43.85848" lon="7.25413">
        <ele>779</ele>
        <time>2012-05-27T11:44:30Z</time>
      </trkpt>
      <trkpt lat="43.85838" lon="7.25408">
        <ele>778.5</ele>
        <time>2012-05-27T11:44:32Z</time>
      </trkpt>
      <trkpt lat="43.85813" lon="7.25404">
        <ele>779.6</ele>
        <time>2012-05-27T11:44:38Z</time>
      </trkpt>
      <trkpt lat="43.85797" lon="7.25406">
        <ele>781</ele>
        <time>2012-05-27T11:44:43Z</time>
      </trkpt>
      <trkpt lat="43.85771" lon="7.25425">
        <ele>781.5</ele>
        <time>2012-05-27T11:44:56Z</time>
      </trkpt>
      <trkpt lat="43.85766" lon="7.25428">
        <ele>781.3</ele>
        <time>2012-05-27T11:44:59Z</time>
      </trkpt>
      <trkpt lat="43.85753" lon="7.2543">
        <ele>780.8</ele>
        <time>2012-05-27T11:45:02Z</time>
      </trkpt>
      <trkpt lat="43.85742" lon="7.25422">
        <ele>779.6</ele>
        <time>2012-05-27T11:45:05Z</time>
      </trkpt>
      <trkpt lat="43.85712" lon="7.25413">
        <ele>776.6</ele>
        <time>2012-05-27T11:45:11Z</time>
      </trkpt>
      <trkpt lat="43.85701" lon="7.25408">
        <ele>775.5</ele>
        <time>2012-05-27T11:45:13Z</time>
      </trkpt>
      <trkpt lat="43.85688" lon="7.25404">
        <ele>774.3</ele>
        <time>2012-05-27T11:45:15Z</time>
      </trkpt>
      <trkpt lat="43.85675" lon="7.25404">
        <ele>773.3</ele>
        <time>2012-05-27T11:45:17Z</time>
      </trkpt>
      <trkpt lat="43.85659" lon="7.25408">
        <ele>772.8</ele>
        <time>2012-05-27T11:45:21Z</time>
      </trkpt>
      <trkpt lat="43.85654" lon="7.254">
        <ele>771.7</ele>
        <time>2012-05-27T11:45:23Z</time>
      </trkpt>
      <trkpt lat="43.8564" lon="7.25396">
        <ele>769.5</ele>
        <time>2012-05-27T11:45:26Z</time>
      </trkpt>
      <trkpt lat="43.85615" lon="7.25393">
        <ele>767.3</ele>
        <time>2012-05-27T11:45:30Z</time>
      </trkpt>
      <trkpt lat="43.85605" lon="7.25386">
        <ele>766.4</ele>
        <time>2012-05-27T11:45:32Z</time>
      </trkpt>
      <trkpt lat="43.856" lon="7.25384">
        <ele>765.3</ele>
        <time>2012-05-27T11:45:33Z</time>
      </trkpt>
      <trkpt lat="43.85588" lon="7.2538">
        <ele>763.9</ele>
        <time>2012-05-27T11:45:35Z</time>
      </trkpt>
      <trkpt lat="43.85577" lon="7.25382">
        <ele>763.6</ele>
        <time>2012-05-27T11:45:37Z</time>
      </trkpt>
      <trkpt lat="43.85559" lon="7.25371">
        <ele>761.1</ele>
        <time>2012-05-27T11:45:41Z</time>
      </trkpt>
      <trkpt lat="43.85549" lon="7.25368">
        <ele>759.7</ele>
        <time>2012-05-27T11:45:43Z</time>
      </trkpt>
      <trkpt lat="43.85537" lon="7.25366">
        <ele>758.6</ele>
        <time>2012-05-27T11:45:45Z</time>
      </trkpt>
      <trkpt lat="43.85527" lon="7.25368">
        <ele>758.8</ele>
        <time>2012-05-27T11:45:47Z</time>
      </trkpt>
      <trkpt lat="43.85516" lon="7.25357">
        <ele>756.9</ele>
        <time>2012-05-27T11:45:50Z</time>
      </trkpt>
      <trkpt lat="43.85511" lon="7.25354">
        <ele>755.9</ele>
        <time>2012-05-27T11:45:51Z</time>
      </trkpt>
      <trkpt lat="43.85498" lon="7.2535">
        <ele>754.3</ele>
        <time>2012-05-27T11:45:53Z</time>
      </trkpt>
      <trkpt lat="43.85487" lon="7.25345">
        <ele>752.7</ele>
        <time>2012-05-27T11:45:55Z</time>
      </trkpt>
      <trkpt lat="43.85478" lon="7.25349">
        <ele>752.8</ele>
        <time>2012-05-27T11:45:57Z</time>
      </trkpt>
      <trkpt lat="43.85466" lon="7.25339">
        <ele>751.4</ele>
        <time>2012-05-27T11:46:01Z</time>
      </trkpt>
      <trkpt lat="43.85457" lon="7.25335">
        <ele>749.1</ele>
        <time>2012-05-27T11:46:03Z</time>
      </trkpt>
      <trkpt lat="43.85425" lon="7.25337">
        <ele>748.5</ele>
        <time>2012-05-27T11:46:09Z</time>
      </trkpt>
      <trkpt lat="43.85415" lon="7.25331">
        <ele>747.1</ele>
        <time>2012-05-27T11:46:11Z</time>
      </trkpt>
      <trkpt lat="43.85402" lon="7.25326">
        <ele>745</ele>
        <time>2012-05-27T11:46:13Z</time>
      </trkpt>
      <trkpt lat="43.85395" lon="7.25323">
        <ele>744</ele>
        <time>2012-05-27T11:46:14Z</time>
      </trkpt>
      <trkpt lat="43.8538" lon="7.25319">
        <ele>742.1</ele>
        <time>2012-05-27T11:46:16Z</time>
      </trkpt>
      <trkpt lat="43.85365" lon="7.25314">
        <ele>739.8</ele>
        <time>2012-05-27T11:46:18Z</time>
      </trkpt>
      <trkpt lat="43.85357" lon="7.25313">
        <ele>738.7</ele>
        <time>2012-05-27T11:46:19Z</time>
      </trkpt>
      <trkpt lat="43.85341" lon="7.2531">
        <ele>736.7</ele>
        <time>2012-05-27T11:46:21Z</time>
      </trkpt>
      <trkpt lat="43.85324" lon="7.2531">
        <ele>735.1</ele>
        <time>2012-05-27T11:46:23Z</time>
      </trkpt>
      <trkpt lat="43.85306" lon="7.25315">
        <ele>734.8</ele>
        <time>2012-05-27T11:46:25Z</time>
      </trkpt>
      <trkpt lat="43.85289" lon="7.25321">
        <ele>734.9</ele>
        <time>2012-05-27T11:46:27Z</time>
      </trkpt>
      <trkpt lat="43.85281" lon="7.25323">
        <ele>735</ele>
        <time>2012-05-27T11:46:28Z</time>
      </trkpt>
      <trkpt lat="43.85265" lon="7.25325">
        <ele>734.7</ele>
        <time>2012-05-27T11:46:30Z</time>
      </trkpt>
      <trkpt lat="43.85258" lon="7.25328">
        <ele>734.6</ele>
        <time>2012-05-27T11:46:31Z</time>
      </trkpt>
      <trkpt lat="43.8523" lon="7.25334">
        <ele>734</ele>
        <time>2012-05-27T11:46:35Z</time>
      </trkpt>
      <trkpt lat="43.85218" lon="7.2534">
        <ele>733.9</ele>
        <time>2012-05-27T11:46:37Z</time>
      </trkpt>
      <trkpt lat="43.85202" lon="7.25342">
        <ele>733.7</ele>
        <time>2012-05-27T11:46:40Z</time>
      </trkpt>
      <trkpt lat="43.85189" lon="7.25335">
        <ele>733.3</ele>
        <time>2012-05-27T11:46:43Z</time>
      </trkpt>
      <trkpt lat="43.85182" lon="7.25319">
        <ele>730.9</ele>
        <time>2012-05-27T11:46:47Z</time>
      </trkpt>
      <trkpt lat="43.85169" lon="7.25306">
        <ele>728.5</ele>
        <time>2012-05-27T11:46:51Z</time>
      </trkpt>
      <trkpt lat="43.85154" lon="7.25297">
        <ele>726.6</ele>
        <time>2012-05-27T11:46:55Z</time>
      </trkpt>
      <trkpt lat="43.85142" lon="7.25284">
        <ele>724.1</ele>
        <time>2012-05-27T11:46:59Z</time>
      </trkpt>
      <trkpt lat="43.85125" lon="7.25263">
        <ele>718</ele>
        <time>2012-05-27T11:47:05Z</time>
      </trkpt>
      <trkpt lat="43.85097" lon="7.25248">
        <ele>711.7</ele>
        <time>2012-05-27T11:47:18Z</time>
      </trkpt>
      <trkpt lat="43.85081" lon="7.25242">
        <ele>708.6</ele>
        <time>2012-05-27T11:47:24Z</time>
      </trkpt>
      <trkpt lat="43.85073" lon="7.25236">
        <ele>706.7</ele>
        <time>2012-05-27T11:47:27Z</time>
      </trkpt>
      <trkpt lat="43.85063" lon="7.25226">
        <ele>702.7</ele>
        <time>2012-05-27T11:47:31Z</time>
      </trkpt>
      <trkpt lat="43.85054" lon="7.25223">
        <ele>700.4</ele>
        <time>2012-05-27T11:47:34Z</time>
      </trkpt>
      <trkpt lat="43.85039" lon="7.25221">
        <ele>698.4</ele>
        <time>2012-05-27T11:47:39Z</time>
      </trkpt>
      <trkpt lat="43.85013" lon="7.2521">
        <ele>696.4</ele>
        <time>2012-05-27T11:47:45Z</time>
      </trkpt>
      <trkpt lat="43.85002" lon="7.25206">
        <ele>695.8</ele>
        <time>2012-05-27T11:47:47Z</time>
      </trkpt>
      <trkpt lat="43.8499" lon="7.25202">
        <ele>695.5</ele>
        <time>2012-05-27T11:47:49Z</time>
      </trkpt>
      <trkpt lat="43.84979" lon="7.25201">
        <ele>695.8</ele>
        <time>2012-05-27T11:47:51Z</time>
      </trkpt>
      <trkpt lat="43.84967" lon="7.25193">
        <ele>695</ele>
        <time>2012-05-27T11:47:54Z</time>
      </trkpt>
      <trkpt lat="43.84954" lon="7.25188">
        <ele>693.8</ele>
        <time>2012-05-27T11:47:58Z</time>
      </trkpt>
      <trkpt lat="43.84938" lon="7.25185">
        <ele>691.9</ele>
        <time>2012-05-27T11:48:02Z</time>
      </trkpt>
      <trkpt lat="43.84928" lon="7.25183">
        <ele>690.8</ele>
        <time>2012-05-27T11:48:04Z</time>
      </trkpt>
      <trkpt lat="43.84912" lon="7.25177">
        <ele>688.2</ele>
        <time>2012-05-27T11:48:08Z</time>
      </trkpt>
      <trkpt lat="43.84904" lon="7.25171">
        <ele>686.4</ele>
        <time>2012-05-27T11:48:11Z</time>
      </trkpt>
      <trkpt lat="43.84892" lon="7.25159">
        <ele>682.5</ele>
        <time>2012-05-27T11:48:16Z</time>
      </trkpt>
      <trkpt lat="43.84888" lon="7.25151">
        <ele>680.9</ele>
        <time>2012-05-27T11:48:18Z</time>
      </trkpt>
      <trkpt lat="43.84883" lon="7.25132">
        <ele>676.3</ele>
        <time>2012-05-27T11:48:22Z</time>
      </trkpt>
      <trkpt lat="43.8488" lon="7.25123">
        <ele>674</ele>
        <time>2012-05-27T11:48:24Z</time>
      </trkpt>
      <trkpt lat="43.84869" lon="7.25113">
        <ele>670.3</ele>
        <time>2012-05-27T11:48:29Z</time>
      </trkpt>
      <trkpt lat="43.84868" lon="7.25102">
        <ele>667.7</ele>
        <time>2012-05-27T11:48:32Z</time>
      </trkpt>
      <trkpt lat="43.84859" lon="7.25093">
        <ele>665.4</ele>
        <time>2012-05-27T11:48:35Z</time>
      </trkpt>
      <trkpt lat="43.84849" lon="7.25088">
        <ele>663.2</ele>
        <time>2012-05-27T11:48:38Z</time>
      </trkpt>
      <trkpt lat="43.84841" lon="7.25088">
        <ele>662.6</ele>
        <time>2012-05-27T11:48:40Z</time>
      </trkpt>
      <trkpt lat="43.84832" lon="7.25088">
        <ele>662.2</ele>
        <time>2012-05-27T11:48:42Z</time>
      </trkpt>
      <trkpt lat="43.84817" lon="7.25082">
        <ele>661.1</ele>
        <time>2012-05-27T11:48:45Z</time>
      </trkpt>
      <trkpt lat="43.84807" lon="7.25076">
        <ele>660.1</ele>
        <time>2012-05-27T11:48:47Z</time>
      </trkpt>
      <trkpt lat="43.84794" lon="7.25069">
        <ele>658.9</ele>
        <time>2012-05-27T11:48:50Z</time>
      </trkpt>
      <trkpt lat="43.84784" lon="7.25051">
        <ele>656.7</ele>
        <time>2012-05-27T11:48:54Z</time>
      </trkpt>
      <trkpt lat="43.84787" lon="7.25063">
        <ele>657</ele>
        <time>2012-05-27T11:54:42Z</time>
      </trkpt>
      <trkpt lat="43.84783" lon="7.25053">
        <ele>656.6</ele>
        <time>2012-05-27T11:55:03Z</time>
      </trkpt>
      <trkpt lat="43.84773" lon="7.25034">
        <ele>652.8</ele>
        <time>2012-05-27T11:55:14Z</time>
      </trkpt>
      <trkpt lat="43.84763" lon="7.25022">
        <ele>650.1</ele>
        <time>2012-05-27T11:55:20Z</time>
      </trkpt>
      <trkpt lat="43.84756" lon="7.25017">
        <ele>648.7</ele>
        <time>2012-05-27T11:55:22Z</time>
      </trkpt>
      <trkpt lat="43.8474" lon="7.25014">
        <ele>646.7</ele>
        <time>2012-05-27T11:55:26Z</time>
      </trkpt>
      <trkpt lat="43.84731" lon="7.2501">
        <ele>645.6</ele>
        <time>2012-05-27T11:55:28Z</time>
      </trkpt>
      <trkpt lat="43.84721" lon="7.25004">
        <ele>644.2</ele>
        <time>2012-05-27T11:55:30Z</time>
      </trkpt>
      <trkpt lat="43.8471" lon="7.24998">
        <ele>642.8</ele>
        <time>2012-05-27T11:55:32Z</time>
      </trkpt>
      <trkpt lat="43.84698" lon="7.2499">
        <ele>640.9</ele>
        <time>2012-05-27T11:55:34Z</time>
      </trkpt>
      <trkpt lat="43.84686" lon="7.24987">
        <ele>639</ele>
        <time>2012-05-27T11:55:36Z</time>
      </trkpt>
      <trkpt lat="43.84672" lon="7.24988">
        <ele>636.9</ele>
        <time>2012-05-27T11:55:39Z</time>
      </trkpt>
      <trkpt lat="43.84664" lon="7.25">
        <ele>636.1</ele>
        <time>2012-05-27T11:55:43Z</time>
      </trkpt>
      <trkpt lat="43.84679" lon="7.25006">
        <ele>638.2</ele>
        <time>2012-05-27T11:55:51Z</time>
      </trkpt>
      <trkpt lat="43.84687" lon="7.25012">
        <ele>639.5</ele>
        <time>2012-05-27T11:55:55Z</time>
      </trkpt>
      <trkpt lat="43.84696" lon="7.25031">
        <ele>642.1</ele>
        <time>2012-05-27T11:55:59Z</time>
      </trkpt>
      <trkpt lat="43.84708" lon="7.25047">
        <ele>645.7</ele>
        <time>2012-05-27T11:56:06Z</time>
      </trkpt>
      <trkpt lat="43.84723" lon="7.25057">
        <ele>648.5</ele>
        <time>2012-05-27T11:56:21Z</time>
      </trkpt>
      <trkpt lat="43.84737" lon="7.25068">
        <ele>651</ele>
        <time>2012-05-27T11:56:35Z</time>
      </trkpt>
      <trkpt lat="43.84744" lon="7.25073">
        <ele>652.4</ele>
        <time>2012-05-27T11:56:42Z</time>
      </trkpt>
      <trkpt lat="43.84753" lon="7.25067">
        <ele>653.3</ele>
        <time>2012-05-27T11:56:51Z</time>
      </trkpt>
      <trkpt lat="43.84766" lon="7.25054">
        <ele>653.8</ele>
        <time>2012-05-27T11:57:07Z</time>
      </trkpt>
      <trkpt lat="43.84771" lon="7.25064">
        <ele>655.2</ele>
        <time>2012-05-27T11:57:37Z</time>
      </trkpt>
      <trkpt lat="43.84761" lon="7.25083">
        <ele>655.7</ele>
        <time>2012-05-27T11:57:43Z</time>
      </trkpt>
      <trkpt lat="43.84755" lon="7.2509">
        <ele>655.6</ele>
        <time>2012-05-27T11:57:46Z</time>
      </trkpt>
      <trkpt lat="43.84743" lon="7.25101">
        <ele>654.7</ele>
        <time>2012-05-27T11:57:52Z</time>
      </trkpt>
      <trkpt lat="43.84728" lon="7.25111">
        <ele>653.3</ele>
        <time>2012-05-27T11:57:58Z</time>
      </trkpt>
      <trkpt lat="43.84717" lon="7.25125">
        <ele>652.4</ele>
        <time>2012-05-27T11:58:04Z</time>
      </trkpt>
      <trkpt lat="43.84706" lon="7.25133">
        <ele>652.4</ele>
        <time>2012-05-27T11:58:08Z</time>
      </trkpt>
      <trkpt lat="43.84692" lon="7.25131">
        <ele>650.7</ele>
        <time>2012-05-27T11:58:12Z</time>
      </trkpt>
      <trkpt lat="43.84686" lon="7.25132">
        <ele>649.9</ele>
        <time>2012-05-27T11:58:14Z</time>
      </trkpt>
      <trkpt lat="43.84671" lon="7.25135">
        <ele>648.5</ele>
        <time>2012-05-27T11:58:19Z</time>
      </trkpt>
      <trkpt lat="43.84663" lon="7.25137">
        <ele>647.8</ele>
        <time>2012-05-27T11:58:22Z</time>
      </trkpt>
      <trkpt lat="43.84648" lon="7.25144">
        <ele>647.2</ele>
        <time>2012-05-27T11:58:28Z</time>
      </trkpt>
      <trkpt lat="43.8464" lon="7.25144">
        <ele>646.5</ele>
        <time>2012-05-27T11:58:32Z</time>
      </trkpt>
      <trkpt lat="43.84631" lon="7.25146">
        <ele>645.7</ele>
        <time>2012-05-27T11:58:36Z</time>
      </trkpt>
      <trkpt lat="43.84609" lon="7.25155">
        <ele>645.1</ele>
        <time>2012-05-27T11:58:49Z</time>
      </trkpt>
      <trkpt lat="43.84595" lon="7.2516">
        <ele>644.7</ele>
        <time>2012-05-27T11:58:54Z</time>
      </trkpt>
      <trkpt lat="43.84589" lon="7.25179">
        <ele>647.2</ele>
        <time>2012-05-27T11:59:00Z</time>
      </trkpt>
      <trkpt lat="43.84579" lon="7.25195">
        <ele>649.8</ele>
        <time>2012-05-27T11:59:05Z</time>
      </trkpt>
      <trkpt lat="43.84555" lon="7.25212">
        <ele>651</ele>
        <time>2012-05-27T11:59:13Z</time>
      </trkpt>
      <trkpt lat="43.84541" lon="7.25218">
        <ele>649.9</ele>
        <time>2012-05-27T11:59:17Z</time>
      </trkpt>
      <trkpt lat="43.84528" lon="7.25225">
        <ele>650.1</ele>
        <time>2012-05-27T11:59:21Z</time>
      </trkpt>
      <trkpt lat="43.84514" lon="7.2523">
        <ele>650.6</ele>
        <time>2012-05-27T11:59:25Z</time>
      </trkpt>
      <trkpt lat="43.84518" lon="7.2524">
        <ele>651</ele>
        <time>2012-05-27T11:59:35Z</time>
      </trkpt>
      <trkpt lat="43.84534" lon="7.25244">
        <ele>651.1</ele>
        <time>2012-05-27T11:59:45Z</time>
      </trkpt>
      <trkpt lat="43.84541" lon="7.25249">
        <ele>651.3</ele>
        <time>2012-05-27T11:59:51Z</time>
      </trkpt>
      <trkpt lat="43.8455" lon="7.25253">
        <ele>653</ele>
        <time>2012-05-27T12:00:01Z</time>
      </trkpt>
      <trkpt lat="43.84566" lon="7.25259">
        <ele>656.5</ele>
        <time>2012-05-27T12:00:30Z</time>
      </trkpt>
      <trkpt lat="43.84598" lon="7.25258">
        <ele>662.9</ele>
        <time>2012-05-27T12:01:01Z</time>
      </trkpt>
      <trkpt lat="43.84615" lon="7.25261">
        <ele>666.7</ele>
        <time>2012-05-27T12:01:17Z</time>
      </trkpt>
      <trkpt lat="43.84632" lon="7.25262">
        <ele>669.8</ele>
        <time>2012-05-27T12:01:35Z</time>
      </trkpt>
      <trkpt lat="43.84655" lon="7.25261">
        <ele>672.5</ele>
        <time>2012-05-27T12:01:49Z</time>
      </trkpt>
      <trkpt lat="43.84671" lon="7.25266">
        <ele>675.3</ele>
        <time>2012-05-27T12:01:57Z</time>
      </trkpt>
      <trkpt lat="43.8468" lon="7.25266">
        <ele>676.5</ele>
        <time>2012-05-27T12:02:01Z</time>
      </trkpt>
      <trkpt lat="43.84711" lon="7.25282">
        <ele>683.4</ele>
        <time>2012-05-27T12:02:15Z</time>
      </trkpt>
      <trkpt lat="43.84723" lon="7.25289">
        <ele>686.1</ele>
        <time>2012-05-27T12:02:19Z</time>
      </trkpt>
      <trkpt lat="43.84745" lon="7.25305">
        <ele>687.7</ele>
        <time>2012-05-27T12:02:25Z</time>
      </trkpt>
      <trkpt lat="43.84758" lon="7.25313">
        <ele>687.9</ele>
        <time>2012-05-27T12:02:28Z</time>
      </trkpt>
      <trkpt lat="43.84771" lon="7.25323">
        <ele>688.3</ele>
        <time>2012-05-27T12:02:31Z</time>
      </trkpt>
      <trkpt lat="43.84781" lon="7.25331">
        <ele>688.5</ele>
        <time>2012-05-27T12:02:33Z</time>
      </trkpt>
      <trkpt lat="43.84798" lon="7.25346">
        <ele>689.4</ele>
        <time>2012-05-27T12:02:36Z</time>
      </trkpt>
      <trkpt lat="43.84811" lon="7.25357">
        <ele>691.2</ele>
        <time>2012-05-27T12:02:38Z</time>
      </trkpt>
      <trkpt lat="43.84836" lon="7.25381">
        <ele>694.7</ele>
        <time>2012-05-27T12:02:42Z</time>
      </trkpt>
      <trkpt lat="43.84863" lon="7.25406">
        <ele>692.9</ele>
        <time>2012-05-27T12:02:46Z</time>
      </trkpt>
      <trkpt lat="43.8487" lon="7.25412">
        <ele>692.6</ele>
        <time>2012-05-27T12:02:47Z</time>
      </trkpt>
      <trkpt lat="43.84898" lon="7.25434">
        <ele>690.7</ele>
        <time>2012-05-27T12:02:51Z</time>
      </trkpt>
      <trkpt lat="43.84913" lon="7.25441">
        <ele>690.6</ele>
        <time>2012-05-27T12:02:53Z</time>
      </trkpt>
      <trkpt lat="43.84926" lon="7.25446">
        <ele>691.5</ele>
        <time>2012-05-27T12:02:55Z</time>
      </trkpt>
      <trkpt lat="43.84937" lon="7.25452">
        <ele>691.9</ele>
        <time>2012-05-27T12:02:57Z</time>
      </trkpt>
      <trkpt lat="43.84948" lon="7.25457">
        <ele>692.3</ele>
        <time>2012-05-27T12:02:59Z</time>
      </trkpt>
      <trkpt lat="43.84958" lon="7.25461">
        <ele>693.4</ele>
        <time>2012-05-27T12:03:01Z</time>
      </trkpt>
      <trkpt lat="43.84969" lon="7.25468">
        <ele>693.1</ele>
        <time>2012-05-27T12:03:03Z</time>
      </trkpt>
      <trkpt lat="43.8498" lon="7.25477">
        <ele>692</ele>
        <time>2012-05-27T12:03:05Z</time>
      </trkpt>
      <trkpt lat="43.84991" lon="7.25489">
        <ele>690.3</ele>
        <time>2012-05-27T12:03:07Z</time>
      </trkpt>
      <trkpt lat="43.84998" lon="7.25494">
        <ele>688.8</ele>
        <time>2012-05-27T12:03:08Z</time>
      </trkpt>
      <trkpt lat="43.8501" lon="7.25506">
        <ele>686.7</ele>
        <time>2012-05-27T12:03:10Z</time>
      </trkpt>
      <trkpt lat="43.85028" lon="7.25526">
        <ele>682.5</ele>
        <time>2012-05-27T12:03:13Z</time>
      </trkpt>
      <trkpt lat="43.8504" lon="7.25538">
        <ele>679.9</ele>
        <time>2012-05-27T12:03:15Z</time>
      </trkpt>
      <trkpt lat="43.85051" lon="7.25546">
        <ele>678.8</ele>
        <time>2012-05-27T12:03:17Z</time>
      </trkpt>
      <trkpt lat="43.85061" lon="7.25557">
        <ele>678.4</ele>
        <time>2012-05-27T12:03:19Z</time>
      </trkpt>
      <trkpt lat="43.85067" lon="7.25575">
        <ele>676.6</ele>
        <time>2012-05-27T12:03:23Z</time>
      </trkpt>
      <trkpt lat="43.85059" lon="7.25587">
        <ele>672.3</ele>
        <time>2012-05-27T12:03:26Z</time>
      </trkpt>
      <trkpt lat="43.85054" lon="7.25598">
        <ele>668.4</ele>
        <time>2012-05-27T12:03:28Z</time>
      </trkpt>
      <trkpt lat="43.85049" lon="7.2561">
        <ele>664.1</ele>
        <time>2012-05-27T12:03:30Z</time>
      </trkpt>
      <trkpt lat="43.85048" lon="7.25617">
        <ele>661.9</ele>
        <time>2012-05-27T12:03:31Z</time>
      </trkpt>
      <trkpt lat="43.85047" lon="7.2563">
        <ele>658.3</ele>
        <time>2012-05-27T12:03:33Z</time>
      </trkpt>
      <trkpt lat="43.8505" lon="7.25645">
        <ele>656.7</ele>
        <time>2012-05-27T12:03:35Z</time>
      </trkpt>
      <trkpt lat="43.85053" lon="7.25668">
        <ele>655.6</ele>
        <time>2012-05-27T12:03:38Z</time>
      </trkpt>
      <trkpt lat="43.85053" lon="7.25688">
        <ele>654.6</ele>
        <time>2012-05-27T12:03:40Z</time>
      </trkpt>
      <trkpt lat="43.85056" lon="7.25709">
        <ele>653.8</ele>
        <time>2012-05-27T12:03:42Z</time>
      </trkpt>
      <trkpt lat="43.8506" lon="7.2573">
        <ele>655.7</ele>
        <time>2012-05-27T12:03:44Z</time>
      </trkpt>
      <trkpt lat="43.85066" lon="7.25748">
        <ele>658.7</ele>
        <time>2012-05-27T12:03:46Z</time>
      </trkpt>
      <trkpt lat="43.85066" lon="7.25764">
        <ele>661</ele>
        <time>2012-05-27T12:03:48Z</time>
      </trkpt>
      <trkpt lat="43.85065" lon="7.25785">
        <ele>663.3</ele>
        <time>2012-05-27T12:03:52Z</time>
      </trkpt>
      <trkpt lat="43.85068" lon="7.25798">
        <ele>664.8</ele>
        <time>2012-05-27T12:03:54Z</time>
      </trkpt>
      <trkpt lat="43.85072" lon="7.25811">
        <ele>666.7</ele>
        <time>2012-05-27T12:03:56Z</time>
      </trkpt>
      <trkpt lat="43.85079" lon="7.25821">
        <ele>668.7</ele>
        <time>2012-05-27T12:03:58Z</time>
      </trkpt>
      <trkpt lat="43.85083" lon="7.25833">
        <ele>670.4</ele>
        <time>2012-05-27T12:04:00Z</time>
      </trkpt>
      <trkpt lat="43.8508" lon="7.25855">
        <ele>672.5</ele>
        <time>2012-05-27T12:04:05Z</time>
      </trkpt>
      <trkpt lat="43.8507" lon="7.25857">
        <ele>672.5</ele>
        <time>2012-05-27T12:04:09Z</time>
      </trkpt>
      <trkpt lat="43.85059" lon="7.25866">
        <ele>672.9</ele>
        <time>2012-05-27T12:04:14Z</time>
      </trkpt>
      <trkpt lat="43.85043" lon="7.25867">
        <ele>672.9</ele>
        <time>2012-05-27T12:04:23Z</time>
      </trkpt>
      <trkpt lat="43.85035" lon="7.25863">
        <ele>673.2</ele>
        <time>2012-05-27T12:04:29Z</time>
      </trkpt>
      <trkpt lat="43.8502" lon="7.2585">
        <ele>673.8</ele>
        <time>2012-05-27T12:04:50Z</time>
      </trkpt>
      <trkpt lat="43.85012" lon="7.25855">
        <ele>676</ele>
        <time>2012-05-27T12:05:03Z</time>
      </trkpt>
      <trkpt lat="43.84998" lon="7.25884">
        <ele>685</ele>
        <time>2012-05-27T12:05:36Z</time>
      </trkpt>
      <trkpt lat="43.84989" lon="7.25888">
        <ele>687.4</ele>
        <time>2012-05-27T12:05:52Z</time>
      </trkpt>
      <trkpt lat="43.84989" lon="7.259">
        <ele>690</ele>
        <time>2012-05-27T12:06:03Z</time>
      </trkpt>
      <trkpt lat="43.84981" lon="7.25894">
        <ele>690.5</ele>
        <time>2012-05-27T12:06:13Z</time>
      </trkpt>
      <trkpt lat="43.84973" lon="7.2589">
        <ele>691.4</ele>
        <time>2012-05-27T12:06:24Z</time>
      </trkpt>
      <trkpt lat="43.84962" lon="7.25873">
        <ele>690.7</ele>
        <time>2012-05-27T12:06:45Z</time>
      </trkpt>
      <trkpt lat="43.84959" lon="7.25885">
        <ele>693.1</ele>
        <time>2012-05-27T12:06:57Z</time>
      </trkpt>
      <trkpt lat="43.8495" lon="7.25883">
        <ele>692</ele>
        <time>2012-05-27T12:07:13Z</time>
      </trkpt>
      <trkpt lat="43.84945" lon="7.25894">
        <ele>693.1</ele>
        <time>2012-05-27T12:07:29Z</time>
      </trkpt>
      <trkpt lat="43.84928" lon="7.25893">
        <ele>690.4</ele>
        <time>2012-05-27T12:07:50Z</time>
      </trkpt>
      <trkpt lat="43.8492" lon="7.25896">
        <ele>689.5</ele>
        <time>2012-05-27T12:07:59Z</time>
      </trkpt>
      <trkpt lat="43.84904" lon="7.25904">
        <ele>688.4</ele>
        <time>2012-05-27T12:08:18Z</time>
      </trkpt>
      <trkpt lat="43.84899" lon="7.25913">
        <ele>688.6</ele>
        <time>2012-05-27T12:08:22Z</time>
      </trkpt>
      <trkpt lat="43.84888" lon="7.25928">
        <ele>689</ele>
        <time>2012-05-27T12:08:30Z</time>
      </trkpt>
      <trkpt lat="43.84878" lon="7.25947">
        <ele>689.7</ele>
        <time>2012-05-27T12:08:39Z</time>
      </trkpt>
      <trkpt lat="43.84871" lon="7.25978">
        <ele>695.7</ele>
        <time>2012-05-27T12:08:51Z</time>
      </trkpt>
      <trkpt lat="43.84863" lon="7.25997">
        <ele>701.2</ele>
        <time>2012-05-27T12:08:58Z</time>
      </trkpt>
      <trkpt lat="43.84852" lon="7.26012">
        <ele>705.9</ele>
        <time>2012-05-27T12:09:05Z</time>
      </trkpt>
      <trkpt lat="43.8484" lon="7.26028">
        <ele>710.5</ele>
        <time>2012-05-27T12:09:19Z</time>
      </trkpt>
      <trkpt lat="43.84832" lon="7.26028">
        <ele>711</ele>
        <time>2012-05-27T12:09:28Z</time>
      </trkpt>
      <trkpt lat="43.84822" lon="7.26031">
        <ele>711.5</ele>
        <time>2012-05-27T12:09:39Z</time>
      </trkpt>
      <trkpt lat="43.84806" lon="7.26031">
        <ele>711.9</ele>
        <time>2012-05-27T12:09:58Z</time>
      </trkpt>
      <trkpt lat="43.84799" lon="7.26036">
        <ele>712.7</ele>
        <time>2012-05-27T12:10:06Z</time>
      </trkpt>
      <trkpt lat="43.84784" lon="7.26049">
        <ele>716.6</ele>
        <time>2012-05-27T12:10:23Z</time>
      </trkpt>
      <trkpt lat="43.84769" lon="7.26058">
        <ele>721.3</ele>
        <time>2012-05-27T12:10:32Z</time>
      </trkpt>
      <trkpt lat="43.84761" lon="7.26065">
        <ele>724.3</ele>
        <time>2012-05-27T12:10:40Z</time>
      </trkpt>
      <trkpt lat="43.84748" lon="7.26074">
        <ele>728.2</ele>
        <time>2012-05-27T12:10:55Z</time>
      </trkpt>
      <trkpt lat="43.8472" lon="7.26092">
        <ele>735.1</ele>
        <time>2012-05-27T12:11:13Z</time>
      </trkpt>
      <trkpt lat="43.84705" lon="7.26102">
        <ele>738.4</ele>
        <time>2012-05-27T12:11:23Z</time>
      </trkpt>
      <trkpt lat="43.8469" lon="7.26114">
        <ele>743.6</ele>
        <time>2012-05-27T12:11:41Z</time>
      </trkpt>
      <trkpt lat="43.84674" lon="7.26141">
        <ele>749.9</ele>
        <time>2012-05-27T12:12:13Z</time>
      </trkpt>
      <trkpt lat="43.84666" lon="7.26145">
        <ele>751.8</ele>
        <time>2012-05-27T12:12:24Z</time>
      </trkpt>
      <trkpt lat="43.84653" lon="7.26156">
        <ele>754.8</ele>
        <time>2012-05-27T12:12:39Z</time>
      </trkpt>
      <trkpt lat="43.84644" lon="7.26157">
        <ele>756.3</ele>
        <time>2012-05-27T12:12:50Z</time>
      </trkpt>
      <trkpt lat="43.84628" lon="7.26157">
        <ele>758.7</ele>
        <time>2012-05-27T12:13:03Z</time>
      </trkpt>
      <trkpt lat="43.84612" lon="7.26158">
        <ele>758.7</ele>
        <time>2012-05-27T12:13:20Z</time>
      </trkpt>
      <trkpt lat="43.84605" lon="7.26166">
        <ele>757.7</ele>
        <time>2012-05-27T12:13:27Z</time>
      </trkpt>
      <trkpt lat="43.84594" lon="7.26185">
        <ele>754.9</ele>
        <time>2012-05-27T12:13:36Z</time>
      </trkpt>
      <trkpt lat="43.8459" lon="7.26206">
        <ele>751.3</ele>
        <time>2012-05-27T12:13:55Z</time>
      </trkpt>
      <trkpt lat="43.84583" lon="7.26226">
        <ele>750</ele>
        <time>2012-05-27T12:14:03Z</time>
      </trkpt>
      <trkpt lat="43.84578" lon="7.26235">
        <ele>749.2</ele>
        <time>2012-05-27T12:14:07Z</time>
      </trkpt>
      <trkpt lat="43.84571" lon="7.26254">
        <ele>747.6</ele>
        <time>2012-05-27T12:14:15Z</time>
      </trkpt>
      <trkpt lat="43.84564" lon="7.26273">
        <ele>745.6</ele>
        <time>2012-05-27T12:14:23Z</time>
      </trkpt>
      <trkpt lat="43.84559" lon="7.26294">
        <ele>744.1</ele>
        <time>2012-05-27T12:14:42Z</time>
      </trkpt>
      <trkpt lat="43.84547" lon="7.26311">
        <ele>745</ele>
        <time>2012-05-27T12:15:04Z</time>
      </trkpt>
      <trkpt lat="43.84535" lon="7.26329">
        <ele>746.2</ele>
        <time>2012-05-27T12:15:24Z</time>
      </trkpt>
      <trkpt lat="43.84522" lon="7.26342">
        <ele>745.3</ele>
        <time>2012-05-27T12:15:39Z</time>
      </trkpt>
      <trkpt lat="43.84517" lon="7.2635">
        <ele>745.4</ele>
        <time>2012-05-27T12:15:42Z</time>
      </trkpt>
      <trkpt lat="43.84507" lon="7.26363">
        <ele>745</ele>
        <time>2012-05-27T12:15:48Z</time>
      </trkpt>
      <trkpt lat="43.84499" lon="7.26369">
        <ele>744</ele>
        <time>2012-05-27T12:15:51Z</time>
      </trkpt>
      <trkpt lat="43.84485" lon="7.26376">
        <ele>740.5</ele>
        <time>2012-05-27T12:15:55Z</time>
      </trkpt>
      <trkpt lat="43.84473" lon="7.26391">
        <ele>740.2</ele>
        <time>2012-05-27T12:15:59Z</time>
      </trkpt>
      <trkpt lat="43.84463" lon="7.26407">
        <ele>743.1</ele>
        <time>2012-05-27T12:16:09Z</time>
      </trkpt>
      <trkpt lat="43.84451" lon="7.26423">
        <ele>744.4</ele>
        <time>2012-05-27T12:16:23Z</time>
      </trkpt>
      <trkpt lat="43.84446" lon="7.26432">
        <ele>746</ele>
        <time>2012-05-27T12:16:32Z</time>
      </trkpt>
      <trkpt lat="43.84433" lon="7.26448">
        <ele>747.1</ele>
        <time>2012-05-27T12:16:50Z</time>
      </trkpt>
      <trkpt lat="43.84418" lon="7.26455">
        <ele>744.2</ele>
        <time>2012-05-27T12:16:59Z</time>
      </trkpt>
      <trkpt lat="43.8441" lon="7.26461">
        <ele>742.9</ele>
        <time>2012-05-27T12:17:03Z</time>
      </trkpt>
      <trkpt lat="43.84386" lon="7.26494">
        <ele>745.8</ele>
        <time>2012-05-27T12:17:27Z</time>
      </trkpt>
      <trkpt lat="43.8438" lon="7.265">
        <ele>745.7</ele>
        <time>2012-05-27T12:17:34Z</time>
      </trkpt>
      <trkpt lat="43.84368" lon="7.26514">
        <ele>746.4</ele>
        <time>2012-05-27T12:17:42Z</time>
      </trkpt>
      <trkpt lat="43.84357" lon="7.26529">
        <ele>747.2</ele>
        <time>2012-05-27T12:17:49Z</time>
      </trkpt>
      <trkpt lat="43.84361" lon="7.26551">
        <ele>755.5</ele>
        <time>2012-05-27T12:18:03Z</time>
      </trkpt>
      <trkpt lat="43.84368" lon="7.26577">
        <ele>763.7</ele>
        <time>2012-05-27T12:18:17Z</time>
      </trkpt>
      <trkpt lat="43.84386" lon="7.26614">
        <ele>779.9</ele>
        <time>2012-05-27T12:18:33Z</time>
      </trkpt>
      <trkpt lat="43.8439" lon="7.26637">
        <ele>787.7</ele>
        <time>2012-05-27T12:18:54Z</time>
      </trkpt>
      <trkpt lat="43.84384" lon="7.26646">
        <ele>787.9</ele>
        <time>2012-05-27T12:19:01Z</time>
      </trkpt>
      <trkpt lat="43.84371" lon="7.26658">
        <ele>786.4</ele>
        <time>2012-05-27T12:19:15Z</time>
      </trkpt>
      <trkpt lat="43.84361" lon="7.26663">
        <ele>785.9</ele>
        <time>2012-05-27T12:19:26Z</time>
      </trkpt>
      <trkpt lat="43.84346" lon="7.26668">
        <ele>783.8</ele>
        <time>2012-05-27T12:19:37Z</time>
      </trkpt>
      <trkpt lat="43.84332" lon="7.26677">
        <ele>782.8</ele>
        <time>2012-05-27T12:19:46Z</time>
      </trkpt>
      <trkpt lat="43.84317" lon="7.26686">
        <ele>782.6</ele>
        <time>2012-05-27T12:19:59Z</time>
      </trkpt>
      <trkpt lat="43.84302" lon="7.26693">
        <ele>782.1</ele>
        <time>2012-05-27T12:20:11Z</time>
      </trkpt>
      <trkpt lat="43.84294" lon="7.26698">
        <ele>782.2</ele>
        <time>2012-05-27T12:20:18Z</time>
      </trkpt>
      <trkpt lat="43.84286" lon="7.26704">
        <ele>783.1</ele>
        <time>2012-05-27T12:20:27Z</time>
      </trkpt>
      <trkpt lat="43.84272" lon="7.26716">
        <ele>785.5</ele>
        <time>2012-05-27T12:20:44Z</time>
      </trkpt>
      <trkpt lat="43.84256" lon="7.26724">
        <ele>786.5</ele>
        <time>2012-05-27T12:20:58Z</time>
      </trkpt>
      <trkpt lat="43.84249" lon="7.2673">
        <ele>787.6</ele>
        <time>2012-05-27T12:21:06Z</time>
      </trkpt>
      <trkpt lat="43.84236" lon="7.26744">
        <ele>790.9</ele>
        <time>2012-05-27T12:21:28Z</time>
      </trkpt>
      <trkpt lat="43.84221" lon="7.26758">
        <ele>793.6</ele>
        <time>2012-05-27T12:21:45Z</time>
      </trkpt>
      <trkpt lat="43.84208" lon="7.26774">
        <ele>797.7</ele>
        <time>2012-05-27T12:22:02Z</time>
      </trkpt>
      <trkpt lat="43.84197" lon="7.26791">
        <ele>801.2</ele>
        <time>2012-05-27T12:22:19Z</time>
      </trkpt>
      <trkpt lat="43.84184" lon="7.26807">
        <ele>804</ele>
        <time>2012-05-27T12:22:35Z</time>
      </trkpt>
      <trkpt lat="43.84169" lon="7.26818">
        <ele>804.4</ele>
        <time>2012-05-27T12:22:48Z</time>
      </trkpt>
      <trkpt lat="43.84157" lon="7.26833">
        <ele>806.7</ele>
        <time>2012-05-27T12:23:02Z</time>
      </trkpt>
      <trkpt lat="43.84151" lon="7.26841">
        <ele>808.6</ele>
        <time>2012-05-27T12:23:10Z</time>
      </trkpt>
      <trkpt lat="43.84137" lon="7.26855">
        <ele>810.8</ele>
        <time>2012-05-27T12:23:25Z</time>
      </trkpt>
      <trkpt lat="43.84125" lon="7.26871">
        <ele>814</ele>
        <time>2012-05-27T12:23:42Z</time>
      </trkpt>
      <trkpt lat="43.84124" lon="7.26872">
        <ele>814.1</ele>
        <time>2012-05-27T12:23:43Z</time>
      </trkpt>
      <trkpt lat="43.8411" lon="7.26885">
        <ele>816.1</ele>
        <time>2012-05-27T12:24:04Z</time>
      </trkpt>
      <trkpt lat="43.84096" lon="7.26899">
        <ele>817.9</ele>
        <time>2012-05-27T12:24:24Z</time>
      </trkpt>
      <trkpt lat="43.84082" lon="7.26911">
        <ele>819</ele>
        <time>2012-05-27T12:24:40Z</time>
      </trkpt>
      <trkpt lat="43.84062" lon="7.26935">
        <ele>823.1</ele>
        <time>2012-05-27T12:25:07Z</time>
      </trkpt>
      <trkpt lat="43.84056" lon="7.26942">
        <ele>824.1</ele>
        <time>2012-05-27T12:25:16Z</time>
      </trkpt>
      <trkpt lat="43.84038" lon="7.26968">
        <ele>828.8</ele>
        <time>2012-05-27T12:25:43Z</time>
      </trkpt>
      <trkpt lat="43.84031" lon="7.26976">
        <ele>830.2</ele>
        <time>2012-05-27T12:25:51Z</time>
      </trkpt>
      <trkpt lat="43.84022" lon="7.26995">
        <ele>834.4</ele>
        <time>2012-05-27T12:26:10Z</time>
      </trkpt>
      <trkpt lat="43.84016" lon="7.27002">
        <ele>835.7</ele>
        <time>2012-05-27T12:26:15Z</time>
      </trkpt>
      <trkpt lat="43.84007" lon="7.27018">
        <ele>838.7</ele>
        <time>2012-05-27T12:26:21Z</time>
      </trkpt>
      <trkpt lat="43.83993" lon="7.27033">
        <ele>841.2</ele>
        <time>2012-05-27T12:26:28Z</time>
      </trkpt>
      <trkpt lat="43.83984" lon="7.2705">
        <ele>845.1</ele>
        <time>2012-05-27T12:26:36Z</time>
      </trkpt>
      <trkpt lat="43.83978" lon="7.27058">
        <ele>847</ele>
        <time>2012-05-27T12:26:44Z</time>
      </trkpt>
      <trkpt lat="43.83971" lon="7.27066">
        <ele>848.4</ele>
        <time>2012-05-27T12:26:56Z</time>
      </trkpt>
      <trkpt lat="43.83951" lon="7.27086">
        <ele>851.8</ele>
        <time>2012-05-27T12:27:20Z</time>
      </trkpt>
      <trkpt lat="43.83943" lon="7.27089">
        <ele>852.3</ele>
        <time>2012-05-27T12:27:27Z</time>
      </trkpt>
      <trkpt lat="43.83929" lon="7.27094">
        <ele>852.8</ele>
        <time>2012-05-27T12:27:33Z</time>
      </trkpt>
      <trkpt lat="43.83915" lon="7.27102">
        <ele>854.3</ele>
        <time>2012-05-27T12:27:40Z</time>
      </trkpt>
      <trkpt lat="43.83892" lon="7.27113">
        <ele>855.9</ele>
        <time>2012-05-27T12:27:49Z</time>
      </trkpt>
      <trkpt lat="43.83877" lon="7.27119">
        <ele>856.3</ele>
        <time>2012-05-27T12:27:53Z</time>
      </trkpt>
      <trkpt lat="43.83868" lon="7.27124">
        <ele>857.4</ele>
        <time>2012-05-27T12:27:55Z</time>
      </trkpt>
      <trkpt lat="43.83859" lon="7.27129">
        <ele>858.8</ele>
        <time>2012-05-27T12:27:57Z</time>
      </trkpt>
      <trkpt lat="43.83851" lon="7.27129">
        <ele>860.5</ele>
        <time>2012-05-27T12:27:59Z</time>
      </trkpt>
      <trkpt lat="43.83835" lon="7.27126">
        <ele>861.7</ele>
        <time>2012-05-27T12:28:03Z</time>
      </trkpt>
      <trkpt lat="43.83823" lon="7.27111">
        <ele>859.9</ele>
        <time>2012-05-27T12:28:10Z</time>
      </trkpt>
      <trkpt lat="43.8381" lon="7.27098">
        <ele>857.9</ele>
        <time>2012-05-27T12:28:18Z</time>
      </trkpt>
      <trkpt lat="43.83794" lon="7.27091">
        <ele>857.7</ele>
        <time>2012-05-27T12:28:26Z</time>
      </trkpt>
      <trkpt lat="43.83785" lon="7.27089">
        <ele>857.5</ele>
        <time>2012-05-27T12:28:31Z</time>
      </trkpt>
      <trkpt lat="43.8377" lon="7.27088">
        <ele>858.2</ele>
        <time>2012-05-27T12:28:42Z</time>
      </trkpt>
      <trkpt lat="43.83753" lon="7.27091">
        <ele>859.5</ele>
        <time>2012-05-27T12:28:58Z</time>
      </trkpt>
      <trkpt lat="43.83721" lon="7.27096">
        <ele>862.1</ele>
        <time>2012-05-27T12:29:23Z</time>
      </trkpt>
      <trkpt lat="43.83708" lon="7.27108">
        <ele>865.1</ele>
        <time>2012-05-27T12:29:35Z</time>
      </trkpt>
      <trkpt lat="43.83699" lon="7.2711">
        <ele>865.6</ele>
        <time>2012-05-27T12:29:43Z</time>
      </trkpt>
      <trkpt lat="43.83683" lon="7.27112">
        <ele>865.6</ele>
        <time>2012-05-27T12:29:56Z</time>
      </trkpt>
      <trkpt lat="43.83673" lon="7.27115">
        <ele>865.6</ele>
        <time>2012-05-27T12:30:02Z</time>
      </trkpt>
      <trkpt lat="43.8366" lon="7.27123">
        <ele>867.1</ele>
        <time>2012-05-27T12:30:12Z</time>
      </trkpt>
      <trkpt lat="43.83645" lon="7.27131">
        <ele>868.5</ele>
        <time>2012-05-27T12:30:21Z</time>
      </trkpt>
      <trkpt lat="43.83631" lon="7.27145">
        <ele>871.8</ele>
        <time>2012-05-27T12:30:29Z</time>
      </trkpt>
      <trkpt lat="43.83618" lon="7.27151">
        <ele>872.9</ele>
        <time>2012-05-27T12:30:35Z</time>
      </trkpt>
      <trkpt lat="43.83605" lon="7.27158">
        <ele>874.7</ele>
        <time>2012-05-27T12:30:41Z</time>
      </trkpt>
      <trkpt lat="43.8359" lon="7.27161">
        <ele>875.2</ele>
        <time>2012-05-27T12:30:47Z</time>
      </trkpt>
      <trkpt lat="43.83575" lon="7.27161">
        <ele>875.1</ele>
        <time>2012-05-27T12:30:53Z</time>
      </trkpt>
      <trkpt lat="43.83559" lon="7.27163">
        <ele>875.1</ele>
        <time>2012-05-27T12:30:59Z</time>
      </trkpt>
      <trkpt lat="43.83542" lon="7.27162">
        <ele>874.8</ele>
        <time>2012-05-27T12:31:04Z</time>
      </trkpt>
      <trkpt lat="43.83528" lon="7.27161">
        <ele>872.3</ele>
        <time>2012-05-27T12:31:10Z</time>
      </trkpt>
      <trkpt lat="43.83512" lon="7.27167">
        <ele>870.7</ele>
        <time>2012-05-27T12:31:24Z</time>
      </trkpt>
      <trkpt lat="43.83481" lon="7.27182">
        <ele>869.2</ele>
        <time>2012-05-27T12:31:52Z</time>
      </trkpt>
      <trkpt lat="43.83465" lon="7.2719">
        <ele>869.3</ele>
        <time>2012-05-27T12:32:02Z</time>
      </trkpt>
      <trkpt lat="43.83456" lon="7.27195">
        <ele>869</ele>
        <time>2012-05-27T12:32:08Z</time>
      </trkpt>
      <trkpt lat="43.83444" lon="7.27203">
        <ele>866.1</ele>
        <time>2012-05-27T12:32:22Z</time>
      </trkpt>
      <trkpt lat="43.83437" lon="7.27206">
        <ele>863.6</ele>
        <time>2012-05-27T12:32:27Z</time>
      </trkpt>
      <trkpt lat="43.83413" lon="7.27232">
        <ele>859.1</ele>
        <time>2012-05-27T12:32:44Z</time>
      </trkpt>
      <trkpt lat="43.83407" lon="7.27237">
        <ele>858.1</ele>
        <time>2012-05-27T12:32:46Z</time>
      </trkpt>
      <trkpt lat="43.83399" lon="7.27252">
        <ele>858</ele>
        <time>2012-05-27T12:32:50Z</time>
      </trkpt>
      <trkpt lat="43.83387" lon="7.27265">
        <ele>857</ele>
        <time>2012-05-27T12:32:54Z</time>
      </trkpt>
      <trkpt lat="43.83381" lon="7.27273">
        <ele>856.5</ele>
        <time>2012-05-27T12:32:56Z</time>
      </trkpt>
      <trkpt lat="43.83375" lon="7.27283">
        <ele>856.4</ele>
        <time>2012-05-27T12:32:58Z</time>
      </trkpt>
      <trkpt lat="43.8337" lon="7.27293">
        <ele>856.8</ele>
        <time>2012-05-27T12:33:00Z</time>
      </trkpt>
      <trkpt lat="43.83367" lon="7.27303">
        <ele>857.5</ele>
        <time>2012-05-27T12:33:02Z</time>
      </trkpt>
      <trkpt lat="43.83357" lon="7.27319">
        <ele>858.1</ele>
        <time>2012-05-27T12:33:08Z</time>
      </trkpt>
      <trkpt lat="43.83346" lon="7.27333">
        <ele>857.4</ele>
        <time>2012-05-27T12:33:14Z</time>
      </trkpt>
      <trkpt lat="43.83338" lon="7.2735">
        <ele>859.4</ele>
        <time>2012-05-27T12:33:19Z</time>
      </trkpt>
      <trkpt lat="43.83334" lon="7.2737">
        <ele>863.1</ele>
        <time>2012-05-27T12:33:23Z</time>
      </trkpt>
      <trkpt lat="43.83331" lon="7.27379">
        <ele>864.7</ele>
        <time>2012-05-27T12:33:25Z</time>
      </trkpt>
      <trkpt lat="43.83321" lon="7.27386">
        <ele>864</ele>
        <time>2012-05-27T12:33:29Z</time>
      </trkpt>
      <trkpt lat="43.83312" lon="7.27387">
        <ele>862.2</ele>
        <time>2012-05-27T12:33:32Z</time>
      </trkpt>
      <trkpt lat="43.83306" lon="7.27366">
        <ele>856.5</ele>
        <time>2012-05-27T12:33:48Z</time>
      </trkpt>
      <trkpt lat="43.83295" lon="7.27351">
        <ele>847.6</ele>
        <time>2012-05-27T12:33:58Z</time>
      </trkpt>
      <trkpt lat="43.83281" lon="7.27346">
        <ele>844.2</ele>
        <time>2012-05-27T12:34:04Z</time>
      </trkpt>
      <trkpt lat="43.8328" lon="7.27336">
        <ele>840.7</ele>
        <time>2012-05-27T12:34:09Z</time>
      </trkpt>
      <trkpt lat="43.83273" lon="7.27328">
        <ele>836.7</ele>
        <time>2012-05-27T12:34:14Z</time>
      </trkpt>
      <trkpt lat="43.8326" lon="7.27322">
        <ele>833.5</ele>
        <time>2012-05-27T12:34:20Z</time>
      </trkpt>
      <trkpt lat="43.83247" lon="7.27314">
        <ele>829.1</ele>
        <time>2012-05-27T12:34:28Z</time>
      </trkpt>
      <trkpt lat="43.83219" lon="7.27303">
        <ele>822.5</ele>
        <time>2012-05-27T12:34:41Z</time>
      </trkpt>
      <trkpt lat="43.83205" lon="7.27294">
        <ele>817.5</ele>
        <time>2012-05-27T12:34:45Z</time>
      </trkpt>
      <trkpt lat="43.8319" lon="7.27288">
        <ele>814.1</ele>
        <time>2012-05-27T12:34:49Z</time>
      </trkpt>
      <trkpt lat="43.83178" lon="7.27281">
        <ele>810.9</ele>
        <time>2012-05-27T12:34:53Z</time>
      </trkpt>
      <trkpt lat="43.8315" lon="7.27263">
        <ele>802.4</ele>
        <time>2012-05-27T12:35:03Z</time>
      </trkpt>
      <trkpt lat="43.83144" lon="7.27261">
        <ele>801</ele>
        <time>2012-05-27T12:35:05Z</time>
      </trkpt>
      <trkpt lat="43.83133" lon="7.27253">
        <ele>797.7</ele>
        <time>2012-05-27T12:35:09Z</time>
      </trkpt>
      <trkpt lat="43.83119" lon="7.2725">
        <ele>795.3</ele>
        <time>2012-05-27T12:35:13Z</time>
      </trkpt>
      <trkpt lat="43.83094" lon="7.27244">
        <ele>789.3</ele>
        <time>2012-05-27T12:35:22Z</time>
      </trkpt>
      <trkpt lat="43.83079" lon="7.27237">
        <ele>784.4</ele>
        <time>2012-05-27T12:35:28Z</time>
      </trkpt>
      <trkpt lat="43.83065" lon="7.27229">
        <ele>779</ele>
        <time>2012-05-27T12:35:34Z</time>
      </trkpt>
      <trkpt lat="43.83049" lon="7.2723">
        <ele>776.1</ele>
        <time>2012-05-27T12:35:40Z</time>
      </trkpt>
      <trkpt lat="43.83018" lon="7.27236">
        <ele>776.5</ele>
        <time>2012-05-27T12:35:50Z</time>
      </trkpt>
      <trkpt lat="43.83002" lon="7.27237">
        <ele>775.9</ele>
        <time>2012-05-27T12:35:55Z</time>
      </trkpt>
      <trkpt lat="43.8298" lon="7.27233">
        <ele>773</ele>
        <time>2012-05-27T12:36:01Z</time>
      </trkpt>
      <trkpt lat="43.82969" lon="7.27232">
        <ele>771.8</ele>
        <time>2012-05-27T12:36:03Z</time>
      </trkpt>
      <trkpt lat="43.82957" lon="7.27228">
        <ele>769.7</ele>
        <time>2012-05-27T12:36:05Z</time>
      </trkpt>
      <trkpt lat="43.82946" lon="7.27226">
        <ele>768.3</ele>
        <time>2012-05-27T12:36:07Z</time>
      </trkpt>
      <trkpt lat="43.82935" lon="7.27221">
        <ele>766.8</ele>
        <time>2012-05-27T12:36:09Z</time>
      </trkpt>
      <trkpt lat="43.82923" lon="7.27214">
        <ele>764.5</ele>
        <time>2012-05-27T12:36:11Z</time>
      </trkpt>
      <trkpt lat="43.82912" lon="7.27206">
        <ele>762</ele>
        <time>2012-05-27T12:36:13Z</time>
      </trkpt>
      <trkpt lat="43.82899" lon="7.272">
        <ele>760.3</ele>
        <time>2012-05-27T12:36:15Z</time>
      </trkpt>
      <trkpt lat="43.82894" lon="7.27198">
        <ele>759.8</ele>
        <time>2012-05-27T12:36:16Z</time>
      </trkpt>
      <trkpt lat="43.82885" lon="7.27191">
        <ele>758.3</ele>
        <time>2012-05-27T12:36:18Z</time>
      </trkpt>
      <trkpt lat="43.82876" lon="7.27183">
        <ele>756.6</ele>
        <time>2012-05-27T12:36:20Z</time>
      </trkpt>
      <trkpt lat="43.82868" lon="7.2718">
        <ele>754.9</ele>
        <time>2012-05-27T12:36:22Z</time>
      </trkpt>
      <trkpt lat="43.82854" lon="7.27169">
        <ele>749.9</ele>
        <time>2012-05-27T12:36:27Z</time>
      </trkpt>
      <trkpt lat="43.82847" lon="7.27165">
        <ele>747.5</ele>
        <time>2012-05-27T12:36:29Z</time>
      </trkpt>
      <trkpt lat="43.82832" lon="7.27162">
        <ele>743.7</ele>
        <time>2012-05-27T12:36:35Z</time>
      </trkpt>
      <trkpt lat="43.82817" lon="7.27156">
        <ele>739.8</ele>
        <time>2012-05-27T12:36:41Z</time>
      </trkpt>
      <trkpt lat="43.82804" lon="7.27159">
        <ele>738.5</ele>
        <time>2012-05-27T12:36:45Z</time>
      </trkpt>
      <trkpt lat="43.82792" lon="7.2716">
        <ele>737.3</ele>
        <time>2012-05-27T12:36:49Z</time>
      </trkpt>
      <trkpt lat="43.82786" lon="7.2716">
        <ele>736.1</ele>
        <time>2012-05-27T12:36:51Z</time>
      </trkpt>
      <trkpt lat="43.82772" lon="7.27163">
        <ele>733.4</ele>
        <time>2012-05-27T12:36:55Z</time>
      </trkpt>
      <trkpt lat="43.82744" lon="7.27164">
        <ele>726.7</ele>
        <time>2012-05-27T12:37:03Z</time>
      </trkpt>
      <trkpt lat="43.82729" lon="7.27168">
        <ele>723.9</ele>
        <time>2012-05-27T12:37:07Z</time>
      </trkpt>
      <trkpt lat="43.82712" lon="7.27166">
        <ele>719.6</ele>
        <time>2012-05-27T12:37:11Z</time>
      </trkpt>
      <trkpt lat="43.82697" lon="7.27159">
        <ele>713.1</ele>
        <time>2012-05-27T12:37:18Z</time>
      </trkpt>
      <trkpt lat="43.82688" lon="7.27155">
        <ele>710.6</ele>
        <time>2012-05-27T12:37:21Z</time>
      </trkpt>
      <trkpt lat="43.82671" lon="7.27155">
        <ele>705.6</ele>
        <time>2012-05-27T12:37:27Z</time>
      </trkpt>
      <trkpt lat="43.82657" lon="7.27156">
        <ele>702.5</ele>
        <time>2012-05-27T12:37:32Z</time>
      </trkpt>
      <trkpt lat="43.82642" lon="7.27149">
        <ele>697</ele>
        <time>2012-05-27T12:37:40Z</time>
      </trkpt>
      <trkpt lat="43.82635" lon="7.27128">
        <ele>687.2</ele>
        <time>2012-05-27T12:37:53Z</time>
      </trkpt>
      <trkpt lat="43.82642" lon="7.2712">
        <ele>685.6</ele>
        <time>2012-05-27T12:37:57Z</time>
      </trkpt>
      <trkpt lat="43.82644" lon="7.27101">
        <ele>681.4</ele>
        <time>2012-05-27T12:38:04Z</time>
      </trkpt>
      <trkpt lat="43.82649" lon="7.27081">
        <ele>676</ele>
        <time>2012-05-27T12:38:09Z</time>
      </trkpt>
      <trkpt lat="43.82657" lon="7.27067">
        <ele>672.9</ele>
        <time>2012-05-27T12:38:13Z</time>
      </trkpt>
      <trkpt lat="43.82668" lon="7.2705">
        <ele>669.5</ele>
        <time>2012-05-27T12:38:20Z</time>
      </trkpt>
      <trkpt lat="43.82661" lon="7.27043">
        <ele>665.4</ele>
        <time>2012-05-27T12:38:30Z</time>
      </trkpt>
      <trkpt lat="43.82644" lon="7.27042">
        <ele>661.8</ele>
        <time>2012-05-27T12:38:38Z</time>
      </trkpt>
      <trkpt lat="43.82641" lon="7.2703">
        <ele>657.8</ele>
        <time>2012-05-27T12:38:44Z</time>
      </trkpt>
      <trkpt lat="43.82649" lon="7.27013">
        <ele>653.8</ele>
        <time>2012-05-27T12:38:50Z</time>
      </trkpt>
      <trkpt lat="43.82658" lon="7.26997">
        <ele>651</ele>
        <time>2012-05-27T12:38:59Z</time>
      </trkpt>
      <trkpt lat="43.82653" lon="7.26988">
        <ele>647.5</ele>
        <time>2012-05-27T12:39:03Z</time>
      </trkpt>
      <trkpt lat="43.82644" lon="7.26977">
        <ele>642.3</ele>
        <time>2012-05-27T12:39:08Z</time>
      </trkpt>
      <trkpt lat="43.82636" lon="7.26973">
        <ele>639.7</ele>
        <time>2012-05-27T12:39:10Z</time>
      </trkpt>
      <trkpt lat="43.82627" lon="7.26969">
        <ele>636.6</ele>
        <time>2012-05-27T12:39:12Z</time>
      </trkpt>
      <trkpt lat="43.82616" lon="7.26968">
        <ele>634</ele>
        <time>2012-05-27T12:39:14Z</time>
      </trkpt>
      <trkpt lat="43.82608" lon="7.26972">
        <ele>632.7</ele>
        <time>2012-05-27T12:39:16Z</time>
      </trkpt>
      <trkpt lat="43.82596" lon="7.26984">
        <ele>633.6</ele>
        <time>2012-05-27T12:39:22Z</time>
      </trkpt>
      <trkpt lat="43.82583" lon="7.26989">
        <ele>633.6</ele>
        <time>2012-05-27T12:39:26Z</time>
      </trkpt>
      <trkpt lat="43.82577" lon="7.26994">
        <ele>633.8</ele>
        <time>2012-05-27T12:39:28Z</time>
      </trkpt>
      <trkpt lat="43.82567" lon="7.27003">
        <ele>634.8</ele>
        <time>2012-05-27T12:39:31Z</time>
      </trkpt>
      <trkpt lat="43.82557" lon="7.27012">
        <ele>635.6</ele>
        <time>2012-05-27T12:39:33Z</time>
      </trkpt>
      <trkpt lat="43.82551" lon="7.27015">
        <ele>635.8</ele>
        <time>2012-05-27T12:39:34Z</time>
      </trkpt>
      <trkpt lat="43.82541" lon="7.27017">
        <ele>635.4</ele>
        <time>2012-05-27T12:39:36Z</time>
      </trkpt>
      <trkpt lat="43.82532" lon="7.27015">
        <ele>635</ele>
        <time>2012-05-27T12:39:38Z</time>
      </trkpt>
      <trkpt lat="43.8252" lon="7.27011">
        <ele>633.8</ele>
        <time>2012-05-27T12:39:41Z</time>
      </trkpt>
      <trkpt lat="43.82506" lon="7.27014">
        <ele>634.3</ele>
        <time>2012-05-27T12:39:48Z</time>
      </trkpt>
      <trkpt lat="43.82491" lon="7.27019">
        <ele>635.2</ele>
        <time>2012-05-27T12:39:52Z</time>
      </trkpt>
      <trkpt lat="43.82478" lon="7.27026">
        <ele>637.7</ele>
        <time>2012-05-27T12:39:56Z</time>
      </trkpt>
      <trkpt lat="43.82462" lon="7.27032">
        <ele>639.5</ele>
        <time>2012-05-27T12:40:00Z</time>
      </trkpt>
      <trkpt lat="43.82448" lon="7.27038">
        <ele>641.5</ele>
        <time>2012-05-27T12:40:04Z</time>
      </trkpt>
      <trkpt lat="43.82434" lon="7.27042">
        <ele>643.1</ele>
        <time>2012-05-27T12:40:08Z</time>
      </trkpt>
      <trkpt lat="43.82419" lon="7.27039">
        <ele>643.4</ele>
        <time>2012-05-27T12:40:13Z</time>
      </trkpt>
      <trkpt lat="43.82406" lon="7.27032">
        <ele>642</ele>
        <time>2012-05-27T12:40:17Z</time>
      </trkpt>
      <trkpt lat="43.824" lon="7.27029">
        <ele>641.2</ele>
        <time>2012-05-27T12:40:19Z</time>
      </trkpt>
      <trkpt lat="43.82386" lon="7.27021">
        <ele>639.6</ele>
        <time>2012-05-27T12:40:24Z</time>
      </trkpt>
      <trkpt lat="43.82379" lon="7.27004">
        <ele>636.3</ele>
        <time>2012-05-27T12:40:28Z</time>
      </trkpt>
      <trkpt lat="43.82377" lon="7.26994">
        <ele>633.9</ele>
        <time>2012-05-27T12:40:30Z</time>
      </trkpt>
      <trkpt lat="43.82372" lon="7.26982">
        <ele>630.5</ele>
        <time>2012-05-27T12:40:33Z</time>
      </trkpt>
      <trkpt lat="43.82358" lon="7.26969">
        <ele>620.4</ele>
        <time>2012-05-27T12:40:38Z</time>
      </trkpt>
      <trkpt lat="43.82351" lon="7.26965">
        <ele>616.5</ele>
        <time>2012-05-27T12:40:40Z</time>
      </trkpt>
      <trkpt lat="43.82342" lon="7.26964">
        <ele>612.3</ele>
        <time>2012-05-27T12:40:42Z</time>
      </trkpt>
      <trkpt lat="43.82334" lon="7.26968">
        <ele>608.7</ele>
        <time>2012-05-27T12:40:44Z</time>
      </trkpt>
      <trkpt lat="43.82327" lon="7.26975">
        <ele>606.6</ele>
        <time>2012-05-27T12:40:46Z</time>
      </trkpt>
      <trkpt lat="43.82316" lon="7.26987">
        <ele>604.9</ele>
        <time>2012-05-27T12:40:49Z</time>
      </trkpt>
      <trkpt lat="43.82305" lon="7.27004">
        <ele>604.4</ele>
        <time>2012-05-27T12:40:53Z</time>
      </trkpt>
      <trkpt lat="43.82292" lon="7.27016">
        <ele>603.2</ele>
        <time>2012-05-27T12:40:56Z</time>
      </trkpt>
      <trkpt lat="43.82281" lon="7.27024">
        <ele>603.1</ele>
        <time>2012-05-27T12:40:59Z</time>
      </trkpt>
      <trkpt lat="43.82276" lon="7.27025">
        <ele>602.9</ele>
        <time>2012-05-27T12:41:00Z</time>
      </trkpt>
      <trkpt lat="43.82263" lon="7.27029">
        <ele>602.1</ele>
        <time>2012-05-27T12:41:03Z</time>
      </trkpt>
      <trkpt lat="43.82255" lon="7.27033">
        <ele>601.8</ele>
        <time>2012-05-27T12:41:06Z</time>
      </trkpt>
      <trkpt lat="43.82262" lon="7.27015">
        <ele>598.8</ele>
        <time>2012-05-27T12:41:15Z</time>
      </trkpt>
      <trkpt lat="43.8227" lon="7.27009">
        <ele>597.7</ele>
        <time>2012-05-27T12:41:18Z</time>
      </trkpt>
      <trkpt lat="43.82256" lon="7.27008">
        <ele>596.1</ele>
        <time>2012-05-27T12:41:26Z</time>
      </trkpt>
      <trkpt lat="43.82243" lon="7.27">
        <ele>592.8</ele>
        <time>2012-05-27T12:41:31Z</time>
      </trkpt>
      <trkpt lat="43.82231" lon="7.27006">
        <ele>592.2</ele>
        <time>2012-05-27T12:41:34Z</time>
      </trkpt>
      <trkpt lat="43.82216" lon="7.27014">
        <ele>592.1</ele>
        <time>2012-05-27T12:41:37Z</time>
      </trkpt>
      <trkpt lat="43.82204" lon="7.27024">
        <ele>593.2</ele>
        <time>2012-05-27T12:41:40Z</time>
      </trkpt>
      <trkpt lat="43.82196" lon="7.27028">
        <ele>596.7</ele>
        <time>2012-05-27T12:41:42Z</time>
      </trkpt>
      <trkpt lat="43.82185" lon="7.27016">
        <ele>601.4</ele>
        <time>2012-05-27T12:42:03Z</time>
      </trkpt>
      <trkpt lat="43.82178" lon="7.27024">
        <ele>604.9</ele>
        <time>2012-05-27T12:42:06Z</time>
      </trkpt>
      <trkpt lat="43.82167" lon="7.27006">
        <ele>610</ele>
        <time>2012-05-27T12:42:14Z</time>
      </trkpt>
      <trkpt lat="43.82163" lon="7.26985">
        <ele>610.1</ele>
        <time>2012-05-27T12:42:25Z</time>
      </trkpt>
      <trkpt lat="43.82159" lon="7.26962">
        <ele>611.5</ele>
        <time>2012-05-27T12:42:42Z</time>
      </trkpt>
      <trkpt lat="43.82159" lon="7.26961">
        <ele>611.5</ele>
        <time>2012-05-27T12:42:43Z</time>
      </trkpt>
      <trkpt lat="43.82154" lon="7.26928">
        <ele>608.2</ele>
        <time>2012-05-27T12:43:06Z</time>
      </trkpt>
      <trkpt lat="43.8215" lon="7.26911">
        <ele>606.9</ele>
        <time>2012-05-27T12:43:10Z</time>
      </trkpt>
      <trkpt lat="43.82143" lon="7.26893">
        <ele>606.5</ele>
        <time>2012-05-27T12:43:14Z</time>
      </trkpt>
      <trkpt lat="43.82138" lon="7.26862">
        <ele>603.6</ele>
        <time>2012-05-27T12:43:21Z</time>
      </trkpt>
      <trkpt lat="43.82134" lon="7.26845">
        <ele>602.3</ele>
        <time>2012-05-27T12:43:25Z</time>
      </trkpt>
      <trkpt lat="43.82129" lon="7.2683">
        <ele>601.6</ele>
        <time>2012-05-27T12:43:28Z</time>
      </trkpt>
      <trkpt lat="43.82126" lon="7.26808">
        <ele>599.3</ele>
        <time>2012-05-27T12:43:31Z</time>
      </trkpt>
      <trkpt lat="43.82126" lon="7.268">
        <ele>598</ele>
        <time>2012-05-27T12:43:32Z</time>
      </trkpt>
      <trkpt lat="43.82127" lon="7.26782">
        <ele>593.9</ele>
        <time>2012-05-27T12:43:34Z</time>
      </trkpt>
      <trkpt lat="43.82131" lon="7.2676">
        <ele>586.2</ele>
        <time>2012-05-27T12:43:37Z</time>
      </trkpt>
      <trkpt lat="43.82133" lon="7.26749">
        <ele>581.9</ele>
        <time>2012-05-27T12:43:39Z</time>
      </trkpt>
      <trkpt lat="43.82132" lon="7.26735">
        <ele>578.1</ele>
        <time>2012-05-27T12:43:41Z</time>
      </trkpt>
      <trkpt lat="43.82134" lon="7.26707">
        <ele>570.3</ele>
        <time>2012-05-27T12:43:45Z</time>
      </trkpt>
      <trkpt lat="43.8213" lon="7.26688">
        <ele>562.9</ele>
        <time>2012-05-27T12:43:49Z</time>
      </trkpt>
      <trkpt lat="43.82125" lon="7.26681">
        <ele>560.6</ele>
        <time>2012-05-27T12:43:51Z</time>
      </trkpt>
      <trkpt lat="43.82113" lon="7.2667">
        <ele>555.8</ele>
        <time>2012-05-27T12:43:54Z</time>
      </trkpt>
      <trkpt lat="43.82099" lon="7.26659">
        <ele>549.9</ele>
        <time>2012-05-27T12:43:57Z</time>
      </trkpt>
      <trkpt lat="43.82083" lon="7.26649">
        <ele>543.6</ele>
        <time>2012-05-27T12:44:01Z</time>
      </trkpt>
      <trkpt lat="43.82075" lon="7.26645">
        <ele>540.8</ele>
        <time>2012-05-27T12:44:03Z</time>
      </trkpt>
      <trkpt lat="43.82066" lon="7.26644">
        <ele>538.8</ele>
        <time>2012-05-27T12:44:05Z</time>
      </trkpt>
      <trkpt lat="43.82057" lon="7.26641">
        <ele>536.9</ele>
        <time>2012-05-27T12:44:07Z</time>
      </trkpt>
      <trkpt lat="43.82047" lon="7.26637">
        <ele>534.4</ele>
        <time>2012-05-27T12:44:09Z</time>
      </trkpt>
      <trkpt lat="43.82035" lon="7.26634">
        <ele>530.8</ele>
        <time>2012-05-27T12:44:12Z</time>
      </trkpt>
      <trkpt lat="43.82029" lon="7.26632">
        <ele>528.3</ele>
        <time>2012-05-27T12:44:14Z</time>
      </trkpt>
      <trkpt lat="43.82014" lon="7.2663">
        <ele>523.3</ele>
        <time>2012-05-27T12:44:18Z</time>
      </trkpt>
      <trkpt lat="43.81999" lon="7.26631">
        <ele>519.3</ele>
        <time>2012-05-27T12:44:22Z</time>
      </trkpt>
      <trkpt lat="43.81991" lon="7.2663">
        <ele>517.2</ele>
        <time>2012-05-27T12:44:24Z</time>
      </trkpt>
      <trkpt lat="43.81979" lon="7.26632">
        <ele>514.5</ele>
        <time>2012-05-27T12:44:28Z</time>
      </trkpt>
      <trkpt lat="43.81965" lon="7.26636">
        <ele>512.2</ele>
        <time>2012-05-27T12:44:31Z</time>
      </trkpt>
      <trkpt lat="43.81956" lon="7.26639">
        <ele>511.1</ele>
        <time>2012-05-27T12:44:33Z</time>
      </trkpt>
      <trkpt lat="43.81941" lon="7.26643">
        <ele>508</ele>
        <time>2012-05-27T12:44:37Z</time>
      </trkpt>
      <trkpt lat="43.8193" lon="7.26645">
        <ele>505.5</ele>
        <time>2012-05-27T12:44:40Z</time>
      </trkpt>
      <trkpt lat="43.81917" lon="7.26648">
        <ele>502.4</ele>
        <time>2012-05-27T12:44:43Z</time>
      </trkpt>
      <trkpt lat="43.81908" lon="7.26649">
        <ele>499.9</ele>
        <time>2012-05-27T12:44:47Z</time>
      </trkpt>
      <trkpt lat="43.81894" lon="7.26652">
        <ele>495.5</ele>
        <time>2012-05-27T12:44:54Z</time>
      </trkpt>
      <trkpt lat="43.81881" lon="7.26659">
        <ele>494.3</ele>
        <time>2012-05-27T12:44:57Z</time>
      </trkpt>
      <trkpt lat="43.81867" lon="7.26669">
        <ele>493.1</ele>
        <time>2012-05-27T12:45:00Z</time>
      </trkpt>
      <trkpt lat="43.81859" lon="7.26674">
        <ele>492.6</ele>
        <time>2012-05-27T12:45:02Z</time>
      </trkpt>
      <trkpt lat="43.81845" lon="7.26681">
        <ele>490.6</ele>
        <time>2012-05-27T12:45:06Z</time>
      </trkpt>
      <trkpt lat="43.81834" lon="7.26694">
        <ele>490.4</ele>
        <time>2012-05-27T12:45:09Z</time>
      </trkpt>
      <trkpt lat="43.81809" lon="7.26718">
        <ele>490</ele>
        <time>2012-05-27T12:45:16Z</time>
      </trkpt>
      <trkpt lat="43.818" lon="7.26728">
        <ele>490.1</ele>
        <time>2012-05-27T12:45:19Z</time>
      </trkpt>
      <trkpt lat="43.81788" lon="7.26736">
        <ele>489.3</ele>
        <time>2012-05-27T12:45:22Z</time>
      </trkpt>
      <trkpt lat="43.81774" lon="7.26743">
        <ele>489</ele>
        <time>2012-05-27T12:45:25Z</time>
      </trkpt>
      <trkpt lat="43.81766" lon="7.26747">
        <ele>489</ele>
        <time>2012-05-27T12:45:27Z</time>
      </trkpt>
      <trkpt lat="43.81754" lon="7.26758">
        <ele>490</ele>
        <time>2012-05-27T12:45:30Z</time>
      </trkpt>
      <trkpt lat="43.81744" lon="7.26769">
        <ele>491.4</ele>
        <time>2012-05-27T12:45:33Z</time>
      </trkpt>
      <trkpt lat="43.81737" lon="7.26773">
        <ele>491.9</ele>
        <time>2012-05-27T12:45:35Z</time>
      </trkpt>
      <trkpt lat="43.81724" lon="7.26777">
        <ele>490.9</ele>
        <time>2012-05-27T12:45:39Z</time>
      </trkpt>
      <trkpt lat="43.81702" lon="7.26776">
        <ele>486.7</ele>
        <time>2012-05-27T12:45:46Z</time>
      </trkpt>
      <trkpt lat="43.81692" lon="7.26777">
        <ele>485.4</ele>
        <time>2012-05-27T12:45:48Z</time>
      </trkpt>
      <trkpt lat="43.81683" lon="7.26779">
        <ele>483.8</ele>
        <time>2012-05-27T12:45:50Z</time>
      </trkpt>
      <trkpt lat="43.8167" lon="7.26786">
        <ele>482.7</ele>
        <time>2012-05-27T12:45:53Z</time>
      </trkpt>
      <trkpt lat="43.81655" lon="7.26794">
        <ele>482</ele>
        <time>2012-05-27T12:45:56Z</time>
      </trkpt>
      <trkpt lat="43.81646" lon="7.268">
        <ele>482.3</ele>
        <time>2012-05-27T12:45:58Z</time>
      </trkpt>
      <trkpt lat="43.81637" lon="7.26804">
        <ele>482.3</ele>
        <time>2012-05-27T12:46:00Z</time>
      </trkpt>
      <trkpt lat="43.81624" lon="7.2681">
        <ele>482.2</ele>
        <time>2012-05-27T12:46:03Z</time>
      </trkpt>
      <trkpt lat="43.8161" lon="7.26805">
        <ele>480.1</ele>
        <time>2012-05-27T12:46:08Z</time>
      </trkpt>
      <trkpt lat="43.81604" lon="7.26806">
        <ele>479.2</ele>
        <time>2012-05-27T12:46:10Z</time>
      </trkpt>
      <trkpt lat="43.8159" lon="7.26803">
        <ele>477.4</ele>
        <time>2012-05-27T12:46:14Z</time>
      </trkpt>
      <trkpt lat="43.81577" lon="7.26795">
        <ele>473.8</ele>
        <time>2012-05-27T12:46:18Z</time>
      </trkpt>
      <trkpt lat="43.81567" lon="7.26797">
        <ele>472.9</ele>
        <time>2012-05-27T12:46:20Z</time>
      </trkpt>
      <trkpt lat="43.81556" lon="7.26802">
        <ele>473.3</ele>
        <time>2012-05-27T12:46:22Z</time>
      </trkpt>
      <trkpt lat="43.81544" lon="7.26805">
        <ele>473.4</ele>
        <time>2012-05-27T12:46:24Z</time>
      </trkpt>
      <trkpt lat="43.81533" lon="7.26808">
        <ele>474.1</ele>
        <time>2012-05-27T12:46:26Z</time>
      </trkpt>
      <trkpt lat="43.81525" lon="7.26811">
        <ele>475.1</ele>
        <time>2012-05-27T12:46:28Z</time>
      </trkpt>
      <trkpt lat="43.81516" lon="7.26795">
        <ele>472.1</ele>
        <time>2012-05-27T12:46:33Z</time>
      </trkpt>
      <trkpt lat="43.81505" lon="7.26779">
        <ele>467.3</ele>
        <time>2012-05-27T12:46:37Z</time>
      </trkpt>
      <trkpt lat="43.81496" lon="7.2677">
        <ele>464.8</ele>
        <time>2012-05-27T12:46:39Z</time>
      </trkpt>
      <trkpt lat="43.81485" lon="7.26768">
        <ele>463.3</ele>
        <time>2012-05-27T12:46:41Z</time>
      </trkpt>
      <trkpt lat="43.81464" lon="7.26773">
        <ele>463.7</ele>
        <time>2012-05-27T12:46:44Z</time>
      </trkpt>
      <trkpt lat="43.81448" lon="7.26774">
        <ele>464</ele>
        <time>2012-05-27T12:46:46Z</time>
      </trkpt>
      <trkpt lat="43.81439" lon="7.26773">
        <ele>463.6</ele>
        <time>2012-05-27T12:46:47Z</time>
      </trkpt>
      <trkpt lat="43.81422" lon="7.26769">
        <ele>462.4</ele>
        <time>2012-05-27T12:46:49Z</time>
      </trkpt>
      <trkpt lat="43.81394" lon="7.26759">
        <ele>458.2</ele>
        <time>2012-05-27T12:46:52Z</time>
      </trkpt>
      <trkpt lat="43.81375" lon="7.2675">
        <ele>455</ele>
        <time>2012-05-27T12:46:54Z</time>
      </trkpt>
      <trkpt lat="43.81366" lon="7.26745">
        <ele>453</ele>
        <time>2012-05-27T12:46:55Z</time>
      </trkpt>
      <trkpt lat="43.81346" lon="7.26742">
        <ele>449.3</ele>
        <time>2012-05-27T12:46:57Z</time>
      </trkpt>
      <trkpt lat="43.81336" lon="7.26742">
        <ele>447.7</ele>
        <time>2012-05-27T12:46:58Z</time>
      </trkpt>
      <trkpt lat="43.81326" lon="7.26743">
        <ele>446.4</ele>
        <time>2012-05-27T12:46:59Z</time>
      </trkpt>
      <trkpt lat="43.81316" lon="7.26747">
        <ele>445.7</ele>
        <time>2012-05-27T12:47:00Z</time>
      </trkpt>
      <trkpt lat="43.81306" lon="7.26753">
        <ele>445.3</ele>
        <time>2012-05-27T12:47:01Z</time>
      </trkpt>
      <trkpt lat="43.81287" lon="7.26764">
        <ele>445.7</ele>
        <time>2012-05-27T12:47:03Z</time>
      </trkpt>
      <trkpt lat="43.81267" lon="7.26774">
        <ele>446.9</ele>
        <time>2012-05-27T12:47:05Z</time>
      </trkpt>
      <trkpt lat="43.81257" lon="7.26777">
        <ele>447.5</ele>
        <time>2012-05-27T12:47:06Z</time>
      </trkpt>
      <trkpt lat="43.81247" lon="7.26778">
        <ele>447.8</ele>
        <time>2012-05-27T12:47:07Z</time>
      </trkpt>
      <trkpt lat="43.81226" lon="7.26778">
        <ele>447.5</ele>
        <time>2012-05-27T12:47:09Z</time>
      </trkpt>
      <trkpt lat="43.81216" lon="7.26776">
        <ele>446.9</ele>
        <time>2012-05-27T12:47:10Z</time>
      </trkpt>
      <trkpt lat="43.81175" lon="7.26767">
        <ele>443.1</ele>
        <time>2012-05-27T12:47:14Z</time>
      </trkpt>
      <trkpt lat="43.81164" lon="7.26766">
        <ele>442.3</ele>
        <time>2012-05-27T12:47:15Z</time>
      </trkpt>
      <trkpt lat="43.81154" lon="7.26767">
        <ele>441.8</ele>
        <time>2012-05-27T12:47:16Z</time>
      </trkpt>
      <trkpt lat="43.81143" lon="7.26771">
        <ele>441.6</ele>
        <time>2012-05-27T12:47:17Z</time>
      </trkpt>
      <trkpt lat="43.81123" lon="7.26781">
        <ele>441.7</ele>
        <time>2012-05-27T12:47:19Z</time>
      </trkpt>
      <trkpt lat="43.81113" lon="7.26785">
        <ele>441.8</ele>
        <time>2012-05-27T12:47:20Z</time>
      </trkpt>
      <trkpt lat="43.81102" lon="7.26788">
        <ele>441.6</ele>
        <time>2012-05-27T12:47:21Z</time>
      </trkpt>
      <trkpt lat="43.81091" lon="7.26789">
        <ele>441.2</ele>
        <time>2012-05-27T12:47:22Z</time>
      </trkpt>
      <trkpt lat="43.8108" lon="7.26789">
        <ele>440.5</ele>
        <time>2012-05-27T12:47:23Z</time>
      </trkpt>
      <trkpt lat="43.81037" lon="7.26783">
        <ele>436.5</ele>
        <time>2012-05-27T12:47:27Z</time>
      </trkpt>
      <trkpt lat="43.81025" lon="7.26783">
        <ele>435.2</ele>
        <time>2012-05-27T12:47:28Z</time>
      </trkpt>
      <trkpt lat="43.81003" lon="7.26786">
        <ele>432.7</ele>
        <time>2012-05-27T12:47:30Z</time>
      </trkpt>
      <trkpt lat="43.80992" lon="7.26788">
        <ele>431.5</ele>
        <time>2012-05-27T12:47:31Z</time>
      </trkpt>
      <trkpt lat="43.80971" lon="7.26795">
        <ele>429.4</ele>
        <time>2012-05-27T12:47:33Z</time>
      </trkpt>
      <trkpt lat="43.80937" lon="7.26805">
        <ele>427.3</ele>
        <time>2012-05-27T12:47:36Z</time>
      </trkpt>
      <trkpt lat="43.80891" lon="7.26818">
        <ele>425.5</ele>
        <time>2012-05-27T12:47:40Z</time>
      </trkpt>
      <trkpt lat="43.8088" lon="7.2682">
        <ele>424.9</ele>
        <time>2012-05-27T12:47:41Z</time>
      </trkpt>
      <trkpt lat="43.80868" lon="7.2682">
        <ele>424.1</ele>
        <time>2012-05-27T12:47:42Z</time>
      </trkpt>
      <trkpt lat="43.80845" lon="7.26816">
        <ele>421.6</ele>
        <time>2012-05-27T12:47:44Z</time>
      </trkpt>
      <trkpt lat="43.80823" lon="7.26808">
        <ele>418.1</ele>
        <time>2012-05-27T12:47:46Z</time>
      </trkpt>
      <trkpt lat="43.80811" lon="7.26805">
        <ele>416.3</ele>
        <time>2012-05-27T12:47:47Z</time>
      </trkpt>
      <trkpt lat="43.808" lon="7.26803">
        <ele>414.6</ele>
        <time>2012-05-27T12:47:48Z</time>
      </trkpt>
      <trkpt lat="43.80788" lon="7.26805">
        <ele>413.3</ele>
        <time>2012-05-27T12:47:49Z</time>
      </trkpt>
      <trkpt lat="43.80778" lon="7.26808">
        <ele>412.2</ele>
        <time>2012-05-27T12:47:50Z</time>
      </trkpt>
      <trkpt lat="43.80757" lon="7.26816">
        <ele>410.4</ele>
        <time>2012-05-27T12:47:52Z</time>
      </trkpt>
      <trkpt lat="43.80714" lon="7.26836">
        <ele>406.3</ele>
        <time>2012-05-27T12:47:56Z</time>
      </trkpt>
      <trkpt lat="43.80704" lon="7.26843">
        <ele>405.3</ele>
        <time>2012-05-27T12:47:57Z</time>
      </trkpt>
      <trkpt lat="43.80694" lon="7.2685">
        <ele>404.6</ele>
        <time>2012-05-27T12:47:58Z</time>
      </trkpt>
      <trkpt lat="43.80676" lon="7.26868">
        <ele>403.4</ele>
        <time>2012-05-27T12:48:00Z</time>
      </trkpt>
      <trkpt lat="43.80666" lon="7.26875">
        <ele>402.5</ele>
        <time>2012-05-27T12:48:01Z</time>
      </trkpt>
      <trkpt lat="43.80655" lon="7.2688">
        <ele>402</ele>
        <time>2012-05-27T12:48:02Z</time>
      </trkpt>
      <trkpt lat="43.80611" lon="7.26896">
        <ele>401.3</ele>
        <time>2012-05-27T12:48:06Z</time>
      </trkpt>
      <trkpt lat="43.80567" lon="7.26912">
        <ele>403</ele>
        <time>2012-05-27T12:48:10Z</time>
      </trkpt>
      <trkpt lat="43.80545" lon="7.26919">
        <ele>403.2</ele>
        <time>2012-05-27T12:48:12Z</time>
      </trkpt>
      <trkpt lat="43.80522" lon="7.26922">
        <ele>403</ele>
        <time>2012-05-27T12:48:14Z</time>
      </trkpt>
      <trkpt lat="43.80511" lon="7.26923">
        <ele>402.7</ele>
        <time>2012-05-27T12:48:15Z</time>
      </trkpt>
      <trkpt lat="43.80473" lon="7.26923">
        <ele>400.7</ele>
        <time>2012-05-27T12:48:19Z</time>
      </trkpt>
      <trkpt lat="43.80457" lon="7.26923">
        <ele>399.8</ele>
        <time>2012-05-27T12:48:21Z</time>
      </trkpt>
      <trkpt lat="43.80445" lon="7.26922">
        <ele>398.6</ele>
        <time>2012-05-27T12:48:23Z</time>
      </trkpt>
      <trkpt lat="43.80428" lon="7.26918">
        <ele>396.7</ele>
        <time>2012-05-27T12:48:27Z</time>
      </trkpt>
      <trkpt lat="43.80426" lon="7.26905">
        <ele>395.4</ele>
        <time>2012-05-27T12:48:31Z</time>
      </trkpt>
      <trkpt lat="43.80433" lon="7.26892">
        <ele>394.7</ele>
        <time>2012-05-27T12:48:33Z</time>
      </trkpt>
      <trkpt lat="43.80436" lon="7.26881">
        <ele>393.8</ele>
        <time>2012-05-27T12:48:35Z</time>
      </trkpt>
      <trkpt lat="43.80442" lon="7.26865">
        <ele>393.2</ele>
        <time>2012-05-27T12:48:42Z</time>
      </trkpt>
      <trkpt lat="43.80436" lon="7.26844">
        <ele>394.2</ele>
        <time>2012-05-27T12:48:50Z</time>
      </trkpt>
      <trkpt lat="43.80438" lon="7.26828">
        <ele>394.9</ele>
        <time>2012-05-27T12:48:53Z</time>
      </trkpt>
      <trkpt lat="43.80439" lon="7.2681">
        <ele>396.2</ele>
        <time>2012-05-27T12:49:06Z</time>
      </trkpt>
      <trkpt lat="43.80443" lon="7.26794">
        <ele>397.1</ele>
        <time>2012-05-27T12:49:10Z</time>
      </trkpt>
      <trkpt lat="43.80448" lon="7.26787">
        <ele>397.6</ele>
        <time>2012-05-27T12:49:12Z</time>
      </trkpt>
      <trkpt lat="43.80456" lon="7.26768">
        <ele>398.2</ele>
        <time>2012-05-27T12:49:16Z</time>
      </trkpt>
      <trkpt lat="43.80459" lon="7.26758">
        <ele>398.6</ele>
        <time>2012-05-27T12:49:18Z</time>
      </trkpt>
      <trkpt lat="43.80459" lon="7.26736">
        <ele>399.2</ele>
        <time>2012-05-27T12:49:22Z</time>
      </trkpt>
      <trkpt lat="43.80455" lon="7.26715">
        <ele>399.5</ele>
        <time>2012-05-27T12:49:26Z</time>
      </trkpt>
      <trkpt lat="43.8045" lon="7.26735">
        <ele>399.1</ele>
        <time>2012-05-27T12:49:34Z</time>
      </trkpt>
      <trkpt lat="43.80439" lon="7.26751">
        <ele>398.3</ele>
        <time>2012-05-27T12:49:42Z</time>
      </trkpt>
      <trkpt lat="43.80425" lon="7.26751">
        <ele>397.8</ele>
        <time>2012-05-27T12:49:48Z</time>
      </trkpt>
      <trkpt lat="43.80417" lon="7.26746">
        <ele>397.6</ele>
        <time>2012-05-27T12:49:52Z</time>
      </trkpt>
      <trkpt lat="43.8041" lon="7.26736">
        <ele>397.4</ele>
        <time>2012-05-27T12:49:56Z</time>
      </trkpt>
      <trkpt lat="43.80401" lon="7.26715">
        <ele>397.2</ele>
        <time>2012-05-27T12:50:03Z</time>
      </trkpt>
      <trkpt lat="43.80396" lon="7.26676">
        <ele>398.1</ele>
        <time>2012-05-27T12:50:11Z</time>
      </trkpt>
      <trkpt lat="43.80393" lon="7.26664">
        <ele>398.6</ele>
        <time>2012-05-27T12:50:13Z</time>
      </trkpt>
      <trkpt lat="43.80391" lon="7.26652">
        <ele>399</ele>
        <time>2012-05-27T12:50:15Z</time>
      </trkpt>
      <trkpt lat="43.80389" lon="7.26629">
        <ele>399.9</ele>
        <time>2012-05-27T12:50:19Z</time>
      </trkpt>
      <trkpt lat="43.80391" lon="7.2661">
        <ele>401.1</ele>
        <time>2012-05-27T12:50:23Z</time>
      </trkpt>
      <trkpt lat="43.80395" lon="7.26592">
        <ele>402.3</ele>
        <time>2012-05-27T12:50:27Z</time>
      </trkpt>
      <trkpt lat="43.80399" lon="7.26574">
        <ele>403.5</ele>
        <time>2012-05-27T12:50:31Z</time>
      </trkpt>
      <trkpt lat="43.80404" lon="7.26549">
        <ele>405.2</ele>
        <time>2012-05-27T12:50:37Z</time>
      </trkpt>
      <trkpt lat="43.80406" lon="7.26531">
        <ele>406.2</ele>
        <time>2012-05-27T12:50:41Z</time>
      </trkpt>
      <trkpt lat="43.80408" lon="7.26522">
        <ele>406.6</ele>
        <time>2012-05-27T12:50:43Z</time>
      </trkpt>
      <trkpt lat="43.80409" lon="7.26501">
        <ele>407.5</ele>
        <time>2012-05-27T12:50:48Z</time>
      </trkpt>
      <trkpt lat="43.8041" lon="7.26477">
        <ele>408.5</ele>
        <time>2012-05-27T12:50:54Z</time>
      </trkpt>
      <trkpt lat="43.8041" lon="7.26462">
        <ele>409.1</ele>
        <time>2012-05-27T12:50:58Z</time>
      </trkpt>
      <trkpt lat="43.80414" lon="7.26444">
        <ele>410.3</ele>
        <time>2012-05-27T12:51:03Z</time>
      </trkpt>
      <trkpt lat="43.80425" lon="7.26405">
        <ele>413.6</ele>
        <time>2012-05-27T12:51:15Z</time>
      </trkpt>
      <trkpt lat="43.80429" lon="7.26385">
        <ele>415.5</ele>
        <time>2012-05-27T12:51:22Z</time>
      </trkpt>
      <trkpt lat="43.80431" lon="7.26374">
        <ele>416.4</ele>
        <time>2012-05-27T12:51:26Z</time>
      </trkpt>
      <trkpt lat="43.80436" lon="7.26353">
        <ele>417.6</ele>
        <time>2012-05-27T12:51:34Z</time>
      </trkpt>
      <trkpt lat="43.80443" lon="7.26333">
        <ele>419</ele>
        <time>2012-05-27T12:51:43Z</time>
      </trkpt>
      <trkpt lat="43.8044" lon="7.2631">
        <ele>419.5</ele>
        <time>2012-05-27T12:51:52Z</time>
      </trkpt>
      <trkpt lat="43.80441" lon="7.26298">
        <ele>419.7</ele>
        <time>2012-05-27T12:51:56Z</time>
      </trkpt>
      <trkpt lat="43.80447" lon="7.26287">
        <ele>420.7</ele>
        <time>2012-05-27T12:52:01Z</time>
      </trkpt>
      <trkpt lat="43.80457" lon="7.26275">
        <ele>423.2</ele>
        <time>2012-05-27T12:52:08Z</time>
      </trkpt>
      <trkpt lat="43.80458" lon="7.26264">
        <ele>424.4</ele>
        <time>2012-05-27T12:52:11Z</time>
      </trkpt>
      <trkpt lat="43.80463" lon="7.26244">
        <ele>427.1</ele>
        <time>2012-05-27T12:52:17Z</time>
      </trkpt>
      <trkpt lat="43.80463" lon="7.26222">
        <ele>429.4</ele>
        <time>2012-05-27T12:52:22Z</time>
      </trkpt>
      <trkpt lat="43.80464" lon="7.26202">
        <ele>432</ele>
        <time>2012-05-27T12:52:26Z</time>
      </trkpt>
      <trkpt lat="43.80467" lon="7.26178">
        <ele>438.5</ele>
        <time>2012-05-27T12:52:30Z</time>
      </trkpt>
      <trkpt lat="43.80453" lon="7.26173">
        <ele>441.6</ele>
        <time>2012-05-27T12:52:38Z</time>
      </trkpt>
      <trkpt lat="43.80437" lon="7.26175">
        <ele>439.5</ele>
        <time>2012-05-27T12:52:44Z</time>
      </trkpt>
      <trkpt lat="43.80422" lon="7.26169">
        <ele>439.4</ele>
        <time>2012-05-27T12:52:51Z</time>
      </trkpt>
      <trkpt lat="43.80406" lon="7.26162">
        <ele>440.2</ele>
        <time>2012-05-27T12:52:59Z</time>
      </trkpt>
      <trkpt lat="43.80397" lon="7.26156">
        <ele>440.9</ele>
        <time>2012-05-27T12:53:04Z</time>
      </trkpt>
      <trkpt lat="43.8038" lon="7.26137">
        <ele>444</ele>
        <time>2012-05-27T12:53:16Z</time>
      </trkpt>
      <trkpt lat="43.8037" lon="7.26119">
        <ele>447.7</ele>
        <time>2012-05-27T12:53:27Z</time>
      </trkpt>
      <trkpt lat="43.80353" lon="7.26114">
        <ele>449</ele>
        <time>2012-05-27T12:53:38Z</time>
      </trkpt>
      <trkpt lat="43.80338" lon="7.26107">
        <ele>450.1</ele>
        <time>2012-05-27T12:53:46Z</time>
      </trkpt>
      <trkpt lat="43.80324" lon="7.26094">
        <ele>453.2</ele>
        <time>2012-05-27T12:53:54Z</time>
      </trkpt>
      <trkpt lat="43.8032" lon="7.26082">
        <ele>457</ele>
        <time>2012-05-27T12:54:07Z</time>
      </trkpt>
      <trkpt lat="43.80309" lon="7.26065">
        <ele>462.4</ele>
        <time>2012-05-27T12:54:22Z</time>
      </trkpt>
      <trkpt lat="43.80293" lon="7.26059">
        <ele>464</ele>
        <time>2012-05-27T12:54:36Z</time>
      </trkpt>
      <trkpt lat="43.80285" lon="7.26055">
        <ele>464.5</ele>
        <time>2012-05-27T12:54:43Z</time>
      </trkpt>
      <trkpt lat="43.80276" lon="7.26052">
        <ele>464.4</ele>
        <time>2012-05-27T12:54:50Z</time>
      </trkpt>
      <trkpt lat="43.80262" lon="7.26041">
        <ele>465.5</ele>
        <time>2012-05-27T12:55:05Z</time>
      </trkpt>
      <trkpt lat="43.80254" lon="7.26034">
        <ele>467</ele>
        <time>2012-05-27T12:55:13Z</time>
      </trkpt>
      <trkpt lat="43.8024" lon="7.26025">
        <ele>468.4</ele>
        <time>2012-05-27T12:55:26Z</time>
      </trkpt>
      <trkpt lat="43.80225" lon="7.26014">
        <ele>469.9</ele>
        <time>2012-05-27T12:55:47Z</time>
      </trkpt>
      <trkpt lat="43.80219" lon="7.26005">
        <ele>471.8</ele>
        <time>2012-05-27T12:55:56Z</time>
      </trkpt>
      <trkpt lat="43.80205" lon="7.25992">
        <ele>473.8</ele>
        <time>2012-05-27T12:56:11Z</time>
      </trkpt>
      <trkpt lat="43.80199" lon="7.25982">
        <ele>476.6</ele>
        <time>2012-05-27T12:56:21Z</time>
      </trkpt>
      <trkpt lat="43.80186" lon="7.25969">
        <ele>478.9</ele>
        <time>2012-05-27T12:56:37Z</time>
      </trkpt>
      <trkpt lat="43.80181" lon="7.25961">
        <ele>480.5</ele>
        <time>2012-05-27T12:56:41Z</time>
      </trkpt>
      <trkpt lat="43.8017" lon="7.25953">
        <ele>481.2</ele>
        <time>2012-05-27T12:56:46Z</time>
      </trkpt>
      <trkpt lat="43.80163" lon="7.25951">
        <ele>480.9</ele>
        <time>2012-05-27T12:56:48Z</time>
      </trkpt>
      <trkpt lat="43.80149" lon="7.25938">
        <ele>481.4</ele>
        <time>2012-05-27T12:56:55Z</time>
      </trkpt>
      <trkpt lat="43.80138" lon="7.25925">
        <ele>482.7</ele>
        <time>2012-05-27T12:57:01Z</time>
      </trkpt>
      <trkpt lat="43.80127" lon="7.25908">
        <ele>485.1</ele>
        <time>2012-05-27T12:57:15Z</time>
      </trkpt>
      <trkpt lat="43.80123" lon="7.25896">
        <ele>487.3</ele>
        <time>2012-05-27T12:57:25Z</time>
      </trkpt>
      <trkpt lat="43.80118" lon="7.25876">
        <ele>491.6</ele>
        <time>2012-05-27T12:57:39Z</time>
      </trkpt>
      <trkpt lat="43.80117" lon="7.25864">
        <ele>494.1</ele>
        <time>2012-05-27T12:57:47Z</time>
      </trkpt>
      <trkpt lat="43.80108" lon="7.25846">
        <ele>496.5</ele>
        <time>2012-05-27T12:57:57Z</time>
      </trkpt>
      <trkpt lat="43.80101" lon="7.25839">
        <ele>497.4</ele>
        <time>2012-05-27T12:58:00Z</time>
      </trkpt>
      <trkpt lat="43.80087" lon="7.25844">
        <ele>496</ele>
        <time>2012-05-27T12:58:09Z</time>
      </trkpt>
      <trkpt lat="43.80076" lon="7.25859">
        <ele>492.7</ele>
        <time>2012-05-27T12:58:16Z</time>
      </trkpt>
      <trkpt lat="43.80071" lon="7.25867">
        <ele>490.8</ele>
        <time>2012-05-27T12:58:19Z</time>
      </trkpt>
      <trkpt lat="43.8006" lon="7.25879">
        <ele>487.8</ele>
        <time>2012-05-27T12:58:23Z</time>
      </trkpt>
      <trkpt lat="43.80048" lon="7.25886">
        <ele>485.8</ele>
        <time>2012-05-27T12:58:26Z</time>
      </trkpt>
      <trkpt lat="43.8004" lon="7.25889">
        <ele>484.3</ele>
        <time>2012-05-27T12:58:28Z</time>
      </trkpt>
      <trkpt lat="43.80029" lon="7.2589">
        <ele>484.7</ele>
        <time>2012-05-27T12:58:30Z</time>
      </trkpt>
      <trkpt lat="43.80008" lon="7.2588">
        <ele>489</ele>
        <time>2012-05-27T12:58:36Z</time>
      </trkpt>
      <trkpt lat="43.8" lon="7.25872">
        <ele>491.2</ele>
        <time>2012-05-27T12:58:38Z</time>
      </trkpt>
      <trkpt lat="43.79989" lon="7.25856">
        <ele>496</ele>
        <time>2012-05-27T12:58:42Z</time>
      </trkpt>
      <trkpt lat="43.7998" lon="7.25852">
        <ele>499.1</ele>
        <time>2012-05-27T12:58:47Z</time>
      </trkpt>
      <trkpt lat="43.79971" lon="7.25873">
        <ele>497</ele>
        <time>2012-05-27T12:59:03Z</time>
      </trkpt>
      <trkpt lat="43.79969" lon="7.25885">
        <ele>495.3</ele>
        <time>2012-05-27T12:59:11Z</time>
      </trkpt>
      <trkpt lat="43.79963" lon="7.2592">
        <ele>491.5</ele>
        <time>2012-05-27T12:59:35Z</time>
      </trkpt>
      <trkpt lat="43.7996" lon="7.25939">
        <ele>489.6</ele>
        <time>2012-05-27T12:59:44Z</time>
      </trkpt>
      <trkpt lat="43.79959" lon="7.25961">
        <ele>487</ele>
        <time>2012-05-27T12:59:55Z</time>
      </trkpt>
      <trkpt lat="43.79952" lon="7.25979">
        <ele>485.7</ele>
        <time>2012-05-27T13:00:02Z</time>
      </trkpt>
      <trkpt lat="43.79947" lon="7.25987">
        <ele>485</ele>
        <time>2012-05-27T13:00:04Z</time>
      </trkpt>
      <trkpt lat="43.79938" lon="7.26002">
        <ele>483.3</ele>
        <time>2012-05-27T13:00:09Z</time>
      </trkpt>
      <trkpt lat="43.79932" lon="7.2601">
        <ele>482.4</ele>
        <time>2012-05-27T13:00:12Z</time>
      </trkpt>
      <trkpt lat="43.79909" lon="7.26031">
        <ele>478.8</ele>
        <time>2012-05-27T13:00:22Z</time>
      </trkpt>
      <trkpt lat="43.79895" lon="7.26045">
        <ele>476.4</ele>
        <time>2012-05-27T13:00:26Z</time>
      </trkpt>
      <trkpt lat="43.79875" lon="7.26067">
        <ele>473.6</ele>
        <time>2012-05-27T13:00:32Z</time>
      </trkpt>
      <trkpt lat="43.79859" lon="7.26086">
        <ele>471.5</ele>
        <time>2012-05-27T13:00:36Z</time>
      </trkpt>
      <trkpt lat="43.79839" lon="7.26112">
        <ele>467.6</ele>
        <time>2012-05-27T13:00:41Z</time>
      </trkpt>
      <trkpt lat="43.79833" lon="7.26122">
        <ele>466.3</ele>
        <time>2012-05-27T13:00:43Z</time>
      </trkpt>
      <trkpt lat="43.79827" lon="7.2613">
        <ele>465.1</ele>
        <time>2012-05-27T13:00:45Z</time>
      </trkpt>
      <trkpt lat="43.79814" lon="7.26131">
        <ele>463.2</ele>
        <time>2012-05-27T13:00:49Z</time>
      </trkpt>
      <trkpt lat="43.79799" lon="7.26121">
        <ele>461.6</ele>
        <time>2012-05-27T13:00:53Z</time>
      </trkpt>
      <trkpt lat="43.79792" lon="7.26116">
        <ele>460.9</ele>
        <time>2012-05-27T13:00:55Z</time>
      </trkpt>
      <trkpt lat="43.7978" lon="7.26103">
        <ele>460.2</ele>
        <time>2012-05-27T13:00:58Z</time>
      </trkpt>
      <trkpt lat="43.79774" lon="7.26091">
        <ele>460.2</ele>
        <time>2012-05-27T13:01:00Z</time>
      </trkpt>
      <trkpt lat="43.79768" lon="7.26078">
        <ele>460.3</ele>
        <time>2012-05-27T13:01:02Z</time>
      </trkpt>
      <trkpt lat="43.79752" lon="7.2604">
        <ele>461</ele>
        <time>2012-05-27T13:01:08Z</time>
      </trkpt>
      <trkpt lat="43.7974" lon="7.26007">
        <ele>461.3</ele>
        <time>2012-05-27T13:01:13Z</time>
      </trkpt>
      <trkpt lat="43.79727" lon="7.25978">
        <ele>460.7</ele>
        <time>2012-05-27T13:01:18Z</time>
      </trkpt>
      <trkpt lat="43.79716" lon="7.25949">
        <ele>459.3</ele>
        <time>2012-05-27T13:01:23Z</time>
      </trkpt>
      <trkpt lat="43.79712" lon="7.25938">
        <ele>458.2</ele>
        <time>2012-05-27T13:01:25Z</time>
      </trkpt>
      <trkpt lat="43.79709" lon="7.25925">
        <ele>456.9</ele>
        <time>2012-05-27T13:01:27Z</time>
      </trkpt>
      <trkpt lat="43.79706" lon="7.25906">
        <ele>455.1</ele>
        <time>2012-05-27T13:01:30Z</time>
      </trkpt>
      <trkpt lat="43.79705" lon="7.25893">
        <ele>454</ele>
        <time>2012-05-27T13:01:32Z</time>
      </trkpt>
      <trkpt lat="43.79705" lon="7.25874">
        <ele>452.5</ele>
        <time>2012-05-27T13:01:35Z</time>
      </trkpt>
      <trkpt lat="43.79707" lon="7.25856">
        <ele>451.8</ele>
        <time>2012-05-27T13:01:38Z</time>
      </trkpt>
      <trkpt lat="43.7971" lon="7.25839">
        <ele>451.5</ele>
        <time>2012-05-27T13:01:41Z</time>
      </trkpt>
      <trkpt lat="43.79717" lon="7.25816">
        <ele>452.5</ele>
        <time>2012-05-27T13:01:45Z</time>
      </trkpt>
      <trkpt lat="43.79721" lon="7.25798">
        <ele>453.3</ele>
        <time>2012-05-27T13:01:48Z</time>
      </trkpt>
      <trkpt lat="43.79725" lon="7.25781">
        <ele>455.7</ele>
        <time>2012-05-27T13:01:51Z</time>
      </trkpt>
      <trkpt lat="43.79729" lon="7.25769">
        <ele>458.6</ele>
        <time>2012-05-27T13:01:53Z</time>
      </trkpt>
      <trkpt lat="43.79734" lon="7.25753">
        <ele>463.2</ele>
        <time>2012-05-27T13:01:56Z</time>
      </trkpt>
      <trkpt lat="43.79738" lon="7.25741">
        <ele>466.1</ele>
        <time>2012-05-27T13:01:58Z</time>
      </trkpt>
      <trkpt lat="43.79746" lon="7.25707">
        <ele>472.5</ele>
        <time>2012-05-27T13:02:03Z</time>
      </trkpt>
      <trkpt lat="43.79749" lon="7.25688">
        <ele>477.3</ele>
        <time>2012-05-27T13:02:06Z</time>
      </trkpt>
      <trkpt lat="43.79749" lon="7.25674">
        <ele>480.7</ele>
        <time>2012-05-27T13:02:08Z</time>
      </trkpt>
      <trkpt lat="43.79746" lon="7.2566">
        <ele>484.1</ele>
        <time>2012-05-27T13:02:10Z</time>
      </trkpt>
      <trkpt lat="43.79742" lon="7.25646">
        <ele>487.7</ele>
        <time>2012-05-27T13:02:12Z</time>
      </trkpt>
      <trkpt lat="43.79736" lon="7.25634">
        <ele>491.4</ele>
        <time>2012-05-27T13:02:14Z</time>
      </trkpt>
      <trkpt lat="43.79725" lon="7.25619">
        <ele>496.6</ele>
        <time>2012-05-27T13:02:17Z</time>
      </trkpt>
      <trkpt lat="43.79716" lon="7.25613">
        <ele>499.2</ele>
        <time>2012-05-27T13:02:19Z</time>
      </trkpt>
      <trkpt lat="43.79708" lon="7.2561">
        <ele>501.1</ele>
        <time>2012-05-27T13:02:21Z</time>
      </trkpt>
      <trkpt lat="43.79699" lon="7.25609">
        <ele>501.9</ele>
        <time>2012-05-27T13:02:23Z</time>
      </trkpt>
      <trkpt lat="43.7969" lon="7.25612">
        <ele>501.7</ele>
        <time>2012-05-27T13:02:25Z</time>
      </trkpt>
      <trkpt lat="43.79681" lon="7.25617">
        <ele>501</ele>
        <time>2012-05-27T13:02:27Z</time>
      </trkpt>
      <trkpt lat="43.79665" lon="7.25632">
        <ele>497.9</ele>
        <time>2012-05-27T13:02:31Z</time>
      </trkpt>
      <trkpt lat="43.79657" lon="7.25639">
        <ele>495.6</ele>
        <time>2012-05-27T13:02:33Z</time>
      </trkpt>
      <trkpt lat="43.79649" lon="7.25647">
        <ele>493.2</ele>
        <time>2012-05-27T13:02:35Z</time>
      </trkpt>
      <trkpt lat="43.79636" lon="7.25659">
        <ele>489.5</ele>
        <time>2012-05-27T13:02:38Z</time>
      </trkpt>
      <trkpt lat="43.79627" lon="7.25666">
        <ele>487.7</ele>
        <time>2012-05-27T13:02:40Z</time>
      </trkpt>
      <trkpt lat="43.79618" lon="7.25671">
        <ele>484</ele>
        <time>2012-05-27T13:02:42Z</time>
      </trkpt>
      <trkpt lat="43.79608" lon="7.25674">
        <ele>480</ele>
        <time>2012-05-27T13:02:44Z</time>
      </trkpt>
      <trkpt lat="43.79598" lon="7.25674">
        <ele>476.3</ele>
        <time>2012-05-27T13:02:46Z</time>
      </trkpt>
      <trkpt lat="43.79583" lon="7.2567">
        <ele>471.8</ele>
        <time>2012-05-27T13:02:49Z</time>
      </trkpt>
      <trkpt lat="43.79575" lon="7.25665">
        <ele>469.9</ele>
        <time>2012-05-27T13:02:51Z</time>
      </trkpt>
      <trkpt lat="43.79569" lon="7.25655">
        <ele>469.8</ele>
        <time>2012-05-27T13:02:53Z</time>
      </trkpt>
      <trkpt lat="43.79564" lon="7.25644">
        <ele>471.1</ele>
        <time>2012-05-27T13:02:55Z</time>
      </trkpt>
      <trkpt lat="43.79559" lon="7.25632">
        <ele>473.1</ele>
        <time>2012-05-27T13:02:57Z</time>
      </trkpt>
      <trkpt lat="43.79551" lon="7.25606">
        <ele>477.7</ele>
        <time>2012-05-27T13:03:01Z</time>
      </trkpt>
      <trkpt lat="43.79548" lon="7.25592">
        <ele>480.3</ele>
        <time>2012-05-27T13:03:03Z</time>
      </trkpt>
      <trkpt lat="43.79545" lon="7.25579">
        <ele>483</ele>
        <time>2012-05-27T13:03:05Z</time>
      </trkpt>
      <trkpt lat="43.79539" lon="7.25562">
        <ele>487.4</ele>
        <time>2012-05-27T13:03:08Z</time>
      </trkpt>
      <trkpt lat="43.79533" lon="7.25551">
        <ele>490.9</ele>
        <time>2012-05-27T13:03:10Z</time>
      </trkpt>
      <trkpt lat="43.79526" lon="7.25542">
        <ele>494.4</ele>
        <time>2012-05-27T13:03:12Z</time>
      </trkpt>
      <trkpt lat="43.79512" lon="7.25533">
        <ele>498.7</ele>
        <time>2012-05-27T13:03:15Z</time>
      </trkpt>
      <trkpt lat="43.79507" lon="7.25531">
        <ele>499.9</ele>
        <time>2012-05-27T13:03:16Z</time>
      </trkpt>
      <trkpt lat="43.79498" lon="7.25531">
        <ele>501.7</ele>
        <time>2012-05-27T13:03:18Z</time>
      </trkpt>
      <trkpt lat="43.79489" lon="7.25536">
        <ele>502.4</ele>
        <time>2012-05-27T13:03:20Z</time>
      </trkpt>
      <trkpt lat="43.7948" lon="7.25541">
        <ele>502.6</ele>
        <time>2012-05-27T13:03:22Z</time>
      </trkpt>
      <trkpt lat="43.79472" lon="7.25546">
        <ele>502.1</ele>
        <time>2012-05-27T13:03:24Z</time>
      </trkpt>
      <trkpt lat="43.79463" lon="7.25551">
        <ele>501.2</ele>
        <time>2012-05-27T13:03:26Z</time>
      </trkpt>
      <trkpt lat="43.79454" lon="7.25555">
        <ele>499.6</ele>
        <time>2012-05-27T13:03:28Z</time>
      </trkpt>
      <trkpt lat="43.79444" lon="7.25558">
        <ele>496.6</ele>
        <time>2012-05-27T13:03:30Z</time>
      </trkpt>
      <trkpt lat="43.79434" lon="7.25559">
        <ele>493.8</ele>
        <time>2012-05-27T13:03:32Z</time>
      </trkpt>
      <trkpt lat="43.79424" lon="7.25557">
        <ele>491.4</ele>
        <time>2012-05-27T13:03:34Z</time>
      </trkpt>
      <trkpt lat="43.79411" lon="7.25552">
        <ele>489.5</ele>
        <time>2012-05-27T13:03:37Z</time>
      </trkpt>
      <trkpt lat="43.79388" lon="7.25536">
        <ele>489</ele>
        <time>2012-05-27T13:03:42Z</time>
      </trkpt>
      <trkpt lat="43.79369" lon="7.25523">
        <ele>487.4</ele>
        <time>2012-05-27T13:03:46Z</time>
      </trkpt>
      <trkpt lat="43.79351" lon="7.2551">
        <ele>484.7</ele>
        <time>2012-05-27T13:03:50Z</time>
      </trkpt>
      <trkpt lat="43.79338" lon="7.25496">
        <ele>483.2</ele>
        <time>2012-05-27T13:03:53Z</time>
      </trkpt>
      <trkpt lat="43.79331" lon="7.25487">
        <ele>482.6</ele>
        <time>2012-05-27T13:03:55Z</time>
      </trkpt>
      <trkpt lat="43.79321" lon="7.25472">
        <ele>482.2</ele>
        <time>2012-05-27T13:03:58Z</time>
      </trkpt>
      <trkpt lat="43.79317" lon="7.25461">
        <ele>482.7</ele>
        <time>2012-05-27T13:04:00Z</time>
      </trkpt>
      <trkpt lat="43.79314" lon="7.25449">
        <ele>483.7</ele>
        <time>2012-05-27T13:04:02Z</time>
      </trkpt>
      <trkpt lat="43.79312" lon="7.25436">
        <ele>485.2</ele>
        <time>2012-05-27T13:04:04Z</time>
      </trkpt>
      <trkpt lat="43.79312" lon="7.25417">
        <ele>488.4</ele>
        <time>2012-05-27T13:04:07Z</time>
      </trkpt>
      <trkpt lat="43.79311" lon="7.25398">
        <ele>491.8</ele>
        <time>2012-05-27T13:04:10Z</time>
      </trkpt>
      <trkpt lat="43.79311" lon="7.25385">
        <ele>494.2</ele>
        <time>2012-05-27T13:04:12Z</time>
      </trkpt>
      <trkpt lat="43.79309" lon="7.25365">
        <ele>498.1</ele>
        <time>2012-05-27T13:04:15Z</time>
      </trkpt>
      <trkpt lat="43.79306" lon="7.25346">
        <ele>503.4</ele>
        <time>2012-05-27T13:04:18Z</time>
      </trkpt>
      <trkpt lat="43.79301" lon="7.25334">
        <ele>506.8</ele>
        <time>2012-05-27T13:04:20Z</time>
      </trkpt>
      <trkpt lat="43.79291" lon="7.2532">
        <ele>511.3</ele>
        <time>2012-05-27T13:04:23Z</time>
      </trkpt>
      <trkpt lat="43.79278" lon="7.2531">
        <ele>517.9</ele>
        <time>2012-05-27T13:04:26Z</time>
      </trkpt>
      <trkpt lat="43.79269" lon="7.25308">
        <ele>522</ele>
        <time>2012-05-27T13:04:28Z</time>
      </trkpt>
      <trkpt lat="43.7926" lon="7.25308">
        <ele>525.4</ele>
        <time>2012-05-27T13:04:30Z</time>
      </trkpt>
      <trkpt lat="43.7925" lon="7.2531">
        <ele>527.9</ele>
        <time>2012-05-27T13:04:32Z</time>
      </trkpt>
      <trkpt lat="43.79228" lon="7.25321">
        <ele>531.1</ele>
        <time>2012-05-27T13:04:37Z</time>
      </trkpt>
      <trkpt lat="43.79206" lon="7.25334">
        <ele>531.8</ele>
        <time>2012-05-27T13:04:42Z</time>
      </trkpt>
      <trkpt lat="43.79196" lon="7.25338">
        <ele>532</ele>
        <time>2012-05-27T13:04:44Z</time>
      </trkpt>
      <trkpt lat="43.79182" lon="7.25346">
        <ele>532.1</ele>
        <time>2012-05-27T13:04:47Z</time>
      </trkpt>
      <trkpt lat="43.79173" lon="7.2535">
        <ele>532.2</ele>
        <time>2012-05-27T13:04:49Z</time>
      </trkpt>
      <trkpt lat="43.79159" lon="7.25358">
        <ele>532.1</ele>
        <time>2012-05-27T13:04:52Z</time>
      </trkpt>
      <trkpt lat="43.79149" lon="7.25362">
        <ele>532.3</ele>
        <time>2012-05-27T13:04:54Z</time>
      </trkpt>
      <trkpt lat="43.79133" lon="7.25367">
        <ele>533.3</ele>
        <time>2012-05-27T13:04:57Z</time>
      </trkpt>
      <trkpt lat="43.79122" lon="7.2537">
        <ele>534.1</ele>
        <time>2012-05-27T13:04:59Z</time>
      </trkpt>
      <trkpt lat="43.79111" lon="7.25372">
        <ele>533.2</ele>
        <time>2012-05-27T13:05:01Z</time>
      </trkpt>
      <trkpt lat="43.79101" lon="7.25373">
        <ele>532</ele>
        <time>2012-05-27T13:05:03Z</time>
      </trkpt>
      <trkpt lat="43.79084" lon="7.25374">
        <ele>530.5</ele>
        <time>2012-05-27T13:05:06Z</time>
      </trkpt>
      <trkpt lat="43.79073" lon="7.25374">
        <ele>529.7</ele>
        <time>2012-05-27T13:05:08Z</time>
      </trkpt>
      <trkpt lat="43.7905" lon="7.25372">
        <ele>528.7</ele>
        <time>2012-05-27T13:05:12Z</time>
      </trkpt>
      <trkpt lat="43.79018" lon="7.2537">
        <ele>521.6</ele>
        <time>2012-05-27T13:05:18Z</time>
      </trkpt>
      <trkpt lat="43.79007" lon="7.2537">
        <ele>517.7</ele>
        <time>2012-05-27T13:05:20Z</time>
      </trkpt>
      <trkpt lat="43.78996" lon="7.25369">
        <ele>513.7</ele>
        <time>2012-05-27T13:05:22Z</time>
      </trkpt>
      <trkpt lat="43.78985" lon="7.25367">
        <ele>509.9</ele>
        <time>2012-05-27T13:05:24Z</time>
      </trkpt>
      <trkpt lat="43.78974" lon="7.25364">
        <ele>506.4</ele>
        <time>2012-05-27T13:05:26Z</time>
      </trkpt>
      <trkpt lat="43.78964" lon="7.25358">
        <ele>503.4</ele>
        <time>2012-05-27T13:05:28Z</time>
      </trkpt>
      <trkpt lat="43.78951" lon="7.25346">
        <ele>501.3</ele>
        <time>2012-05-27T13:05:31Z</time>
      </trkpt>
      <trkpt lat="43.78944" lon="7.25335">
        <ele>501.9</ele>
        <time>2012-05-27T13:05:33Z</time>
      </trkpt>
      <trkpt lat="43.78938" lon="7.25324">
        <ele>503.5</ele>
        <time>2012-05-27T13:05:35Z</time>
      </trkpt>
      <trkpt lat="43.78932" lon="7.25312">
        <ele>505.8</ele>
        <time>2012-05-27T13:05:37Z</time>
      </trkpt>
      <trkpt lat="43.78927" lon="7.25299">
        <ele>508.7</ele>
        <time>2012-05-27T13:05:39Z</time>
      </trkpt>
      <trkpt lat="43.78922" lon="7.25287">
        <ele>511.9</ele>
        <time>2012-05-27T13:05:41Z</time>
      </trkpt>
      <trkpt lat="43.78913" lon="7.25272">
        <ele>516.6</ele>
        <time>2012-05-27T13:05:44Z</time>
      </trkpt>
      <trkpt lat="43.78905" lon="7.25263">
        <ele>518.8</ele>
        <time>2012-05-27T13:05:46Z</time>
      </trkpt>
      <trkpt lat="43.78896" lon="7.25253">
        <ele>522.1</ele>
        <time>2012-05-27T13:05:48Z</time>
      </trkpt>
      <trkpt lat="43.78886" lon="7.25248">
        <ele>524.3</ele>
        <time>2012-05-27T13:05:50Z</time>
      </trkpt>
      <trkpt lat="43.78875" lon="7.25245">
        <ele>525.4</ele>
        <time>2012-05-27T13:05:52Z</time>
      </trkpt>
      <trkpt lat="43.78854" lon="7.25246">
        <ele>526</ele>
        <time>2012-05-27T13:05:56Z</time>
      </trkpt>
      <trkpt lat="43.78844" lon="7.25244">
        <ele>526.5</ele>
        <time>2012-05-27T13:05:58Z</time>
      </trkpt>
      <trkpt lat="43.78835" lon="7.25242">
        <ele>527.4</ele>
        <time>2012-05-27T13:06:00Z</time>
      </trkpt>
      <trkpt lat="43.78825" lon="7.25239">
        <ele>528.6</ele>
        <time>2012-05-27T13:06:02Z</time>
      </trkpt>
      <trkpt lat="43.78811" lon="7.25229">
        <ele>532</ele>
        <time>2012-05-27T13:06:05Z</time>
      </trkpt>
      <trkpt lat="43.78802" lon="7.25223">
        <ele>534.5</ele>
        <time>2012-05-27T13:06:07Z</time>
      </trkpt>
      <trkpt lat="43.78786" lon="7.25216">
        <ele>538.1</ele>
        <time>2012-05-27T13:06:10Z</time>
      </trkpt>
      <trkpt lat="43.78776" lon="7.25214">
        <ele>540.2</ele>
        <time>2012-05-27T13:06:12Z</time>
      </trkpt>
      <trkpt lat="43.78766" lon="7.25216">
        <ele>541.4</ele>
        <time>2012-05-27T13:06:14Z</time>
      </trkpt>
      <trkpt lat="43.78752" lon="7.25224">
        <ele>540.9</ele>
        <time>2012-05-27T13:06:17Z</time>
      </trkpt>
      <trkpt lat="43.78739" lon="7.25235">
        <ele>539.1</ele>
        <time>2012-05-27T13:06:20Z</time>
      </trkpt>
      <trkpt lat="43.7873" lon="7.25243">
        <ele>537.7</ele>
        <time>2012-05-27T13:06:22Z</time>
      </trkpt>
      <trkpt lat="43.78711" lon="7.25258">
        <ele>534.8</ele>
        <time>2012-05-27T13:06:26Z</time>
      </trkpt>
      <trkpt lat="43.78702" lon="7.25264">
        <ele>533.4</ele>
        <time>2012-05-27T13:06:28Z</time>
      </trkpt>
      <trkpt lat="43.78692" lon="7.25267">
        <ele>532.2</ele>
        <time>2012-05-27T13:06:30Z</time>
      </trkpt>
      <trkpt lat="43.78677" lon="7.25269">
        <ele>531.6</ele>
        <time>2012-05-27T13:06:33Z</time>
      </trkpt>
      <trkpt lat="43.78661" lon="7.25268">
        <ele>531.8</ele>
        <time>2012-05-27T13:06:36Z</time>
      </trkpt>
      <trkpt lat="43.7864" lon="7.25262">
        <ele>533.8</ele>
        <time>2012-05-27T13:06:40Z</time>
      </trkpt>
      <trkpt lat="43.7863" lon="7.2526">
        <ele>534.9</ele>
        <time>2012-05-27T13:06:42Z</time>
      </trkpt>
      <trkpt lat="43.7862" lon="7.2526">
        <ele>535.7</ele>
        <time>2012-05-27T13:06:44Z</time>
      </trkpt>
      <trkpt lat="43.78594" lon="7.25262">
        <ele>537.5</ele>
        <time>2012-05-27T13:06:49Z</time>
      </trkpt>
      <trkpt lat="43.78577" lon="7.25263">
        <ele>538.7</ele>
        <time>2012-05-27T13:06:52Z</time>
      </trkpt>
      <trkpt lat="43.78556" lon="7.25264">
        <ele>540.1</ele>
        <time>2012-05-27T13:06:56Z</time>
      </trkpt>
      <trkpt lat="43.78534" lon="7.25265">
        <ele>541.8</ele>
        <time>2012-05-27T13:07:00Z</time>
      </trkpt>
      <trkpt lat="43.78518" lon="7.25267">
        <ele>542.7</ele>
        <time>2012-05-27T13:07:03Z</time>
      </trkpt>
      <trkpt lat="43.78507" lon="7.25269">
        <ele>543</ele>
        <time>2012-05-27T13:07:05Z</time>
      </trkpt>
      <trkpt lat="43.78481" lon="7.25274">
        <ele>544.2</ele>
        <time>2012-05-27T13:07:10Z</time>
      </trkpt>
      <trkpt lat="43.78471" lon="7.25277">
        <ele>544.7</ele>
        <time>2012-05-27T13:07:12Z</time>
      </trkpt>
      <trkpt lat="43.78461" lon="7.2528">
        <ele>545.2</ele>
        <time>2012-05-27T13:07:14Z</time>
      </trkpt>
      <trkpt lat="43.78442" lon="7.25287">
        <ele>545.2</ele>
        <time>2012-05-27T13:07:18Z</time>
      </trkpt>
      <trkpt lat="43.78418" lon="7.25298">
        <ele>543.9</ele>
        <time>2012-05-27T13:07:23Z</time>
      </trkpt>
      <trkpt lat="43.78408" lon="7.25302">
        <ele>543.1</ele>
        <time>2012-05-27T13:07:25Z</time>
      </trkpt>
      <trkpt lat="43.78398" lon="7.25307">
        <ele>542.4</ele>
        <time>2012-05-27T13:07:27Z</time>
      </trkpt>
      <trkpt lat="43.78388" lon="7.25313">
        <ele>541.7</ele>
        <time>2012-05-27T13:07:29Z</time>
      </trkpt>
      <trkpt lat="43.78367" lon="7.25324">
        <ele>540.8</ele>
        <time>2012-05-27T13:07:33Z</time>
      </trkpt>
      <trkpt lat="43.78343" lon="7.25338">
        <ele>538.6</ele>
        <time>2012-05-27T13:07:38Z</time>
      </trkpt>
      <trkpt lat="43.78325" lon="7.25351">
        <ele>537.5</ele>
        <time>2012-05-27T13:07:42Z</time>
      </trkpt>
      <trkpt lat="43.78316" lon="7.25359">
        <ele>537.2</ele>
        <time>2012-05-27T13:07:44Z</time>
      </trkpt>
      <trkpt lat="43.78298" lon="7.25373">
        <ele>537.3</ele>
        <time>2012-05-27T13:07:48Z</time>
      </trkpt>
      <trkpt lat="43.78289" lon="7.2538">
        <ele>537</ele>
        <time>2012-05-27T13:07:50Z</time>
      </trkpt>
      <trkpt lat="43.78272" lon="7.25394">
        <ele>532.4</ele>
        <time>2012-05-27T13:07:54Z</time>
      </trkpt>
      <trkpt lat="43.78263" lon="7.254">
        <ele>530.1</ele>
        <time>2012-05-27T13:07:56Z</time>
      </trkpt>
      <trkpt lat="43.78254" lon="7.25403">
        <ele>528.3</ele>
        <time>2012-05-27T13:07:58Z</time>
      </trkpt>
      <trkpt lat="43.78239" lon="7.25405">
        <ele>526.4</ele>
        <time>2012-05-27T13:08:01Z</time>
      </trkpt>
      <trkpt lat="43.7823" lon="7.25401">
        <ele>525.9</ele>
        <time>2012-05-27T13:08:03Z</time>
      </trkpt>
      <trkpt lat="43.78222" lon="7.25392">
        <ele>526</ele>
        <time>2012-05-27T13:08:05Z</time>
      </trkpt>
      <trkpt lat="43.78213" lon="7.25375">
        <ele>527</ele>
        <time>2012-05-27T13:08:08Z</time>
      </trkpt>
      <trkpt lat="43.78203" lon="7.25341">
        <ele>530</ele>
        <time>2012-05-27T13:08:13Z</time>
      </trkpt>
      <trkpt lat="43.78199" lon="7.25319">
        <ele>533.1</ele>
        <time>2012-05-27T13:08:16Z</time>
      </trkpt>
      <trkpt lat="43.78196" lon="7.25298">
        <ele>536.2</ele>
        <time>2012-05-27T13:08:19Z</time>
      </trkpt>
      <trkpt lat="43.78191" lon="7.25285">
        <ele>538.9</ele>
        <time>2012-05-27T13:08:21Z</time>
      </trkpt>
      <trkpt lat="43.78187" lon="7.25281">
        <ele>540.7</ele>
        <time>2012-05-27T13:08:22Z</time>
      </trkpt>
      <trkpt lat="43.78173" lon="7.25269">
        <ele>547.3</ele>
        <time>2012-05-27T13:08:25Z</time>
      </trkpt>
      <trkpt lat="43.78162" lon="7.25258">
        <ele>554.1</ele>
        <time>2012-05-27T13:08:28Z</time>
      </trkpt>
      <trkpt lat="43.78153" lon="7.25242">
        <ele>562.2</ele>
        <time>2012-05-27T13:08:33Z</time>
      </trkpt>
      <trkpt lat="43.78154" lon="7.25231">
        <ele>564.9</ele>
        <time>2012-05-27T13:08:36Z</time>
      </trkpt>
      <trkpt lat="43.7816" lon="7.25222">
        <ele>565</ele>
        <time>2012-05-27T13:13:13Z</time>
      </trkpt>
      <trkpt lat="43.78169" lon="7.25206">
        <ele>564.3</ele>
        <time>2012-05-27T13:13:20Z</time>
      </trkpt>
      <trkpt lat="43.78177" lon="7.25194">
        <ele>562.7</ele>
        <time>2012-05-27T13:13:22Z</time>
      </trkpt>
      <trkpt lat="43.78181" lon="7.25186">
        <ele>561.8</ele>
        <time>2012-05-27T13:13:23Z</time>
      </trkpt>
      <trkpt lat="43.78189" lon="7.25169">
        <ele>559.9</ele>
        <time>2012-05-27T13:13:25Z</time>
      </trkpt>
      <trkpt lat="43.78198" lon="7.25153">
        <ele>557.8</ele>
        <time>2012-05-27T13:13:27Z</time>
      </trkpt>
      <trkpt lat="43.78204" lon="7.2514">
        <ele>556.2</ele>
        <time>2012-05-27T13:13:29Z</time>
      </trkpt>
      <trkpt lat="43.78217" lon="7.25109">
        <ele>553.9</ele>
        <time>2012-05-27T13:13:34Z</time>
      </trkpt>
      <trkpt lat="43.7822" lon="7.25092">
        <ele>553.5</ele>
        <time>2012-05-27T13:13:37Z</time>
      </trkpt>
      <trkpt lat="43.7822" lon="7.25079">
        <ele>553.9</ele>
        <time>2012-05-27T13:13:43Z</time>
      </trkpt>
      <trkpt lat="43.78221" lon="7.25032">
        <ele>555.5</ele>
        <time>2012-05-27T13:14:19Z</time>
      </trkpt>
      <trkpt lat="43.78218" lon="7.2501">
        <ele>554.9</ele>
        <time>2012-05-27T13:14:36Z</time>
      </trkpt>
      <trkpt lat="43.78216" lon="7.24998">
        <ele>554.6</ele>
        <time>2012-05-27T13:14:45Z</time>
      </trkpt>
      <trkpt lat="43.78209" lon="7.24976">
        <ele>555.4</ele>
        <time>2012-05-27T13:15:03Z</time>
      </trkpt>
      <trkpt lat="43.78203" lon="7.24954">
        <ele>554.9</ele>
        <time>2012-05-27T13:15:17Z</time>
      </trkpt>
      <trkpt lat="43.78199" lon="7.24942">
        <ele>553.9</ele>
        <time>2012-05-27T13:15:26Z</time>
      </trkpt>
      <trkpt lat="43.78186" lon="7.24928">
        <ele>555.2</ele>
        <time>2012-05-27T13:15:43Z</time>
      </trkpt>
      <trkpt lat="43.78174" lon="7.24913">
        <ele>556.1</ele>
        <time>2012-05-27T13:15:57Z</time>
      </trkpt>
      <trkpt lat="43.7816" lon="7.24901">
        <ele>558.5</ele>
        <time>2012-05-27T13:16:10Z</time>
      </trkpt>
      <trkpt lat="43.78153" lon="7.24897">
        <ele>560</ele>
        <time>2012-05-27T13:16:14Z</time>
      </trkpt>
      <trkpt lat="43.78138" lon="7.24889">
        <ele>563.9</ele>
        <time>2012-05-27T13:16:26Z</time>
      </trkpt>
      <trkpt lat="43.78129" lon="7.24882">
        <ele>565.4</ele>
        <time>2012-05-27T13:16:33Z</time>
      </trkpt>
      <trkpt lat="43.78114" lon="7.24878">
        <ele>569.4</ele>
        <time>2012-05-27T13:16:46Z</time>
      </trkpt>
      <trkpt lat="43.78097" lon="7.24878">
        <ele>574.3</ele>
        <time>2012-05-27T13:17:04Z</time>
      </trkpt>
      <trkpt lat="43.78088" lon="7.24881">
        <ele>577.2</ele>
        <time>2012-05-27T13:17:14Z</time>
      </trkpt>
      <trkpt lat="43.78071" lon="7.2488">
        <ele>582</ele>
        <time>2012-05-27T13:17:32Z</time>
      </trkpt>
      <trkpt lat="43.78062" lon="7.24881">
        <ele>585</ele>
        <time>2012-05-27T13:17:43Z</time>
      </trkpt>
      <trkpt lat="43.78037" lon="7.24879">
        <ele>591.9</ele>
        <time>2012-05-27T13:18:11Z</time>
      </trkpt>
      <trkpt lat="43.78029" lon="7.24881">
        <ele>594.7</ele>
        <time>2012-05-27T13:18:22Z</time>
      </trkpt>
      <trkpt lat="43.78012" lon="7.24881">
        <ele>599.6</ele>
        <time>2012-05-27T13:18:43Z</time>
      </trkpt>
      <trkpt lat="43.78003" lon="7.24877">
        <ele>601.5</ele>
        <time>2012-05-27T13:18:52Z</time>
      </trkpt>
      <trkpt lat="43.77988" lon="7.24873">
        <ele>605</ele>
        <time>2012-05-27T13:19:00Z</time>
      </trkpt>
      <trkpt lat="43.77984" lon="7.24865">
        <ele>606.2</ele>
        <time>2012-05-27T13:19:04Z</time>
      </trkpt>
      <trkpt lat="43.77979" lon="7.24843">
        <ele>605.5</ele>
        <time>2012-05-27T13:19:22Z</time>
      </trkpt>
      <trkpt lat="43.77976" lon="7.24831">
        <ele>605.3</ele>
        <time>2012-05-27T13:19:29Z</time>
      </trkpt>
      <trkpt lat="43.77971" lon="7.24809">
        <ele>604.2</ele>
        <time>2012-05-27T13:19:46Z</time>
      </trkpt>
      <trkpt lat="43.77967" lon="7.24798">
        <ele>604.3</ele>
        <time>2012-05-27T13:19:58Z</time>
      </trkpt>
      <trkpt lat="43.77953" lon="7.24813">
        <ele>608.6</ele>
        <time>2012-05-27T13:20:23Z</time>
      </trkpt>
      <trkpt lat="43.77939" lon="7.24823">
        <ele>611.4</ele>
        <time>2012-05-27T13:20:46Z</time>
      </trkpt>
      <trkpt lat="43.77933" lon="7.24814">
        <ele>611.1</ele>
        <time>2012-05-27T13:21:01Z</time>
      </trkpt>
      <trkpt lat="43.77917" lon="7.24808">
        <ele>611.5</ele>
        <time>2012-05-27T13:21:26Z</time>
      </trkpt>
      <trkpt lat="43.77901" lon="7.24812">
        <ele>613.5</ele>
        <time>2012-05-27T13:21:47Z</time>
      </trkpt>
      <trkpt lat="43.77873" lon="7.24838">
        <ele>622.9</ele>
        <time>2012-05-27T13:22:31Z</time>
      </trkpt>
      <trkpt lat="43.77864" lon="7.24841">
        <ele>623.6</ele>
        <time>2012-05-27T13:22:40Z</time>
      </trkpt>
      <trkpt lat="43.77856" lon="7.24847">
        <ele>624.9</ele>
        <time>2012-05-27T13:22:51Z</time>
      </trkpt>
      <trkpt lat="43.77843" lon="7.24862">
        <ele>629.2</ele>
        <time>2012-05-27T13:23:17Z</time>
      </trkpt>
      <trkpt lat="43.77827" lon="7.24869">
        <ele>631.4</ele>
        <time>2012-05-27T13:23:36Z</time>
      </trkpt>
      <trkpt lat="43.77811" lon="7.2488">
        <ele>634.9</ele>
        <time>2012-05-27T13:23:58Z</time>
      </trkpt>
      <trkpt lat="43.77803" lon="7.24877">
        <ele>634.4</ele>
        <time>2012-05-27T13:24:09Z</time>
      </trkpt>
      <trkpt lat="43.77793" lon="7.24876">
        <ele>634.1</ele>
        <time>2012-05-27T13:24:21Z</time>
      </trkpt>
      <trkpt lat="43.7778" lon="7.24887">
        <ele>637.2</ele>
        <time>2012-05-27T13:24:35Z</time>
      </trkpt>
      <trkpt lat="43.77768" lon="7.249">
        <ele>641.3</ele>
        <time>2012-05-27T13:24:44Z</time>
      </trkpt>
      <trkpt lat="43.77736" lon="7.2491">
        <ele>644.7</ele>
        <time>2012-05-27T13:24:57Z</time>
      </trkpt>
      <trkpt lat="43.77729" lon="7.24913">
        <ele>645.6</ele>
        <time>2012-05-27T13:24:59Z</time>
      </trkpt>
      <trkpt lat="43.77714" lon="7.24921">
        <ele>647.5</ele>
        <time>2012-05-27T13:25:03Z</time>
      </trkpt>
      <trkpt lat="43.77698" lon="7.24926">
        <ele>648.9</ele>
        <time>2012-05-27T13:25:07Z</time>
      </trkpt>
      <trkpt lat="43.77683" lon="7.24921">
        <ele>648.5</ele>
        <time>2012-05-27T13:25:11Z</time>
      </trkpt>
      <trkpt lat="43.77669" lon="7.24912">
        <ele>646.2</ele>
        <time>2012-05-27T13:25:15Z</time>
      </trkpt>
      <trkpt lat="43.7766" lon="7.2491">
        <ele>645.2</ele>
        <time>2012-05-27T13:25:18Z</time>
      </trkpt>
      <trkpt lat="43.77651" lon="7.24911">
        <ele>645</ele>
        <time>2012-05-27T13:25:22Z</time>
      </trkpt>
      <trkpt lat="43.7763" lon="7.24912">
        <ele>644.6</ele>
        <time>2012-05-27T13:25:32Z</time>
      </trkpt>
      <trkpt lat="43.77623" lon="7.24912">
        <ele>644.6</ele>
        <time>2012-05-27T13:25:36Z</time>
      </trkpt>
      <trkpt lat="43.77607" lon="7.24912">
        <ele>642.9</ele>
        <time>2012-05-27T13:25:43Z</time>
      </trkpt>
      <trkpt lat="43.77592" lon="7.24916">
        <ele>642.3</ele>
        <time>2012-05-27T13:25:49Z</time>
      </trkpt>
      <trkpt lat="43.77585" lon="7.24919">
        <ele>642.4</ele>
        <time>2012-05-27T13:25:51Z</time>
      </trkpt>
      <trkpt lat="43.77568" lon="7.24923">
        <ele>642.3</ele>
        <time>2012-05-27T13:25:55Z</time>
      </trkpt>
      <trkpt lat="43.77556" lon="7.24927">
        <ele>642.6</ele>
        <time>2012-05-27T13:25:59Z</time>
      </trkpt>
      <trkpt lat="43.77542" lon="7.24932">
        <ele>643</ele>
        <time>2012-05-27T13:26:03Z</time>
      </trkpt>
      <trkpt lat="43.77515" lon="7.24938">
        <ele>644.9</ele>
        <time>2012-05-27T13:26:11Z</time>
      </trkpt>
      <trkpt lat="43.77501" lon="7.24941">
        <ele>646.1</ele>
        <time>2012-05-27T13:26:15Z</time>
      </trkpt>
      <trkpt lat="43.7748" lon="7.24944">
        <ele>647.5</ele>
        <time>2012-05-27T13:26:21Z</time>
      </trkpt>
      <trkpt lat="43.77472" lon="7.24945">
        <ele>647.8</ele>
        <time>2012-05-27T13:26:23Z</time>
      </trkpt>
      <trkpt lat="43.7746" lon="7.24947">
        <ele>648.7</ele>
        <time>2012-05-27T13:26:27Z</time>
      </trkpt>
      <trkpt lat="43.77447" lon="7.24943">
        <ele>648.3</ele>
        <time>2012-05-27T13:26:31Z</time>
      </trkpt>
      <trkpt lat="43.77432" lon="7.24945">
        <ele>648.9</ele>
        <time>2012-05-27T13:26:40Z</time>
      </trkpt>
      <trkpt lat="43.77417" lon="7.24956">
        <ele>653.9</ele>
        <time>2012-05-27T13:26:56Z</time>
      </trkpt>
      <trkpt lat="43.77402" lon="7.24963">
        <ele>656.5</ele>
        <time>2012-05-27T13:27:10Z</time>
      </trkpt>
      <trkpt lat="43.77386" lon="7.24958">
        <ele>655.7</ele>
        <time>2012-05-27T13:27:21Z</time>
      </trkpt>
      <trkpt lat="43.77376" lon="7.24962">
        <ele>656.7</ele>
        <time>2012-05-27T13:27:27Z</time>
      </trkpt>
      <trkpt lat="43.77344" lon="7.24969">
        <ele>658.7</ele>
        <time>2012-05-27T13:27:57Z</time>
      </trkpt>
      <trkpt lat="43.77329" lon="7.24966">
        <ele>657.3</ele>
        <time>2012-05-27T13:28:05Z</time>
      </trkpt>
      <trkpt lat="43.77321" lon="7.24967">
        <ele>657.2</ele>
        <time>2012-05-27T13:28:09Z</time>
      </trkpt>
      <trkpt lat="43.77306" lon="7.24968">
        <ele>657.1</ele>
        <time>2012-05-27T13:28:15Z</time>
      </trkpt>
      <trkpt lat="43.77298" lon="7.2497">
        <ele>657.4</ele>
        <time>2012-05-27T13:28:22Z</time>
      </trkpt>
      <trkpt lat="43.77273" lon="7.24972">
        <ele>657.3</ele>
        <time>2012-05-27T13:28:38Z</time>
      </trkpt>
      <trkpt lat="43.77251" lon="7.24974">
        <ele>657.3</ele>
        <time>2012-05-27T13:28:46Z</time>
      </trkpt>
      <trkpt lat="43.77235" lon="7.24979">
        <ele>658.2</ele>
        <time>2012-05-27T13:28:52Z</time>
      </trkpt>
      <trkpt lat="43.7722" lon="7.24984">
        <ele>659.5</ele>
        <time>2012-05-27T13:28:57Z</time>
      </trkpt>
      <trkpt lat="43.77198" lon="7.24988">
        <ele>660.8</ele>
        <time>2012-05-27T13:29:04Z</time>
      </trkpt>
      <trkpt lat="43.77191" lon="7.24989">
        <ele>661.4</ele>
        <time>2012-05-27T13:29:06Z</time>
      </trkpt>
      <trkpt lat="43.77167" lon="7.24989">
        <ele>662.2</ele>
        <time>2012-05-27T13:29:11Z</time>
      </trkpt>
      <trkpt lat="43.77159" lon="7.24991">
        <ele>662.9</ele>
        <time>2012-05-27T13:29:13Z</time>
      </trkpt>
      <trkpt lat="43.77136" lon="7.24992">
        <ele>664</ele>
        <time>2012-05-27T13:29:18Z</time>
      </trkpt>
      <trkpt lat="43.77103" lon="7.24992">
        <ele>665.3</ele>
        <time>2012-05-27T13:29:26Z</time>
      </trkpt>
      <trkpt lat="43.77086" lon="7.24994">
        <ele>666.7</ele>
        <time>2012-05-27T13:29:30Z</time>
      </trkpt>
      <trkpt lat="43.77082" lon="7.24994">
        <ele>666.8</ele>
        <time>2012-05-27T13:29:31Z</time>
      </trkpt>
      <trkpt lat="43.77065" lon="7.24984">
        <ele>665.8</ele>
        <time>2012-05-27T13:29:36Z</time>
      </trkpt>
      <trkpt lat="43.77054" lon="7.24975">
        <ele>664</ele>
        <time>2012-05-27T13:29:40Z</time>
      </trkpt>
      <trkpt lat="43.77041" lon="7.24968">
        <ele>662.7</ele>
        <time>2012-05-27T13:29:44Z</time>
      </trkpt>
      <trkpt lat="43.77027" lon="7.24966">
        <ele>660.8</ele>
        <time>2012-05-27T13:29:48Z</time>
      </trkpt>
      <trkpt lat="43.77012" lon="7.24978">
        <ele>661.6</ele>
        <time>2012-05-27T13:29:57Z</time>
      </trkpt>
      <trkpt lat="43.7699" lon="7.24989">
        <ele>662.3</ele>
        <time>2012-05-27T13:30:07Z</time>
      </trkpt>
      <trkpt lat="43.76958" lon="7.25001">
        <ele>661.7</ele>
        <time>2012-05-27T13:30:18Z</time>
      </trkpt>
      <trkpt lat="43.76951" lon="7.25004">
        <ele>662.1</ele>
        <time>2012-05-27T13:30:21Z</time>
      </trkpt>
      <trkpt lat="43.76936" lon="7.25008">
        <ele>662.9</ele>
        <time>2012-05-27T13:30:27Z</time>
      </trkpt>
      <trkpt lat="43.76928" lon="7.25011">
        <ele>663.4</ele>
        <time>2012-05-27T13:30:29Z</time>
      </trkpt>
      <trkpt lat="43.76902" lon="7.25028">
        <ele>665.4</ele>
        <time>2012-05-27T13:30:36Z</time>
      </trkpt>
      <trkpt lat="43.76886" lon="7.25032">
        <ele>665.6</ele>
        <time>2012-05-27T13:30:40Z</time>
      </trkpt>
      <trkpt lat="43.76876" lon="7.25034">
        <ele>665.3</ele>
        <time>2012-05-27T13:30:42Z</time>
      </trkpt>
      <trkpt lat="43.76859" lon="7.25034">
        <ele>664.4</ele>
        <time>2012-05-27T13:30:45Z</time>
      </trkpt>
      <trkpt lat="43.76848" lon="7.25037">
        <ele>663.8</ele>
        <time>2012-05-27T13:30:47Z</time>
      </trkpt>
      <trkpt lat="43.76834" lon="7.25044">
        <ele>663.2</ele>
        <time>2012-05-27T13:30:50Z</time>
      </trkpt>
      <trkpt lat="43.76822" lon="7.25048">
        <ele>662.2</ele>
        <time>2012-05-27T13:30:53Z</time>
      </trkpt>
      <trkpt lat="43.76814" lon="7.25046">
        <ele>661.6</ele>
        <time>2012-05-27T13:30:55Z</time>
      </trkpt>
      <trkpt lat="43.76798" lon="7.25035">
        <ele>660.3</ele>
        <time>2012-05-27T13:30:59Z</time>
      </trkpt>
      <trkpt lat="43.76784" lon="7.25035">
        <ele>658.3</ele>
        <time>2012-05-27T13:31:03Z</time>
      </trkpt>
      <trkpt lat="43.76776" lon="7.25039">
        <ele>657.1</ele>
        <time>2012-05-27T13:31:05Z</time>
      </trkpt>
      <trkpt lat="43.7676" lon="7.25045">
        <ele>654.1</ele>
        <time>2012-05-27T13:31:09Z</time>
      </trkpt>
      <trkpt lat="43.76748" lon="7.2505">
        <ele>651.4</ele>
        <time>2012-05-27T13:31:12Z</time>
      </trkpt>
      <trkpt lat="43.76733" lon="7.25058">
        <ele>648</ele>
        <time>2012-05-27T13:31:18Z</time>
      </trkpt>
      <trkpt lat="43.76725" lon="7.25057">
        <ele>646.5</ele>
        <time>2012-05-27T13:31:21Z</time>
      </trkpt>
      <trkpt lat="43.7671" lon="7.25055">
        <ele>643.4</ele>
        <time>2012-05-27T13:31:28Z</time>
      </trkpt>
      <trkpt lat="43.76696" lon="7.2505">
        <ele>640.5</ele>
        <time>2012-05-27T13:31:32Z</time>
      </trkpt>
      <trkpt lat="43.76685" lon="7.25052">
        <ele>638.4</ele>
        <time>2012-05-27T13:31:35Z</time>
      </trkpt>
      <trkpt lat="43.76669" lon="7.25083">
        <ele>636.7</ele>
        <time>2012-05-27T13:31:45Z</time>
      </trkpt>
      <trkpt lat="43.76663" lon="7.2509">
        <ele>636.5</ele>
        <time>2012-05-27T13:31:49Z</time>
      </trkpt>
      <trkpt lat="43.76648" lon="7.25094">
        <ele>634.8</ele>
        <time>2012-05-27T13:31:53Z</time>
      </trkpt>
      <trkpt lat="43.76638" lon="7.25095">
        <ele>633.5</ele>
        <time>2012-05-27T13:31:55Z</time>
      </trkpt>
      <trkpt lat="43.76622" lon="7.25096">
        <ele>630.9</ele>
        <time>2012-05-27T13:31:59Z</time>
      </trkpt>
      <trkpt lat="43.76588" lon="7.25105">
        <ele>625.2</ele>
        <time>2012-05-27T13:32:09Z</time>
      </trkpt>
      <trkpt lat="43.76574" lon="7.2511">
        <ele>623.4</ele>
        <time>2012-05-27T13:32:13Z</time>
      </trkpt>
      <trkpt lat="43.76558" lon="7.25117">
        <ele>621.7</ele>
        <time>2012-05-27T13:32:17Z</time>
      </trkpt>
      <trkpt lat="43.76551" lon="7.25123">
        <ele>621.4</ele>
        <time>2012-05-27T13:32:19Z</time>
      </trkpt>
      <trkpt lat="43.76536" lon="7.25131">
        <ele>620.2</ele>
        <time>2012-05-27T13:32:23Z</time>
      </trkpt>
      <trkpt lat="43.7652" lon="7.25126">
        <ele>616.9</ele>
        <time>2012-05-27T13:32:27Z</time>
      </trkpt>
      <trkpt lat="43.76512" lon="7.25122">
        <ele>614.6</ele>
        <time>2012-05-27T13:32:29Z</time>
      </trkpt>
      <trkpt lat="43.76503" lon="7.25119">
        <ele>611.6</ele>
        <time>2012-05-27T13:32:32Z</time>
      </trkpt>
      <trkpt lat="43.76493" lon="7.25114">
        <ele>608.6</ele>
        <time>2012-05-27T13:32:36Z</time>
      </trkpt>
      <trkpt lat="43.76481" lon="7.25113">
        <ele>605.3</ele>
        <time>2012-05-27T13:32:40Z</time>
      </trkpt>
      <trkpt lat="43.76465" lon="7.25116">
        <ele>602.3</ele>
        <time>2012-05-27T13:32:46Z</time>
      </trkpt>
      <trkpt lat="43.76456" lon="7.25116">
        <ele>600.6</ele>
        <time>2012-05-27T13:32:49Z</time>
      </trkpt>
      <trkpt lat="43.76442" lon="7.2512">
        <ele>597.7</ele>
        <time>2012-05-27T13:32:53Z</time>
      </trkpt>
      <trkpt lat="43.76427" lon="7.25128">
        <ele>594.9</ele>
        <time>2012-05-27T13:33:02Z</time>
      </trkpt>
      <trkpt lat="43.76411" lon="7.25134">
        <ele>592</ele>
        <time>2012-05-27T13:33:16Z</time>
      </trkpt>
      <trkpt lat="43.76397" lon="7.25142">
        <ele>590</ele>
        <time>2012-05-27T13:33:23Z</time>
      </trkpt>
      <trkpt lat="43.7639" lon="7.25148">
        <ele>589.6</ele>
        <time>2012-05-27T13:33:26Z</time>
      </trkpt>
      <trkpt lat="43.76378" lon="7.2516">
        <ele>589.5</ele>
        <time>2012-05-27T13:33:30Z</time>
      </trkpt>
      <trkpt lat="43.76372" lon="7.25168">
        <ele>589.7</ele>
        <time>2012-05-27T13:33:33Z</time>
      </trkpt>
      <trkpt lat="43.76363" lon="7.25175">
        <ele>589.9</ele>
        <time>2012-05-27T13:33:38Z</time>
      </trkpt>
      <trkpt lat="43.76351" lon="7.2518">
        <ele>588.6</ele>
        <time>2012-05-27T13:33:52Z</time>
      </trkpt>
      <trkpt lat="43.76336" lon="7.25169">
        <ele>582.3</ele>
        <time>2012-05-27T13:34:08Z</time>
      </trkpt>
      <trkpt lat="43.7633" lon="7.25162">
        <ele>578.7</ele>
        <time>2012-05-27T13:34:13Z</time>
      </trkpt>
      <trkpt lat="43.76316" lon="7.25155">
        <ele>573.2</ele>
        <time>2012-05-27T13:34:22Z</time>
      </trkpt>
      <trkpt lat="43.76314" lon="7.25143">
        <ele>568.6</ele>
        <time>2012-05-27T13:34:28Z</time>
      </trkpt>
      <trkpt lat="43.76314" lon="7.25121">
        <ele>561</ele>
        <time>2012-05-27T13:34:42Z</time>
      </trkpt>
      <trkpt lat="43.763" lon="7.25115">
        <ele>555.8</ele>
        <time>2012-05-27T13:35:03Z</time>
      </trkpt>
      <trkpt lat="43.76292" lon="7.25118">
        <ele>554</ele>
        <time>2012-05-27T13:35:08Z</time>
      </trkpt>
      <trkpt lat="43.76276" lon="7.25112">
        <ele>548.2</ele>
        <time>2012-05-27T13:35:32Z</time>
      </trkpt>
      <trkpt lat="43.76273" lon="7.25099">
        <ele>543.4</ele>
        <time>2012-05-27T13:35:50Z</time>
      </trkpt>
      <trkpt lat="43.76257" lon="7.25082">
        <ele>533.7</ele>
        <time>2012-05-27T13:36:19Z</time>
      </trkpt>
      <trkpt lat="43.76262" lon="7.25062">
        <ele>528.8</ele>
        <time>2012-05-27T13:36:30Z</time>
      </trkpt>
      <trkpt lat="43.76262" lon="7.25047">
        <ele>524.1</ele>
        <time>2012-05-27T13:36:43Z</time>
      </trkpt>
      <trkpt lat="43.76253" lon="7.25047">
        <ele>522</ele>
        <time>2012-05-27T13:36:48Z</time>
      </trkpt>
      <trkpt lat="43.76245" lon="7.25041">
        <ele>518.3</ele>
        <time>2012-05-27T13:37:00Z</time>
      </trkpt>
      <trkpt lat="43.76239" lon="7.25028">
        <ele>512.4</ele>
        <time>2012-05-27T13:37:16Z</time>
      </trkpt>
      <trkpt lat="43.76233" lon="7.25019">
        <ele>507.6</ele>
        <time>2012-05-27T13:37:35Z</time>
      </trkpt>
      <trkpt lat="43.76224" lon="7.25017">
        <ele>505.3</ele>
        <time>2012-05-27T13:37:45Z</time>
      </trkpt>
      <trkpt lat="43.76225" lon="7.25005">
        <ele>501.7</ele>
        <time>2012-05-27T13:37:57Z</time>
      </trkpt>
      <trkpt lat="43.76215" lon="7.25004">
        <ele>499.1</ele>
        <time>2012-05-27T13:38:04Z</time>
      </trkpt>
      <trkpt lat="43.76203" lon="7.24995">
        <ele>493.8</ele>
        <time>2012-05-27T13:38:17Z</time>
      </trkpt>
      <trkpt lat="43.76188" lon="7.24997">
        <ele>490.6</ele>
        <time>2012-05-27T13:38:27Z</time>
      </trkpt>
      <trkpt lat="43.76185" lon="7.24986">
        <ele>486.9</ele>
        <time>2012-05-27T13:38:38Z</time>
      </trkpt>
      <trkpt lat="43.76177" lon="7.24967">
        <ele>479.5</ele>
        <time>2012-05-27T13:38:54Z</time>
      </trkpt>
      <trkpt lat="43.76169" lon="7.24968">
        <ele>477.9</ele>
        <time>2012-05-27T13:39:00Z</time>
      </trkpt>
      <trkpt lat="43.76175" lon="7.24954">
        <ele>475.5</ele>
        <time>2012-05-27T13:39:10Z</time>
      </trkpt>
      <trkpt lat="43.76183" lon="7.24925">
        <ele>469.2</ele>
        <time>2012-05-27T13:39:31Z</time>
      </trkpt>
      <trkpt lat="43.76185" lon="7.24913">
        <ele>467</ele>
        <time>2012-05-27T13:39:37Z</time>
      </trkpt>
      <trkpt lat="43.76172" lon="7.24901">
        <ele>461.2</ele>
        <time>2012-05-27T13:39:53Z</time>
      </trkpt>
      <trkpt lat="43.76156" lon="7.249">
        <ele>457.2</ele>
        <time>2012-05-27T13:40:03Z</time>
      </trkpt>
      <trkpt lat="43.76148" lon="7.24893">
        <ele>454</ele>
        <time>2012-05-27T13:40:11Z</time>
      </trkpt>
      <trkpt lat="43.76144" lon="7.24875">
        <ele>447.8</ele>
        <time>2012-05-27T13:40:22Z</time>
      </trkpt>
      <trkpt lat="43.76128" lon="7.24878">
        <ele>444.4</ele>
        <time>2012-05-27T13:40:32Z</time>
      </trkpt>
      <trkpt lat="43.76112" lon="7.24879">
        <ele>443.1</ele>
        <time>2012-05-27T13:40:41Z</time>
      </trkpt>
      <trkpt lat="43.76095" lon="7.24886">
        <ele>443.2</ele>
        <time>2012-05-27T13:40:53Z</time>
      </trkpt>
      <trkpt lat="43.76087" lon="7.24888">
        <ele>442.8</ele>
        <time>2012-05-27T13:41:01Z</time>
      </trkpt>
      <trkpt lat="43.76072" lon="7.24893">
        <ele>442.5</ele>
        <time>2012-05-27T13:41:11Z</time>
      </trkpt>
      <trkpt lat="43.7606" lon="7.24903">
        <ele>443</ele>
        <time>2012-05-27T13:41:17Z</time>
      </trkpt>
      <trkpt lat="43.76046" lon="7.24906">
        <ele>442.1</ele>
        <time>2012-05-27T13:41:23Z</time>
      </trkpt>
      <trkpt lat="43.76032" lon="7.24904">
        <ele>439.6</ele>
        <time>2012-05-27T13:41:29Z</time>
      </trkpt>
      <trkpt lat="43.76023" lon="7.24902">
        <ele>437.1</ele>
        <time>2012-05-27T13:41:33Z</time>
      </trkpt>
      <trkpt lat="43.76019" lon="7.24882">
        <ele>432.2</ele>
        <time>2012-05-27T13:41:54Z</time>
      </trkpt>
      <trkpt lat="43.76007" lon="7.24869">
        <ele>427.9</ele>
        <time>2012-05-27T13:42:02Z</time>
      </trkpt>
      <trkpt lat="43.76001" lon="7.24854">
        <ele>424.2</ele>
        <time>2012-05-27T13:42:06Z</time>
      </trkpt>
      <trkpt lat="43.75995" lon="7.24836">
        <ele>419.8</ele>
        <time>2012-05-27T13:42:10Z</time>
      </trkpt>
      <trkpt lat="43.7599" lon="7.24823">
        <ele>416.5</ele>
        <time>2012-05-27T13:42:14Z</time>
      </trkpt>
      <trkpt lat="43.75988" lon="7.24803">
        <ele>411.8</ele>
        <time>2012-05-27T13:42:26Z</time>
      </trkpt>
      <trkpt lat="43.7599" lon="7.24792">
        <ele>410</ele>
        <time>2012-05-27T13:42:32Z</time>
      </trkpt>
      <trkpt lat="43.75995" lon="7.24772">
        <ele>406.1</ele>
        <time>2012-05-27T13:42:46Z</time>
      </trkpt>
      <trkpt lat="43.75984" lon="7.24761">
        <ele>402.6</ele>
        <time>2012-05-27T13:42:57Z</time>
      </trkpt>
      <trkpt lat="43.7597" lon="7.24762">
        <ele>400.9</ele>
        <time>2012-05-27T13:43:01Z</time>
      </trkpt>
      <trkpt lat="43.75962" lon="7.24763">
        <ele>399.9</ele>
        <time>2012-05-27T13:43:03Z</time>
      </trkpt>
      <trkpt lat="43.75948" lon="7.24774">
        <ele>398.7</ele>
        <time>2012-05-27T13:43:07Z</time>
      </trkpt>
      <trkpt lat="43.75943" lon="7.24791">
        <ele>400.2</ele>
        <time>2012-05-27T13:43:11Z</time>
      </trkpt>
      <trkpt lat="43.75936" lon="7.24809">
        <ele>402</ele>
        <time>2012-05-27T13:43:15Z</time>
      </trkpt>
      <trkpt lat="43.75932" lon="7.24833">
        <ele>405.3</ele>
        <time>2012-05-27T13:43:20Z</time>
      </trkpt>
      <trkpt lat="43.75929" lon="7.24841">
        <ele>406.6</ele>
        <time>2012-05-27T13:43:24Z</time>
      </trkpt>
      <trkpt lat="43.75925" lon="7.24862">
        <ele>409.2</ele>
        <time>2012-05-27T13:43:29Z</time>
      </trkpt>
      <trkpt lat="43.75918" lon="7.24892">
        <ele>413.2</ele>
        <time>2012-05-27T13:43:35Z</time>
      </trkpt>
      <trkpt lat="43.75914" lon="7.2491">
        <ele>415.2</ele>
        <time>2012-05-27T13:43:39Z</time>
      </trkpt>
      <trkpt lat="43.75912" lon="7.24919">
        <ele>416.2</ele>
        <time>2012-05-27T13:43:41Z</time>
      </trkpt>
      <trkpt lat="43.75903" lon="7.24932">
        <ele>417.1</ele>
        <time>2012-05-27T13:43:45Z</time>
      </trkpt>
      <trkpt lat="43.75892" lon="7.24943">
        <ele>417.4</ele>
        <time>2012-05-27T13:43:49Z</time>
      </trkpt>
      <trkpt lat="43.75883" lon="7.24956">
        <ele>417.6</ele>
        <time>2012-05-27T13:43:53Z</time>
      </trkpt>
      <trkpt lat="43.75871" lon="7.24965">
        <ele>417.2</ele>
        <time>2012-05-27T13:43:58Z</time>
      </trkpt>
      <trkpt lat="43.75858" lon="7.24978">
        <ele>416.2</ele>
        <time>2012-05-27T13:44:07Z</time>
      </trkpt>
      <trkpt lat="43.75855" lon="7.24989">
        <ele>416.8</ele>
        <time>2012-05-27T13:44:13Z</time>
      </trkpt>
      <trkpt lat="43.75846" lon="7.24995">
        <ele>416.6</ele>
        <time>2012-05-27T13:44:20Z</time>
      </trkpt>
      <trkpt lat="43.75826" lon="7.25001">
        <ele>414</ele>
        <time>2012-05-27T13:44:29Z</time>
      </trkpt>
      <trkpt lat="43.75817" lon="7.25003">
        <ele>412.8</ele>
        <time>2012-05-27T13:44:33Z</time>
      </trkpt>
      <trkpt lat="43.75804" lon="7.25007">
        <ele>411</ele>
        <time>2012-05-27T13:44:39Z</time>
      </trkpt>
      <trkpt lat="43.75797" lon="7.25012">
        <ele>410.4</ele>
        <time>2012-05-27T13:44:42Z</time>
      </trkpt>
      <trkpt lat="43.75785" lon="7.25025">
        <ele>410.8</ele>
        <time>2012-05-27T13:44:49Z</time>
      </trkpt>
      <trkpt lat="43.75777" lon="7.25031">
        <ele>411.3</ele>
        <time>2012-05-27T13:44:53Z</time>
      </trkpt>
      <trkpt lat="43.75761" lon="7.2504">
        <ele>412.5</ele>
        <time>2012-05-27T13:45:01Z</time>
      </trkpt>
      <trkpt lat="43.7575" lon="7.25052">
        <ele>414.1</ele>
        <time>2012-05-27T13:45:07Z</time>
      </trkpt>
      <trkpt lat="43.75738" lon="7.25062">
        <ele>415.5</ele>
        <time>2012-05-27T13:45:12Z</time>
      </trkpt>
      <trkpt lat="43.75727" lon="7.25071">
        <ele>416.7</ele>
        <time>2012-05-27T13:45:16Z</time>
      </trkpt>
      <trkpt lat="43.75713" lon="7.25085">
        <ele>418.5</ele>
        <time>2012-05-27T13:45:23Z</time>
      </trkpt>
      <trkpt lat="43.75702" lon="7.25096">
        <ele>419.9</ele>
        <time>2012-05-27T13:45:32Z</time>
      </trkpt>
      <trkpt lat="43.75696" lon="7.25102">
        <ele>420.5</ele>
        <time>2012-05-27T13:45:36Z</time>
      </trkpt>
      <trkpt lat="43.75684" lon="7.25111">
        <ele>420.9</ele>
        <time>2012-05-27T13:45:42Z</time>
      </trkpt>
      <trkpt lat="43.75673" lon="7.25126">
        <ele>422.5</ele>
        <time>2012-05-27T13:45:54Z</time>
      </trkpt>
      <trkpt lat="43.75666" lon="7.25134">
        <ele>422.8</ele>
        <time>2012-05-27T13:46:01Z</time>
      </trkpt>
      <trkpt lat="43.75651" lon="7.25144">
        <ele>422.6</ele>
        <time>2012-05-27T13:46:12Z</time>
      </trkpt>
      <trkpt lat="43.75637" lon="7.25152">
        <ele>422.2</ele>
        <time>2012-05-27T13:46:22Z</time>
      </trkpt>
      <trkpt lat="43.75626" lon="7.25154">
        <ele>421.5</ele>
        <time>2012-05-27T13:46:27Z</time>
      </trkpt>
      <trkpt lat="43.75612" lon="7.2516">
        <ele>421.7</ele>
        <time>2012-05-27T13:46:35Z</time>
      </trkpt>
      <trkpt lat="43.75599" lon="7.25173">
        <ele>423</ele>
        <time>2012-05-27T13:46:49Z</time>
      </trkpt>
      <trkpt lat="43.75591" lon="7.25177">
        <ele>423.5</ele>
        <time>2012-05-27T13:46:55Z</time>
      </trkpt>
      <trkpt lat="43.75575" lon="7.25182">
        <ele>423.8</ele>
        <time>2012-05-27T13:47:05Z</time>
      </trkpt>
      <trkpt lat="43.7556" lon="7.25189">
        <ele>424.1</ele>
        <time>2012-05-27T13:47:15Z</time>
      </trkpt>
      <trkpt lat="43.75545" lon="7.25177">
        <ele>423.5</ele>
        <time>2012-05-27T13:47:27Z</time>
      </trkpt>
      <trkpt lat="43.75529" lon="7.25177">
        <ele>423.7</ele>
        <time>2012-05-27T13:47:33Z</time>
      </trkpt>
      <trkpt lat="43.75523" lon="7.2517">
        <ele>423.8</ele>
        <time>2012-05-27T13:47:36Z</time>
      </trkpt>
      <trkpt lat="43.75508" lon="7.25175">
        <ele>424.3</ele>
        <time>2012-05-27T13:47:45Z</time>
      </trkpt>
      <trkpt lat="43.75495" lon="7.25186">
        <ele>425</ele>
        <time>2012-05-27T13:48:00Z</time>
      </trkpt>
      <trkpt lat="43.75479" lon="7.25189">
        <ele>425.4</ele>
        <time>2012-05-27T13:48:12Z</time>
      </trkpt>
      <trkpt lat="43.75467" lon="7.25202">
        <ele>425.7</ele>
        <time>2012-05-27T13:48:17Z</time>
      </trkpt>
      <trkpt lat="43.75459" lon="7.25219">
        <ele>426.1</ele>
        <time>2012-05-27T13:48:21Z</time>
      </trkpt>
      <trkpt lat="43.75452" lon="7.25225">
        <ele>426.4</ele>
        <time>2012-05-27T13:48:23Z</time>
      </trkpt>
      <trkpt lat="43.75439" lon="7.25226">
        <ele>427</ele>
        <time>2012-05-27T13:48:26Z</time>
      </trkpt>
      <trkpt lat="43.75429" lon="7.25227">
        <ele>427.5</ele>
        <time>2012-05-27T13:48:28Z</time>
      </trkpt>
      <trkpt lat="43.75414" lon="7.25234">
        <ele>428.2</ele>
        <time>2012-05-27T13:48:31Z</time>
      </trkpt>
      <trkpt lat="43.75405" lon="7.25241">
        <ele>428.5</ele>
        <time>2012-05-27T13:48:33Z</time>
      </trkpt>
      <trkpt lat="43.75396" lon="7.25249">
        <ele>428.7</ele>
        <time>2012-05-27T13:48:35Z</time>
      </trkpt>
      <trkpt lat="43.75387" lon="7.25258">
        <ele>428.8</ele>
        <time>2012-05-27T13:48:37Z</time>
      </trkpt>
      <trkpt lat="43.7538" lon="7.25269">
        <ele>428.8</ele>
        <time>2012-05-27T13:48:39Z</time>
      </trkpt>
      <trkpt lat="43.75374" lon="7.25282">
        <ele>428.5</ele>
        <time>2012-05-27T13:48:41Z</time>
      </trkpt>
      <trkpt lat="43.75364" lon="7.25293">
        <ele>427.9</ele>
        <time>2012-05-27T13:48:44Z</time>
      </trkpt>
      <trkpt lat="43.75349" lon="7.253">
        <ele>427.4</ele>
        <time>2012-05-27T13:48:47Z</time>
      </trkpt>
      <trkpt lat="43.75333" lon="7.25299">
        <ele>427</ele>
        <time>2012-05-27T13:48:51Z</time>
      </trkpt>
      <trkpt lat="43.75317" lon="7.25307">
        <ele>426.5</ele>
        <time>2012-05-27T13:48:56Z</time>
      </trkpt>
      <trkpt lat="43.75301" lon="7.25308">
        <ele>426.1</ele>
        <time>2012-05-27T13:49:00Z</time>
      </trkpt>
      <trkpt lat="43.75287" lon="7.25303">
        <ele>425.8</ele>
        <time>2012-05-27T13:49:04Z</time>
      </trkpt>
      <trkpt lat="43.7527" lon="7.25299">
        <ele>425.6</ele>
        <time>2012-05-27T13:49:10Z</time>
      </trkpt>
      <trkpt lat="43.75255" lon="7.25297">
        <ele>425.4</ele>
        <time>2012-05-27T13:49:14Z</time>
      </trkpt>
      <trkpt lat="43.7524" lon="7.25302">
        <ele>425.1</ele>
        <time>2012-05-27T13:49:18Z</time>
      </trkpt>
      <trkpt lat="43.75236" lon="7.2531">
        <ele>424.8</ele>
        <time>2012-05-27T13:49:20Z</time>
      </trkpt>
      <trkpt lat="43.75232" lon="7.2533">
        <ele>424.1</ele>
        <time>2012-05-27T13:49:24Z</time>
      </trkpt>
      <trkpt lat="43.75227" lon="7.25337">
        <ele>423.5</ele>
        <time>2012-05-27T13:49:27Z</time>
      </trkpt>
      <trkpt lat="43.75216" lon="7.2534">
        <ele>423.2</ele>
        <time>2012-05-27T13:49:30Z</time>
      </trkpt>
      <trkpt lat="43.75206" lon="7.25345">
        <ele>422.5</ele>
        <time>2012-05-27T13:49:33Z</time>
      </trkpt>
      <trkpt lat="43.75187" lon="7.25357">
        <ele>421.3</ele>
        <time>2012-05-27T13:49:39Z</time>
      </trkpt>
      <trkpt lat="43.75177" lon="7.25368">
        <ele>420.2</ele>
        <time>2012-05-27T13:49:43Z</time>
      </trkpt>
      <trkpt lat="43.75171" lon="7.25375">
        <ele>419.6</ele>
        <time>2012-05-27T13:49:45Z</time>
      </trkpt>
      <trkpt lat="43.75153" lon="7.25402">
        <ele>417</ele>
        <time>2012-05-27T13:49:51Z</time>
      </trkpt>
      <trkpt lat="43.75143" lon="7.2542">
        <ele>414.9</ele>
        <time>2012-05-27T13:49:55Z</time>
      </trkpt>
      <trkpt lat="43.75137" lon="7.2543">
        <ele>413.6</ele>
        <time>2012-05-27T13:49:57Z</time>
      </trkpt>
      <trkpt lat="43.75131" lon="7.25447">
        <ele>411.6</ele>
        <time>2012-05-27T13:50:00Z</time>
      </trkpt>
      <trkpt lat="43.75125" lon="7.25458">
        <ele>410.1</ele>
        <time>2012-05-27T13:50:02Z</time>
      </trkpt>
      <trkpt lat="43.7512" lon="7.25471">
        <ele>409</ele>
        <time>2012-05-27T13:50:04Z</time>
      </trkpt>
      <trkpt lat="43.75115" lon="7.25492">
        <ele>408.2</ele>
        <time>2012-05-27T13:50:07Z</time>
      </trkpt>
      <trkpt lat="43.7511" lon="7.25507">
        <ele>407.6</ele>
        <time>2012-05-27T13:50:10Z</time>
      </trkpt>
      <trkpt lat="43.75096" lon="7.25517">
        <ele>406.4</ele>
        <time>2012-05-27T13:50:14Z</time>
      </trkpt>
      <trkpt lat="43.75082" lon="7.25522">
        <ele>404.9</ele>
        <time>2012-05-27T13:50:19Z</time>
      </trkpt>
      <trkpt lat="43.75067" lon="7.25525">
        <ele>403.5</ele>
        <time>2012-05-27T13:50:24Z</time>
      </trkpt>
      <trkpt lat="43.75059" lon="7.25525">
        <ele>402.6</ele>
        <time>2012-05-27T13:50:27Z</time>
      </trkpt>
      <trkpt lat="43.75045" lon="7.2553">
        <ele>401.4</ele>
        <time>2012-05-27T13:50:31Z</time>
      </trkpt>
      <trkpt lat="43.7503" lon="7.25535">
        <ele>400.4</ele>
        <time>2012-05-27T13:50:35Z</time>
      </trkpt>
      <trkpt lat="43.75021" lon="7.25536">
        <ele>400.1</ele>
        <time>2012-05-27T13:50:37Z</time>
      </trkpt>
      <trkpt lat="43.75" lon="7.25543">
        <ele>399.2</ele>
        <time>2012-05-27T13:50:43Z</time>
      </trkpt>
      <trkpt lat="43.74985" lon="7.25544">
        <ele>398.8</ele>
        <time>2012-05-27T13:50:47Z</time>
      </trkpt>
      <trkpt lat="43.74977" lon="7.25547">
        <ele>398.7</ele>
        <time>2012-05-27T13:50:49Z</time>
      </trkpt>
      <trkpt lat="43.74963" lon="7.25547">
        <ele>398</ele>
        <time>2012-05-27T13:50:54Z</time>
      </trkpt>
      <trkpt lat="43.74951" lon="7.25554">
        <ele>398.5</ele>
        <time>2012-05-27T13:50:59Z</time>
      </trkpt>
      <trkpt lat="43.74942" lon="7.25553">
        <ele>398.5</ele>
        <time>2012-05-27T13:51:02Z</time>
      </trkpt>
      <trkpt lat="43.74926" lon="7.25556">
        <ele>398.8</ele>
        <time>2012-05-27T13:51:09Z</time>
      </trkpt>
      <trkpt lat="43.74919" lon="7.25557">
        <ele>398.9</ele>
        <time>2012-05-27T13:51:11Z</time>
      </trkpt>
      <trkpt lat="43.74902" lon="7.25561">
        <ele>399.3</ele>
        <time>2012-05-27T13:51:15Z</time>
      </trkpt>
      <trkpt lat="43.74887" lon="7.25563">
        <ele>399.5</ele>
        <time>2012-05-27T13:51:20Z</time>
      </trkpt>
      <trkpt lat="43.74864" lon="7.25562">
        <ele>399</ele>
        <time>2012-05-27T13:51:26Z</time>
      </trkpt>
      <trkpt lat="43.74854" lon="7.25562">
        <ele>398.5</ele>
        <time>2012-05-27T13:51:28Z</time>
      </trkpt>
      <trkpt lat="43.74846" lon="7.25564">
        <ele>398.1</ele>
        <time>2012-05-27T13:51:30Z</time>
      </trkpt>
      <trkpt lat="43.74833" lon="7.25565">
        <ele>397.7</ele>
        <time>2012-05-27T13:51:33Z</time>
      </trkpt>
      <trkpt lat="43.74817" lon="7.25568">
        <ele>397</ele>
        <time>2012-05-27T13:51:37Z</time>
      </trkpt>
      <trkpt lat="43.7481" lon="7.25568">
        <ele>396.6</ele>
        <time>2012-05-27T13:51:39Z</time>
      </trkpt>
      <trkpt lat="43.74782" lon="7.25575">
        <ele>396.2</ele>
        <time>2012-05-27T13:51:49Z</time>
      </trkpt>
      <trkpt lat="43.74769" lon="7.25574">
        <ele>396.3</ele>
        <time>2012-05-27T13:51:54Z</time>
      </trkpt>
      <trkpt lat="43.74755" lon="7.25577">
        <ele>396.7</ele>
        <time>2012-05-27T13:51:58Z</time>
      </trkpt>
      <trkpt lat="43.7474" lon="7.25577">
        <ele>396.7</ele>
        <time>2012-05-27T13:52:02Z</time>
      </trkpt>
      <trkpt lat="43.74725" lon="7.25579">
        <ele>396.9</ele>
        <time>2012-05-27T13:52:06Z</time>
      </trkpt>
      <trkpt lat="43.74699" lon="7.25599">
        <ele>398.3</ele>
        <time>2012-05-27T13:52:14Z</time>
      </trkpt>
      <trkpt lat="43.74686" lon="7.25598">
        <ele>398.3</ele>
        <time>2012-05-27T13:52:18Z</time>
      </trkpt>
      <trkpt lat="43.74678" lon="7.25603">
        <ele>398.2</ele>
        <time>2012-05-27T13:52:21Z</time>
      </trkpt>
      <trkpt lat="43.74665" lon="7.25609">
        <ele>398.1</ele>
        <time>2012-05-27T13:52:25Z</time>
      </trkpt>
      <trkpt lat="43.74656" lon="7.25612">
        <ele>398</ele>
        <time>2012-05-27T13:52:30Z</time>
      </trkpt>
      <trkpt lat="43.74647" lon="7.2561">
        <ele>397.6</ele>
        <time>2012-05-27T13:52:40Z</time>
      </trkpt>
      <trkpt lat="43.74633" lon="7.25615">
        <ele>397.2</ele>
        <time>2012-05-27T13:52:47Z</time>
      </trkpt>
      <trkpt lat="43.74619" lon="7.25621">
        <ele>396.8</ele>
        <time>2012-05-27T13:52:52Z</time>
      </trkpt>
      <trkpt lat="43.74605" lon="7.25624">
        <ele>396.6</ele>
        <time>2012-05-27T13:52:56Z</time>
      </trkpt>
      <trkpt lat="43.7459" lon="7.25621">
        <ele>396.3</ele>
        <time>2012-05-27T13:53:00Z</time>
      </trkpt>
      <trkpt lat="43.74573" lon="7.25625">
        <ele>395.9</ele>
        <time>2012-05-27T13:53:04Z</time>
      </trkpt>
      <trkpt lat="43.74559" lon="7.25626">
        <ele>395.4</ele>
        <time>2012-05-27T13:53:18Z</time>
      </trkpt>
      <trkpt lat="43.74555" lon="7.25635">
        <ele>395.2</ele>
        <time>2012-05-27T13:53:22Z</time>
      </trkpt>
      <trkpt lat="43.74548" lon="7.25653">
        <ele>394.8</ele>
        <time>2012-05-27T13:53:30Z</time>
      </trkpt>
      <trkpt lat="43.74539" lon="7.25671">
        <ele>393.8</ele>
        <time>2012-05-27T13:53:36Z</time>
      </trkpt>
      <trkpt lat="43.74527" lon="7.25711">
        <ele>391.5</ele>
        <time>2012-05-27T13:53:53Z</time>
      </trkpt>
      <trkpt lat="43.74513" lon="7.25724">
        <ele>390.9</ele>
        <time>2012-05-27T13:54:02Z</time>
      </trkpt>
      <trkpt lat="43.74493" lon="7.25738">
        <ele>388.9</ele>
        <time>2012-05-27T13:54:11Z</time>
      </trkpt>
      <trkpt lat="43.74479" lon="7.25751">
        <ele>387.4</ele>
        <time>2012-05-27T13:54:17Z</time>
      </trkpt>
      <trkpt lat="43.74468" lon="7.25764">
        <ele>385.8</ele>
        <time>2012-05-27T13:54:23Z</time>
      </trkpt>
      <trkpt lat="43.74463" lon="7.25772">
        <ele>384.9</ele>
        <time>2012-05-27T13:54:26Z</time>
      </trkpt>
      <trkpt lat="43.74452" lon="7.25788">
        <ele>383.5</ele>
        <time>2012-05-27T13:54:33Z</time>
      </trkpt>
      <trkpt lat="43.74442" lon="7.25805">
        <ele>382.3</ele>
        <time>2012-05-27T13:54:41Z</time>
      </trkpt>
      <trkpt lat="43.74435" lon="7.25816">
        <ele>381.1</ele>
        <time>2012-05-27T13:54:48Z</time>
      </trkpt>
      <trkpt lat="43.74426" lon="7.25833">
        <ele>378.9</ele>
        <time>2012-05-27T13:54:56Z</time>
      </trkpt>
      <trkpt lat="43.74423" lon="7.25854">
        <ele>377</ele>
        <time>2012-05-27T13:55:05Z</time>
      </trkpt>
      <trkpt lat="43.74424" lon="7.25875">
        <ele>375.8</ele>
        <time>2012-05-27T13:55:19Z</time>
      </trkpt>
      <trkpt lat="43.74423" lon="7.25887">
        <ele>374.5</ele>
        <time>2012-05-27T13:55:24Z</time>
      </trkpt>
      <trkpt lat="43.74431" lon="7.25905">
        <ele>374.4</ele>
        <time>2012-05-27T13:55:34Z</time>
      </trkpt>
      <trkpt lat="43.74437" lon="7.25925">
        <ele>374.3</ele>
        <time>2012-05-27T13:55:43Z</time>
      </trkpt>
      <trkpt lat="43.74437" lon="7.25938">
        <ele>373.2</ele>
        <time>2012-05-27T13:55:57Z</time>
      </trkpt>
      <trkpt lat="43.74439" lon="7.2596">
        <ele>372.2</ele>
        <time>2012-05-27T13:56:08Z</time>
      </trkpt>
      <trkpt lat="43.74443" lon="7.2597">
        <ele>372</ele>
        <time>2012-05-27T13:56:12Z</time>
      </trkpt>
      <trkpt lat="43.74456" lon="7.25985">
        <ele>373.6</ele>
        <time>2012-05-27T13:56:18Z</time>
      </trkpt>
      <trkpt lat="43.74461" lon="7.26003">
        <ele>372.9</ele>
        <time>2012-05-27T13:56:24Z</time>
      </trkpt>
      <trkpt lat="43.74467" lon="7.26021">
        <ele>372.3</ele>
        <time>2012-05-27T13:56:29Z</time>
      </trkpt>
      <trkpt lat="43.74471" lon="7.26038">
        <ele>371.3</ele>
        <time>2012-05-27T13:56:33Z</time>
      </trkpt>
      <trkpt lat="43.74475" lon="7.26047">
        <ele>370.8</ele>
        <time>2012-05-27T13:56:35Z</time>
      </trkpt>
      <trkpt lat="43.74481" lon="7.26065">
        <ele>369.8</ele>
        <time>2012-05-27T13:56:39Z</time>
      </trkpt>
      <trkpt lat="43.74485" lon="7.26072">
        <ele>369.4</ele>
        <time>2012-05-27T13:56:41Z</time>
      </trkpt>
      <trkpt lat="43.74504" lon="7.26098">
        <ele>368.8</ele>
        <time>2012-05-27T13:56:46Z</time>
      </trkpt>
      <trkpt lat="43.74509" lon="7.26105">
        <ele>368.6</ele>
        <time>2012-05-27T13:56:47Z</time>
      </trkpt>
      <trkpt lat="43.74534" lon="7.2613">
        <ele>367.3</ele>
        <time>2012-05-27T13:56:51Z</time>
      </trkpt>
      <trkpt lat="43.74543" lon="7.26142">
        <ele>366.5</ele>
        <time>2012-05-27T13:56:53Z</time>
      </trkpt>
      <trkpt lat="43.74548" lon="7.26151">
        <ele>365.4</ele>
        <time>2012-05-27T13:56:55Z</time>
      </trkpt>
      <trkpt lat="43.74555" lon="7.26159">
        <ele>364.1</ele>
        <time>2012-05-27T13:57:00Z</time>
      </trkpt>
      <trkpt lat="43.74561" lon="7.26178">
        <ele>360.3</ele>
        <time>2012-05-27T13:57:16Z</time>
      </trkpt>
      <trkpt lat="43.74552" lon="7.26197">
        <ele>356</ele>
        <time>2012-05-27T13:57:33Z</time>
      </trkpt>
      <trkpt lat="43.74544" lon="7.26202">
        <ele>354.5</ele>
        <time>2012-05-27T13:57:39Z</time>
      </trkpt>
      <trkpt lat="43.74547" lon="7.26224">
        <ele>349.8</ele>
        <time>2012-05-27T13:57:50Z</time>
      </trkpt>
      <trkpt lat="43.74554" lon="7.2623">
        <ele>348.3</ele>
        <time>2012-05-27T13:57:54Z</time>
      </trkpt>
      <trkpt lat="43.74563" lon="7.26241">
        <ele>346</ele>
        <time>2012-05-27T13:58:04Z</time>
      </trkpt>
      <trkpt lat="43.74577" lon="7.26251">
        <ele>344.2</ele>
        <time>2012-05-27T13:58:14Z</time>
      </trkpt>
      <trkpt lat="43.74582" lon="7.26272">
        <ele>340.6</ele>
        <time>2012-05-27T13:58:19Z</time>
      </trkpt>
      <trkpt lat="43.7459" lon="7.26282">
        <ele>338.5</ele>
        <time>2012-05-27T13:58:21Z</time>
      </trkpt>
      <trkpt lat="43.746" lon="7.26287">
        <ele>337.4</ele>
        <time>2012-05-27T13:58:23Z</time>
      </trkpt>
      <trkpt lat="43.74624" lon="7.26287">
        <ele>337.7</ele>
        <time>2012-05-27T13:58:27Z</time>
      </trkpt>
      <trkpt lat="43.7463" lon="7.26286">
        <ele>337.9</ele>
        <time>2012-05-27T13:58:28Z</time>
      </trkpt>
      <trkpt lat="43.74642" lon="7.26285">
        <ele>338.4</ele>
        <time>2012-05-27T13:58:30Z</time>
      </trkpt>
      <trkpt lat="43.74647" lon="7.26294">
        <ele>337.6</ele>
        <time>2012-05-27T13:58:32Z</time>
      </trkpt>
      <trkpt lat="43.74641" lon="7.26302">
        <ele>335.5</ele>
        <time>2012-05-27T13:58:34Z</time>
      </trkpt>
      <trkpt lat="43.74631" lon="7.26307">
        <ele>333.7</ele>
        <time>2012-05-27T13:58:36Z</time>
      </trkpt>
      <trkpt lat="43.74624" lon="7.26313">
        <ele>332</ele>
        <time>2012-05-27T13:58:38Z</time>
      </trkpt>
      <trkpt lat="43.74632" lon="7.26324">
        <ele>328.9</ele>
        <time>2012-05-27T13:58:41Z</time>
      </trkpt>
      <trkpt lat="43.74642" lon="7.26325">
        <ele>328.2</ele>
        <time>2012-05-27T13:58:43Z</time>
      </trkpt>
      <trkpt lat="43.74648" lon="7.26337">
        <ele>325.5</ele>
        <time>2012-05-27T13:58:48Z</time>
      </trkpt>
      <trkpt lat="43.74636" lon="7.2635">
        <ele>321.6</ele>
        <time>2012-05-27T13:58:53Z</time>
      </trkpt>
      <trkpt lat="43.74641" lon="7.26373">
        <ele>314.6</ele>
        <time>2012-05-27T13:59:08Z</time>
      </trkpt>
      <trkpt lat="43.74643" lon="7.26374">
        <ele>314.6</ele>
        <time>2012-05-27T14:00:29Z</time>
      </trkpt>
      <trkpt lat="43.74636" lon="7.26383">
        <ele>311.6</ele>
        <time>2012-05-27T14:02:45Z</time>
      </trkpt>
      <trkpt lat="43.7463" lon="7.26376">
        <ele>313.2</ele>
        <time>2012-05-27T14:06:11Z</time>
      </trkpt>
      <trkpt lat="43.74638" lon="7.2638">
        <ele>312.5</ele>
        <time>2012-05-27T14:08:44Z</time>
      </trkpt>
      <trkpt lat="43.74651" lon="7.26368">
        <ele>315.6</ele>
        <time>2012-05-27T14:09:25Z</time>
      </trkpt>
      <trkpt lat="43.74659" lon="7.26367">
        <ele>316.6</ele>
        <time>2012-05-27T14:09:28Z</time>
      </trkpt>
      <trkpt lat="43.74673" lon="7.26376">
        <ele>315.4</ele>
        <time>2012-05-27T14:09:32Z</time>
      </trkpt>
      <trkpt lat="43.74687" lon="7.2638">
        <ele>314.8</ele>
        <time>2012-05-27T14:09:36Z</time>
      </trkpt>
      <trkpt lat="43.74701" lon="7.26382">
        <ele>314.9</ele>
        <time>2012-05-27T14:09:40Z</time>
      </trkpt>
      <trkpt lat="43.74708" lon="7.26382">
        <ele>315.2</ele>
        <time>2012-05-27T14:09:42Z</time>
      </trkpt>
      <trkpt lat="43.74727" lon="7.26378">
        <ele>316.5</ele>
        <time>2012-05-27T14:09:47Z</time>
      </trkpt>
      <trkpt lat="43.74742" lon="7.26377">
        <ele>317.1</ele>
        <time>2012-05-27T14:09:50Z</time>
      </trkpt>
      <trkpt lat="43.74752" lon="7.26378">
        <ele>317.3</ele>
        <time>2012-05-27T14:09:52Z</time>
      </trkpt>
      <trkpt lat="43.74762" lon="7.2638">
        <ele>317.2</ele>
        <time>2012-05-27T14:09:54Z</time>
      </trkpt>
      <trkpt lat="43.74773" lon="7.26384">
        <ele>316.7</ele>
        <time>2012-05-27T14:09:56Z</time>
      </trkpt>
      <trkpt lat="43.74793" lon="7.26393">
        <ele>315.2</ele>
        <time>2012-05-27T14:10:00Z</time>
      </trkpt>
      <trkpt lat="43.74814" lon="7.26402">
        <ele>315.1</ele>
        <time>2012-05-27T14:10:04Z</time>
      </trkpt>
      <trkpt lat="43.74825" lon="7.26407">
        <ele>315.1</ele>
        <time>2012-05-27T14:10:06Z</time>
      </trkpt>
      <trkpt lat="43.74842" lon="7.26415">
        <ele>315.2</ele>
        <time>2012-05-27T14:10:09Z</time>
      </trkpt>
      <trkpt lat="43.74853" lon="7.26419">
        <ele>315.4</ele>
        <time>2012-05-27T14:10:11Z</time>
      </trkpt>
      <trkpt lat="43.74859" lon="7.26421">
        <ele>315.6</ele>
        <time>2012-05-27T14:10:12Z</time>
      </trkpt>
      <trkpt lat="43.7487" lon="7.26423">
        <ele>316.3</ele>
        <time>2012-05-27T14:10:14Z</time>
      </trkpt>
      <trkpt lat="43.74888" lon="7.26425">
        <ele>317.7</ele>
        <time>2012-05-27T14:10:17Z</time>
      </trkpt>
      <trkpt lat="43.749" lon="7.26428">
        <ele>318.4</ele>
        <time>2012-05-27T14:10:19Z</time>
      </trkpt>
      <trkpt lat="43.74906" lon="7.26431">
        <ele>318.5</ele>
        <time>2012-05-27T14:10:20Z</time>
      </trkpt>
      <trkpt lat="43.74916" lon="7.2644">
        <ele>318</ele>
        <time>2012-05-27T14:10:22Z</time>
      </trkpt>
      <trkpt lat="43.74924" lon="7.26453">
        <ele>316.1</ele>
        <time>2012-05-27T14:10:24Z</time>
      </trkpt>
      <trkpt lat="43.74928" lon="7.26462">
        <ele>314.6</ele>
        <time>2012-05-27T14:10:25Z</time>
      </trkpt>
      <trkpt lat="43.74935" lon="7.26479">
        <ele>311</ele>
        <time>2012-05-27T14:10:27Z</time>
      </trkpt>
      <trkpt lat="43.74944" lon="7.26493">
        <ele>307.7</ele>
        <time>2012-05-27T14:10:29Z</time>
      </trkpt>
      <trkpt lat="43.74954" lon="7.26506">
        <ele>305.3</ele>
        <time>2012-05-27T14:10:31Z</time>
      </trkpt>
      <trkpt lat="43.74966" lon="7.26514">
        <ele>304.2</ele>
        <time>2012-05-27T14:10:33Z</time>
      </trkpt>
      <trkpt lat="43.74976" lon="7.26524">
        <ele>303.6</ele>
        <time>2012-05-27T14:10:35Z</time>
      </trkpt>
      <trkpt lat="43.74988" lon="7.26534">
        <ele>303.4</ele>
        <time>2012-05-27T14:10:37Z</time>
      </trkpt>
      <trkpt lat="43.75002" lon="7.26541">
        <ele>304</ele>
        <time>2012-05-27T14:10:39Z</time>
      </trkpt>
      <trkpt lat="43.75008" lon="7.26543">
        <ele>304.7</ele>
        <time>2012-05-27T14:10:40Z</time>
      </trkpt>
      <trkpt lat="43.75022" lon="7.26544">
        <ele>306.7</ele>
        <time>2012-05-27T14:10:42Z</time>
      </trkpt>
      <trkpt lat="43.75036" lon="7.26542">
        <ele>310.3</ele>
        <time>2012-05-27T14:10:45Z</time>
      </trkpt>
      <trkpt lat="43.75048" lon="7.26556">
        <ele>310</ele>
        <time>2012-05-27T14:11:01Z</time>
      </trkpt>
      <trkpt lat="43.75037" lon="7.26572">
        <ele>305.2</ele>
        <time>2012-05-27T14:11:20Z</time>
      </trkpt>
      <trkpt lat="43.75023" lon="7.26585">
        <ele>299.2</ele>
        <time>2012-05-27T14:11:32Z</time>
      </trkpt>
      <trkpt lat="43.75017" lon="7.26594">
        <ele>296.4</ele>
        <time>2012-05-27T14:11:44Z</time>
      </trkpt>
      <trkpt lat="43.75008" lon="7.26603">
        <ele>294.4</ele>
        <time>2012-05-27T14:11:48Z</time>
      </trkpt>
      <trkpt lat="43.74988" lon="7.26625">
        <ele>287.3</ele>
        <time>2012-05-27T14:11:55Z</time>
      </trkpt>
      <trkpt lat="43.74977" lon="7.26639">
        <ele>283.1</ele>
        <time>2012-05-27T14:11:59Z</time>
      </trkpt>
      <trkpt lat="43.74965" lon="7.26651">
        <ele>279</ele>
        <time>2012-05-27T14:12:03Z</time>
      </trkpt>
      <trkpt lat="43.74957" lon="7.2667">
        <ele>272.9</ele>
        <time>2012-05-27T14:12:11Z</time>
      </trkpt>
      <trkpt lat="43.74949" lon="7.26687">
        <ele>267.5</ele>
        <time>2012-05-27T14:12:17Z</time>
      </trkpt>
      <trkpt lat="43.74944" lon="7.26709">
        <ele>260.7</ele>
        <time>2012-05-27T14:12:27Z</time>
      </trkpt>
      <trkpt lat="43.74938" lon="7.26727">
        <ele>254.8</ele>
        <time>2012-05-27T14:12:34Z</time>
      </trkpt>
      <trkpt lat="43.74935" lon="7.26738">
        <ele>251</ele>
        <time>2012-05-27T14:12:37Z</time>
      </trkpt>
      <trkpt lat="43.74925" lon="7.26756">
        <ele>243.4</ele>
        <time>2012-05-27T14:12:43Z</time>
      </trkpt>
      <trkpt lat="43.74921" lon="7.26766">
        <ele>238.2</ele>
        <time>2012-05-27T14:12:52Z</time>
      </trkpt>
      <trkpt lat="43.74911" lon="7.26784">
        <ele>230.9</ele>
        <time>2012-05-27T14:13:09Z</time>
      </trkpt>
      <trkpt lat="43.74899" lon="7.26801">
        <ele>223.5</ele>
        <time>2012-05-27T14:13:23Z</time>
      </trkpt>
      <trkpt lat="43.74886" lon="7.26817">
        <ele>216.4</ele>
        <time>2012-05-27T14:13:46Z</time>
      </trkpt>
      <trkpt lat="43.74878" lon="7.26826">
        <ele>212.7</ele>
        <time>2012-05-27T14:13:56Z</time>
      </trkpt>
      <trkpt lat="43.74864" lon="7.26832">
        <ele>210.5</ele>
        <time>2012-05-27T14:14:05Z</time>
      </trkpt>
      <trkpt lat="43.74862" lon="7.26854">
        <ele>206.5</ele>
        <time>2012-05-27T14:14:12Z</time>
      </trkpt>
      <trkpt lat="43.74859" lon="7.26874">
        <ele>202.6</ele>
        <time>2012-05-27T14:14:17Z</time>
      </trkpt>
      <trkpt lat="43.74859" lon="7.26895">
        <ele>200.9</ele>
        <time>2012-05-27T14:14:22Z</time>
      </trkpt>
      <trkpt lat="43.74859" lon="7.26918">
        <ele>200</ele>
        <time>2012-05-27T14:14:36Z</time>
      </trkpt>
      <trkpt lat="43.74858" lon="7.26929">
        <ele>199.7</ele>
        <time>2012-05-27T14:14:39Z</time>
      </trkpt>
      <trkpt lat="43.74857" lon="7.26946">
        <ele>199.7</ele>
        <time>2012-05-27T14:14:43Z</time>
      </trkpt>
      <trkpt lat="43.74853" lon="7.26964">
        <ele>200.6</ele>
        <time>2012-05-27T14:14:47Z</time>
      </trkpt>
      <trkpt lat="43.74851" lon="7.26987">
        <ele>202.8</ele>
        <time>2012-05-27T14:14:53Z</time>
      </trkpt>
      <trkpt lat="43.74848" lon="7.27005">
        <ele>204.8</ele>
        <time>2012-05-27T14:14:57Z</time>
      </trkpt>
      <trkpt lat="43.74845" lon="7.27024">
        <ele>206.8</ele>
        <time>2012-05-27T14:15:01Z</time>
      </trkpt>
      <trkpt lat="43.74843" lon="7.27034">
        <ele>208.2</ele>
        <time>2012-05-27T14:15:03Z</time>
      </trkpt>
      <trkpt lat="43.74838" lon="7.27056">
        <ele>210.2</ele>
        <time>2012-05-27T14:15:07Z</time>
      </trkpt>
      <trkpt lat="43.74836" lon="7.27069">
        <ele>210.5</ele>
        <time>2012-05-27T14:15:09Z</time>
      </trkpt>
      <trkpt lat="43.74835" lon="7.27081">
        <ele>210.6</ele>
        <time>2012-05-27T14:15:11Z</time>
      </trkpt>
      <trkpt lat="43.74828" lon="7.27111">
        <ele>211</ele>
        <time>2012-05-27T14:15:27Z</time>
      </trkpt>
      <trkpt lat="43.74825" lon="7.27135">
        <ele>209.8</ele>
        <time>2012-05-27T14:15:40Z</time>
      </trkpt>
      <trkpt lat="43.74825" lon="7.27146">
        <ele>208.3</ele>
        <time>2012-05-27T14:15:53Z</time>
      </trkpt>
      <trkpt lat="43.74821" lon="7.27165">
        <ele>207.1</ele>
        <time>2012-05-27T14:16:00Z</time>
      </trkpt>
      <trkpt lat="43.74811" lon="7.27187">
        <ele>206.7</ele>
        <time>2012-05-27T14:16:07Z</time>
      </trkpt>
      <trkpt lat="43.74801" lon="7.27201">
        <ele>207.2</ele>
        <time>2012-05-27T14:16:12Z</time>
      </trkpt>
      <trkpt lat="43.74787" lon="7.27211">
        <ele>210.1</ele>
        <time>2012-05-27T14:16:32Z</time>
      </trkpt>
      <trkpt lat="43.74782" lon="7.27221">
        <ele>209.8</ele>
        <time>2012-05-27T14:16:40Z</time>
      </trkpt>
      <trkpt lat="43.74776" lon="7.27243">
        <ele>207.8</ele>
        <time>2012-05-27T14:16:54Z</time>
      </trkpt>
      <trkpt lat="43.74767" lon="7.27251">
        <ele>208.9</ele>
        <time>2012-05-27T14:17:02Z</time>
      </trkpt>
      <trkpt lat="43.74748" lon="7.27275">
        <ele>211</ele>
        <time>2012-05-27T14:17:20Z</time>
      </trkpt>
      <trkpt lat="43.74742" lon="7.27284">
        <ele>212.2</ele>
        <time>2012-05-27T14:17:26Z</time>
      </trkpt>
      <trkpt lat="43.74718" lon="7.27291">
        <ele>219.7</ele>
        <time>2012-05-27T14:17:39Z</time>
      </trkpt>
      <trkpt lat="43.74704" lon="7.27304">
        <ele>222</ele>
        <time>2012-05-27T14:17:54Z</time>
      </trkpt>
      <trkpt lat="43.74695" lon="7.2731">
        <ele>222.7</ele>
        <time>2012-05-27T14:18:03Z</time>
      </trkpt>
      <trkpt lat="43.74671" lon="7.27313">
        <ele>229.3</ele>
        <time>2012-05-27T14:18:25Z</time>
      </trkpt>
      <trkpt lat="43.74668" lon="7.27329">
        <ele>228.6</ele>
        <time>2012-05-27T14:18:53Z</time>
      </trkpt>
      <trkpt lat="43.74677" lon="7.27342">
        <ele>224.1</ele>
        <time>2012-05-27T14:18:58Z</time>
      </trkpt>
      <trkpt lat="43.74683" lon="7.27349">
        <ele>220.5</ele>
        <time>2012-05-27T14:19:01Z</time>
      </trkpt>
      <trkpt lat="43.74691" lon="7.27355">
        <ele>215.6</ele>
        <time>2012-05-27T14:19:08Z</time>
      </trkpt>
      <trkpt lat="43.74702" lon="7.27367">
        <ele>207.9</ele>
        <time>2012-05-27T14:19:27Z</time>
      </trkpt>
      <trkpt lat="43.74696" lon="7.27388">
        <ele>206.5</ele>
        <time>2012-05-27T14:19:58Z</time>
      </trkpt>
      <trkpt lat="43.74693" lon="7.274">
        <ele>206.3</ele>
        <time>2012-05-27T14:20:06Z</time>
      </trkpt>
      <trkpt lat="43.74687" lon="7.27409">
        <ele>207.9</ele>
        <time>2012-05-27T14:20:12Z</time>
      </trkpt>
      <trkpt lat="43.74677" lon="7.27423">
        <ele>211.2</ele>
        <time>2012-05-27T14:20:21Z</time>
      </trkpt>
      <trkpt lat="43.74669" lon="7.27441">
        <ele>213.2</ele>
        <time>2012-05-27T14:20:26Z</time>
      </trkpt>
      <trkpt lat="43.74658" lon="7.27476">
        <ele>214.6</ele>
        <time>2012-05-27T14:20:34Z</time>
      </trkpt>
      <trkpt lat="43.74654" lon="7.27485">
        <ele>214.5</ele>
        <time>2012-05-27T14:20:36Z</time>
      </trkpt>
      <trkpt lat="43.74632" lon="7.27517">
        <ele>218.5</ele>
        <time>2012-05-27T14:20:45Z</time>
      </trkpt>
      <trkpt lat="43.74623" lon="7.2753">
        <ele>219.7</ele>
        <time>2012-05-27T14:20:49Z</time>
      </trkpt>
      <trkpt lat="43.74615" lon="7.27544">
        <ele>219.7</ele>
        <time>2012-05-27T14:20:53Z</time>
      </trkpt>
      <trkpt lat="43.74611" lon="7.27555">
        <ele>219.1</ele>
        <time>2012-05-27T14:20:55Z</time>
      </trkpt>
      <trkpt lat="43.74607" lon="7.27572">
        <ele>216.8</ele>
        <time>2012-05-27T14:20:58Z</time>
      </trkpt>
      <trkpt lat="43.74597" lon="7.2759">
        <ele>214.9</ele>
        <time>2012-05-27T14:21:02Z</time>
      </trkpt>
      <trkpt lat="43.74574" lon="7.2762">
        <ele>213.4</ele>
        <time>2012-05-27T14:21:10Z</time>
      </trkpt>
      <trkpt lat="43.74564" lon="7.27629">
        <ele>213.1</ele>
        <time>2012-05-27T14:21:13Z</time>
      </trkpt>
      <trkpt lat="43.74554" lon="7.27635">
        <ele>213.5</ele>
        <time>2012-05-27T14:21:16Z</time>
      </trkpt>
      <trkpt lat="43.74548" lon="7.27629">
        <ele>215.9</ele>
        <time>2012-05-27T14:21:19Z</time>
      </trkpt>
      <trkpt lat="43.74535" lon="7.2762">
        <ele>221.3</ele>
        <time>2012-05-27T14:21:24Z</time>
      </trkpt>
      <trkpt lat="43.74529" lon="7.27618">
        <ele>223.7</ele>
        <time>2012-05-27T14:21:26Z</time>
      </trkpt>
      <trkpt lat="43.74518" lon="7.27623">
        <ele>226</ele>
        <time>2012-05-27T14:21:29Z</time>
      </trkpt>
      <trkpt lat="43.74506" lon="7.27632">
        <ele>227</ele>
        <time>2012-05-27T14:21:33Z</time>
      </trkpt>
      <trkpt lat="43.74492" lon="7.27635">
        <ele>229.6</ele>
        <time>2012-05-27T14:21:38Z</time>
      </trkpt>
      <trkpt lat="43.74485" lon="7.27642">
        <ele>230.5</ele>
        <time>2012-05-27T14:21:42Z</time>
      </trkpt>
      <trkpt lat="43.74482" lon="7.27661">
        <ele>226.8</ele>
        <time>2012-05-27T14:21:48Z</time>
      </trkpt>
      <trkpt lat="43.74482" lon="7.27673">
        <ele>223.8</ele>
        <time>2012-05-27T14:21:52Z</time>
      </trkpt>
      <trkpt lat="43.74477" lon="7.2769">
        <ele>220</ele>
        <time>2012-05-27T14:21:58Z</time>
      </trkpt>
      <trkpt lat="43.74473" lon="7.27701">
        <ele>218.2</ele>
        <time>2012-05-27T14:22:02Z</time>
      </trkpt>
      <trkpt lat="43.74462" lon="7.27715">
        <ele>217.2</ele>
        <time>2012-05-27T14:22:09Z</time>
      </trkpt>
      <trkpt lat="43.74454" lon="7.27723">
        <ele>216.8</ele>
        <time>2012-05-27T14:22:14Z</time>
      </trkpt>
      <trkpt lat="43.74446" lon="7.27741">
        <ele>213.1</ele>
        <time>2012-05-27T14:22:30Z</time>
      </trkpt>
      <trkpt lat="43.74449" lon="7.27761">
        <ele>208</ele>
        <time>2012-05-27T14:22:36Z</time>
      </trkpt>
      <trkpt lat="43.74449" lon="7.27772">
        <ele>204.7</ele>
        <time>2012-05-27T14:22:40Z</time>
      </trkpt>
      <trkpt lat="43.74453" lon="7.27793">
        <ele>199.1</ele>
        <time>2012-05-27T14:22:49Z</time>
      </trkpt>
      <trkpt lat="43.74456" lon="7.27804">
        <ele>195.9</ele>
        <time>2012-05-27T14:22:55Z</time>
      </trkpt>
      <trkpt lat="43.74458" lon="7.27816">
        <ele>192.9</ele>
        <time>2012-05-27T14:23:03Z</time>
      </trkpt>
      <trkpt lat="43.74462" lon="7.27827">
        <ele>189.8</ele>
        <time>2012-05-27T14:23:16Z</time>
      </trkpt>
      <trkpt lat="43.74467" lon="7.27847">
        <ele>184</ele>
        <time>2012-05-27T14:23:43Z</time>
      </trkpt>
      <trkpt lat="43.74457" lon="7.27862">
        <ele>182.4</ele>
        <time>2012-05-27T14:23:50Z</time>
      </trkpt>
      <trkpt lat="43.74442" lon="7.27857">
        <ele>183.5</ele>
        <time>2012-05-27T14:23:57Z</time>
      </trkpt>
      <trkpt lat="43.7443" lon="7.27856">
        <ele>185</ele>
        <time>2012-05-27T14:24:02Z</time>
      </trkpt>
      <trkpt lat="43.74414" lon="7.27855">
        <ele>186.1</ele>
        <time>2012-05-27T14:24:09Z</time>
      </trkpt>
      <trkpt lat="43.74406" lon="7.27859">
        <ele>185.9</ele>
        <time>2012-05-27T14:24:15Z</time>
      </trkpt>
      <trkpt lat="43.74399" lon="7.27867">
        <ele>184.7</ele>
        <time>2012-05-27T14:24:25Z</time>
      </trkpt>
      <trkpt lat="43.74384" lon="7.27874">
        <ele>183.7</ele>
        <time>2012-05-27T14:24:44Z</time>
      </trkpt>
      <trkpt lat="43.74375" lon="7.27892">
        <ele>181.8</ele>
        <time>2012-05-27T14:24:55Z</time>
      </trkpt>
      <trkpt lat="43.74368" lon="7.27898">
        <ele>181.3</ele>
        <time>2012-05-27T14:25:04Z</time>
      </trkpt>
      <trkpt lat="43.7436" lon="7.27916">
        <ele>180</ele>
        <time>2012-05-27T14:25:14Z</time>
      </trkpt>
      <trkpt lat="43.74356" lon="7.27924">
        <ele>179.3</ele>
        <time>2012-05-27T14:25:17Z</time>
      </trkpt>
      <trkpt lat="43.74346" lon="7.2794">
        <ele>177.9</ele>
        <time>2012-05-27T14:25:23Z</time>
      </trkpt>
      <trkpt lat="43.74341" lon="7.27952">
        <ele>176.7</ele>
        <time>2012-05-27T14:25:28Z</time>
      </trkpt>
      <trkpt lat="43.74344" lon="7.27973">
        <ele>172.8</ele>
        <time>2012-05-27T14:25:44Z</time>
      </trkpt>
      <trkpt lat="43.74349" lon="7.27983">
        <ele>170.8</ele>
        <time>2012-05-27T14:25:50Z</time>
      </trkpt>
      <trkpt lat="43.74347" lon="7.28006">
        <ele>166.9</ele>
        <time>2012-05-27T14:26:01Z</time>
      </trkpt>
      <trkpt lat="43.74339" lon="7.28023">
        <ele>164.9</ele>
        <time>2012-05-27T14:26:09Z</time>
      </trkpt>
      <trkpt lat="43.74331" lon="7.2804">
        <ele>163</ele>
        <time>2012-05-27T14:26:15Z</time>
      </trkpt>
      <trkpt lat="43.74325" lon="7.28049">
        <ele>162</ele>
        <time>2012-05-27T14:26:18Z</time>
      </trkpt>
      <trkpt lat="43.74316" lon="7.28067">
        <ele>160</ele>
        <time>2012-05-27T14:26:24Z</time>
      </trkpt>
      <trkpt lat="43.74309" lon="7.28077">
        <ele>158.7</ele>
        <time>2012-05-27T14:26:30Z</time>
      </trkpt>
      <trkpt lat="43.74303" lon="7.28098">
        <ele>156</ele>
        <time>2012-05-27T14:26:45Z</time>
      </trkpt>
      <trkpt lat="43.74304" lon="7.2812">
        <ele>152.6</ele>
        <time>2012-05-27T14:26:51Z</time>
      </trkpt>
      <trkpt lat="43.74291" lon="7.28142">
        <ele>149.5</ele>
        <time>2012-05-27T14:26:56Z</time>
      </trkpt>
      <trkpt lat="43.74285" lon="7.28152">
        <ele>148.2</ele>
        <time>2012-05-27T14:26:58Z</time>
      </trkpt>
      <trkpt lat="43.74281" lon="7.28164">
        <ele>146.5</ele>
        <time>2012-05-27T14:27:00Z</time>
      </trkpt>
      <trkpt lat="43.74277" lon="7.28177">
        <ele>144.5</ele>
        <time>2012-05-27T14:27:02Z</time>
      </trkpt>
      <trkpt lat="43.74272" lon="7.2819">
        <ele>142.4</ele>
        <time>2012-05-27T14:27:04Z</time>
      </trkpt>
      <trkpt lat="43.74266" lon="7.28206">
        <ele>139.7</ele>
        <time>2012-05-27T14:27:07Z</time>
      </trkpt>
      <trkpt lat="43.74256" lon="7.28223">
        <ele>137.5</ele>
        <time>2012-05-27T14:27:12Z</time>
      </trkpt>
      <trkpt lat="43.7425" lon="7.2824">
        <ele>135.9</ele>
        <time>2012-05-27T14:27:16Z</time>
      </trkpt>
      <trkpt lat="43.74246" lon="7.28247">
        <ele>135</ele>
        <time>2012-05-27T14:27:18Z</time>
      </trkpt>
      <trkpt lat="43.74238" lon="7.28267">
        <ele>132.5</ele>
        <time>2012-05-27T14:27:22Z</time>
      </trkpt>
      <trkpt lat="43.74231" lon="7.28282">
        <ele>130.1</ele>
        <time>2012-05-27T14:27:25Z</time>
      </trkpt>
      <trkpt lat="43.74221" lon="7.28292">
        <ele>127.9</ele>
        <time>2012-05-27T14:27:28Z</time>
      </trkpt>
      <trkpt lat="43.7422" lon="7.28306">
        <ele>126.9</ele>
        <time>2012-05-27T14:27:31Z</time>
      </trkpt>
      <trkpt lat="43.74211" lon="7.28318">
        <ele>125.9</ele>
        <time>2012-05-27T14:27:35Z</time>
      </trkpt>
      <trkpt lat="43.74202" lon="7.28327">
        <ele>125.6</ele>
        <time>2012-05-27T14:27:37Z</time>
      </trkpt>
      <trkpt lat="43.74192" lon="7.28339">
        <ele>125.2</ele>
        <time>2012-05-27T14:27:39Z</time>
      </trkpt>
      <trkpt lat="43.74187" lon="7.28344">
        <ele>124.8</ele>
        <time>2012-05-27T14:27:40Z</time>
      </trkpt>
      <trkpt lat="43.74175" lon="7.28355">
        <ele>123.4</ele>
        <time>2012-05-27T14:27:43Z</time>
      </trkpt>
      <trkpt lat="43.74172" lon="7.28376">
        <ele>120.5</ele>
        <time>2012-05-27T14:27:48Z</time>
      </trkpt>
      <trkpt lat="43.74175" lon="7.28395">
        <ele>118.3</ele>
        <time>2012-05-27T14:27:54Z</time>
      </trkpt>
      <trkpt lat="43.74171" lon="7.28406">
        <ele>117.1</ele>
        <time>2012-05-27T14:27:57Z</time>
      </trkpt>
      <trkpt lat="43.74163" lon="7.28421">
        <ele>114.9</ele>
        <time>2012-05-27T14:28:01Z</time>
      </trkpt>
      <trkpt lat="43.74157" lon="7.28438">
        <ele>112.8</ele>
        <time>2012-05-27T14:28:04Z</time>
      </trkpt>
      <trkpt lat="43.74152" lon="7.28449">
        <ele>111.1</ele>
        <time>2012-05-27T14:28:06Z</time>
      </trkpt>
      <trkpt lat="43.74148" lon="7.28461">
        <ele>109.3</ele>
        <time>2012-05-27T14:28:08Z</time>
      </trkpt>
      <trkpt lat="43.74142" lon="7.28473">
        <ele>107.3</ele>
        <time>2012-05-27T14:28:10Z</time>
      </trkpt>
      <trkpt lat="43.74136" lon="7.28481">
        <ele>105.6</ele>
        <time>2012-05-27T14:28:12Z</time>
      </trkpt>
      <trkpt lat="43.74128" lon="7.28495">
        <ele>103.2</ele>
        <time>2012-05-27T14:28:16Z</time>
      </trkpt>
      <trkpt lat="43.74123" lon="7.28516">
        <ele>100.7</ele>
        <time>2012-05-27T14:28:22Z</time>
      </trkpt>
      <trkpt lat="43.74118" lon="7.28522">
        <ele>99.4</ele>
        <time>2012-05-27T14:28:25Z</time>
      </trkpt>
      <trkpt lat="43.74103" lon="7.28527">
        <ele>96.9</ele>
        <time>2012-05-27T14:28:30Z</time>
      </trkpt>
      <trkpt lat="43.74094" lon="7.2853">
        <ele>95.4</ele>
        <time>2012-05-27T14:28:33Z</time>
      </trkpt>
      <trkpt lat="43.74081" lon="7.28531">
        <ele>92.6</ele>
        <time>2012-05-27T14:28:39Z</time>
      </trkpt>
      <trkpt lat="43.74068" lon="7.28545">
        <ele>88.4</ele>
        <time>2012-05-27T14:28:59Z</time>
      </trkpt>
      <trkpt lat="43.74067" lon="7.28568">
        <ele>84.4</ele>
        <time>2012-05-27T14:29:15Z</time>
      </trkpt>
      <trkpt lat="43.74065" lon="7.28581">
        <ele>82</ele>
        <time>2012-05-27T14:29:26Z</time>
      </trkpt>
      <trkpt lat="43.74064" lon="7.28592">
        <ele>80.9</ele>
        <time>2012-05-27T14:29:41Z</time>
      </trkpt>
      <trkpt lat="43.74054" lon="7.28602">
        <ele>78</ele>
        <time>2012-05-27T14:29:46Z</time>
      </trkpt>
      <trkpt lat="43.74044" lon="7.28624">
        <ele>73.9</ele>
        <time>2012-05-27T14:29:50Z</time>
      </trkpt>
      <trkpt lat="43.7404" lon="7.2863">
        <ele>72.9</ele>
        <time>2012-05-27T14:29:51Z</time>
      </trkpt>
      <trkpt lat="43.74031" lon="7.28645">
        <ele>71.9</ele>
        <time>2012-05-27T14:29:53Z</time>
      </trkpt>
      <trkpt lat="43.74026" lon="7.28653">
        <ele>71.5</ele>
        <time>2012-05-27T14:29:54Z</time>
      </trkpt>
      <trkpt lat="43.74017" lon="7.28672">
        <ele>70.1</ele>
        <time>2012-05-27T14:29:56Z</time>
      </trkpt>
      <trkpt lat="43.74012" lon="7.28681">
        <ele>69.1</ele>
        <time>2012-05-27T14:29:57Z</time>
      </trkpt>
      <trkpt lat="43.74004" lon="7.28698">
        <ele>66.9</ele>
        <time>2012-05-27T14:29:59Z</time>
      </trkpt>
      <trkpt lat="43.73994" lon="7.28709">
        <ele>64.3</ele>
        <time>2012-05-27T14:30:02Z</time>
      </trkpt>
      <trkpt lat="43.73987" lon="7.2871">
        <ele>63.6</ele>
        <time>2012-05-27T14:30:05Z</time>
      </trkpt>
      <trkpt lat="43.73974" lon="7.2871">
        <ele>63.6</ele>
        <time>2012-05-27T14:30:09Z</time>
      </trkpt>
      <trkpt lat="43.73966" lon="7.28712">
        <ele>63.6</ele>
        <time>2012-05-27T14:30:11Z</time>
      </trkpt>
      <trkpt lat="43.73955" lon="7.28722">
        <ele>63.1</ele>
        <time>2012-05-27T14:30:14Z</time>
      </trkpt>
      <trkpt lat="43.73949" lon="7.28731">
        <ele>62.4</ele>
        <time>2012-05-27T14:30:16Z</time>
      </trkpt>
      <trkpt lat="43.73936" lon="7.28744">
        <ele>61</ele>
        <time>2012-05-27T14:30:20Z</time>
      </trkpt>
      <trkpt lat="43.7393" lon="7.28746">
        <ele>60.5</ele>
        <time>2012-05-27T14:30:22Z</time>
      </trkpt>
      <trkpt lat="43.73917" lon="7.28746">
        <ele>60.2</ele>
        <time>2012-05-27T14:30:25Z</time>
      </trkpt>
      <trkpt lat="43.73901" lon="7.28743">
        <ele>60</ele>
        <time>2012-05-27T14:30:28Z</time>
      </trkpt>
      <trkpt lat="43.7389" lon="7.28739">
        <ele>60</ele>
        <time>2012-05-27T14:30:30Z</time>
      </trkpt>
      <trkpt lat="43.73861" lon="7.28725">
        <ele>60.4</ele>
        <time>2012-05-27T14:30:34Z</time>
      </trkpt>
      <trkpt lat="43.73845" lon="7.28719">
        <ele>60.8</ele>
        <time>2012-05-27T14:30:36Z</time>
      </trkpt>
      <trkpt lat="43.73829" lon="7.28717">
        <ele>61.1</ele>
        <time>2012-05-27T14:30:38Z</time>
      </trkpt>
      <trkpt lat="43.73814" lon="7.28718">
        <ele>61.1</ele>
        <time>2012-05-27T14:30:40Z</time>
      </trkpt>
      <trkpt lat="43.73799" lon="7.28721">
        <ele>60.9</ele>
        <time>2012-05-27T14:30:42Z</time>
      </trkpt>
      <trkpt lat="43.73785" lon="7.28723">
        <ele>60.9</ele>
        <time>2012-05-27T14:30:44Z</time>
      </trkpt>
      <trkpt lat="43.7377" lon="7.2872">
        <ele>62.4</ele>
        <time>2012-05-27T14:30:46Z</time>
      </trkpt>
      <trkpt lat="43.73757" lon="7.28712">
        <ele>64.7</ele>
        <time>2012-05-27T14:30:48Z</time>
      </trkpt>
      <trkpt lat="43.73745" lon="7.28711">
        <ele>67</ele>
        <time>2012-05-27T14:30:50Z</time>
      </trkpt>
      <trkpt lat="43.73732" lon="7.28711">
        <ele>68.8</ele>
        <time>2012-05-27T14:30:52Z</time>
      </trkpt>
      <trkpt lat="43.73719" lon="7.28712">
        <ele>70.6</ele>
        <time>2012-05-27T14:30:54Z</time>
      </trkpt>
      <trkpt lat="43.73712" lon="7.28712">
        <ele>71.4</ele>
        <time>2012-05-27T14:30:55Z</time>
      </trkpt>
      <trkpt lat="43.73698" lon="7.28716">
        <ele>71.9</ele>
        <time>2012-05-27T14:30:57Z</time>
      </trkpt>
      <trkpt lat="43.73684" lon="7.2872">
        <ele>70.8</ele>
        <time>2012-05-27T14:30:59Z</time>
      </trkpt>
      <trkpt lat="43.7367" lon="7.28726">
        <ele>69.3</ele>
        <time>2012-05-27T14:31:01Z</time>
      </trkpt>
      <trkpt lat="43.73648" lon="7.28735">
        <ele>66.6</ele>
        <time>2012-05-27T14:31:04Z</time>
      </trkpt>
      <trkpt lat="43.73625" lon="7.28746">
        <ele>63.6</ele>
        <time>2012-05-27T14:31:07Z</time>
      </trkpt>
      <trkpt lat="43.73608" lon="7.28754">
        <ele>61</ele>
        <time>2012-05-27T14:31:09Z</time>
      </trkpt>
      <trkpt lat="43.73571" lon="7.28767">
        <ele>56.4</ele>
        <time>2012-05-27T14:31:13Z</time>
      </trkpt>
      <trkpt lat="43.73551" lon="7.28773">
        <ele>54.7</ele>
        <time>2012-05-27T14:31:15Z</time>
      </trkpt>
      <trkpt lat="43.7353" lon="7.28775">
        <ele>53.8</ele>
        <time>2012-05-27T14:31:17Z</time>
      </trkpt>
      <trkpt lat="43.73519" lon="7.28774">
        <ele>53.5</ele>
        <time>2012-05-27T14:31:18Z</time>
      </trkpt>
      <trkpt lat="43.73509" lon="7.28772">
        <ele>53.4</ele>
        <time>2012-05-27T14:31:19Z</time>
      </trkpt>
      <trkpt lat="43.73499" lon="7.28768">
        <ele>53.2</ele>
        <time>2012-05-27T14:31:20Z</time>
      </trkpt>
      <trkpt lat="43.73489" lon="7.28763">
        <ele>53.1</ele>
        <time>2012-05-27T14:31:21Z</time>
      </trkpt>
      <trkpt lat="43.7348" lon="7.28756">
        <ele>53</ele>
        <time>2012-05-27T14:31:22Z</time>
      </trkpt>
      <trkpt lat="43.73472" lon="7.28746">
        <ele>52.9</ele>
        <time>2012-05-27T14:31:23Z</time>
      </trkpt>
      <trkpt lat="43.73465" lon="7.28735">
        <ele>52.7</ele>
        <time>2012-05-27T14:31:24Z</time>
      </trkpt>
      <trkpt lat="43.73458" lon="7.28723">
        <ele>52.4</ele>
        <time>2012-05-27T14:31:25Z</time>
      </trkpt>
      <trkpt lat="43.73453" lon="7.28711">
        <ele>52.3</ele>
        <time>2012-05-27T14:31:26Z</time>
      </trkpt>
      <trkpt lat="43.73444" lon="7.28684">
        <ele>52.3</ele>
        <time>2012-05-27T14:31:28Z</time>
      </trkpt>
      <trkpt lat="43.73441" lon="7.2867">
        <ele>52.5</ele>
        <time>2012-05-27T14:31:29Z</time>
      </trkpt>
      <trkpt lat="43.73427" lon="7.28614">
        <ele>52.7</ele>
        <time>2012-05-27T14:31:33Z</time>
      </trkpt>
      <trkpt lat="43.7342" lon="7.28587">
        <ele>53.3</ele>
        <time>2012-05-27T14:31:35Z</time>
      </trkpt>
      <trkpt lat="43.73412" lon="7.2856">
        <ele>54</ele>
        <time>2012-05-27T14:31:37Z</time>
      </trkpt>
      <trkpt lat="43.73407" lon="7.28548">
        <ele>54.4</ele>
        <time>2012-05-27T14:31:38Z</time>
      </trkpt>
      <trkpt lat="43.73401" lon="7.28536">
        <ele>55</ele>
        <time>2012-05-27T14:31:39Z</time>
      </trkpt>
      <trkpt lat="43.73388" lon="7.28516">
        <ele>57.3</ele>
        <time>2012-05-27T14:31:41Z</time>
      </trkpt>
      <trkpt lat="43.73375" lon="7.28499">
        <ele>59.2</ele>
        <time>2012-05-27T14:31:43Z</time>
      </trkpt>
      <trkpt lat="43.73367" lon="7.28492">
        <ele>60.4</ele>
        <time>2012-05-27T14:31:44Z</time>
      </trkpt>
      <trkpt lat="43.73342" lon="7.28482">
        <ele>60.5</ele>
        <time>2012-05-27T14:31:47Z</time>
      </trkpt>
      <trkpt lat="43.73324" lon="7.28478">
        <ele>59.5</ele>
        <time>2012-05-27T14:31:49Z</time>
      </trkpt>
      <trkpt lat="43.73291" lon="7.28474">
        <ele>56.3</ele>
        <time>2012-05-27T14:31:53Z</time>
      </trkpt>
      <trkpt lat="43.73259" lon="7.28471">
        <ele>52.7</ele>
        <time>2012-05-27T14:31:57Z</time>
      </trkpt>
      <trkpt lat="43.73243" lon="7.28471">
        <ele>50.9</ele>
        <time>2012-05-27T14:31:59Z</time>
      </trkpt>
      <trkpt lat="43.73228" lon="7.28469">
        <ele>49</ele>
        <time>2012-05-27T14:32:01Z</time>
      </trkpt>
      <trkpt lat="43.73214" lon="7.28464">
        <ele>47.4</ele>
        <time>2012-05-27T14:32:03Z</time>
      </trkpt>
      <trkpt lat="43.73199" lon="7.28457">
        <ele>46.1</ele>
        <time>2012-05-27T14:32:05Z</time>
      </trkpt>
      <trkpt lat="43.73185" lon="7.28449">
        <ele>45.3</ele>
        <time>2012-05-27T14:32:07Z</time>
      </trkpt>
      <trkpt lat="43.73171" lon="7.2844">
        <ele>44.6</ele>
        <time>2012-05-27T14:32:09Z</time>
      </trkpt>
      <trkpt lat="43.73158" lon="7.28428">
        <ele>44.2</ele>
        <time>2012-05-27T14:32:11Z</time>
      </trkpt>
      <trkpt lat="43.73145" lon="7.28415">
        <ele>43.8</ele>
        <time>2012-05-27T14:32:13Z</time>
      </trkpt>
      <trkpt lat="43.73139" lon="7.28408">
        <ele>43.7</ele>
        <time>2012-05-27T14:32:14Z</time>
      </trkpt>
      <trkpt lat="43.73127" lon="7.28392">
        <ele>43.4</ele>
        <time>2012-05-27T14:32:16Z</time>
      </trkpt>
      <trkpt lat="43.73104" lon="7.2836">
        <ele>43.4</ele>
        <time>2012-05-27T14:32:20Z</time>
      </trkpt>
      <trkpt lat="43.73093" lon="7.28343">
        <ele>43.4</ele>
        <time>2012-05-27T14:32:22Z</time>
      </trkpt>
      <trkpt lat="43.7307" lon="7.28308">
        <ele>43.4</ele>
        <time>2012-05-27T14:32:26Z</time>
      </trkpt>
      <trkpt lat="43.73065" lon="7.28299">
        <ele>43.3</ele>
        <time>2012-05-27T14:32:27Z</time>
      </trkpt>
      <trkpt lat="43.73041" lon="7.28265">
        <ele>45.9</ele>
        <time>2012-05-27T14:32:31Z</time>
      </trkpt>
      <trkpt lat="43.7303" lon="7.28249">
        <ele>48.6</ele>
        <time>2012-05-27T14:32:33Z</time>
      </trkpt>
      <trkpt lat="43.73017" lon="7.28236">
        <ele>51.6</ele>
        <time>2012-05-27T14:32:35Z</time>
      </trkpt>
      <trkpt lat="43.73003" lon="7.28224">
        <ele>54.6</ele>
        <time>2012-05-27T14:32:37Z</time>
      </trkpt>
      <trkpt lat="43.72995" lon="7.28219">
        <ele>56.1</ele>
        <time>2012-05-27T14:32:38Z</time>
      </trkpt>
      <trkpt lat="43.7298" lon="7.28211">
        <ele>58.8</ele>
        <time>2012-05-27T14:32:40Z</time>
      </trkpt>
      <trkpt lat="43.72964" lon="7.28204">
        <ele>61.7</ele>
        <time>2012-05-27T14:32:42Z</time>
      </trkpt>
      <trkpt lat="43.72948" lon="7.282">
        <ele>63.7</ele>
        <time>2012-05-27T14:32:44Z</time>
      </trkpt>
      <trkpt lat="43.72931" lon="7.28198">
        <ele>65.8</ele>
        <time>2012-05-27T14:32:46Z</time>
      </trkpt>
      <trkpt lat="43.72922" lon="7.28199">
        <ele>66.1</ele>
        <time>2012-05-27T14:32:47Z</time>
      </trkpt>
      <trkpt lat="43.72906" lon="7.28201">
        <ele>65.9</ele>
        <time>2012-05-27T14:32:49Z</time>
      </trkpt>
      <trkpt lat="43.7288" lon="7.28203">
        <ele>65.3</ele>
        <time>2012-05-27T14:32:52Z</time>
      </trkpt>
      <trkpt lat="43.72872" lon="7.28204">
        <ele>65.3</ele>
        <time>2012-05-27T14:32:53Z</time>
      </trkpt>
      <trkpt lat="43.72838" lon="7.28209">
        <ele>66.8</ele>
        <time>2012-05-27T14:32:57Z</time>
      </trkpt>
      <trkpt lat="43.72829" lon="7.2821">
        <ele>67.3</ele>
        <time>2012-05-27T14:32:58Z</time>
      </trkpt>
      <trkpt lat="43.72812" lon="7.28214">
        <ele>68</ele>
        <time>2012-05-27T14:33:00Z</time>
      </trkpt>
      <trkpt lat="43.72804" lon="7.28215">
        <ele>68.4</ele>
        <time>2012-05-27T14:33:01Z</time>
      </trkpt>
      <trkpt lat="43.72787" lon="7.2822">
        <ele>69</ele>
        <time>2012-05-27T14:33:03Z</time>
      </trkpt>
      <trkpt lat="43.72771" lon="7.28227">
        <ele>69.8</ele>
        <time>2012-05-27T14:33:05Z</time>
      </trkpt>
      <trkpt lat="43.72756" lon="7.28236">
        <ele>70</ele>
        <time>2012-05-27T14:33:07Z</time>
      </trkpt>
      <trkpt lat="43.72741" lon="7.28247">
        <ele>69.2</ele>
        <time>2012-05-27T14:33:09Z</time>
      </trkpt>
      <trkpt lat="43.72727" lon="7.28259">
        <ele>67.5</ele>
        <time>2012-05-27T14:33:11Z</time>
      </trkpt>
      <trkpt lat="43.727" lon="7.28288">
        <ele>61.5</ele>
        <time>2012-05-27T14:33:15Z</time>
      </trkpt>
      <trkpt lat="43.72694" lon="7.28295">
        <ele>60.1</ele>
        <time>2012-05-27T14:33:16Z</time>
      </trkpt>
      <trkpt lat="43.72682" lon="7.28311">
        <ele>58.4</ele>
        <time>2012-05-27T14:33:18Z</time>
      </trkpt>
      <trkpt lat="43.72658" lon="7.28336">
        <ele>57</ele>
        <time>2012-05-27T14:33:21Z</time>
      </trkpt>
      <trkpt lat="43.72642" lon="7.28356">
        <ele>57.2</ele>
        <time>2012-05-27T14:33:24Z</time>
      </trkpt>
      <trkpt lat="43.7263" lon="7.28372">
        <ele>56.8</ele>
        <time>2012-05-27T14:33:26Z</time>
      </trkpt>
      <trkpt lat="43.72612" lon="7.28398">
        <ele>54.8</ele>
        <time>2012-05-27T14:33:29Z</time>
      </trkpt>
      <trkpt lat="43.726" lon="7.28416">
        <ele>52.6</ele>
        <time>2012-05-27T14:33:31Z</time>
      </trkpt>
      <trkpt lat="43.72589" lon="7.28433">
        <ele>50.3</ele>
        <time>2012-05-27T14:33:33Z</time>
      </trkpt>
      <trkpt lat="43.72579" lon="7.28452">
        <ele>47.9</ele>
        <time>2012-05-27T14:33:35Z</time>
      </trkpt>
      <trkpt lat="43.72561" lon="7.28489">
        <ele>44.5</ele>
        <time>2012-05-27T14:33:39Z</time>
      </trkpt>
      <trkpt lat="43.72551" lon="7.28507">
        <ele>43.4</ele>
        <time>2012-05-27T14:33:41Z</time>
      </trkpt>
      <trkpt lat="43.7254" lon="7.28522">
        <ele>42.4</ele>
        <time>2012-05-27T14:33:43Z</time>
      </trkpt>
      <trkpt lat="43.72532" lon="7.28539">
        <ele>41.4</ele>
        <time>2012-05-27T14:33:45Z</time>
      </trkpt>
      <trkpt lat="43.72526" lon="7.28555">
        <ele>40.1</ele>
        <time>2012-05-27T14:33:47Z</time>
      </trkpt>
      <trkpt lat="43.72521" lon="7.2857">
        <ele>39.5</ele>
        <time>2012-05-27T14:33:49Z</time>
      </trkpt>
      <trkpt lat="43.72519" lon="7.28585">
        <ele>39</ele>
        <time>2012-05-27T14:33:51Z</time>
      </trkpt>
      <trkpt lat="43.72512" lon="7.28598">
        <ele>38.6</ele>
        <time>2012-05-27T14:33:53Z</time>
      </trkpt>
      <trkpt lat="43.72503" lon="7.28612">
        <ele>38.4</ele>
        <time>2012-05-27T14:33:55Z</time>
      </trkpt>
      <trkpt lat="43.72485" lon="7.28634">
        <ele>38.1</ele>
        <time>2012-05-27T14:33:58Z</time>
      </trkpt>
      <trkpt lat="43.72466" lon="7.28657">
        <ele>38</ele>
        <time>2012-05-27T14:34:01Z</time>
      </trkpt>
      <trkpt lat="43.72453" lon="7.2867">
        <ele>38</ele>
        <time>2012-05-27T14:34:03Z</time>
      </trkpt>
      <trkpt lat="43.72427" lon="7.28693">
        <ele>38</ele>
        <time>2012-05-27T14:34:07Z</time>
      </trkpt>
      <trkpt lat="43.72415" lon="7.28703">
        <ele>38</ele>
        <time>2012-05-27T14:34:09Z</time>
      </trkpt>
      <trkpt lat="43.72407" lon="7.2872">
        <ele>37.7</ele>
        <time>2012-05-27T14:34:28Z</time>
      </trkpt>
      <trkpt lat="43.72408" lon="7.28738">
        <ele>37</ele>
        <time>2012-05-27T14:34:31Z</time>
      </trkpt>
      <trkpt lat="43.72406" lon="7.28751">
        <ele>36.4</ele>
        <time>2012-05-27T14:34:33Z</time>
      </trkpt>
      <trkpt lat="43.72403" lon="7.28763">
        <ele>35.8</ele>
        <time>2012-05-27T14:34:35Z</time>
      </trkpt>
      <trkpt lat="43.72399" lon="7.28773">
        <ele>35.3</ele>
        <time>2012-05-27T14:34:37Z</time>
      </trkpt>
      <trkpt lat="43.72388" lon="7.28787">
        <ele>34.5</ele>
        <time>2012-05-27T14:34:41Z</time>
      </trkpt>
      <trkpt lat="43.72376" lon="7.28792">
        <ele>34</ele>
        <time>2012-05-27T14:34:45Z</time>
      </trkpt>
      <trkpt lat="43.72361" lon="7.28794">
        <ele>34</ele>
        <time>2012-05-27T14:34:49Z</time>
      </trkpt>
      <trkpt lat="43.72344" lon="7.28795">
        <ele>34.2</ele>
        <time>2012-05-27T14:34:53Z</time>
      </trkpt>
      <trkpt lat="43.72329" lon="7.2879">
        <ele>34.5</ele>
        <time>2012-05-27T14:34:57Z</time>
      </trkpt>
      <trkpt lat="43.72318" lon="7.28782">
        <ele>35.1</ele>
        <time>2012-05-27T14:35:01Z</time>
      </trkpt>
      <trkpt lat="43.72309" lon="7.28779">
        <ele>35.4</ele>
        <time>2012-05-27T14:35:03Z</time>
      </trkpt>
      <trkpt lat="43.72295" lon="7.2878">
        <ele>35.7</ele>
        <time>2012-05-27T14:35:06Z</time>
      </trkpt>
      <trkpt lat="43.72285" lon="7.28782">
        <ele>35.5</ele>
        <time>2012-05-27T14:35:08Z</time>
      </trkpt>
      <trkpt lat="43.72276" lon="7.28786">
        <ele>34.8</ele>
        <time>2012-05-27T14:35:10Z</time>
      </trkpt>
      <trkpt lat="43.72267" lon="7.2879">
        <ele>34.1</ele>
        <time>2012-05-27T14:35:12Z</time>
      </trkpt>
      <trkpt lat="43.72258" lon="7.28789">
        <ele>33.5</ele>
        <time>2012-05-27T14:35:14Z</time>
      </trkpt>
      <trkpt lat="43.72249" lon="7.28783">
        <ele>33.1</ele>
        <time>2012-05-27T14:35:16Z</time>
      </trkpt>
      <trkpt lat="43.72226" lon="7.28762">
        <ele>32.7</ele>
        <time>2012-05-27T14:35:21Z</time>
      </trkpt>
      <trkpt lat="43.72213" lon="7.28749">
        <ele>32.5</ele>
        <time>2012-05-27T14:35:24Z</time>
      </trkpt>
      <trkpt lat="43.722" lon="7.28738">
        <ele>32.3</ele>
        <time>2012-05-27T14:35:27Z</time>
      </trkpt>
      <trkpt lat="43.72192" lon="7.28728">
        <ele>32.3</ele>
        <time>2012-05-27T14:35:29Z</time>
      </trkpt>
      <trkpt lat="43.72184" lon="7.28711">
        <ele>32.6</ele>
        <time>2012-05-27T14:35:32Z</time>
      </trkpt>
      <trkpt lat="43.72176" lon="7.28702">
        <ele>32.6</ele>
        <time>2012-05-27T14:35:34Z</time>
      </trkpt>
      <trkpt lat="43.72167" lon="7.28694">
        <ele>32.4</ele>
        <time>2012-05-27T14:35:36Z</time>
      </trkpt>
      <trkpt lat="43.7215" lon="7.28679">
        <ele>31.8</ele>
        <time>2012-05-27T14:35:40Z</time>
      </trkpt>
      <trkpt lat="43.72142" lon="7.28671">
        <ele>31.5</ele>
        <time>2012-05-27T14:35:42Z</time>
      </trkpt>
      <trkpt lat="43.72131" lon="7.28661">
        <ele>31</ele>
        <time>2012-05-27T14:35:45Z</time>
      </trkpt>
      <trkpt lat="43.72123" lon="7.28647">
        <ele>30.7</ele>
        <time>2012-05-27T14:35:48Z</time>
      </trkpt>
      <trkpt lat="43.72116" lon="7.28634">
        <ele>30.7</ele>
        <time>2012-05-27T14:35:51Z</time>
      </trkpt>
      <trkpt lat="43.72105" lon="7.28618">
        <ele>30.6</ele>
        <time>2012-05-27T14:35:55Z</time>
      </trkpt>
      <trkpt lat="43.72097" lon="7.28604">
        <ele>30.5</ele>
        <time>2012-05-27T14:35:58Z</time>
      </trkpt>
      <trkpt lat="43.72089" lon="7.28596">
        <ele>30.4</ele>
        <time>2012-05-27T14:36:00Z</time>
      </trkpt>
      <trkpt lat="43.72083" lon="7.28587">
        <ele>30.4</ele>
        <time>2012-05-27T14:36:02Z</time>
      </trkpt>
      <trkpt lat="43.72072" lon="7.28572">
        <ele>30.5</ele>
        <time>2012-05-27T14:36:05Z</time>
      </trkpt>
      <trkpt lat="43.72062" lon="7.28557">
        <ele>30.6</ele>
        <time>2012-05-27T14:36:08Z</time>
      </trkpt>
      <trkpt lat="43.72053" lon="7.28543">
        <ele>30.8</ele>
        <time>2012-05-27T14:36:11Z</time>
      </trkpt>
      <trkpt lat="43.72045" lon="7.28535">
        <ele>31</ele>
        <time>2012-05-27T14:36:13Z</time>
      </trkpt>
      <trkpt lat="43.72038" lon="7.28527">
        <ele>31.1</ele>
        <time>2012-05-27T14:36:15Z</time>
      </trkpt>
      <trkpt lat="43.72028" lon="7.28509">
        <ele>31</ele>
        <time>2012-05-27T14:36:19Z</time>
      </trkpt>
      <trkpt lat="43.72013" lon="7.28491">
        <ele>30.5</ele>
        <time>2012-05-27T14:36:23Z</time>
      </trkpt>
      <trkpt lat="43.72" lon="7.28473">
        <ele>29.8</ele>
        <time>2012-05-27T14:36:26Z</time>
      </trkpt>
      <trkpt lat="43.71991" lon="7.28463">
        <ele>29.1</ele>
        <time>2012-05-27T14:36:28Z</time>
      </trkpt>
      <trkpt lat="43.71982" lon="7.28451">
        <ele>28.5</ele>
        <time>2012-05-27T14:36:30Z</time>
      </trkpt>
      <trkpt lat="43.71964" lon="7.28429">
        <ele>27.9</ele>
        <time>2012-05-27T14:36:34Z</time>
      </trkpt>
      <trkpt lat="43.71946" lon="7.28406">
        <ele>27.9</ele>
        <time>2012-05-27T14:36:38Z</time>
      </trkpt>
      <trkpt lat="43.71941" lon="7.28403">
        <ele>27.9</ele>
        <time>2012-05-27T14:36:39Z</time>
      </trkpt>
      <trkpt lat="43.71924" lon="7.28377">
        <ele>27.9</ele>
        <time>2012-05-27T14:36:43Z</time>
      </trkpt>
      <trkpt lat="43.71914" lon="7.28361">
        <ele>27.6</ele>
        <time>2012-05-27T14:36:46Z</time>
      </trkpt>
      <trkpt lat="43.71897" lon="7.28335">
        <ele>26.9</ele>
        <time>2012-05-27T14:36:51Z</time>
      </trkpt>
      <trkpt lat="43.7188" lon="7.28313">
        <ele>26.2</ele>
        <time>2012-05-27T14:36:56Z</time>
      </trkpt>
      <trkpt lat="43.71874" lon="7.28304">
        <ele>25.9</ele>
        <time>2012-05-27T14:36:58Z</time>
      </trkpt>
      <trkpt lat="43.71867" lon="7.28295">
        <ele>25.7</ele>
        <time>2012-05-27T14:37:00Z</time>
      </trkpt>
      <trkpt lat="43.71861" lon="7.28286">
        <ele>25.8</ele>
        <time>2012-05-27T14:37:02Z</time>
      </trkpt>
      <trkpt lat="43.71839" lon="7.28262">
        <ele>26.6</ele>
        <time>2012-05-27T14:37:08Z</time>
      </trkpt>
      <trkpt lat="43.7183" lon="7.28254">
        <ele>26.9</ele>
        <time>2012-05-27T14:37:10Z</time>
      </trkpt>
      <trkpt lat="43.71822" lon="7.28246">
        <ele>27.1</ele>
        <time>2012-05-27T14:37:12Z</time>
      </trkpt>
      <trkpt lat="43.71809" lon="7.28235">
        <ele>27.5</ele>
        <time>2012-05-27T14:37:15Z</time>
      </trkpt>
      <trkpt lat="43.718" lon="7.28227">
        <ele>27.8</ele>
        <time>2012-05-27T14:37:17Z</time>
      </trkpt>
      <trkpt lat="43.71781" lon="7.28211">
        <ele>28.2</ele>
        <time>2012-05-27T14:37:21Z</time>
      </trkpt>
      <trkpt lat="43.71771" lon="7.28204">
        <ele>28.2</ele>
        <time>2012-05-27T14:37:23Z</time>
      </trkpt>
      <trkpt lat="43.7176" lon="7.28197">
        <ele>28.1</ele>
        <time>2012-05-27T14:37:25Z</time>
      </trkpt>
      <trkpt lat="43.71754" lon="7.28195">
        <ele>28.1</ele>
        <time>2012-05-27T14:37:26Z</time>
      </trkpt>
      <trkpt lat="43.71743" lon="7.28188">
        <ele>27.9</ele>
        <time>2012-05-27T14:37:28Z</time>
      </trkpt>
      <trkpt lat="43.71729" lon="7.28179">
        <ele>27.8</ele>
        <time>2012-05-27T14:37:31Z</time>
      </trkpt>
      <trkpt lat="43.71717" lon="7.28171">
        <ele>27.7</ele>
        <time>2012-05-27T14:37:34Z</time>
      </trkpt>
      <trkpt lat="43.7171" lon="7.28167">
        <ele>27.5</ele>
        <time>2012-05-27T14:37:36Z</time>
      </trkpt>
      <trkpt lat="43.71693" lon="7.28161">
        <ele>27.5</ele>
        <time>2012-05-27T14:37:46Z</time>
      </trkpt>
      <trkpt lat="43.71684" lon="7.28153">
        <ele>27.7</ele>
        <time>2012-05-27T14:38:14Z</time>
      </trkpt>
      <trkpt lat="43.7167" lon="7.28152">
        <ele>27.5</ele>
        <time>2012-05-27T14:38:18Z</time>
      </trkpt>
      <trkpt lat="43.71657" lon="7.2815">
        <ele>27.3</ele>
        <time>2012-05-27T14:38:21Z</time>
      </trkpt>
      <trkpt lat="43.71643" lon="7.28149">
        <ele>27</ele>
        <time>2012-05-27T14:38:24Z</time>
      </trkpt>
      <trkpt lat="43.71626" lon="7.28144">
        <ele>26.7</ele>
        <time>2012-05-27T14:38:27Z</time>
      </trkpt>
      <trkpt lat="43.71614" lon="7.28142">
        <ele>26.6</ele>
        <time>2012-05-27T14:38:29Z</time>
      </trkpt>
      <trkpt lat="43.71608" lon="7.28141">
        <ele>26.6</ele>
        <time>2012-05-27T14:38:30Z</time>
      </trkpt>
      <trkpt lat="43.71582" lon="7.28142">
        <ele>26.6</ele>
        <time>2012-05-27T14:38:34Z</time>
      </trkpt>
      <trkpt lat="43.71575" lon="7.28142">
        <ele>26.6</ele>
        <time>2012-05-27T14:38:35Z</time>
      </trkpt>
      <trkpt lat="43.71561" lon="7.28144">
        <ele>26.7</ele>
        <time>2012-05-27T14:38:37Z</time>
      </trkpt>
      <trkpt lat="43.71548" lon="7.28147">
        <ele>26.7</ele>
        <time>2012-05-27T14:38:39Z</time>
      </trkpt>
      <trkpt lat="43.71534" lon="7.2815">
        <ele>26.5</ele>
        <time>2012-05-27T14:38:41Z</time>
      </trkpt>
      <trkpt lat="43.71508" lon="7.28159">
        <ele>25.7</ele>
        <time>2012-05-27T14:38:44Z</time>
      </trkpt>
      <trkpt lat="43.7149" lon="7.28167">
        <ele>25</ele>
        <time>2012-05-27T14:38:46Z</time>
      </trkpt>
      <trkpt lat="43.71472" lon="7.28176">
        <ele>24.3</ele>
        <time>2012-05-27T14:38:48Z</time>
      </trkpt>
      <trkpt lat="43.71463" lon="7.28182">
        <ele>23.9</ele>
        <time>2012-05-27T14:38:49Z</time>
      </trkpt>
      <trkpt lat="43.71435" lon="7.28203">
        <ele>23.5</ele>
        <time>2012-05-27T14:38:53Z</time>
      </trkpt>
      <trkpt lat="43.71412" lon="7.28221">
        <ele>23.9</ele>
        <time>2012-05-27T14:38:57Z</time>
      </trkpt>
      <trkpt lat="43.71407" lon="7.28233">
        <ele>24.1</ele>
        <time>2012-05-27T14:38:59Z</time>
      </trkpt>
      <trkpt lat="43.71412" lon="7.28246">
        <ele>24.1</ele>
        <time>2012-05-27T14:39:01Z</time>
      </trkpt>
      <trkpt lat="43.71416" lon="7.28261">
        <ele>24</ele>
        <time>2012-05-27T14:39:03Z</time>
      </trkpt>
      <trkpt lat="43.71427" lon="7.28298">
        <ele>23.8</ele>
        <time>2012-05-27T14:39:08Z</time>
      </trkpt>
      <trkpt lat="43.71426" lon="7.28312">
        <ele>23.7</ele>
        <time>2012-05-27T14:39:12Z</time>
      </trkpt>
      <trkpt lat="43.71415" lon="7.2832">
        <ele>23.8</ele>
        <time>2012-05-27T14:39:14Z</time>
      </trkpt>
      <trkpt lat="43.71388" lon="7.28336">
        <ele>23.8</ele>
        <time>2012-05-27T14:39:18Z</time>
      </trkpt>
      <trkpt lat="43.71374" lon="7.28344">
        <ele>23.8</ele>
        <time>2012-05-27T14:39:20Z</time>
      </trkpt>
      <trkpt lat="43.71367" lon="7.28347">
        <ele>23.7</ele>
        <time>2012-05-27T14:39:21Z</time>
      </trkpt>
      <trkpt lat="43.71335" lon="7.28359">
        <ele>22.9</ele>
        <time>2012-05-27T14:39:25Z</time>
      </trkpt>
      <trkpt lat="43.7132" lon="7.28365">
        <ele>22.4</ele>
        <time>2012-05-27T14:39:27Z</time>
      </trkpt>
      <trkpt lat="43.71288" lon="7.28375">
        <ele>21.3</ele>
        <time>2012-05-27T14:39:31Z</time>
      </trkpt>
      <trkpt lat="43.71264" lon="7.28384">
        <ele>21</ele>
        <time>2012-05-27T14:39:34Z</time>
      </trkpt>
      <trkpt lat="43.71247" lon="7.28388">
        <ele>20.9</ele>
        <time>2012-05-27T14:39:36Z</time>
      </trkpt>
      <trkpt lat="43.71216" lon="7.28394">
        <ele>20.6</ele>
        <time>2012-05-27T14:39:40Z</time>
      </trkpt>
      <trkpt lat="43.71209" lon="7.28394">
        <ele>20.5</ele>
        <time>2012-05-27T14:39:41Z</time>
      </trkpt>
      <trkpt lat="43.71197" lon="7.28394">
        <ele>20.2</ele>
        <time>2012-05-27T14:39:43Z</time>
      </trkpt>
      <trkpt lat="43.71175" lon="7.28396">
        <ele>19.5</ele>
        <time>2012-05-27T14:39:47Z</time>
      </trkpt>
      <trkpt lat="43.71168" lon="7.28397">
        <ele>19.3</ele>
        <time>2012-05-27T14:39:48Z</time>
      </trkpt>
      <trkpt lat="43.71155" lon="7.28397">
        <ele>18.8</ele>
        <time>2012-05-27T14:39:50Z</time>
      </trkpt>
      <trkpt lat="43.71144" lon="7.28396">
        <ele>18.4</ele>
        <time>2012-05-27T14:39:52Z</time>
      </trkpt>
      <trkpt lat="43.71136" lon="7.28396">
        <ele>18.1</ele>
        <time>2012-05-27T14:39:54Z</time>
      </trkpt>
      <trkpt lat="43.7115" lon="7.28401">
        <ele>18.3</ele>
        <time>2012-05-27T14:40:01Z</time>
      </trkpt>
      <trkpt lat="43.71164" lon="7.28401">
        <ele>18.8</ele>
        <time>2012-05-27T14:40:05Z</time>
      </trkpt>
      <trkpt lat="43.71169" lon="7.28405">
        <ele>19.1</ele>
        <time>2012-05-27T14:40:07Z</time>
      </trkpt>
      <trkpt lat="43.71166" lon="7.28418">
        <ele>19.5</ele>
        <time>2012-05-27T14:40:12Z</time>
      </trkpt>
      <trkpt lat="43.71153" lon="7.28411">
        <ele>19.1</ele>
        <time>2012-05-27T14:40:15Z</time>
      </trkpt>
      <trkpt lat="43.71123" lon="7.28409">
        <ele>18</ele>
        <time>2012-05-27T14:40:20Z</time>
      </trkpt>
      <trkpt lat="43.71108" lon="7.28408">
        <ele>17.9</ele>
        <time>2012-05-27T14:40:22Z</time>
      </trkpt>
      <trkpt lat="43.71083" lon="7.28406">
        <ele>17.8</ele>
        <time>2012-05-27T14:40:25Z</time>
      </trkpt>
      <trkpt lat="43.69628" lon="7.26973">
        <ele>11.8</ele>
        <time>2012-05-27T14:44:03Z</time>
      </trkpt>
      <trkpt lat="43.69632" lon="7.26955">
        <ele>10.7</ele>
        <time>2012-05-27T14:44:05Z</time>
      </trkpt>
      <trkpt lat="43.69628" lon="7.26941">
        <ele>10.2</ele>
        <time>2012-05-27T14:44:07Z</time>
      </trkpt>
      <trkpt lat="43.69624" lon="7.26927">
        <ele>9.8</ele>
        <time>2012-05-27T14:44:09Z</time>
      </trkpt>
      <trkpt lat="43.69619" lon="7.26913">
        <ele>9.3</ele>
        <time>2012-05-27T14:44:11Z</time>
      </trkpt>
      <trkpt lat="43.6961" lon="7.26905">
        <ele>8.7</ele>
        <time>2012-05-27T14:44:13Z</time>
      </trkpt>
      <trkpt lat="43.69599" lon="7.26902">
        <ele>8</ele>
        <time>2012-05-27T14:44:15Z</time>
      </trkpt>
      <trkpt lat="43.69587" lon="7.26902">
        <ele>7.2</ele>
        <time>2012-05-27T14:44:17Z</time>
      </trkpt>
      <trkpt lat="43.69581" lon="7.26902">
        <ele>6.8</ele>
        <time>2012-05-27T14:44:18Z</time>
      </trkpt>
      <trkpt lat="43.69569" lon="7.26904">
        <ele>6</ele>
        <time>2012-05-27T14:44:20Z</time>
      </trkpt>
      <trkpt lat="43.69542" lon="7.26908">
        <ele>4.3</ele>
        <time>2012-05-27T14:44:24Z</time>
      </trkpt>
      <trkpt lat="43.69529" lon="7.26905">
        <ele>3.4</ele>
        <time>2012-05-27T14:44:26Z</time>
      </trkpt>
      <trkpt lat="43.69522" lon="7.26892">
        <ele>2.6</ele>
        <time>2012-05-27T14:44:28Z</time>
      </trkpt>
      <trkpt lat="43.6952" lon="7.26882">
        <ele>2.2</ele>
        <time>2012-05-27T14:44:29Z</time>
      </trkpt>
      <trkpt lat="43.69519" lon="7.26861">
        <ele>2</ele>
        <time>2012-05-27T14:44:31Z</time>
      </trkpt>
      <trkpt lat="43.69517" lon="7.26825">
        <ele>2.5</ele>
        <time>2012-05-27T14:44:34Z</time>
      </trkpt>
      <trkpt lat="43.69515" lon="7.26781">
        <ele>3.6</ele>
        <time>2012-05-27T14:44:38Z</time>
      </trkpt>
      <trkpt lat="43.69515" lon="7.26769">
        <ele>4.1</ele>
        <time>2012-05-27T14:44:41Z</time>
      </trkpt>
      <trkpt lat="43.69514" lon="7.26756">
        <ele>4.6</ele>
        <time>2012-05-27T14:48:20Z</time>
      </trkpt>
      <trkpt lat="43.69526" lon="7.26742">
        <ele>5.3</ele>
        <time>2012-05-27T14:49:02Z</time>
      </trkpt>
      <trkpt lat="43.69533" lon="7.26735">
        <ele>5.7</ele>
        <time>2012-05-27T14:49:10Z</time>
      </trkpt>
      <trkpt lat="43.69541" lon="7.26729">
        <ele>6.2</ele>
        <time>2012-05-27T14:49:31Z</time>
      </trkpt>
      <trkpt lat="43.69557" lon="7.26727">
        <ele>7</ele>
        <time>2012-05-27T14:51:43Z</time>
      </trkpt>
      <trkpt lat="43.69565" lon="7.26721">
        <ele>7.6</ele>
        <time>2012-05-27T14:53:10Z</time>
      </trkpt>
      <trkpt lat="43.69556" lon="7.26722">
        <ele>7.2</ele>
        <time>2012-05-27T14:54:30Z</time>
      </trkpt>
      <trkpt lat="43.69546" lon="7.26721">
        <ele>6.8</ele>
        <time>2012-05-27T14:55:32Z</time>
      </trkpt>
      <trkpt lat="43.69534" lon="7.26708">
        <ele>6.7</ele>
        <time>2012-05-27T14:55:50Z</time>
      </trkpt>
      <trkpt lat="43.69523" lon="7.26693">
        <ele>6.8</ele>
        <time>2012-05-27T14:56:14Z</time>
      </trkpt>
      <trkpt lat="43.69518" lon="7.26669">
        <ele>7.2</ele>
        <time>2012-05-27T14:56:30Z</time>
      </trkpt>
      <trkpt lat="43.69511" lon="7.26661">
        <ele>6.9</ele>
        <time>2012-05-27T14:57:01Z</time>
      </trkpt>
      <trkpt lat="43.69509" lon="7.26649">
        <ele>6.9</ele>
        <time>2012-05-27T15:00:11Z</time>
      </trkpt>
      <trkpt lat="43.695" lon="7.26639">
        <ele>6.3</ele>
        <time>2012-05-27T15:09:53Z</time>
      </trkpt>
      <trkpt lat="43.69509" lon="7.2664">
        <ele>7.1</ele>
        <time>2012-05-27T15:14:47Z</time>
      </trkpt>
      <trkpt lat="43.695" lon="7.2664">
        <ele>6.3</ele>
        <time>2012-05-27T15:18:05Z</time>
      </trkpt>
      <trkpt lat="43.69492" lon="7.26644">
        <ele>5.5</ele>
        <time>2012-05-27T15:19:35Z</time>
      </trkpt>
      <trkpt lat="43.69501" lon="7.26644">
        <ele>6.3</ele>
        <time>2012-05-27T15:21:17Z</time>
      </trkpt>
      <trkpt lat="43.69509" lon="7.26649">
        <ele>6.9</ele>
        <time>2012-05-27T15:23:38Z</time>
      </trkpt>
      <trkpt lat="43.695" lon="7.26649">
        <ele>6.2</ele>
        <time>2012-05-27T15:24:47Z</time>
      </trkpt>
      <trkpt lat="43.69506" lon="7.2664">
        <ele>6.8</ele>
        <time>2012-05-27T15:28:44Z</time>
      </trkpt>
      <trkpt lat="43.69497" lon="7.26637">
        <ele>6</ele>
        <time>2012-05-27T15:30:22Z</time>
      </trkpt>
      <trkpt lat="43.69489" lon="7.26632">
        <ele>5.3</ele>
        <time>2012-05-27T15:34:55Z</time>
      </trkpt>
    </trkseg>
  </trk>
</gpx>